<?xml version="1.0" encoding="UTF-8" standalone="no" ?>
<gpx xmlns="http://www.topografix.com/GPX/1/1" xmlns:xsi="http://www.w3.org/2001/XMLSchema-instance" xsi:schemaLocation="http://www.topografix.com/GPX/1/1 http://www.topografix.com/GPX/1/1/gpx.xsd" version="1.1" creator="VisuGPX - https://www.visugpx.com">
  <metadata>
    <name>Monetier Col du Lautaret Col d'Arsine 18 08 20</name>
    <desc><![CDATA[Monetier Col du Lautaret Col d'Arsine fait le 18 08 20]]></desc>
  </metadata>
  <trk>
    <name><![CDATA[Monetier Col du Lautaret Col d'Arsine 18 08 20]]></name>
    <trkseg>
      <trkpt lat="44.98006" lon="6.49781">
        <ele>1501</ele>
        <time>2020-08-18T06:21:25Z</time>
      </trkpt>
      <trkpt lat="44.98006" lon="6.49781">
        <ele>1501</ele>
        <time>2020-08-18T06:21:26Z</time>
      </trkpt>
      <trkpt lat="44.98001" lon="6.49792">
        <ele>1501.4</ele>
        <time>2020-08-18T06:33:29Z</time>
      </trkpt>
      <trkpt lat="44.97992" lon="6.49797">
        <ele>1501.3</ele>
        <time>2020-08-18T06:34:40Z</time>
      </trkpt>
      <trkpt lat="44.97987" lon="6.49808">
        <ele>1501.3</ele>
        <time>2020-08-18T06:34:48Z</time>
      </trkpt>
      <trkpt lat="44.97989" lon="6.49794">
        <ele>1501.3</ele>
        <time>2020-08-18T06:36:19Z</time>
      </trkpt>
      <trkpt lat="44.9798" lon="6.49796">
        <ele>1501.3</ele>
        <time>2020-08-18T06:36:35Z</time>
      </trkpt>
      <trkpt lat="44.97972" lon="6.49791">
        <ele>1501.1</ele>
        <time>2020-08-18T06:36:43Z</time>
      </trkpt>
      <trkpt lat="44.97971" lon="6.49778">
        <ele>1499.5</ele>
        <time>2020-08-18T06:41:16Z</time>
      </trkpt>
      <trkpt lat="44.97972" lon="6.49765">
        <ele>1498.7</ele>
        <time>2020-08-18T06:41:50Z</time>
      </trkpt>
      <trkpt lat="44.9798" lon="6.49758">
        <ele>1498.5</ele>
        <time>2020-08-18T06:42:34Z</time>
      </trkpt>
      <trkpt lat="44.97971" lon="6.49763">
        <ele>1498.5</ele>
        <time>2020-08-18T06:43:30Z</time>
      </trkpt>
      <trkpt lat="44.97962" lon="6.4976">
        <ele>1498.5</ele>
        <time>2020-08-18T06:43:37Z</time>
      </trkpt>
      <trkpt lat="44.97954" lon="6.49752">
        <ele>1498.3</ele>
        <time>2020-08-18T06:43:45Z</time>
      </trkpt>
      <trkpt lat="44.97945" lon="6.49756">
        <ele>1497.2</ele>
        <time>2020-08-18T06:44:19Z</time>
      </trkpt>
      <trkpt lat="44.97951" lon="6.49766">
        <ele>1497</ele>
        <time>2020-08-18T06:46:09Z</time>
      </trkpt>
      <trkpt lat="44.97954" lon="6.49754">
        <ele>1498.8</ele>
        <time>2020-08-18T06:53:06Z</time>
      </trkpt>
      <trkpt lat="44.97949" lon="6.49743">
        <ele>1498.3</ele>
        <time>2020-08-18T06:53:14Z</time>
      </trkpt>
      <trkpt lat="44.97941" lon="6.49734">
        <ele>1497.8</ele>
        <time>2020-08-18T06:53:22Z</time>
      </trkpt>
      <trkpt lat="44.97936" lon="6.49723">
        <ele>1497.1</ele>
        <time>2020-08-18T06:53:30Z</time>
      </trkpt>
      <trkpt lat="44.97933" lon="6.49709">
        <ele>1496.3</ele>
        <time>2020-08-18T06:53:38Z</time>
      </trkpt>
      <trkpt lat="44.97932" lon="6.49695">
        <ele>1495.5</ele>
        <time>2020-08-18T06:53:46Z</time>
      </trkpt>
      <trkpt lat="44.97932" lon="6.4968">
        <ele>1494.7</ele>
        <time>2020-08-18T06:53:54Z</time>
      </trkpt>
      <trkpt lat="44.9793" lon="6.49667">
        <ele>1494</ele>
        <time>2020-08-18T06:54:02Z</time>
      </trkpt>
      <trkpt lat="44.97927" lon="6.49653">
        <ele>1493.1</ele>
        <time>2020-08-18T06:54:11Z</time>
      </trkpt>
      <trkpt lat="44.97918" lon="6.4965">
        <ele>1492.4</ele>
        <time>2020-08-18T06:54:20Z</time>
      </trkpt>
      <trkpt lat="44.97908" lon="6.49648">
        <ele>1491.8</ele>
        <time>2020-08-18T06:54:28Z</time>
      </trkpt>
      <trkpt lat="44.97899" lon="6.4965">
        <ele>1491.5</ele>
        <time>2020-08-18T06:54:36Z</time>
      </trkpt>
      <trkpt lat="44.97889" lon="6.49653">
        <ele>1491.1</ele>
        <time>2020-08-18T06:54:44Z</time>
      </trkpt>
      <trkpt lat="44.9788" lon="6.49658">
        <ele>1490.7</ele>
        <time>2020-08-18T06:54:52Z</time>
      </trkpt>
      <trkpt lat="44.97871" lon="6.4966">
        <ele>1490.5</ele>
        <time>2020-08-18T06:54:59Z</time>
      </trkpt>
      <trkpt lat="44.97861" lon="6.49662">
        <ele>1490.2</ele>
        <time>2020-08-18T06:55:07Z</time>
      </trkpt>
      <trkpt lat="44.97852" lon="6.49662">
        <ele>1489.9</ele>
        <time>2020-08-18T06:55:15Z</time>
      </trkpt>
      <trkpt lat="44.97841" lon="6.49659">
        <ele>1488.7</ele>
        <time>2020-08-18T06:56:07Z</time>
      </trkpt>
      <trkpt lat="44.97834" lon="6.4965">
        <ele>1488.7</ele>
        <time>2020-08-18T06:56:16Z</time>
      </trkpt>
      <trkpt lat="44.97834" lon="6.49636">
        <ele>1488.7</ele>
        <time>2020-08-18T06:56:24Z</time>
      </trkpt>
      <trkpt lat="44.97843" lon="6.49629">
        <ele>1488.6</ele>
        <time>2020-08-18T06:56:51Z</time>
      </trkpt>
      <trkpt lat="44.9785" lon="6.4962">
        <ele>1488.6</ele>
        <time>2020-08-18T06:56:57Z</time>
      </trkpt>
      <trkpt lat="44.97854" lon="6.49608">
        <ele>1488.6</ele>
        <time>2020-08-18T06:57:04Z</time>
      </trkpt>
      <trkpt lat="44.97858" lon="6.49596">
        <ele>1488.6</ele>
        <time>2020-08-18T06:57:12Z</time>
      </trkpt>
      <trkpt lat="44.97861" lon="6.49583">
        <ele>1488.6</ele>
        <time>2020-08-18T06:57:20Z</time>
      </trkpt>
      <trkpt lat="44.97864" lon="6.4957">
        <ele>1488.6</ele>
        <time>2020-08-18T06:57:28Z</time>
      </trkpt>
      <trkpt lat="44.97867" lon="6.49558">
        <ele>1488.6</ele>
        <time>2020-08-18T06:57:36Z</time>
      </trkpt>
      <trkpt lat="44.97873" lon="6.49547">
        <ele>1488.6</ele>
        <time>2020-08-18T06:57:44Z</time>
      </trkpt>
      <trkpt lat="44.97878" lon="6.49536">
        <ele>1488.6</ele>
        <time>2020-08-18T06:57:52Z</time>
      </trkpt>
      <trkpt lat="44.97885" lon="6.49527">
        <ele>1488.6</ele>
        <time>2020-08-18T06:58:01Z</time>
      </trkpt>
      <trkpt lat="44.9789" lon="6.49516">
        <ele>1488.6</ele>
        <time>2020-08-18T06:58:09Z</time>
      </trkpt>
      <trkpt lat="44.97894" lon="6.49503">
        <ele>1488.7</ele>
        <time>2020-08-18T06:58:28Z</time>
      </trkpt>
      <trkpt lat="44.97896" lon="6.49489">
        <ele>1488.8</ele>
        <time>2020-08-18T06:58:36Z</time>
      </trkpt>
      <trkpt lat="44.97899" lon="6.49477">
        <ele>1488.9</ele>
        <time>2020-08-18T06:58:43Z</time>
      </trkpt>
      <trkpt lat="44.97902" lon="6.49465">
        <ele>1489.1</ele>
        <time>2020-08-18T06:58:51Z</time>
      </trkpt>
      <trkpt lat="44.97906" lon="6.49452">
        <ele>1489.5</ele>
        <time>2020-08-18T06:59:00Z</time>
      </trkpt>
      <trkpt lat="44.9791" lon="6.49439">
        <ele>1489.6</ele>
        <time>2020-08-18T06:59:08Z</time>
      </trkpt>
      <trkpt lat="44.97914" lon="6.49426">
        <ele>1489.8</ele>
        <time>2020-08-18T06:59:16Z</time>
      </trkpt>
      <trkpt lat="44.97918" lon="6.49413">
        <ele>1489.9</ele>
        <time>2020-08-18T06:59:24Z</time>
      </trkpt>
      <trkpt lat="44.97922" lon="6.49401">
        <ele>1490.1</ele>
        <time>2020-08-18T06:59:31Z</time>
      </trkpt>
      <trkpt lat="44.97927" lon="6.49391">
        <ele>1490.2</ele>
        <time>2020-08-18T06:59:38Z</time>
      </trkpt>
      <trkpt lat="44.97932" lon="6.49379">
        <ele>1490.3</ele>
        <time>2020-08-18T06:59:45Z</time>
      </trkpt>
      <trkpt lat="44.97937" lon="6.49368">
        <ele>1490.4</ele>
        <time>2020-08-18T06:59:53Z</time>
      </trkpt>
      <trkpt lat="44.97943" lon="6.49358">
        <ele>1490.6</ele>
        <time>2020-08-18T07:00:01Z</time>
      </trkpt>
      <trkpt lat="44.97948" lon="6.49347">
        <ele>1490.9</ele>
        <time>2020-08-18T07:00:09Z</time>
      </trkpt>
      <trkpt lat="44.97953" lon="6.49335">
        <ele>1491.1</ele>
        <time>2020-08-18T07:00:17Z</time>
      </trkpt>
      <trkpt lat="44.97958" lon="6.49323">
        <ele>1491.2</ele>
        <time>2020-08-18T07:00:24Z</time>
      </trkpt>
      <trkpt lat="44.97963" lon="6.49312">
        <ele>1491.3</ele>
        <time>2020-08-18T07:00:31Z</time>
      </trkpt>
      <trkpt lat="44.97968" lon="6.49301">
        <ele>1491.5</ele>
        <time>2020-08-18T07:00:39Z</time>
      </trkpt>
      <trkpt lat="44.97973" lon="6.49289">
        <ele>1491.7</ele>
        <time>2020-08-18T07:00:47Z</time>
      </trkpt>
      <trkpt lat="44.97977" lon="6.49277">
        <ele>1491.9</ele>
        <time>2020-08-18T07:00:54Z</time>
      </trkpt>
      <trkpt lat="44.97981" lon="6.49265">
        <ele>1492.1</ele>
        <time>2020-08-18T07:01:01Z</time>
      </trkpt>
      <trkpt lat="44.97986" lon="6.49252">
        <ele>1492.2</ele>
        <time>2020-08-18T07:01:09Z</time>
      </trkpt>
      <trkpt lat="44.97991" lon="6.4924">
        <ele>1492.3</ele>
        <time>2020-08-18T07:01:17Z</time>
      </trkpt>
      <trkpt lat="44.97997" lon="6.49229">
        <ele>1492.4</ele>
        <time>2020-08-18T07:01:24Z</time>
      </trkpt>
      <trkpt lat="44.98004" lon="6.4922">
        <ele>1492.5</ele>
        <time>2020-08-18T07:01:31Z</time>
      </trkpt>
      <trkpt lat="44.9801" lon="6.49211">
        <ele>1492.6</ele>
        <time>2020-08-18T07:01:38Z</time>
      </trkpt>
      <trkpt lat="44.98018" lon="6.49202">
        <ele>1492.7</ele>
        <time>2020-08-18T07:01:45Z</time>
      </trkpt>
      <trkpt lat="44.98024" lon="6.49193">
        <ele>1492.9</ele>
        <time>2020-08-18T07:01:52Z</time>
      </trkpt>
      <trkpt lat="44.98028" lon="6.49181">
        <ele>1493</ele>
        <time>2020-08-18T07:01:59Z</time>
      </trkpt>
      <trkpt lat="44.98032" lon="6.49169">
        <ele>1493.1</ele>
        <time>2020-08-18T07:02:07Z</time>
      </trkpt>
      <trkpt lat="44.98035" lon="6.49157">
        <ele>1493.3</ele>
        <time>2020-08-18T07:02:14Z</time>
      </trkpt>
      <trkpt lat="44.98037" lon="6.49143">
        <ele>1493.5</ele>
        <time>2020-08-18T07:02:21Z</time>
      </trkpt>
      <trkpt lat="44.9804" lon="6.49129">
        <ele>1493.7</ele>
        <time>2020-08-18T07:02:29Z</time>
      </trkpt>
      <trkpt lat="44.98041" lon="6.49116">
        <ele>1493.9</ele>
        <time>2020-08-18T07:02:36Z</time>
      </trkpt>
      <trkpt lat="44.98041" lon="6.49103">
        <ele>1494.1</ele>
        <time>2020-08-18T07:02:43Z</time>
      </trkpt>
      <trkpt lat="44.98041" lon="6.49089">
        <ele>1494.2</ele>
        <time>2020-08-18T07:02:50Z</time>
      </trkpt>
      <trkpt lat="44.98041" lon="6.49075">
        <ele>1494.3</ele>
        <time>2020-08-18T07:02:58Z</time>
      </trkpt>
      <trkpt lat="44.98041" lon="6.49062">
        <ele>1494.6</ele>
        <time>2020-08-18T07:03:06Z</time>
      </trkpt>
      <trkpt lat="44.98044" lon="6.49049">
        <ele>1495</ele>
        <time>2020-08-18T07:03:15Z</time>
      </trkpt>
      <trkpt lat="44.98048" lon="6.49038">
        <ele>1495.4</ele>
        <time>2020-08-18T07:03:24Z</time>
      </trkpt>
      <trkpt lat="44.98055" lon="6.49028">
        <ele>1495.8</ele>
        <time>2020-08-18T07:03:32Z</time>
      </trkpt>
      <trkpt lat="44.98062" lon="6.49018">
        <ele>1496.5</ele>
        <time>2020-08-18T07:03:40Z</time>
      </trkpt>
      <trkpt lat="44.98069" lon="6.49008">
        <ele>1497.1</ele>
        <time>2020-08-18T07:03:48Z</time>
      </trkpt>
      <trkpt lat="44.98077" lon="6.49">
        <ele>1497.5</ele>
        <time>2020-08-18T07:03:55Z</time>
      </trkpt>
      <trkpt lat="44.98086" lon="6.48993">
        <ele>1497.7</ele>
        <time>2020-08-18T07:04:02Z</time>
      </trkpt>
      <trkpt lat="44.98094" lon="6.48986">
        <ele>1498</ele>
        <time>2020-08-18T07:04:08Z</time>
      </trkpt>
      <trkpt lat="44.98103" lon="6.4898">
        <ele>1498.2</ele>
        <time>2020-08-18T07:04:15Z</time>
      </trkpt>
      <trkpt lat="44.98111" lon="6.48973">
        <ele>1498.5</ele>
        <time>2020-08-18T07:04:22Z</time>
      </trkpt>
      <trkpt lat="44.9812" lon="6.48967">
        <ele>1498.6</ele>
        <time>2020-08-18T07:04:29Z</time>
      </trkpt>
      <trkpt lat="44.98128" lon="6.48962">
        <ele>1498.7</ele>
        <time>2020-08-18T07:04:36Z</time>
      </trkpt>
      <trkpt lat="44.98137" lon="6.48958">
        <ele>1498.9</ele>
        <time>2020-08-18T07:04:43Z</time>
      </trkpt>
      <trkpt lat="44.98146" lon="6.48954">
        <ele>1499</ele>
        <time>2020-08-18T07:04:50Z</time>
      </trkpt>
      <trkpt lat="44.98155" lon="6.48948">
        <ele>1499.3</ele>
        <time>2020-08-18T07:04:57Z</time>
      </trkpt>
      <trkpt lat="44.98162" lon="6.48941">
        <ele>1499.5</ele>
        <time>2020-08-18T07:05:04Z</time>
      </trkpt>
      <trkpt lat="44.9817" lon="6.48932">
        <ele>1499.6</ele>
        <time>2020-08-18T07:05:13Z</time>
      </trkpt>
      <trkpt lat="44.98176" lon="6.48921">
        <ele>1499.9</ele>
        <time>2020-08-18T07:05:21Z</time>
      </trkpt>
      <trkpt lat="44.98181" lon="6.4891">
        <ele>1500.3</ele>
        <time>2020-08-18T07:05:29Z</time>
      </trkpt>
      <trkpt lat="44.98186" lon="6.48899">
        <ele>1500.7</ele>
        <time>2020-08-18T07:05:36Z</time>
      </trkpt>
      <trkpt lat="44.98192" lon="6.48889">
        <ele>1500.9</ele>
        <time>2020-08-18T07:05:41Z</time>
      </trkpt>
      <trkpt lat="44.98197" lon="6.48877">
        <ele>1501.2</ele>
        <time>2020-08-18T07:05:48Z</time>
      </trkpt>
      <trkpt lat="44.98202" lon="6.48864">
        <ele>1501.3</ele>
        <time>2020-08-18T07:05:55Z</time>
      </trkpt>
      <trkpt lat="44.98205" lon="6.48852">
        <ele>1501.5</ele>
        <time>2020-08-18T07:06:02Z</time>
      </trkpt>
      <trkpt lat="44.98206" lon="6.48838">
        <ele>1501.7</ele>
        <time>2020-08-18T07:06:10Z</time>
      </trkpt>
      <trkpt lat="44.98209" lon="6.48826">
        <ele>1502</ele>
        <time>2020-08-18T07:06:18Z</time>
      </trkpt>
      <trkpt lat="44.98213" lon="6.48813">
        <ele>1502.2</ele>
        <time>2020-08-18T07:06:25Z</time>
      </trkpt>
      <trkpt lat="44.98217" lon="6.48801">
        <ele>1502.4</ele>
        <time>2020-08-18T07:06:32Z</time>
      </trkpt>
      <trkpt lat="44.98221" lon="6.48789">
        <ele>1502.7</ele>
        <time>2020-08-18T07:06:39Z</time>
      </trkpt>
      <trkpt lat="44.98224" lon="6.48776">
        <ele>1502.8</ele>
        <time>2020-08-18T07:06:46Z</time>
      </trkpt>
      <trkpt lat="44.98228" lon="6.48764">
        <ele>1502.9</ele>
        <time>2020-08-18T07:06:53Z</time>
      </trkpt>
      <trkpt lat="44.98233" lon="6.48752">
        <ele>1503</ele>
        <time>2020-08-18T07:07:00Z</time>
      </trkpt>
      <trkpt lat="44.98238" lon="6.48741">
        <ele>1503</ele>
        <time>2020-08-18T07:07:07Z</time>
      </trkpt>
      <trkpt lat="44.98244" lon="6.4873">
        <ele>1503.1</ele>
        <time>2020-08-18T07:07:14Z</time>
      </trkpt>
      <trkpt lat="44.9825" lon="6.48718">
        <ele>1503.1</ele>
        <time>2020-08-18T07:07:22Z</time>
      </trkpt>
      <trkpt lat="44.98256" lon="6.48708">
        <ele>1503.1</ele>
        <time>2020-08-18T07:07:29Z</time>
      </trkpt>
      <trkpt lat="44.98262" lon="6.48696">
        <ele>1503.1</ele>
        <time>2020-08-18T07:07:37Z</time>
      </trkpt>
      <trkpt lat="44.98268" lon="6.48686">
        <ele>1503.1</ele>
        <time>2020-08-18T07:07:44Z</time>
      </trkpt>
      <trkpt lat="44.98273" lon="6.48676">
        <ele>1503.1</ele>
        <time>2020-08-18T07:07:51Z</time>
      </trkpt>
      <trkpt lat="44.98279" lon="6.48665">
        <ele>1503.2</ele>
        <time>2020-08-18T07:07:58Z</time>
      </trkpt>
      <trkpt lat="44.98281" lon="6.48652">
        <ele>1503.3</ele>
        <time>2020-08-18T07:08:04Z</time>
      </trkpt>
      <trkpt lat="44.98283" lon="6.48639">
        <ele>1503.5</ele>
        <time>2020-08-18T07:08:11Z</time>
      </trkpt>
      <trkpt lat="44.98286" lon="6.48627">
        <ele>1503.9</ele>
        <time>2020-08-18T07:08:18Z</time>
      </trkpt>
      <trkpt lat="44.98285" lon="6.48614">
        <ele>1504.1</ele>
        <time>2020-08-18T07:08:26Z</time>
      </trkpt>
      <trkpt lat="44.98283" lon="6.48601">
        <ele>1504.5</ele>
        <time>2020-08-18T07:08:35Z</time>
      </trkpt>
      <trkpt lat="44.98281" lon="6.48587">
        <ele>1504.9</ele>
        <time>2020-08-18T07:08:44Z</time>
      </trkpt>
      <trkpt lat="44.98283" lon="6.48574">
        <ele>1505.3</ele>
        <time>2020-08-18T07:08:51Z</time>
      </trkpt>
      <trkpt lat="44.98285" lon="6.48561">
        <ele>1505.8</ele>
        <time>2020-08-18T07:08:59Z</time>
      </trkpt>
      <trkpt lat="44.98291" lon="6.4855">
        <ele>1506.1</ele>
        <time>2020-08-18T07:09:07Z</time>
      </trkpt>
      <trkpt lat="44.98299" lon="6.4854">
        <ele>1506.2</ele>
        <time>2020-08-18T07:09:15Z</time>
      </trkpt>
      <trkpt lat="44.98307" lon="6.48534">
        <ele>1506.3</ele>
        <time>2020-08-18T07:09:22Z</time>
      </trkpt>
      <trkpt lat="44.98315" lon="6.48527">
        <ele>1506.4</ele>
        <time>2020-08-18T07:09:30Z</time>
      </trkpt>
      <trkpt lat="44.98322" lon="6.48518">
        <ele>1506.4</ele>
        <time>2020-08-18T07:09:38Z</time>
      </trkpt>
      <trkpt lat="44.98325" lon="6.48505">
        <ele>1506.5</ele>
        <time>2020-08-18T07:09:46Z</time>
      </trkpt>
      <trkpt lat="44.98332" lon="6.48494">
        <ele>1506.6</ele>
        <time>2020-08-18T07:09:54Z</time>
      </trkpt>
      <trkpt lat="44.98338" lon="6.48483">
        <ele>1506.7</ele>
        <time>2020-08-18T07:10:01Z</time>
      </trkpt>
      <trkpt lat="44.98341" lon="6.48469">
        <ele>1506.9</ele>
        <time>2020-08-18T07:10:09Z</time>
      </trkpt>
      <trkpt lat="44.98345" lon="6.48456">
        <ele>1507.1</ele>
        <time>2020-08-18T07:10:17Z</time>
      </trkpt>
      <trkpt lat="44.98351" lon="6.48444">
        <ele>1507.4</ele>
        <time>2020-08-18T07:10:25Z</time>
      </trkpt>
      <trkpt lat="44.98358" lon="6.48435">
        <ele>1507.9</ele>
        <time>2020-08-18T07:10:33Z</time>
      </trkpt>
      <trkpt lat="44.98366" lon="6.48426">
        <ele>1508.5</ele>
        <time>2020-08-18T07:10:41Z</time>
      </trkpt>
      <trkpt lat="44.98373" lon="6.48418">
        <ele>1509.9</ele>
        <time>2020-08-18T07:11:16Z</time>
      </trkpt>
      <trkpt lat="44.98382" lon="6.48411">
        <ele>1510.6</ele>
        <time>2020-08-18T07:11:49Z</time>
      </trkpt>
      <trkpt lat="44.98387" lon="6.484">
        <ele>1510.8</ele>
        <time>2020-08-18T07:11:56Z</time>
      </trkpt>
      <trkpt lat="44.98391" lon="6.48388">
        <ele>1511.1</ele>
        <time>2020-08-18T07:12:03Z</time>
      </trkpt>
      <trkpt lat="44.98397" lon="6.48376">
        <ele>1511.7</ele>
        <time>2020-08-18T07:12:11Z</time>
      </trkpt>
      <trkpt lat="44.98407" lon="6.48372">
        <ele>1512.5</ele>
        <time>2020-08-18T07:12:19Z</time>
      </trkpt>
      <trkpt lat="44.98416" lon="6.48366">
        <ele>1513.1</ele>
        <time>2020-08-18T07:12:27Z</time>
      </trkpt>
      <trkpt lat="44.98426" lon="6.48362">
        <ele>1513.4</ele>
        <time>2020-08-18T07:12:34Z</time>
      </trkpt>
      <trkpt lat="44.98435" lon="6.48357">
        <ele>1513.5</ele>
        <time>2020-08-18T07:12:39Z</time>
      </trkpt>
      <trkpt lat="44.98444" lon="6.48353">
        <ele>1513.7</ele>
        <time>2020-08-18T07:12:45Z</time>
      </trkpt>
      <trkpt lat="44.98453" lon="6.48349">
        <ele>1513.8</ele>
        <time>2020-08-18T07:12:52Z</time>
      </trkpt>
      <trkpt lat="44.98462" lon="6.48343">
        <ele>1514.2</ele>
        <time>2020-08-18T07:12:59Z</time>
      </trkpt>
      <trkpt lat="44.98471" lon="6.48342">
        <ele>1514.4</ele>
        <time>2020-08-18T07:13:06Z</time>
      </trkpt>
      <trkpt lat="44.9848" lon="6.48342">
        <ele>1514.8</ele>
        <time>2020-08-18T07:13:14Z</time>
      </trkpt>
      <trkpt lat="44.9849" lon="6.48342">
        <ele>1515.2</ele>
        <time>2020-08-18T07:13:23Z</time>
      </trkpt>
      <trkpt lat="44.98499" lon="6.48338">
        <ele>1515.4</ele>
        <time>2020-08-18T07:13:29Z</time>
      </trkpt>
      <trkpt lat="44.98507" lon="6.48329">
        <ele>1515.7</ele>
        <time>2020-08-18T07:13:36Z</time>
      </trkpt>
      <trkpt lat="44.98516" lon="6.48322">
        <ele>1516.1</ele>
        <time>2020-08-18T07:13:43Z</time>
      </trkpt>
      <trkpt lat="44.98524" lon="6.48315">
        <ele>1516.4</ele>
        <time>2020-08-18T07:13:50Z</time>
      </trkpt>
      <trkpt lat="44.98531" lon="6.48305">
        <ele>1516.6</ele>
        <time>2020-08-18T07:13:59Z</time>
      </trkpt>
      <trkpt lat="44.9854" lon="6.48298">
        <ele>1516.7</ele>
        <time>2020-08-18T07:14:06Z</time>
      </trkpt>
      <trkpt lat="44.98549" lon="6.48293">
        <ele>1516.9</ele>
        <time>2020-08-18T07:14:13Z</time>
      </trkpt>
      <trkpt lat="44.98558" lon="6.48286">
        <ele>1517</ele>
        <time>2020-08-18T07:14:19Z</time>
      </trkpt>
      <trkpt lat="44.98566" lon="6.48281">
        <ele>1517</ele>
        <time>2020-08-18T07:14:25Z</time>
      </trkpt>
      <trkpt lat="44.98576" lon="6.48276">
        <ele>1517.1</ele>
        <time>2020-08-18T07:14:33Z</time>
      </trkpt>
      <trkpt lat="44.98585" lon="6.48276">
        <ele>1517.1</ele>
        <time>2020-08-18T07:14:39Z</time>
      </trkpt>
      <trkpt lat="44.98594" lon="6.48281">
        <ele>1517.1</ele>
        <time>2020-08-18T07:14:46Z</time>
      </trkpt>
      <trkpt lat="44.98603" lon="6.48279">
        <ele>1517</ele>
        <time>2020-08-18T07:14:53Z</time>
      </trkpt>
      <trkpt lat="44.98613" lon="6.48275">
        <ele>1516.7</ele>
        <time>2020-08-18T07:15:02Z</time>
      </trkpt>
      <trkpt lat="44.98622" lon="6.4827">
        <ele>1516.4</ele>
        <time>2020-08-18T07:15:09Z</time>
      </trkpt>
      <trkpt lat="44.98629" lon="6.48262">
        <ele>1516.2</ele>
        <time>2020-08-18T07:15:17Z</time>
      </trkpt>
      <trkpt lat="44.98637" lon="6.48254">
        <ele>1516.1</ele>
        <time>2020-08-18T07:15:24Z</time>
      </trkpt>
      <trkpt lat="44.98647" lon="6.48254">
        <ele>1516.2</ele>
        <time>2020-08-18T07:15:30Z</time>
      </trkpt>
      <trkpt lat="44.98655" lon="6.48259">
        <ele>1516.5</ele>
        <time>2020-08-18T07:15:39Z</time>
      </trkpt>
      <trkpt lat="44.98662" lon="6.48249">
        <ele>1516.6</ele>
        <time>2020-08-18T07:15:48Z</time>
      </trkpt>
      <trkpt lat="44.98668" lon="6.48237">
        <ele>1516.7</ele>
        <time>2020-08-18T07:15:55Z</time>
      </trkpt>
      <trkpt lat="44.98676" lon="6.48229">
        <ele>1516.7</ele>
        <time>2020-08-18T07:16:02Z</time>
      </trkpt>
      <trkpt lat="44.98684" lon="6.4822">
        <ele>1517.1</ele>
        <time>2020-08-18T07:16:09Z</time>
      </trkpt>
      <trkpt lat="44.98692" lon="6.48213">
        <ele>1517.5</ele>
        <time>2020-08-18T07:16:16Z</time>
      </trkpt>
      <trkpt lat="44.98701" lon="6.48209">
        <ele>1518</ele>
        <time>2020-08-18T07:16:23Z</time>
      </trkpt>
      <trkpt lat="44.98709" lon="6.48201">
        <ele>1518.6</ele>
        <time>2020-08-18T07:16:29Z</time>
      </trkpt>
      <trkpt lat="44.98718" lon="6.48197">
        <ele>1519.1</ele>
        <time>2020-08-18T07:16:36Z</time>
      </trkpt>
      <trkpt lat="44.98726" lon="6.4819">
        <ele>1519.7</ele>
        <time>2020-08-18T07:16:43Z</time>
      </trkpt>
      <trkpt lat="44.98732" lon="6.48181">
        <ele>1520.1</ele>
        <time>2020-08-18T07:16:50Z</time>
      </trkpt>
      <trkpt lat="44.98738" lon="6.48171">
        <ele>1520.7</ele>
        <time>2020-08-18T07:16:57Z</time>
      </trkpt>
      <trkpt lat="44.98742" lon="6.48158">
        <ele>1521.9</ele>
        <time>2020-08-18T07:17:26Z</time>
      </trkpt>
      <trkpt lat="44.98743" lon="6.48145">
        <ele>1522</ele>
        <time>2020-08-18T07:17:33Z</time>
      </trkpt>
      <trkpt lat="44.98745" lon="6.48132">
        <ele>1522.1</ele>
        <time>2020-08-18T07:17:40Z</time>
      </trkpt>
      <trkpt lat="44.98746" lon="6.48118">
        <ele>1522.1</ele>
        <time>2020-08-18T07:17:48Z</time>
      </trkpt>
      <trkpt lat="44.98742" lon="6.48106">
        <ele>1522.1</ele>
        <time>2020-08-18T07:17:58Z</time>
      </trkpt>
      <trkpt lat="44.98734" lon="6.48099">
        <ele>1522.2</ele>
        <time>2020-08-18T07:18:07Z</time>
      </trkpt>
      <trkpt lat="44.98739" lon="6.48088">
        <ele>1522.2</ele>
        <time>2020-08-18T07:18:15Z</time>
      </trkpt>
      <trkpt lat="44.98747" lon="6.48081">
        <ele>1522.2</ele>
        <time>2020-08-18T07:18:22Z</time>
      </trkpt>
      <trkpt lat="44.98754" lon="6.48072">
        <ele>1522.2</ele>
        <time>2020-08-18T07:18:29Z</time>
      </trkpt>
      <trkpt lat="44.98759" lon="6.48061">
        <ele>1522.2</ele>
        <time>2020-08-18T07:18:35Z</time>
      </trkpt>
      <trkpt lat="44.98762" lon="6.48048">
        <ele>1522.3</ele>
        <time>2020-08-18T07:18:44Z</time>
      </trkpt>
      <trkpt lat="44.98764" lon="6.48035">
        <ele>1522.6</ele>
        <time>2020-08-18T07:18:52Z</time>
      </trkpt>
      <trkpt lat="44.98771" lon="6.48023">
        <ele>1523</ele>
        <time>2020-08-18T07:18:59Z</time>
      </trkpt>
      <trkpt lat="44.98777" lon="6.48012">
        <ele>1523.4</ele>
        <time>2020-08-18T07:19:06Z</time>
      </trkpt>
      <trkpt lat="44.98784" lon="6.48002">
        <ele>1523.9</ele>
        <time>2020-08-18T07:19:14Z</time>
      </trkpt>
      <trkpt lat="44.98793" lon="6.47996">
        <ele>1524.5</ele>
        <time>2020-08-18T07:19:23Z</time>
      </trkpt>
      <trkpt lat="44.98802" lon="6.4799">
        <ele>1524.8</ele>
        <time>2020-08-18T07:19:30Z</time>
      </trkpt>
      <trkpt lat="44.98811" lon="6.47984">
        <ele>1525.2</ele>
        <time>2020-08-18T07:19:37Z</time>
      </trkpt>
      <trkpt lat="44.9882" lon="6.47978">
        <ele>1525.5</ele>
        <time>2020-08-18T07:19:44Z</time>
      </trkpt>
      <trkpt lat="44.9883" lon="6.47975">
        <ele>1526</ele>
        <time>2020-08-18T07:19:51Z</time>
      </trkpt>
      <trkpt lat="44.98839" lon="6.47972">
        <ele>1526.4</ele>
        <time>2020-08-18T07:19:57Z</time>
      </trkpt>
      <trkpt lat="44.98849" lon="6.47968">
        <ele>1526.9</ele>
        <time>2020-08-18T07:20:04Z</time>
      </trkpt>
      <trkpt lat="44.98858" lon="6.47967">
        <ele>1527.4</ele>
        <time>2020-08-18T07:20:12Z</time>
      </trkpt>
      <trkpt lat="44.98867" lon="6.47967">
        <ele>1527.8</ele>
        <time>2020-08-18T07:20:19Z</time>
      </trkpt>
      <trkpt lat="44.98877" lon="6.47966">
        <ele>1528</ele>
        <time>2020-08-18T07:20:26Z</time>
      </trkpt>
      <trkpt lat="44.98887" lon="6.47964">
        <ele>1528.1</ele>
        <time>2020-08-18T07:20:32Z</time>
      </trkpt>
      <trkpt lat="44.98897" lon="6.47964">
        <ele>1528.2</ele>
        <time>2020-08-18T07:20:39Z</time>
      </trkpt>
      <trkpt lat="44.98907" lon="6.47964">
        <ele>1528.4</ele>
        <time>2020-08-18T07:20:47Z</time>
      </trkpt>
      <trkpt lat="44.98916" lon="6.47963">
        <ele>1528.8</ele>
        <time>2020-08-18T07:20:54Z</time>
      </trkpt>
      <trkpt lat="44.98924" lon="6.47959">
        <ele>1529.3</ele>
        <time>2020-08-18T07:21:03Z</time>
      </trkpt>
      <trkpt lat="44.98934" lon="6.47955">
        <ele>1529.5</ele>
        <time>2020-08-18T07:21:10Z</time>
      </trkpt>
      <trkpt lat="44.98943" lon="6.47953">
        <ele>1529.7</ele>
        <time>2020-08-18T07:21:17Z</time>
      </trkpt>
      <trkpt lat="44.98953" lon="6.47952">
        <ele>1530.1</ele>
        <time>2020-08-18T07:21:24Z</time>
      </trkpt>
      <trkpt lat="44.98962" lon="6.4795">
        <ele>1530.4</ele>
        <time>2020-08-18T07:21:31Z</time>
      </trkpt>
      <trkpt lat="44.98971" lon="6.47949">
        <ele>1530.7</ele>
        <time>2020-08-18T07:21:40Z</time>
      </trkpt>
      <trkpt lat="44.98981" lon="6.47946">
        <ele>1531</ele>
        <time>2020-08-18T07:21:48Z</time>
      </trkpt>
      <trkpt lat="44.9899" lon="6.47942">
        <ele>1531.5</ele>
        <time>2020-08-18T07:21:56Z</time>
      </trkpt>
      <trkpt lat="44.98998" lon="6.47936">
        <ele>1531.9</ele>
        <time>2020-08-18T07:22:03Z</time>
      </trkpt>
      <trkpt lat="44.99006" lon="6.47928">
        <ele>1532.5</ele>
        <time>2020-08-18T07:22:12Z</time>
      </trkpt>
      <trkpt lat="44.99014" lon="6.4792">
        <ele>1533.1</ele>
        <time>2020-08-18T07:22:20Z</time>
      </trkpt>
      <trkpt lat="44.99021" lon="6.47911">
        <ele>1533.5</ele>
        <time>2020-08-18T07:22:27Z</time>
      </trkpt>
      <trkpt lat="44.99021" lon="6.47898">
        <ele>1533.9</ele>
        <time>2020-08-18T07:22:35Z</time>
      </trkpt>
      <trkpt lat="44.99017" lon="6.47886">
        <ele>1534.6</ele>
        <time>2020-08-18T07:22:42Z</time>
      </trkpt>
      <trkpt lat="44.99017" lon="6.47872">
        <ele>1535.1</ele>
        <time>2020-08-18T07:22:50Z</time>
      </trkpt>
      <trkpt lat="44.9902" lon="6.4786">
        <ele>1535.5</ele>
        <time>2020-08-18T07:22:56Z</time>
      </trkpt>
      <trkpt lat="44.99029" lon="6.47853">
        <ele>1535.9</ele>
        <time>2020-08-18T07:23:03Z</time>
      </trkpt>
      <trkpt lat="44.99038" lon="6.47849">
        <ele>1536.3</ele>
        <time>2020-08-18T07:23:10Z</time>
      </trkpt>
      <trkpt lat="44.99047" lon="6.47843">
        <ele>1536.6</ele>
        <time>2020-08-18T07:23:17Z</time>
      </trkpt>
      <trkpt lat="44.99055" lon="6.47836">
        <ele>1536.8</ele>
        <time>2020-08-18T07:23:24Z</time>
      </trkpt>
      <trkpt lat="44.99063" lon="6.47829">
        <ele>1537.2</ele>
        <time>2020-08-18T07:23:32Z</time>
      </trkpt>
      <trkpt lat="44.99072" lon="6.47823">
        <ele>1537.4</ele>
        <time>2020-08-18T07:23:38Z</time>
      </trkpt>
      <trkpt lat="44.99081" lon="6.47818">
        <ele>1537.6</ele>
        <time>2020-08-18T07:23:44Z</time>
      </trkpt>
      <trkpt lat="44.99091" lon="6.47814">
        <ele>1537.8</ele>
        <time>2020-08-18T07:23:52Z</time>
      </trkpt>
      <trkpt lat="44.99099" lon="6.47806">
        <ele>1538.1</ele>
        <time>2020-08-18T07:24:00Z</time>
      </trkpt>
      <trkpt lat="44.99108" lon="6.47801">
        <ele>1538.4</ele>
        <time>2020-08-18T07:24:07Z</time>
      </trkpt>
      <trkpt lat="44.99116" lon="6.47796">
        <ele>1538.6</ele>
        <time>2020-08-18T07:24:14Z</time>
      </trkpt>
      <trkpt lat="44.99125" lon="6.4779">
        <ele>1538.8</ele>
        <time>2020-08-18T07:24:22Z</time>
      </trkpt>
      <trkpt lat="44.99134" lon="6.47785">
        <ele>1539.1</ele>
        <time>2020-08-18T07:24:29Z</time>
      </trkpt>
      <trkpt lat="44.99143" lon="6.47781">
        <ele>1539.5</ele>
        <time>2020-08-18T07:24:36Z</time>
      </trkpt>
      <trkpt lat="44.99149" lon="6.47772">
        <ele>1540.6</ele>
        <time>2020-08-18T07:24:45Z</time>
      </trkpt>
      <trkpt lat="44.99155" lon="6.4776">
        <ele>1542</ele>
        <time>2020-08-18T07:24:54Z</time>
      </trkpt>
      <trkpt lat="44.99162" lon="6.4775">
        <ele>1543.4</ele>
        <time>2020-08-18T07:25:03Z</time>
      </trkpt>
      <trkpt lat="44.99168" lon="6.4774">
        <ele>1544.5</ele>
        <time>2020-08-18T07:25:11Z</time>
      </trkpt>
      <trkpt lat="44.99176" lon="6.47731">
        <ele>1545.4</ele>
        <time>2020-08-18T07:25:21Z</time>
      </trkpt>
      <trkpt lat="44.99185" lon="6.47726">
        <ele>1546.1</ele>
        <time>2020-08-18T07:25:29Z</time>
      </trkpt>
      <trkpt lat="44.99194" lon="6.47721">
        <ele>1546.4</ele>
        <time>2020-08-18T07:25:35Z</time>
      </trkpt>
      <trkpt lat="44.99204" lon="6.47719">
        <ele>1546.8</ele>
        <time>2020-08-18T07:25:40Z</time>
      </trkpt>
      <trkpt lat="44.99213" lon="6.47717">
        <ele>1547.1</ele>
        <time>2020-08-18T07:25:45Z</time>
      </trkpt>
      <trkpt lat="44.99223" lon="6.47717">
        <ele>1547.6</ele>
        <time>2020-08-18T07:25:53Z</time>
      </trkpt>
      <trkpt lat="44.99233" lon="6.4772">
        <ele>1548</ele>
        <time>2020-08-18T07:26:01Z</time>
      </trkpt>
      <trkpt lat="44.99242" lon="6.4772">
        <ele>1548.2</ele>
        <time>2020-08-18T07:26:08Z</time>
      </trkpt>
      <trkpt lat="44.99252" lon="6.47723">
        <ele>1548.5</ele>
        <time>2020-08-18T07:26:16Z</time>
      </trkpt>
      <trkpt lat="44.99261" lon="6.47726">
        <ele>1548.6</ele>
        <time>2020-08-18T07:26:23Z</time>
      </trkpt>
      <trkpt lat="44.99271" lon="6.47723">
        <ele>1548.7</ele>
        <time>2020-08-18T07:26:30Z</time>
      </trkpt>
      <trkpt lat="44.99279" lon="6.47718">
        <ele>1548.8</ele>
        <time>2020-08-18T07:26:37Z</time>
      </trkpt>
      <trkpt lat="44.99287" lon="6.47709">
        <ele>1548.8</ele>
        <time>2020-08-18T07:26:46Z</time>
      </trkpt>
      <trkpt lat="44.99295" lon="6.47702">
        <ele>1549.1</ele>
        <time>2020-08-18T07:26:55Z</time>
      </trkpt>
      <trkpt lat="44.99304" lon="6.47698">
        <ele>1549.7</ele>
        <time>2020-08-18T07:27:04Z</time>
      </trkpt>
      <trkpt lat="44.99311" lon="6.47688">
        <ele>1550.3</ele>
        <time>2020-08-18T07:27:11Z</time>
      </trkpt>
      <trkpt lat="44.99319" lon="6.47683">
        <ele>1550.7</ele>
        <time>2020-08-18T07:27:18Z</time>
      </trkpt>
      <trkpt lat="44.99328" lon="6.47678">
        <ele>1551.1</ele>
        <time>2020-08-18T07:27:25Z</time>
      </trkpt>
      <trkpt lat="44.99335" lon="6.47669">
        <ele>1551.7</ele>
        <time>2020-08-18T07:27:33Z</time>
      </trkpt>
      <trkpt lat="44.9934" lon="6.47658">
        <ele>1552.4</ele>
        <time>2020-08-18T07:27:40Z</time>
      </trkpt>
      <trkpt lat="44.99345" lon="6.47645">
        <ele>1553.3</ele>
        <time>2020-08-18T07:27:47Z</time>
      </trkpt>
      <trkpt lat="44.99352" lon="6.47636">
        <ele>1554.3</ele>
        <time>2020-08-18T07:27:55Z</time>
      </trkpt>
      <trkpt lat="44.9936" lon="6.4763">
        <ele>1555.4</ele>
        <time>2020-08-18T07:28:02Z</time>
      </trkpt>
      <trkpt lat="44.9937" lon="6.47627">
        <ele>1556.6</ele>
        <time>2020-08-18T07:28:09Z</time>
      </trkpt>
      <trkpt lat="44.9938" lon="6.47629">
        <ele>1559.6</ele>
        <time>2020-08-18T07:28:40Z</time>
      </trkpt>
      <trkpt lat="44.99388" lon="6.47633">
        <ele>1559.8</ele>
        <time>2020-08-18T07:28:46Z</time>
      </trkpt>
      <trkpt lat="44.99397" lon="6.47637">
        <ele>1560</ele>
        <time>2020-08-18T07:28:52Z</time>
      </trkpt>
      <trkpt lat="44.99406" lon="6.47639">
        <ele>1560.3</ele>
        <time>2020-08-18T07:28:58Z</time>
      </trkpt>
      <trkpt lat="44.99415" lon="6.47638">
        <ele>1560.6</ele>
        <time>2020-08-18T07:29:04Z</time>
      </trkpt>
      <trkpt lat="44.99424" lon="6.47638">
        <ele>1561</ele>
        <time>2020-08-18T07:29:10Z</time>
      </trkpt>
      <trkpt lat="44.99434" lon="6.47637">
        <ele>1561.3</ele>
        <time>2020-08-18T07:29:16Z</time>
      </trkpt>
      <trkpt lat="44.99443" lon="6.47632">
        <ele>1561.7</ele>
        <time>2020-08-18T07:29:24Z</time>
      </trkpt>
      <trkpt lat="44.99451" lon="6.47626">
        <ele>1562.3</ele>
        <time>2020-08-18T07:29:31Z</time>
      </trkpt>
      <trkpt lat="44.9946" lon="6.47621">
        <ele>1563</ele>
        <time>2020-08-18T07:29:39Z</time>
      </trkpt>
      <trkpt lat="44.9947" lon="6.47615">
        <ele>1563.5</ele>
        <time>2020-08-18T07:29:46Z</time>
      </trkpt>
      <trkpt lat="44.99479" lon="6.47613">
        <ele>1563.8</ele>
        <time>2020-08-18T07:29:52Z</time>
      </trkpt>
      <trkpt lat="44.99489" lon="6.47613">
        <ele>1564.3</ele>
        <time>2020-08-18T07:29:59Z</time>
      </trkpt>
      <trkpt lat="44.99498" lon="6.47611">
        <ele>1564.6</ele>
        <time>2020-08-18T07:30:06Z</time>
      </trkpt>
      <trkpt lat="44.99507" lon="6.47606">
        <ele>1564.8</ele>
        <time>2020-08-18T07:30:12Z</time>
      </trkpt>
      <trkpt lat="44.99517" lon="6.47599">
        <ele>1565.1</ele>
        <time>2020-08-18T07:30:18Z</time>
      </trkpt>
      <trkpt lat="44.99525" lon="6.47595">
        <ele>1565.3</ele>
        <time>2020-08-18T07:30:24Z</time>
      </trkpt>
      <trkpt lat="44.99535" lon="6.47591">
        <ele>1565.5</ele>
        <time>2020-08-18T07:30:33Z</time>
      </trkpt>
      <trkpt lat="44.99544" lon="6.47587">
        <ele>1565.7</ele>
        <time>2020-08-18T07:30:40Z</time>
      </trkpt>
      <trkpt lat="44.99554" lon="6.47582">
        <ele>1565.9</ele>
        <time>2020-08-18T07:30:47Z</time>
      </trkpt>
      <trkpt lat="44.99563" lon="6.47578">
        <ele>1566.1</ele>
        <time>2020-08-18T07:30:53Z</time>
      </trkpt>
      <trkpt lat="44.99573" lon="6.47575">
        <ele>1566.1</ele>
        <time>2020-08-18T07:31:00Z</time>
      </trkpt>
      <trkpt lat="44.99582" lon="6.47572">
        <ele>1566.2</ele>
        <time>2020-08-18T07:31:07Z</time>
      </trkpt>
      <trkpt lat="44.99592" lon="6.47576">
        <ele>1566.2</ele>
        <time>2020-08-18T07:31:14Z</time>
      </trkpt>
      <trkpt lat="44.99602" lon="6.4758">
        <ele>1566.3</ele>
        <time>2020-08-18T07:31:21Z</time>
      </trkpt>
      <trkpt lat="44.99611" lon="6.47582">
        <ele>1566.3</ele>
        <time>2020-08-18T07:31:27Z</time>
      </trkpt>
      <trkpt lat="44.9962" lon="6.47582">
        <ele>1566.2</ele>
        <time>2020-08-18T07:31:34Z</time>
      </trkpt>
      <trkpt lat="44.9963" lon="6.47583">
        <ele>1566.2</ele>
        <time>2020-08-18T07:31:40Z</time>
      </trkpt>
      <trkpt lat="44.99638" lon="6.47589">
        <ele>1566.1</ele>
        <time>2020-08-18T07:31:46Z</time>
      </trkpt>
      <trkpt lat="44.99646" lon="6.47595">
        <ele>1565.9</ele>
        <time>2020-08-18T07:31:52Z</time>
      </trkpt>
      <trkpt lat="44.99655" lon="6.47598">
        <ele>1565.4</ele>
        <time>2020-08-18T07:31:59Z</time>
      </trkpt>
      <trkpt lat="44.99666" lon="6.47599">
        <ele>1565</ele>
        <time>2020-08-18T07:32:06Z</time>
      </trkpt>
      <trkpt lat="44.99675" lon="6.476">
        <ele>1564.7</ele>
        <time>2020-08-18T07:32:12Z</time>
      </trkpt>
      <trkpt lat="44.99683" lon="6.47596">
        <ele>1564.5</ele>
        <time>2020-08-18T07:32:19Z</time>
      </trkpt>
      <trkpt lat="44.9969" lon="6.47588">
        <ele>1566.1</ele>
        <time>2020-08-18T07:35:22Z</time>
      </trkpt>
      <trkpt lat="44.99699" lon="6.47581">
        <ele>1566.3</ele>
        <time>2020-08-18T07:35:29Z</time>
      </trkpt>
      <trkpt lat="44.99707" lon="6.47572">
        <ele>1566.9</ele>
        <time>2020-08-18T07:35:37Z</time>
      </trkpt>
      <trkpt lat="44.99716" lon="6.47567">
        <ele>1567.4</ele>
        <time>2020-08-18T07:35:46Z</time>
      </trkpt>
      <trkpt lat="44.99725" lon="6.47564">
        <ele>1567.8</ele>
        <time>2020-08-18T07:35:53Z</time>
      </trkpt>
      <trkpt lat="44.99734" lon="6.47561">
        <ele>1568.2</ele>
        <time>2020-08-18T07:36:00Z</time>
      </trkpt>
      <trkpt lat="44.99744" lon="6.47559">
        <ele>1568.5</ele>
        <time>2020-08-18T07:36:06Z</time>
      </trkpt>
      <trkpt lat="44.99754" lon="6.47556">
        <ele>1569.1</ele>
        <time>2020-08-18T07:36:14Z</time>
      </trkpt>
      <trkpt lat="44.99763" lon="6.47555">
        <ele>1569.5</ele>
        <time>2020-08-18T07:36:22Z</time>
      </trkpt>
      <trkpt lat="44.99772" lon="6.47553">
        <ele>1569.8</ele>
        <time>2020-08-18T07:36:30Z</time>
      </trkpt>
      <trkpt lat="44.99782" lon="6.47555">
        <ele>1570</ele>
        <time>2020-08-18T07:36:37Z</time>
      </trkpt>
      <trkpt lat="44.99792" lon="6.47553">
        <ele>1570.1</ele>
        <time>2020-08-18T07:36:44Z</time>
      </trkpt>
      <trkpt lat="44.99801" lon="6.4755">
        <ele>1570.1</ele>
        <time>2020-08-18T07:36:51Z</time>
      </trkpt>
      <trkpt lat="44.99809" lon="6.47544">
        <ele>1570.2</ele>
        <time>2020-08-18T07:36:59Z</time>
      </trkpt>
      <trkpt lat="44.99818" lon="6.47538">
        <ele>1570.2</ele>
        <time>2020-08-18T07:37:06Z</time>
      </trkpt>
      <trkpt lat="44.99827" lon="6.47531">
        <ele>1570.2</ele>
        <time>2020-08-18T07:37:14Z</time>
      </trkpt>
      <trkpt lat="44.99837" lon="6.47527">
        <ele>1570.3</ele>
        <time>2020-08-18T07:37:20Z</time>
      </trkpt>
      <trkpt lat="44.99847" lon="6.47519">
        <ele>1570.8</ele>
        <time>2020-08-18T07:37:37Z</time>
      </trkpt>
      <trkpt lat="44.99853" lon="6.47508">
        <ele>1571.1</ele>
        <time>2020-08-18T07:37:44Z</time>
      </trkpt>
      <trkpt lat="44.99856" lon="6.47495">
        <ele>1571.7</ele>
        <time>2020-08-18T07:37:52Z</time>
      </trkpt>
      <trkpt lat="44.99859" lon="6.47483">
        <ele>1572.1</ele>
        <time>2020-08-18T07:37:59Z</time>
      </trkpt>
      <trkpt lat="44.99868" lon="6.47478">
        <ele>1572.4</ele>
        <time>2020-08-18T07:38:09Z</time>
      </trkpt>
      <trkpt lat="44.99876" lon="6.4747">
        <ele>1572.6</ele>
        <time>2020-08-18T07:38:14Z</time>
      </trkpt>
      <trkpt lat="44.99884" lon="6.47462">
        <ele>1572.8</ele>
        <time>2020-08-18T07:38:19Z</time>
      </trkpt>
      <trkpt lat="44.99891" lon="6.47452">
        <ele>1573.3</ele>
        <time>2020-08-18T07:38:26Z</time>
      </trkpt>
      <trkpt lat="44.99896" lon="6.47442">
        <ele>1573.9</ele>
        <time>2020-08-18T07:38:33Z</time>
      </trkpt>
      <trkpt lat="44.99899" lon="6.4743">
        <ele>1574.5</ele>
        <time>2020-08-18T07:38:40Z</time>
      </trkpt>
      <trkpt lat="44.99904" lon="6.47418">
        <ele>1575</ele>
        <time>2020-08-18T07:38:46Z</time>
      </trkpt>
      <trkpt lat="44.99909" lon="6.47405">
        <ele>1576</ele>
        <time>2020-08-18T07:38:54Z</time>
      </trkpt>
      <trkpt lat="44.99911" lon="6.47393">
        <ele>1576.9</ele>
        <time>2020-08-18T07:39:00Z</time>
      </trkpt>
      <trkpt lat="44.99912" lon="6.47379">
        <ele>1577.9</ele>
        <time>2020-08-18T07:39:07Z</time>
      </trkpt>
      <trkpt lat="44.99912" lon="6.47366">
        <ele>1578.8</ele>
        <time>2020-08-18T07:39:14Z</time>
      </trkpt>
      <trkpt lat="44.99912" lon="6.47353">
        <ele>1580.2</ele>
        <time>2020-08-18T07:39:23Z</time>
      </trkpt>
      <trkpt lat="44.99914" lon="6.4734">
        <ele>1581.2</ele>
        <time>2020-08-18T07:39:29Z</time>
      </trkpt>
      <trkpt lat="44.99916" lon="6.47327">
        <ele>1581.9</ele>
        <time>2020-08-18T07:39:35Z</time>
      </trkpt>
      <trkpt lat="44.99921" lon="6.47315">
        <ele>1582.8</ele>
        <time>2020-08-18T07:39:42Z</time>
      </trkpt>
      <trkpt lat="44.99926" lon="6.47303">
        <ele>1583.5</ele>
        <time>2020-08-18T07:39:49Z</time>
      </trkpt>
      <trkpt lat="44.99933" lon="6.47292">
        <ele>1584</ele>
        <time>2020-08-18T07:39:57Z</time>
      </trkpt>
      <trkpt lat="44.99939" lon="6.47281">
        <ele>1584.3</ele>
        <time>2020-08-18T07:40:03Z</time>
      </trkpt>
      <trkpt lat="44.99946" lon="6.47271">
        <ele>1584.5</ele>
        <time>2020-08-18T07:40:10Z</time>
      </trkpt>
      <trkpt lat="44.99954" lon="6.47264">
        <ele>1584.6</ele>
        <time>2020-08-18T07:40:17Z</time>
      </trkpt>
      <trkpt lat="44.99964" lon="6.47261">
        <ele>1584.8</ele>
        <time>2020-08-18T07:40:24Z</time>
      </trkpt>
      <trkpt lat="44.99972" lon="6.47255">
        <ele>1585.1</ele>
        <time>2020-08-18T07:40:30Z</time>
      </trkpt>
      <trkpt lat="44.99981" lon="6.47251">
        <ele>1585.3</ele>
        <time>2020-08-18T07:40:36Z</time>
      </trkpt>
      <trkpt lat="44.99988" lon="6.47244">
        <ele>1585.5</ele>
        <time>2020-08-18T07:40:42Z</time>
      </trkpt>
      <trkpt lat="44.99997" lon="6.47237">
        <ele>1585.6</ele>
        <time>2020-08-18T07:40:49Z</time>
      </trkpt>
      <trkpt lat="45.00004" lon="6.4723">
        <ele>1585.7</ele>
        <time>2020-08-18T07:40:56Z</time>
      </trkpt>
      <trkpt lat="45.00011" lon="6.47221">
        <ele>1585.8</ele>
        <time>2020-08-18T07:41:02Z</time>
      </trkpt>
      <trkpt lat="45.00017" lon="6.47211">
        <ele>1585.8</ele>
        <time>2020-08-18T07:41:08Z</time>
      </trkpt>
      <trkpt lat="45.00024" lon="6.472">
        <ele>1585.8</ele>
        <time>2020-08-18T07:41:15Z</time>
      </trkpt>
      <trkpt lat="45.00029" lon="6.47189">
        <ele>1585.9</ele>
        <time>2020-08-18T07:41:23Z</time>
      </trkpt>
      <trkpt lat="45.00035" lon="6.47179">
        <ele>1586</ele>
        <time>2020-08-18T07:41:29Z</time>
      </trkpt>
      <trkpt lat="45.00042" lon="6.47168">
        <ele>1586.3</ele>
        <time>2020-08-18T07:41:36Z</time>
      </trkpt>
      <trkpt lat="45.00047" lon="6.47157">
        <ele>1586.6</ele>
        <time>2020-08-18T07:41:43Z</time>
      </trkpt>
      <trkpt lat="45.00053" lon="6.47146">
        <ele>1586.8</ele>
        <time>2020-08-18T07:41:50Z</time>
      </trkpt>
      <trkpt lat="45.00059" lon="6.47136">
        <ele>1587</ele>
        <time>2020-08-18T07:41:58Z</time>
      </trkpt>
      <trkpt lat="45.00064" lon="6.47124">
        <ele>1587.1</ele>
        <time>2020-08-18T07:42:04Z</time>
      </trkpt>
      <trkpt lat="45.00068" lon="6.47111">
        <ele>1587.2</ele>
        <time>2020-08-18T07:42:11Z</time>
      </trkpt>
      <trkpt lat="45.00073" lon="6.471">
        <ele>1587.3</ele>
        <time>2020-08-18T07:42:17Z</time>
      </trkpt>
      <trkpt lat="45.0008" lon="6.47091">
        <ele>1587.3</ele>
        <time>2020-08-18T07:42:24Z</time>
      </trkpt>
      <trkpt lat="45.00087" lon="6.47079">
        <ele>1587.4</ele>
        <time>2020-08-18T07:42:30Z</time>
      </trkpt>
      <trkpt lat="45.00094" lon="6.47071">
        <ele>1587.4</ele>
        <time>2020-08-18T07:42:36Z</time>
      </trkpt>
      <trkpt lat="45.00101" lon="6.47064">
        <ele>1587.6</ele>
        <time>2020-08-18T07:42:43Z</time>
      </trkpt>
      <trkpt lat="45.0011" lon="6.47064">
        <ele>1588</ele>
        <time>2020-08-18T07:42:51Z</time>
      </trkpt>
      <trkpt lat="45.00119" lon="6.47056">
        <ele>1588.2</ele>
        <time>2020-08-18T07:42:57Z</time>
      </trkpt>
      <trkpt lat="45.00126" lon="6.47049">
        <ele>1588.5</ele>
        <time>2020-08-18T07:43:03Z</time>
      </trkpt>
      <trkpt lat="45.00135" lon="6.47044">
        <ele>1588.8</ele>
        <time>2020-08-18T07:43:09Z</time>
      </trkpt>
      <trkpt lat="45.00143" lon="6.47038">
        <ele>1589.2</ele>
        <time>2020-08-18T07:43:16Z</time>
      </trkpt>
      <trkpt lat="45.00153" lon="6.47034">
        <ele>1589.6</ele>
        <time>2020-08-18T07:43:23Z</time>
      </trkpt>
      <trkpt lat="45.00162" lon="6.47029">
        <ele>1589.9</ele>
        <time>2020-08-18T07:43:29Z</time>
      </trkpt>
      <trkpt lat="45.00172" lon="6.47025">
        <ele>1590.4</ele>
        <time>2020-08-18T07:43:35Z</time>
      </trkpt>
      <trkpt lat="45.0018" lon="6.4702">
        <ele>1591.3</ele>
        <time>2020-08-18T07:43:45Z</time>
      </trkpt>
      <trkpt lat="45.00189" lon="6.47014">
        <ele>1591.9</ele>
        <time>2020-08-18T07:43:52Z</time>
      </trkpt>
      <trkpt lat="45.00197" lon="6.47006">
        <ele>1592.2</ele>
        <time>2020-08-18T07:43:58Z</time>
      </trkpt>
      <trkpt lat="45.00205" lon="6.47001">
        <ele>1592.5</ele>
        <time>2020-08-18T07:44:05Z</time>
      </trkpt>
      <trkpt lat="45.00212" lon="6.46991">
        <ele>1593.1</ele>
        <time>2020-08-18T07:44:13Z</time>
      </trkpt>
      <trkpt lat="45.00221" lon="6.46986">
        <ele>1593.9</ele>
        <time>2020-08-18T07:44:21Z</time>
      </trkpt>
      <trkpt lat="45.00231" lon="6.46983">
        <ele>1594.5</ele>
        <time>2020-08-18T07:44:27Z</time>
      </trkpt>
      <trkpt lat="45.0024" lon="6.46977">
        <ele>1595.8</ele>
        <time>2020-08-18T07:44:35Z</time>
      </trkpt>
      <trkpt lat="45.00249" lon="6.46973">
        <ele>1596.7</ele>
        <time>2020-08-18T07:44:42Z</time>
      </trkpt>
      <trkpt lat="45.00258" lon="6.46968">
        <ele>1597.8</ele>
        <time>2020-08-18T07:44:50Z</time>
      </trkpt>
      <trkpt lat="45.00267" lon="6.46962">
        <ele>1599.3</ele>
        <time>2020-08-18T07:44:59Z</time>
      </trkpt>
      <trkpt lat="45.00276" lon="6.46955">
        <ele>1600.5</ele>
        <time>2020-08-18T07:45:06Z</time>
      </trkpt>
      <trkpt lat="45.00285" lon="6.46949">
        <ele>1601.3</ele>
        <time>2020-08-18T07:45:13Z</time>
      </trkpt>
      <trkpt lat="45.00295" lon="6.46946">
        <ele>1601.8</ele>
        <time>2020-08-18T07:45:20Z</time>
      </trkpt>
      <trkpt lat="45.00304" lon="6.46939">
        <ele>1602.2</ele>
        <time>2020-08-18T07:45:27Z</time>
      </trkpt>
      <trkpt lat="45.00312" lon="6.46936">
        <ele>1602.5</ele>
        <time>2020-08-18T07:45:32Z</time>
      </trkpt>
      <trkpt lat="45.00321" lon="6.46931">
        <ele>1602.7</ele>
        <time>2020-08-18T07:45:38Z</time>
      </trkpt>
      <trkpt lat="45.0033" lon="6.46925">
        <ele>1602.9</ele>
        <time>2020-08-18T07:45:44Z</time>
      </trkpt>
      <trkpt lat="45.00338" lon="6.4692">
        <ele>1603</ele>
        <time>2020-08-18T07:45:50Z</time>
      </trkpt>
      <trkpt lat="45.00346" lon="6.46912">
        <ele>1603.2</ele>
        <time>2020-08-18T07:45:57Z</time>
      </trkpt>
      <trkpt lat="45.00355" lon="6.46904">
        <ele>1603.3</ele>
        <time>2020-08-18T07:46:05Z</time>
      </trkpt>
      <trkpt lat="45.00363" lon="6.46896">
        <ele>1603.4</ele>
        <time>2020-08-18T07:46:13Z</time>
      </trkpt>
      <trkpt lat="45.0037" lon="6.46887">
        <ele>1603.5</ele>
        <time>2020-08-18T07:46:21Z</time>
      </trkpt>
      <trkpt lat="45.0038" lon="6.4688">
        <ele>1603.3</ele>
        <time>2020-08-18T07:46:27Z</time>
      </trkpt>
      <trkpt lat="45.00388" lon="6.46874">
        <ele>1603.1</ele>
        <time>2020-08-18T07:46:30Z</time>
      </trkpt>
      <trkpt lat="45.00397" lon="6.46869">
        <ele>1602.9</ele>
        <time>2020-08-18T07:46:33Z</time>
      </trkpt>
      <trkpt lat="45.00404" lon="6.46856">
        <ele>1602.6</ele>
        <time>2020-08-18T07:46:37Z</time>
      </trkpt>
      <trkpt lat="45.00406" lon="6.46843">
        <ele>1602.5</ele>
        <time>2020-08-18T07:46:40Z</time>
      </trkpt>
      <trkpt lat="45.00411" lon="6.46831">
        <ele>1602.4</ele>
        <time>2020-08-18T07:46:43Z</time>
      </trkpt>
      <trkpt lat="45.00416" lon="6.46818">
        <ele>1602.3</ele>
        <time>2020-08-18T07:46:46Z</time>
      </trkpt>
      <trkpt lat="45.00419" lon="6.46804">
        <ele>1602.3</ele>
        <time>2020-08-18T07:46:49Z</time>
      </trkpt>
      <trkpt lat="45.00423" lon="6.46792">
        <ele>1602.6</ele>
        <time>2020-08-18T07:46:52Z</time>
      </trkpt>
      <trkpt lat="45.00429" lon="6.46782">
        <ele>1602.9</ele>
        <time>2020-08-18T07:46:55Z</time>
      </trkpt>
      <trkpt lat="45.00436" lon="6.46771">
        <ele>1603.1</ele>
        <time>2020-08-18T07:46:58Z</time>
      </trkpt>
      <trkpt lat="45.00443" lon="6.46761">
        <ele>1603.4</ele>
        <time>2020-08-18T07:47:02Z</time>
      </trkpt>
      <trkpt lat="45.0045" lon="6.46754">
        <ele>1603.9</ele>
        <time>2020-08-18T07:47:08Z</time>
      </trkpt>
      <trkpt lat="45.00453" lon="6.46741">
        <ele>1604.8</ele>
        <time>2020-08-18T07:47:15Z</time>
      </trkpt>
      <trkpt lat="45.00457" lon="6.46728">
        <ele>1605.8</ele>
        <time>2020-08-18T07:47:22Z</time>
      </trkpt>
      <trkpt lat="45.00462" lon="6.46715">
        <ele>1606.8</ele>
        <time>2020-08-18T07:47:29Z</time>
      </trkpt>
      <trkpt lat="45.00468" lon="6.46705">
        <ele>1608.2</ele>
        <time>2020-08-18T07:47:36Z</time>
      </trkpt>
      <trkpt lat="45.00476" lon="6.46695">
        <ele>1609.2</ele>
        <time>2020-08-18T07:47:44Z</time>
      </trkpt>
      <trkpt lat="45.00482" lon="6.46685">
        <ele>1610.2</ele>
        <time>2020-08-18T07:47:51Z</time>
      </trkpt>
      <trkpt lat="45.00488" lon="6.46675">
        <ele>1611.2</ele>
        <time>2020-08-18T07:47:58Z</time>
      </trkpt>
      <trkpt lat="45.00495" lon="6.46665">
        <ele>1612.4</ele>
        <time>2020-08-18T07:48:06Z</time>
      </trkpt>
      <trkpt lat="45.00498" lon="6.46652">
        <ele>1613.7</ele>
        <time>2020-08-18T07:48:14Z</time>
      </trkpt>
      <trkpt lat="45.00504" lon="6.4664">
        <ele>1614.9</ele>
        <time>2020-08-18T07:48:21Z</time>
      </trkpt>
      <trkpt lat="45.00511" lon="6.4663">
        <ele>1616</ele>
        <time>2020-08-18T07:48:28Z</time>
      </trkpt>
      <trkpt lat="45.00517" lon="6.46619">
        <ele>1617.2</ele>
        <time>2020-08-18T07:48:37Z</time>
      </trkpt>
      <trkpt lat="45.00523" lon="6.46609">
        <ele>1618.2</ele>
        <time>2020-08-18T07:48:44Z</time>
      </trkpt>
      <trkpt lat="45.00533" lon="6.46606">
        <ele>1619.2</ele>
        <time>2020-08-18T07:48:51Z</time>
      </trkpt>
      <trkpt lat="45.00542" lon="6.46602">
        <ele>1620</ele>
        <time>2020-08-18T07:48:57Z</time>
      </trkpt>
      <trkpt lat="45.0055" lon="6.46594">
        <ele>1621.2</ele>
        <time>2020-08-18T07:49:06Z</time>
      </trkpt>
      <trkpt lat="45.00559" lon="6.4659">
        <ele>1622</ele>
        <time>2020-08-18T07:49:12Z</time>
      </trkpt>
      <trkpt lat="45.00569" lon="6.46594">
        <ele>1622.8</ele>
        <time>2020-08-18T07:49:18Z</time>
      </trkpt>
      <trkpt lat="45.00578" lon="6.4659">
        <ele>1623.5</ele>
        <time>2020-08-18T07:49:25Z</time>
      </trkpt>
      <trkpt lat="45.00588" lon="6.46587">
        <ele>1624</ele>
        <time>2020-08-18T07:49:33Z</time>
      </trkpt>
      <trkpt lat="45.00597" lon="6.4659">
        <ele>1624.5</ele>
        <time>2020-08-18T07:49:39Z</time>
      </trkpt>
      <trkpt lat="45.00607" lon="6.46595">
        <ele>1624.9</ele>
        <time>2020-08-18T07:49:46Z</time>
      </trkpt>
      <trkpt lat="45.00615" lon="6.466">
        <ele>1625.5</ele>
        <time>2020-08-18T07:49:54Z</time>
      </trkpt>
      <trkpt lat="45.00625" lon="6.46602">
        <ele>1625.9</ele>
        <time>2020-08-18T07:50:01Z</time>
      </trkpt>
      <trkpt lat="45.00635" lon="6.46602">
        <ele>1626.2</ele>
        <time>2020-08-18T07:50:08Z</time>
      </trkpt>
      <trkpt lat="45.00644" lon="6.46598">
        <ele>1626.6</ele>
        <time>2020-08-18T07:50:14Z</time>
      </trkpt>
      <trkpt lat="45.00652" lon="6.46594">
        <ele>1626.8</ele>
        <time>2020-08-18T07:50:20Z</time>
      </trkpt>
      <trkpt lat="45.00662" lon="6.46591">
        <ele>1627</ele>
        <time>2020-08-18T07:50:26Z</time>
      </trkpt>
      <trkpt lat="45.0067" lon="6.46587">
        <ele>1627.1</ele>
        <time>2020-08-18T07:50:33Z</time>
      </trkpt>
      <trkpt lat="45.00676" lon="6.46577">
        <ele>1627.1</ele>
        <time>2020-08-18T07:50:40Z</time>
      </trkpt>
      <trkpt lat="45.00684" lon="6.46571">
        <ele>1627.1</ele>
        <time>2020-08-18T07:50:47Z</time>
      </trkpt>
      <trkpt lat="45.00691" lon="6.46562">
        <ele>1627.3</ele>
        <time>2020-08-18T07:50:53Z</time>
      </trkpt>
      <trkpt lat="45.007" lon="6.46558">
        <ele>1627.5</ele>
        <time>2020-08-18T07:50:59Z</time>
      </trkpt>
      <trkpt lat="45.0071" lon="6.46557">
        <ele>1627.8</ele>
        <time>2020-08-18T07:51:05Z</time>
      </trkpt>
      <trkpt lat="45.0072" lon="6.46558">
        <ele>1628.3</ele>
        <time>2020-08-18T07:51:11Z</time>
      </trkpt>
      <trkpt lat="45.00728" lon="6.46563">
        <ele>1628.8</ele>
        <time>2020-08-18T07:51:17Z</time>
      </trkpt>
      <trkpt lat="45.00737" lon="6.46569">
        <ele>1629.3</ele>
        <time>2020-08-18T07:51:23Z</time>
      </trkpt>
      <trkpt lat="45.00746" lon="6.46577">
        <ele>1629.9</ele>
        <time>2020-08-18T07:51:30Z</time>
      </trkpt>
      <trkpt lat="45.00755" lon="6.46579">
        <ele>1630.7</ele>
        <time>2020-08-18T07:51:36Z</time>
      </trkpt>
      <trkpt lat="45.00763" lon="6.46587">
        <ele>1631.5</ele>
        <time>2020-08-18T07:51:43Z</time>
      </trkpt>
      <trkpt lat="45.00768" lon="6.46599">
        <ele>1632</ele>
        <time>2020-08-18T07:51:49Z</time>
      </trkpt>
      <trkpt lat="45.00773" lon="6.46611">
        <ele>1632.4</ele>
        <time>2020-08-18T07:51:56Z</time>
      </trkpt>
      <trkpt lat="45.00781" lon="6.46619">
        <ele>1632.6</ele>
        <time>2020-08-18T07:52:04Z</time>
      </trkpt>
      <trkpt lat="45.00791" lon="6.46614">
        <ele>1632.8</ele>
        <time>2020-08-18T07:52:13Z</time>
      </trkpt>
      <trkpt lat="45.00799" lon="6.46606">
        <ele>1632.7</ele>
        <time>2020-08-18T07:52:20Z</time>
      </trkpt>
      <trkpt lat="45.00807" lon="6.466">
        <ele>1632.3</ele>
        <time>2020-08-18T07:52:27Z</time>
      </trkpt>
      <trkpt lat="45.00816" lon="6.466">
        <ele>1632.1</ele>
        <time>2020-08-18T07:52:33Z</time>
      </trkpt>
      <trkpt lat="45.00825" lon="6.46602">
        <ele>1631.9</ele>
        <time>2020-08-18T07:52:39Z</time>
      </trkpt>
      <trkpt lat="45.00835" lon="6.46605">
        <ele>1631.9</ele>
        <time>2020-08-18T07:52:47Z</time>
      </trkpt>
      <trkpt lat="45.00845" lon="6.46604">
        <ele>1632</ele>
        <time>2020-08-18T07:52:56Z</time>
      </trkpt>
      <trkpt lat="45.00854" lon="6.46602">
        <ele>1632.1</ele>
        <time>2020-08-18T07:53:03Z</time>
      </trkpt>
      <trkpt lat="45.00863" lon="6.46598">
        <ele>1632.2</ele>
        <time>2020-08-18T07:53:11Z</time>
      </trkpt>
      <trkpt lat="45.00872" lon="6.46599">
        <ele>1632.3</ele>
        <time>2020-08-18T07:53:20Z</time>
      </trkpt>
      <trkpt lat="45.00881" lon="6.46601">
        <ele>1632.3</ele>
        <time>2020-08-18T07:53:26Z</time>
      </trkpt>
      <trkpt lat="45.0089" lon="6.46608">
        <ele>1632.3</ele>
        <time>2020-08-18T07:53:32Z</time>
      </trkpt>
      <trkpt lat="45.00899" lon="6.46612">
        <ele>1632.2</ele>
        <time>2020-08-18T07:53:38Z</time>
      </trkpt>
      <trkpt lat="45.00908" lon="6.46618">
        <ele>1632.2</ele>
        <time>2020-08-18T07:53:44Z</time>
      </trkpt>
      <trkpt lat="45.00916" lon="6.46626">
        <ele>1632.1</ele>
        <time>2020-08-18T07:53:50Z</time>
      </trkpt>
      <trkpt lat="45.00924" lon="6.46635">
        <ele>1632</ele>
        <time>2020-08-18T07:53:57Z</time>
      </trkpt>
      <trkpt lat="45.00932" lon="6.46642">
        <ele>1631.9</ele>
        <time>2020-08-18T07:54:04Z</time>
      </trkpt>
      <trkpt lat="45.0094" lon="6.46651">
        <ele>1631.8</ele>
        <time>2020-08-18T07:54:11Z</time>
      </trkpt>
      <trkpt lat="45.00949" lon="6.46658">
        <ele>1631.7</ele>
        <time>2020-08-18T07:54:18Z</time>
      </trkpt>
      <trkpt lat="45.00957" lon="6.46666">
        <ele>1631.6</ele>
        <time>2020-08-18T07:54:25Z</time>
      </trkpt>
      <trkpt lat="45.00965" lon="6.46674">
        <ele>1631.6</ele>
        <time>2020-08-18T07:54:32Z</time>
      </trkpt>
      <trkpt lat="45.00973" lon="6.46682">
        <ele>1631.6</ele>
        <time>2020-08-18T07:54:39Z</time>
      </trkpt>
      <trkpt lat="45.0098" lon="6.46691">
        <ele>1631.6</ele>
        <time>2020-08-18T07:54:45Z</time>
      </trkpt>
      <trkpt lat="45.00988" lon="6.46699">
        <ele>1631.6</ele>
        <time>2020-08-18T07:54:51Z</time>
      </trkpt>
      <trkpt lat="45.00998" lon="6.46702">
        <ele>1631.6</ele>
        <time>2020-08-18T07:54:58Z</time>
      </trkpt>
      <trkpt lat="45.01006" lon="6.46695">
        <ele>1631.6</ele>
        <time>2020-08-18T07:55:05Z</time>
      </trkpt>
      <trkpt lat="45.01014" lon="6.46685">
        <ele>1631.6</ele>
        <time>2020-08-18T07:55:12Z</time>
      </trkpt>
      <trkpt lat="45.01022" lon="6.4668">
        <ele>1631.9</ele>
        <time>2020-08-18T07:55:19Z</time>
      </trkpt>
      <trkpt lat="45.01033" lon="6.46679">
        <ele>1632.2</ele>
        <time>2020-08-18T07:55:25Z</time>
      </trkpt>
      <trkpt lat="45.01042" lon="6.46672">
        <ele>1632.5</ele>
        <time>2020-08-18T07:55:32Z</time>
      </trkpt>
      <trkpt lat="45.01048" lon="6.46663">
        <ele>1632.9</ele>
        <time>2020-08-18T07:55:39Z</time>
      </trkpt>
      <trkpt lat="45.01053" lon="6.46651">
        <ele>1633.3</ele>
        <time>2020-08-18T07:55:47Z</time>
      </trkpt>
      <trkpt lat="45.01058" lon="6.4664">
        <ele>1633.3</ele>
        <time>2020-08-18T07:55:54Z</time>
      </trkpt>
      <trkpt lat="45.01061" lon="6.46628">
        <ele>1632.8</ele>
        <time>2020-08-18T07:56:00Z</time>
      </trkpt>
      <trkpt lat="45.01066" lon="6.46617">
        <ele>1632.2</ele>
        <time>2020-08-18T07:56:06Z</time>
      </trkpt>
      <trkpt lat="45.01074" lon="6.46608">
        <ele>1631.6</ele>
        <time>2020-08-18T07:56:13Z</time>
      </trkpt>
      <trkpt lat="45.01083" lon="6.46603">
        <ele>1630.9</ele>
        <time>2020-08-18T07:56:20Z</time>
      </trkpt>
      <trkpt lat="45.01089" lon="6.46591">
        <ele>1630.4</ele>
        <time>2020-08-18T07:56:26Z</time>
      </trkpt>
      <trkpt lat="45.01097" lon="6.46582">
        <ele>1630.1</ele>
        <time>2020-08-18T07:56:31Z</time>
      </trkpt>
      <trkpt lat="45.01105" lon="6.46576">
        <ele>1629.9</ele>
        <time>2020-08-18T07:56:37Z</time>
      </trkpt>
      <trkpt lat="45.01115" lon="6.46579">
        <ele>1629.7</ele>
        <time>2020-08-18T07:56:43Z</time>
      </trkpt>
      <trkpt lat="45.01123" lon="6.46585">
        <ele>1629.6</ele>
        <time>2020-08-18T07:56:49Z</time>
      </trkpt>
      <trkpt lat="45.0113" lon="6.46592">
        <ele>1629.6</ele>
        <time>2020-08-18T07:56:55Z</time>
      </trkpt>
      <trkpt lat="45.0114" lon="6.46593">
        <ele>1630</ele>
        <time>2020-08-18T07:57:02Z</time>
      </trkpt>
      <trkpt lat="45.0115" lon="6.46587">
        <ele>1630.6</ele>
        <time>2020-08-18T07:57:09Z</time>
      </trkpt>
      <trkpt lat="45.01158" lon="6.46579">
        <ele>1631.4</ele>
        <time>2020-08-18T07:57:16Z</time>
      </trkpt>
      <trkpt lat="45.01167" lon="6.46574">
        <ele>1632.2</ele>
        <time>2020-08-18T07:57:23Z</time>
      </trkpt>
      <trkpt lat="45.01177" lon="6.46569">
        <ele>1633</ele>
        <time>2020-08-18T07:57:30Z</time>
      </trkpt>
      <trkpt lat="45.01186" lon="6.46565">
        <ele>1633.7</ele>
        <time>2020-08-18T07:57:37Z</time>
      </trkpt>
      <trkpt lat="45.01196" lon="6.4656">
        <ele>1634.4</ele>
        <time>2020-08-18T07:57:44Z</time>
      </trkpt>
      <trkpt lat="45.01203" lon="6.46553">
        <ele>1634.9</ele>
        <time>2020-08-18T07:57:50Z</time>
      </trkpt>
      <trkpt lat="45.01211" lon="6.46544">
        <ele>1635.4</ele>
        <time>2020-08-18T07:57:57Z</time>
      </trkpt>
      <trkpt lat="45.01218" lon="6.46534">
        <ele>1635.9</ele>
        <time>2020-08-18T07:58:04Z</time>
      </trkpt>
      <trkpt lat="45.01224" lon="6.46524">
        <ele>1636.2</ele>
        <time>2020-08-18T07:58:10Z</time>
      </trkpt>
      <trkpt lat="45.0123" lon="6.46514">
        <ele>1636.6</ele>
        <time>2020-08-18T07:58:16Z</time>
      </trkpt>
      <trkpt lat="45.01237" lon="6.46503">
        <ele>1637</ele>
        <time>2020-08-18T07:58:23Z</time>
      </trkpt>
      <trkpt lat="45.01243" lon="6.46494">
        <ele>1637.5</ele>
        <time>2020-08-18T07:58:29Z</time>
      </trkpt>
      <trkpt lat="45.01251" lon="6.46484">
        <ele>1637.9</ele>
        <time>2020-08-18T07:58:36Z</time>
      </trkpt>
      <trkpt lat="45.01258" lon="6.46475">
        <ele>1638.6</ele>
        <time>2020-08-18T07:58:43Z</time>
      </trkpt>
      <trkpt lat="45.01266" lon="6.46468">
        <ele>1639.1</ele>
        <time>2020-08-18T07:58:50Z</time>
      </trkpt>
      <trkpt lat="45.01274" lon="6.4646">
        <ele>1639.7</ele>
        <time>2020-08-18T07:58:57Z</time>
      </trkpt>
      <trkpt lat="45.01283" lon="6.46453">
        <ele>1640.4</ele>
        <time>2020-08-18T07:59:04Z</time>
      </trkpt>
      <trkpt lat="45.0129" lon="6.46444">
        <ele>1640.9</ele>
        <time>2020-08-18T07:59:10Z</time>
      </trkpt>
      <trkpt lat="45.01298" lon="6.46436">
        <ele>1641.6</ele>
        <time>2020-08-18T07:59:16Z</time>
      </trkpt>
      <trkpt lat="45.01305" lon="6.46426">
        <ele>1642.2</ele>
        <time>2020-08-18T07:59:22Z</time>
      </trkpt>
      <trkpt lat="45.01312" lon="6.46417">
        <ele>1642.7</ele>
        <time>2020-08-18T07:59:28Z</time>
      </trkpt>
      <trkpt lat="45.01319" lon="6.4641">
        <ele>1643.2</ele>
        <time>2020-08-18T07:59:35Z</time>
      </trkpt>
      <trkpt lat="45.01325" lon="6.46398">
        <ele>1643.9</ele>
        <time>2020-08-18T07:59:42Z</time>
      </trkpt>
      <trkpt lat="45.01332" lon="6.46388">
        <ele>1644.4</ele>
        <time>2020-08-18T07:59:48Z</time>
      </trkpt>
      <trkpt lat="45.01339" lon="6.46377">
        <ele>1644.9</ele>
        <time>2020-08-18T07:59:55Z</time>
      </trkpt>
      <trkpt lat="45.01348" lon="6.46371">
        <ele>1645.6</ele>
        <time>2020-08-18T08:00:01Z</time>
      </trkpt>
      <trkpt lat="45.01357" lon="6.46365">
        <ele>1646.3</ele>
        <time>2020-08-18T08:00:08Z</time>
      </trkpt>
      <trkpt lat="45.01365" lon="6.4636">
        <ele>1647</ele>
        <time>2020-08-18T08:00:15Z</time>
      </trkpt>
      <trkpt lat="45.01374" lon="6.46356">
        <ele>1647.5</ele>
        <time>2020-08-18T08:00:22Z</time>
      </trkpt>
      <trkpt lat="45.01384" lon="6.46354">
        <ele>1647.8</ele>
        <time>2020-08-18T08:00:28Z</time>
      </trkpt>
      <trkpt lat="45.01394" lon="6.46354">
        <ele>1648.4</ele>
        <time>2020-08-18T08:00:35Z</time>
      </trkpt>
      <trkpt lat="45.01405" lon="6.46353">
        <ele>1649</ele>
        <time>2020-08-18T08:00:40Z</time>
      </trkpt>
      <trkpt lat="45.01415" lon="6.46352">
        <ele>1649.6</ele>
        <time>2020-08-18T08:00:46Z</time>
      </trkpt>
      <trkpt lat="45.01425" lon="6.46349">
        <ele>1650.4</ele>
        <time>2020-08-18T08:00:53Z</time>
      </trkpt>
      <trkpt lat="45.01434" lon="6.46346">
        <ele>1651.3</ele>
        <time>2020-08-18T08:01:00Z</time>
      </trkpt>
      <trkpt lat="45.01442" lon="6.46337">
        <ele>1652.4</ele>
        <time>2020-08-18T08:01:08Z</time>
      </trkpt>
      <trkpt lat="45.01447" lon="6.46324">
        <ele>1653.2</ele>
        <time>2020-08-18T08:01:14Z</time>
      </trkpt>
      <trkpt lat="45.01452" lon="6.46312">
        <ele>1654</ele>
        <time>2020-08-18T08:01:20Z</time>
      </trkpt>
      <trkpt lat="45.01457" lon="6.463">
        <ele>1655</ele>
        <time>2020-08-18T08:01:26Z</time>
      </trkpt>
      <trkpt lat="45.01463" lon="6.46287">
        <ele>1656.2</ele>
        <time>2020-08-18T08:01:32Z</time>
      </trkpt>
      <trkpt lat="45.0147" lon="6.46277">
        <ele>1657.1</ele>
        <time>2020-08-18T08:01:38Z</time>
      </trkpt>
      <trkpt lat="45.01477" lon="6.46269">
        <ele>1658.1</ele>
        <time>2020-08-18T08:01:44Z</time>
      </trkpt>
      <trkpt lat="45.01486" lon="6.46261">
        <ele>1658.9</ele>
        <time>2020-08-18T08:01:51Z</time>
      </trkpt>
      <trkpt lat="45.01494" lon="6.46253">
        <ele>1659.6</ele>
        <time>2020-08-18T08:01:57Z</time>
      </trkpt>
      <trkpt lat="45.01501" lon="6.46242">
        <ele>1660.1</ele>
        <time>2020-08-18T08:02:01Z</time>
      </trkpt>
      <trkpt lat="45.01508" lon="6.46233">
        <ele>1660.8</ele>
        <time>2020-08-18T08:02:07Z</time>
      </trkpt>
      <trkpt lat="45.01517" lon="6.46225">
        <ele>1661.6</ele>
        <time>2020-08-18T08:02:13Z</time>
      </trkpt>
      <trkpt lat="45.01524" lon="6.46215">
        <ele>1662.5</ele>
        <time>2020-08-18T08:02:19Z</time>
      </trkpt>
      <trkpt lat="45.01531" lon="6.46206">
        <ele>1663.7</ele>
        <time>2020-08-18T08:02:26Z</time>
      </trkpt>
      <trkpt lat="45.01539" lon="6.46196">
        <ele>1664.7</ele>
        <time>2020-08-18T08:02:33Z</time>
      </trkpt>
      <trkpt lat="45.01548" lon="6.46191">
        <ele>1665.4</ele>
        <time>2020-08-18T08:02:39Z</time>
      </trkpt>
      <trkpt lat="45.01556" lon="6.46185">
        <ele>1666</ele>
        <time>2020-08-18T08:02:46Z</time>
      </trkpt>
      <trkpt lat="45.01564" lon="6.46179">
        <ele>1666.7</ele>
        <time>2020-08-18T08:02:53Z</time>
      </trkpt>
      <trkpt lat="45.01573" lon="6.46172">
        <ele>1667.1</ele>
        <time>2020-08-18T08:02:59Z</time>
      </trkpt>
      <trkpt lat="45.01582" lon="6.46165">
        <ele>1667.5</ele>
        <time>2020-08-18T08:03:04Z</time>
      </trkpt>
      <trkpt lat="45.0159" lon="6.46158">
        <ele>1668</ele>
        <time>2020-08-18T08:03:10Z</time>
      </trkpt>
      <trkpt lat="45.01598" lon="6.46151">
        <ele>1668.6</ele>
        <time>2020-08-18T08:03:16Z</time>
      </trkpt>
      <trkpt lat="45.01606" lon="6.46145">
        <ele>1669.1</ele>
        <time>2020-08-18T08:03:23Z</time>
      </trkpt>
      <trkpt lat="45.01615" lon="6.4614">
        <ele>1669.7</ele>
        <time>2020-08-18T08:03:30Z</time>
      </trkpt>
      <trkpt lat="45.01624" lon="6.46137">
        <ele>1670.1</ele>
        <time>2020-08-18T08:03:37Z</time>
      </trkpt>
      <trkpt lat="45.01634" lon="6.46133">
        <ele>1670.6</ele>
        <time>2020-08-18T08:03:44Z</time>
      </trkpt>
      <trkpt lat="45.01643" lon="6.46128">
        <ele>1671</ele>
        <time>2020-08-18T08:03:51Z</time>
      </trkpt>
      <trkpt lat="45.01652" lon="6.46123">
        <ele>1671.3</ele>
        <time>2020-08-18T08:03:58Z</time>
      </trkpt>
      <trkpt lat="45.01661" lon="6.4612">
        <ele>1671.5</ele>
        <time>2020-08-18T08:04:05Z</time>
      </trkpt>
      <trkpt lat="45.01671" lon="6.46116">
        <ele>1671.8</ele>
        <time>2020-08-18T08:04:10Z</time>
      </trkpt>
      <trkpt lat="45.01681" lon="6.46111">
        <ele>1672.3</ele>
        <time>2020-08-18T08:04:17Z</time>
      </trkpt>
      <trkpt lat="45.01689" lon="6.46105">
        <ele>1672.6</ele>
        <time>2020-08-18T08:04:23Z</time>
      </trkpt>
      <trkpt lat="45.01698" lon="6.461">
        <ele>1673</ele>
        <time>2020-08-18T08:04:30Z</time>
      </trkpt>
      <trkpt lat="45.01705" lon="6.46092">
        <ele>1673.5</ele>
        <time>2020-08-18T08:04:37Z</time>
      </trkpt>
      <trkpt lat="45.01714" lon="6.46085">
        <ele>1674.1</ele>
        <time>2020-08-18T08:04:46Z</time>
      </trkpt>
      <trkpt lat="45.01723" lon="6.4608">
        <ele>1674.7</ele>
        <time>2020-08-18T08:04:53Z</time>
      </trkpt>
      <trkpt lat="45.01731" lon="6.46075">
        <ele>1675.3</ele>
        <time>2020-08-18T08:04:59Z</time>
      </trkpt>
      <trkpt lat="45.01739" lon="6.46066">
        <ele>1676</ele>
        <time>2020-08-18T08:05:06Z</time>
      </trkpt>
      <trkpt lat="45.01747" lon="6.46059">
        <ele>1676.9</ele>
        <time>2020-08-18T08:05:13Z</time>
      </trkpt>
      <trkpt lat="45.01756" lon="6.46051">
        <ele>1677.7</ele>
        <time>2020-08-18T08:05:20Z</time>
      </trkpt>
      <trkpt lat="45.01763" lon="6.46044">
        <ele>1678.5</ele>
        <time>2020-08-18T08:05:27Z</time>
      </trkpt>
      <trkpt lat="45.0177" lon="6.46034">
        <ele>1679.2</ele>
        <time>2020-08-18T08:05:34Z</time>
      </trkpt>
      <trkpt lat="45.01775" lon="6.46021">
        <ele>1679.8</ele>
        <time>2020-08-18T08:05:41Z</time>
      </trkpt>
      <trkpt lat="45.01779" lon="6.46008">
        <ele>1680.2</ele>
        <time>2020-08-18T08:05:48Z</time>
      </trkpt>
      <trkpt lat="45.01781" lon="6.45994">
        <ele>1680.6</ele>
        <time>2020-08-18T08:05:55Z</time>
      </trkpt>
      <trkpt lat="45.01783" lon="6.45981">
        <ele>1681.2</ele>
        <time>2020-08-18T08:06:02Z</time>
      </trkpt>
      <trkpt lat="45.01785" lon="6.45967">
        <ele>1681.7</ele>
        <time>2020-08-18T08:06:09Z</time>
      </trkpt>
      <trkpt lat="45.01786" lon="6.45954">
        <ele>1682.2</ele>
        <time>2020-08-18T08:06:15Z</time>
      </trkpt>
      <trkpt lat="45.01785" lon="6.45941">
        <ele>1682.6</ele>
        <time>2020-08-18T08:06:21Z</time>
      </trkpt>
      <trkpt lat="45.01784" lon="6.45929">
        <ele>1683.2</ele>
        <time>2020-08-18T08:06:28Z</time>
      </trkpt>
      <trkpt lat="45.01784" lon="6.45916">
        <ele>1683.9</ele>
        <time>2020-08-18T08:06:35Z</time>
      </trkpt>
      <trkpt lat="45.01782" lon="6.45902">
        <ele>1684.5</ele>
        <time>2020-08-18T08:06:43Z</time>
      </trkpt>
      <trkpt lat="45.0178" lon="6.45889">
        <ele>1685.1</ele>
        <time>2020-08-18T08:06:49Z</time>
      </trkpt>
      <trkpt lat="45.0178" lon="6.45875">
        <ele>1685.9</ele>
        <time>2020-08-18T08:06:55Z</time>
      </trkpt>
      <trkpt lat="45.01782" lon="6.45862">
        <ele>1687.1</ele>
        <time>2020-08-18T08:07:04Z</time>
      </trkpt>
      <trkpt lat="45.01787" lon="6.45849">
        <ele>1688.1</ele>
        <time>2020-08-18T08:07:12Z</time>
      </trkpt>
      <trkpt lat="45.01793" lon="6.45839">
        <ele>1689</ele>
        <time>2020-08-18T08:07:19Z</time>
      </trkpt>
      <trkpt lat="45.01798" lon="6.45827">
        <ele>1690</ele>
        <time>2020-08-18T08:07:26Z</time>
      </trkpt>
      <trkpt lat="45.01805" lon="6.45819">
        <ele>1690.9</ele>
        <time>2020-08-18T08:07:33Z</time>
      </trkpt>
      <trkpt lat="45.01812" lon="6.45809">
        <ele>1691.8</ele>
        <time>2020-08-18T08:07:40Z</time>
      </trkpt>
      <trkpt lat="45.01821" lon="6.45802">
        <ele>1692.7</ele>
        <time>2020-08-18T08:07:47Z</time>
      </trkpt>
      <trkpt lat="45.01829" lon="6.45794">
        <ele>1693.4</ele>
        <time>2020-08-18T08:07:54Z</time>
      </trkpt>
      <trkpt lat="45.01836" lon="6.45786">
        <ele>1693.8</ele>
        <time>2020-08-18T08:08:01Z</time>
      </trkpt>
      <trkpt lat="45.01844" lon="6.45775">
        <ele>1694</ele>
        <time>2020-08-18T08:08:08Z</time>
      </trkpt>
      <trkpt lat="45.0185" lon="6.45764">
        <ele>1694.2</ele>
        <time>2020-08-18T08:08:15Z</time>
      </trkpt>
      <trkpt lat="45.01855" lon="6.45753">
        <ele>1694.3</ele>
        <time>2020-08-18T08:08:22Z</time>
      </trkpt>
      <trkpt lat="45.0186" lon="6.45741">
        <ele>1694.4</ele>
        <time>2020-08-18T08:08:29Z</time>
      </trkpt>
      <trkpt lat="45.01866" lon="6.45729">
        <ele>1694.7</ele>
        <time>2020-08-18T08:08:36Z</time>
      </trkpt>
      <trkpt lat="45.01872" lon="6.45718">
        <ele>1695</ele>
        <time>2020-08-18T08:08:43Z</time>
      </trkpt>
      <trkpt lat="45.01879" lon="6.45709">
        <ele>1695.3</ele>
        <time>2020-08-18T08:08:50Z</time>
      </trkpt>
      <trkpt lat="45.01886" lon="6.45701">
        <ele>1695.7</ele>
        <time>2020-08-18T08:08:57Z</time>
      </trkpt>
      <trkpt lat="45.01895" lon="6.45693">
        <ele>1695.9</ele>
        <time>2020-08-18T08:09:04Z</time>
      </trkpt>
      <trkpt lat="45.01904" lon="6.45686">
        <ele>1696.1</ele>
        <time>2020-08-18T08:09:11Z</time>
      </trkpt>
      <trkpt lat="45.01912" lon="6.45679">
        <ele>1696.2</ele>
        <time>2020-08-18T08:09:18Z</time>
      </trkpt>
      <trkpt lat="45.0192" lon="6.45671">
        <ele>1696.3</ele>
        <time>2020-08-18T08:09:25Z</time>
      </trkpt>
      <trkpt lat="45.01926" lon="6.45661">
        <ele>1696.3</ele>
        <time>2020-08-18T08:09:33Z</time>
      </trkpt>
      <trkpt lat="45.01934" lon="6.45651">
        <ele>1696</ele>
        <time>2020-08-18T08:09:41Z</time>
      </trkpt>
      <trkpt lat="45.01941" lon="6.45642">
        <ele>1695.5</ele>
        <time>2020-08-18T08:09:48Z</time>
      </trkpt>
      <trkpt lat="45.01949" lon="6.45632">
        <ele>1694.9</ele>
        <time>2020-08-18T08:09:55Z</time>
      </trkpt>
      <trkpt lat="45.01956" lon="6.45624">
        <ele>1694.3</ele>
        <time>2020-08-18T08:10:01Z</time>
      </trkpt>
      <trkpt lat="45.01963" lon="6.45615">
        <ele>1693.8</ele>
        <time>2020-08-18T08:10:08Z</time>
      </trkpt>
      <trkpt lat="45.01972" lon="6.45606">
        <ele>1693.5</ele>
        <time>2020-08-18T08:10:15Z</time>
      </trkpt>
      <trkpt lat="45.01979" lon="6.45598">
        <ele>1693.1</ele>
        <time>2020-08-18T08:10:22Z</time>
      </trkpt>
      <trkpt lat="45.01988" lon="6.45591">
        <ele>1692.9</ele>
        <time>2020-08-18T08:10:30Z</time>
      </trkpt>
      <trkpt lat="45.01998" lon="6.45586">
        <ele>1692.7</ele>
        <time>2020-08-18T08:10:37Z</time>
      </trkpt>
      <trkpt lat="45.02007" lon="6.45578">
        <ele>1692.4</ele>
        <time>2020-08-18T08:10:45Z</time>
      </trkpt>
      <trkpt lat="45.02016" lon="6.45573">
        <ele>1692.3</ele>
        <time>2020-08-18T08:10:52Z</time>
      </trkpt>
      <trkpt lat="45.02024" lon="6.45565">
        <ele>1692.1</ele>
        <time>2020-08-18T08:10:58Z</time>
      </trkpt>
      <trkpt lat="45.02031" lon="6.45556">
        <ele>1692</ele>
        <time>2020-08-18T08:11:04Z</time>
      </trkpt>
      <trkpt lat="45.02038" lon="6.45549">
        <ele>1692</ele>
        <time>2020-08-18T08:11:10Z</time>
      </trkpt>
      <trkpt lat="45.02046" lon="6.4554">
        <ele>1692</ele>
        <time>2020-08-18T08:11:17Z</time>
      </trkpt>
      <trkpt lat="45.02053" lon="6.45532">
        <ele>1692.2</ele>
        <time>2020-08-18T08:11:23Z</time>
      </trkpt>
      <trkpt lat="45.02061" lon="6.45523">
        <ele>1692.5</ele>
        <time>2020-08-18T08:11:29Z</time>
      </trkpt>
      <trkpt lat="45.02068" lon="6.45514">
        <ele>1693</ele>
        <time>2020-08-18T08:11:36Z</time>
      </trkpt>
      <trkpt lat="45.02076" lon="6.45506">
        <ele>1693.6</ele>
        <time>2020-08-18T08:11:43Z</time>
      </trkpt>
      <trkpt lat="45.02083" lon="6.45496">
        <ele>1694.1</ele>
        <time>2020-08-18T08:11:50Z</time>
      </trkpt>
      <trkpt lat="45.02091" lon="6.45486">
        <ele>1694.9</ele>
        <time>2020-08-18T08:11:57Z</time>
      </trkpt>
      <trkpt lat="45.02098" lon="6.45477">
        <ele>1695.6</ele>
        <time>2020-08-18T08:12:03Z</time>
      </trkpt>
      <trkpt lat="45.02105" lon="6.4547">
        <ele>1696</ele>
        <time>2020-08-18T08:12:09Z</time>
      </trkpt>
      <trkpt lat="45.02113" lon="6.45462">
        <ele>1696.3</ele>
        <time>2020-08-18T08:12:15Z</time>
      </trkpt>
      <trkpt lat="45.02122" lon="6.45455">
        <ele>1696.5</ele>
        <time>2020-08-18T08:12:22Z</time>
      </trkpt>
      <trkpt lat="45.02131" lon="6.4545">
        <ele>1696.7</ele>
        <time>2020-08-18T08:12:28Z</time>
      </trkpt>
      <trkpt lat="45.02139" lon="6.45444">
        <ele>1696.8</ele>
        <time>2020-08-18T08:12:34Z</time>
      </trkpt>
      <trkpt lat="45.02147" lon="6.45437">
        <ele>1696.9</ele>
        <time>2020-08-18T08:12:40Z</time>
      </trkpt>
      <trkpt lat="45.02155" lon="6.45431">
        <ele>1697.2</ele>
        <time>2020-08-18T08:12:46Z</time>
      </trkpt>
      <trkpt lat="45.02163" lon="6.45424">
        <ele>1697.5</ele>
        <time>2020-08-18T08:12:53Z</time>
      </trkpt>
      <trkpt lat="45.02172" lon="6.45418">
        <ele>1697.7</ele>
        <time>2020-08-18T08:13:00Z</time>
      </trkpt>
      <trkpt lat="45.02181" lon="6.45415">
        <ele>1697.9</ele>
        <time>2020-08-18T08:13:06Z</time>
      </trkpt>
      <trkpt lat="45.02191" lon="6.45413">
        <ele>1698.4</ele>
        <time>2020-08-18T08:13:13Z</time>
      </trkpt>
      <trkpt lat="45.022" lon="6.45413">
        <ele>1699</ele>
        <time>2020-08-18T08:13:20Z</time>
      </trkpt>
      <trkpt lat="45.0221" lon="6.45413">
        <ele>1699.6</ele>
        <time>2020-08-18T08:13:27Z</time>
      </trkpt>
      <trkpt lat="45.02219" lon="6.45408">
        <ele>1700.2</ele>
        <time>2020-08-18T08:13:34Z</time>
      </trkpt>
      <trkpt lat="45.02229" lon="6.45404">
        <ele>1700.8</ele>
        <time>2020-08-18T08:13:41Z</time>
      </trkpt>
      <trkpt lat="45.02239" lon="6.454">
        <ele>1701.2</ele>
        <time>2020-08-18T08:13:48Z</time>
      </trkpt>
      <trkpt lat="45.02248" lon="6.45396">
        <ele>1701.5</ele>
        <time>2020-08-18T08:13:55Z</time>
      </trkpt>
      <trkpt lat="45.02258" lon="6.45391">
        <ele>1701.8</ele>
        <time>2020-08-18T08:14:02Z</time>
      </trkpt>
      <trkpt lat="45.02266" lon="6.45385">
        <ele>1702.1</ele>
        <time>2020-08-18T08:14:09Z</time>
      </trkpt>
      <trkpt lat="45.02274" lon="6.45376">
        <ele>1702.5</ele>
        <time>2020-08-18T08:14:16Z</time>
      </trkpt>
      <trkpt lat="45.02281" lon="6.45368">
        <ele>1702.9</ele>
        <time>2020-08-18T08:14:22Z</time>
      </trkpt>
      <trkpt lat="45.02287" lon="6.45358">
        <ele>1703.4</ele>
        <time>2020-08-18T08:14:29Z</time>
      </trkpt>
      <trkpt lat="45.02292" lon="6.45347">
        <ele>1703.8</ele>
        <time>2020-08-18T08:14:36Z</time>
      </trkpt>
      <trkpt lat="45.02295" lon="6.45334">
        <ele>1704.1</ele>
        <time>2020-08-18T08:14:42Z</time>
      </trkpt>
      <trkpt lat="45.023" lon="6.45322">
        <ele>1704.5</ele>
        <time>2020-08-18T08:14:49Z</time>
      </trkpt>
      <trkpt lat="45.02304" lon="6.4531">
        <ele>1704.9</ele>
        <time>2020-08-18T08:14:56Z</time>
      </trkpt>
      <trkpt lat="45.02308" lon="6.45298">
        <ele>1705.5</ele>
        <time>2020-08-18T08:15:03Z</time>
      </trkpt>
      <trkpt lat="45.02312" lon="6.45286">
        <ele>1706.5</ele>
        <time>2020-08-18T08:15:10Z</time>
      </trkpt>
      <trkpt lat="45.02317" lon="6.45274">
        <ele>1707.5</ele>
        <time>2020-08-18T08:15:17Z</time>
      </trkpt>
      <trkpt lat="45.02322" lon="6.45261">
        <ele>1708.8</ele>
        <time>2020-08-18T08:15:25Z</time>
      </trkpt>
      <trkpt lat="45.02327" lon="6.4525">
        <ele>1709.9</ele>
        <time>2020-08-18T08:15:32Z</time>
      </trkpt>
      <trkpt lat="45.02331" lon="6.45238">
        <ele>1711</ele>
        <time>2020-08-18T08:15:39Z</time>
      </trkpt>
      <trkpt lat="45.02336" lon="6.45228">
        <ele>1711.9</ele>
        <time>2020-08-18T08:15:46Z</time>
      </trkpt>
      <trkpt lat="45.02343" lon="6.45219">
        <ele>1712.7</ele>
        <time>2020-08-18T08:15:53Z</time>
      </trkpt>
      <trkpt lat="45.02348" lon="6.45207">
        <ele>1713.7</ele>
        <time>2020-08-18T08:16:00Z</time>
      </trkpt>
      <trkpt lat="45.02352" lon="6.45195">
        <ele>1714.6</ele>
        <time>2020-08-18T08:16:07Z</time>
      </trkpt>
      <trkpt lat="45.02357" lon="6.45184">
        <ele>1715.6</ele>
        <time>2020-08-18T08:16:14Z</time>
      </trkpt>
      <trkpt lat="45.02362" lon="6.45171">
        <ele>1716.5</ele>
        <time>2020-08-18T08:16:21Z</time>
      </trkpt>
      <trkpt lat="45.02366" lon="6.4516">
        <ele>1717.3</ele>
        <time>2020-08-18T08:16:28Z</time>
      </trkpt>
      <trkpt lat="45.0237" lon="6.45148">
        <ele>1718</ele>
        <time>2020-08-18T08:16:35Z</time>
      </trkpt>
      <trkpt lat="45.02375" lon="6.45136">
        <ele>1718.8</ele>
        <time>2020-08-18T08:16:42Z</time>
      </trkpt>
      <trkpt lat="45.02376" lon="6.45123">
        <ele>1719.9</ele>
        <time>2020-08-18T08:16:50Z</time>
      </trkpt>
      <trkpt lat="45.0238" lon="6.45111">
        <ele>1720.9</ele>
        <time>2020-08-18T08:16:57Z</time>
      </trkpt>
      <trkpt lat="45.02386" lon="6.451">
        <ele>1721.9</ele>
        <time>2020-08-18T08:17:04Z</time>
      </trkpt>
      <trkpt lat="45.02389" lon="6.45086">
        <ele>1723.1</ele>
        <time>2020-08-18T08:17:12Z</time>
      </trkpt>
      <trkpt lat="45.02392" lon="6.45073">
        <ele>1724.2</ele>
        <time>2020-08-18T08:17:19Z</time>
      </trkpt>
      <trkpt lat="45.02394" lon="6.45061">
        <ele>1725.2</ele>
        <time>2020-08-18T08:17:26Z</time>
      </trkpt>
      <trkpt lat="45.02397" lon="6.45047">
        <ele>1726.5</ele>
        <time>2020-08-18T08:17:34Z</time>
      </trkpt>
      <trkpt lat="45.024" lon="6.45034">
        <ele>1727.4</ele>
        <time>2020-08-18T08:17:41Z</time>
      </trkpt>
      <trkpt lat="45.02403" lon="6.45021">
        <ele>1728.3</ele>
        <time>2020-08-18T08:17:48Z</time>
      </trkpt>
      <trkpt lat="45.02405" lon="6.45007">
        <ele>1729</ele>
        <time>2020-08-18T08:17:55Z</time>
      </trkpt>
      <trkpt lat="45.02408" lon="6.44995">
        <ele>1729.8</ele>
        <time>2020-08-18T08:18:02Z</time>
      </trkpt>
      <trkpt lat="45.02412" lon="6.44982">
        <ele>1730.7</ele>
        <time>2020-08-18T08:18:09Z</time>
      </trkpt>
      <trkpt lat="45.02416" lon="6.4497">
        <ele>1731.9</ele>
        <time>2020-08-18T08:18:16Z</time>
      </trkpt>
      <trkpt lat="45.02423" lon="6.44963">
        <ele>1733</ele>
        <time>2020-08-18T08:18:24Z</time>
      </trkpt>
      <trkpt lat="45.02426" lon="6.4495">
        <ele>1734.8</ele>
        <time>2020-08-18T08:18:37Z</time>
      </trkpt>
      <trkpt lat="45.02424" lon="6.44937">
        <ele>1735.4</ele>
        <time>2020-08-18T08:18:44Z</time>
      </trkpt>
      <trkpt lat="45.0243" lon="6.44927">
        <ele>1735.6</ele>
        <time>2020-08-18T08:18:48Z</time>
      </trkpt>
      <trkpt lat="45.02438" lon="6.4492">
        <ele>1735.9</ele>
        <time>2020-08-18T08:18:52Z</time>
      </trkpt>
      <trkpt lat="45.02445" lon="6.44911">
        <ele>1736.5</ele>
        <time>2020-08-18T08:18:56Z</time>
      </trkpt>
      <trkpt lat="45.02451" lon="6.44898">
        <ele>1737.1</ele>
        <time>2020-08-18T08:19:00Z</time>
      </trkpt>
      <trkpt lat="45.02458" lon="6.44886">
        <ele>1737.8</ele>
        <time>2020-08-18T08:19:04Z</time>
      </trkpt>
      <trkpt lat="45.02463" lon="6.44874">
        <ele>1738.4</ele>
        <time>2020-08-18T08:19:07Z</time>
      </trkpt>
      <trkpt lat="45.02468" lon="6.44863">
        <ele>1739</ele>
        <time>2020-08-18T08:19:10Z</time>
      </trkpt>
      <trkpt lat="45.02474" lon="6.44849">
        <ele>1739.9</ele>
        <time>2020-08-18T08:19:14Z</time>
      </trkpt>
      <trkpt lat="45.02479" lon="6.44834">
        <ele>1740.8</ele>
        <time>2020-08-18T08:19:18Z</time>
      </trkpt>
      <trkpt lat="45.02485" lon="6.4482">
        <ele>1741.6</ele>
        <time>2020-08-18T08:19:22Z</time>
      </trkpt>
      <trkpt lat="45.02493" lon="6.44809">
        <ele>1742.5</ele>
        <time>2020-08-18T08:19:26Z</time>
      </trkpt>
      <trkpt lat="45.02501" lon="6.44802">
        <ele>1743.2</ele>
        <time>2020-08-18T08:19:29Z</time>
      </trkpt>
      <trkpt lat="45.02509" lon="6.44794">
        <ele>1743.8</ele>
        <time>2020-08-18T08:19:32Z</time>
      </trkpt>
      <trkpt lat="45.02516" lon="6.44786">
        <ele>1744.5</ele>
        <time>2020-08-18T08:19:35Z</time>
      </trkpt>
      <trkpt lat="45.02526" lon="6.44777">
        <ele>1745.4</ele>
        <time>2020-08-18T08:19:39Z</time>
      </trkpt>
      <trkpt lat="45.02534" lon="6.44769">
        <ele>1746.1</ele>
        <time>2020-08-18T08:19:43Z</time>
      </trkpt>
      <trkpt lat="45.02542" lon="6.4476">
        <ele>1747.2</ele>
        <time>2020-08-18T08:19:49Z</time>
      </trkpt>
      <trkpt lat="45.0255" lon="6.44752">
        <ele>1748.2</ele>
        <time>2020-08-18T08:19:54Z</time>
      </trkpt>
      <trkpt lat="45.02558" lon="6.44744">
        <ele>1749.1</ele>
        <time>2020-08-18T08:20:00Z</time>
      </trkpt>
      <trkpt lat="45.02566" lon="6.44737">
        <ele>1750.1</ele>
        <time>2020-08-18T08:20:06Z</time>
      </trkpt>
      <trkpt lat="45.02573" lon="6.44729">
        <ele>1750.9</ele>
        <time>2020-08-18T08:20:12Z</time>
      </trkpt>
      <trkpt lat="45.02579" lon="6.44719">
        <ele>1751.8</ele>
        <time>2020-08-18T08:20:19Z</time>
      </trkpt>
      <trkpt lat="45.02586" lon="6.44708">
        <ele>1752.6</ele>
        <time>2020-08-18T08:20:26Z</time>
      </trkpt>
      <trkpt lat="45.02592" lon="6.44698">
        <ele>1753.1</ele>
        <time>2020-08-18T08:20:33Z</time>
      </trkpt>
      <trkpt lat="45.02599" lon="6.44687">
        <ele>1753.5</ele>
        <time>2020-08-18T08:20:40Z</time>
      </trkpt>
      <trkpt lat="45.02606" lon="6.44677">
        <ele>1753.8</ele>
        <time>2020-08-18T08:20:47Z</time>
      </trkpt>
      <trkpt lat="45.02613" lon="6.44667">
        <ele>1754.2</ele>
        <time>2020-08-18T08:20:54Z</time>
      </trkpt>
      <trkpt lat="45.0262" lon="6.44656">
        <ele>1754.7</ele>
        <time>2020-08-18T08:21:01Z</time>
      </trkpt>
      <trkpt lat="45.02627" lon="6.44646">
        <ele>1755</ele>
        <time>2020-08-18T08:21:08Z</time>
      </trkpt>
      <trkpt lat="45.02635" lon="6.44637">
        <ele>1755.2</ele>
        <time>2020-08-18T08:21:15Z</time>
      </trkpt>
      <trkpt lat="45.02642" lon="6.44627">
        <ele>1755.4</ele>
        <time>2020-08-18T08:21:22Z</time>
      </trkpt>
      <trkpt lat="45.02648" lon="6.44615">
        <ele>1755.8</ele>
        <time>2020-08-18T08:21:29Z</time>
      </trkpt>
      <trkpt lat="45.02654" lon="6.44604">
        <ele>1756.1</ele>
        <time>2020-08-18T08:21:36Z</time>
      </trkpt>
      <trkpt lat="45.0266" lon="6.44592">
        <ele>1756.6</ele>
        <time>2020-08-18T08:21:43Z</time>
      </trkpt>
      <trkpt lat="45.02667" lon="6.44581">
        <ele>1757.2</ele>
        <time>2020-08-18T08:21:49Z</time>
      </trkpt>
      <trkpt lat="45.02673" lon="6.44572">
        <ele>1757.9</ele>
        <time>2020-08-18T08:21:55Z</time>
      </trkpt>
      <trkpt lat="45.02681" lon="6.44563">
        <ele>1758.7</ele>
        <time>2020-08-18T08:22:02Z</time>
      </trkpt>
      <trkpt lat="45.02688" lon="6.44552">
        <ele>1759.4</ele>
        <time>2020-08-18T08:22:09Z</time>
      </trkpt>
      <trkpt lat="45.02693" lon="6.44541">
        <ele>1759.9</ele>
        <time>2020-08-18T08:22:16Z</time>
      </trkpt>
      <trkpt lat="45.02696" lon="6.44528">
        <ele>1760.3</ele>
        <time>2020-08-18T08:22:23Z</time>
      </trkpt>
      <trkpt lat="45.02699" lon="6.44514">
        <ele>1760.6</ele>
        <time>2020-08-18T08:22:30Z</time>
      </trkpt>
      <trkpt lat="45.02702" lon="6.445">
        <ele>1760.9</ele>
        <time>2020-08-18T08:22:37Z</time>
      </trkpt>
      <trkpt lat="45.02709" lon="6.44488">
        <ele>1761.1</ele>
        <time>2020-08-18T08:22:42Z</time>
      </trkpt>
      <trkpt lat="45.02715" lon="6.44476">
        <ele>1761.5</ele>
        <time>2020-08-18T08:22:49Z</time>
      </trkpt>
      <trkpt lat="45.02721" lon="6.44463">
        <ele>1762</ele>
        <time>2020-08-18T08:22:56Z</time>
      </trkpt>
      <trkpt lat="45.02726" lon="6.44453">
        <ele>1762.6</ele>
        <time>2020-08-18T08:23:02Z</time>
      </trkpt>
      <trkpt lat="45.02732" lon="6.44441">
        <ele>1763.2</ele>
        <time>2020-08-18T08:23:08Z</time>
      </trkpt>
      <trkpt lat="45.02736" lon="6.44428">
        <ele>1763.6</ele>
        <time>2020-08-18T08:23:15Z</time>
      </trkpt>
      <trkpt lat="45.0274" lon="6.44417">
        <ele>1763.8</ele>
        <time>2020-08-18T08:23:21Z</time>
      </trkpt>
      <trkpt lat="45.02747" lon="6.44406">
        <ele>1764</ele>
        <time>2020-08-18T08:23:27Z</time>
      </trkpt>
      <trkpt lat="45.02752" lon="6.44393">
        <ele>1764.2</ele>
        <time>2020-08-18T08:23:34Z</time>
      </trkpt>
      <trkpt lat="45.02757" lon="6.44381">
        <ele>1764.3</ele>
        <time>2020-08-18T08:23:41Z</time>
      </trkpt>
      <trkpt lat="45.02764" lon="6.44371">
        <ele>1764.6</ele>
        <time>2020-08-18T08:23:48Z</time>
      </trkpt>
      <trkpt lat="45.02772" lon="6.44363">
        <ele>1764.8</ele>
        <time>2020-08-18T08:23:55Z</time>
      </trkpt>
      <trkpt lat="45.02779" lon="6.44356">
        <ele>1765.1</ele>
        <time>2020-08-18T08:24:03Z</time>
      </trkpt>
      <trkpt lat="45.02786" lon="6.44347">
        <ele>1766.7</ele>
        <time>2020-08-18T08:25:06Z</time>
      </trkpt>
      <trkpt lat="45.02795" lon="6.44343">
        <ele>1766.7</ele>
        <time>2020-08-18T08:25:28Z</time>
      </trkpt>
      <trkpt lat="45.02794" lon="6.44328">
        <ele>1766.9</ele>
        <time>2020-08-18T08:28:58Z</time>
      </trkpt>
      <trkpt lat="45.02801" lon="6.44317">
        <ele>1766.5</ele>
        <time>2020-08-18T08:29:27Z</time>
      </trkpt>
      <trkpt lat="45.02808" lon="6.44309">
        <ele>1766.5</ele>
        <time>2020-08-18T08:29:34Z</time>
      </trkpt>
      <trkpt lat="45.02815" lon="6.44298">
        <ele>1766.4</ele>
        <time>2020-08-18T08:29:41Z</time>
      </trkpt>
      <trkpt lat="45.02822" lon="6.44288">
        <ele>1766.4</ele>
        <time>2020-08-18T08:29:48Z</time>
      </trkpt>
      <trkpt lat="45.02829" lon="6.44278">
        <ele>1766.4</ele>
        <time>2020-08-18T08:29:55Z</time>
      </trkpt>
      <trkpt lat="45.02836" lon="6.44269">
        <ele>1766.4</ele>
        <time>2020-08-18T08:30:01Z</time>
      </trkpt>
      <trkpt lat="45.02846" lon="6.44266">
        <ele>1766.5</ele>
        <time>2020-08-18T08:30:08Z</time>
      </trkpt>
      <trkpt lat="45.02855" lon="6.44266">
        <ele>1767.1</ele>
        <time>2020-08-18T08:30:16Z</time>
      </trkpt>
      <trkpt lat="45.02864" lon="6.44262">
        <ele>1767.7</ele>
        <time>2020-08-18T08:30:23Z</time>
      </trkpt>
      <trkpt lat="45.02872" lon="6.44256">
        <ele>1768</ele>
        <time>2020-08-18T08:30:29Z</time>
      </trkpt>
      <trkpt lat="45.0288" lon="6.44247">
        <ele>1768.3</ele>
        <time>2020-08-18T08:30:36Z</time>
      </trkpt>
      <trkpt lat="45.02889" lon="6.44241">
        <ele>1768.6</ele>
        <time>2020-08-18T08:30:44Z</time>
      </trkpt>
      <trkpt lat="45.02898" lon="6.44237">
        <ele>1768.8</ele>
        <time>2020-08-18T08:30:51Z</time>
      </trkpt>
      <trkpt lat="45.02907" lon="6.44232">
        <ele>1769.2</ele>
        <time>2020-08-18T08:30:58Z</time>
      </trkpt>
      <trkpt lat="45.02916" lon="6.44228">
        <ele>1770</ele>
        <time>2020-08-18T08:31:10Z</time>
      </trkpt>
      <trkpt lat="45.02925" lon="6.44223">
        <ele>1771.4</ele>
        <time>2020-08-18T08:31:54Z</time>
      </trkpt>
      <trkpt lat="45.02935" lon="6.44219">
        <ele>1771.6</ele>
        <time>2020-08-18T08:32:02Z</time>
      </trkpt>
      <trkpt lat="45.02943" lon="6.44214">
        <ele>1771.9</ele>
        <time>2020-08-18T08:32:09Z</time>
      </trkpt>
      <trkpt lat="45.02952" lon="6.44209">
        <ele>1772.4</ele>
        <time>2020-08-18T08:32:17Z</time>
      </trkpt>
      <trkpt lat="45.02962" lon="6.44206">
        <ele>1772.7</ele>
        <time>2020-08-18T08:32:25Z</time>
      </trkpt>
      <trkpt lat="45.02971" lon="6.44201">
        <ele>1772.9</ele>
        <time>2020-08-18T08:32:33Z</time>
      </trkpt>
      <trkpt lat="45.02978" lon="6.44194">
        <ele>1773</ele>
        <time>2020-08-18T08:32:40Z</time>
      </trkpt>
      <trkpt lat="45.02987" lon="6.44188">
        <ele>1773.1</ele>
        <time>2020-08-18T08:32:49Z</time>
      </trkpt>
      <trkpt lat="45.02996" lon="6.44184">
        <ele>1773.2</ele>
        <time>2020-08-18T08:32:57Z</time>
      </trkpt>
      <trkpt lat="45.03002" lon="6.44173">
        <ele>1773.3</ele>
        <time>2020-08-18T08:33:04Z</time>
      </trkpt>
      <trkpt lat="45.03007" lon="6.4416">
        <ele>1773.5</ele>
        <time>2020-08-18T08:33:12Z</time>
      </trkpt>
      <trkpt lat="45.03008" lon="6.44147">
        <ele>1774</ele>
        <time>2020-08-18T08:33:19Z</time>
      </trkpt>
      <trkpt lat="45.0301" lon="6.44134">
        <ele>1774.3</ele>
        <time>2020-08-18T08:33:25Z</time>
      </trkpt>
      <trkpt lat="45.03013" lon="6.44122">
        <ele>1774.8</ele>
        <time>2020-08-18T08:33:31Z</time>
      </trkpt>
      <trkpt lat="45.03017" lon="6.44109">
        <ele>1775.5</ele>
        <time>2020-08-18T08:33:38Z</time>
      </trkpt>
      <trkpt lat="45.03022" lon="6.44097">
        <ele>1776.4</ele>
        <time>2020-08-18T08:33:45Z</time>
      </trkpt>
      <trkpt lat="45.03028" lon="6.44086">
        <ele>1777.2</ele>
        <time>2020-08-18T08:33:52Z</time>
      </trkpt>
      <trkpt lat="45.03032" lon="6.44075">
        <ele>1778</ele>
        <time>2020-08-18T08:33:59Z</time>
      </trkpt>
      <trkpt lat="45.03038" lon="6.44065">
        <ele>1778.8</ele>
        <time>2020-08-18T08:34:06Z</time>
      </trkpt>
      <trkpt lat="45.03044" lon="6.44052">
        <ele>1779.4</ele>
        <time>2020-08-18T08:34:13Z</time>
      </trkpt>
      <trkpt lat="45.03051" lon="6.44044">
        <ele>1780</ele>
        <time>2020-08-18T08:34:19Z</time>
      </trkpt>
      <trkpt lat="45.0306" lon="6.44039">
        <ele>1780.6</ele>
        <time>2020-08-18T08:34:26Z</time>
      </trkpt>
      <trkpt lat="45.0307" lon="6.44034">
        <ele>1781.4</ele>
        <time>2020-08-18T08:34:33Z</time>
      </trkpt>
      <trkpt lat="45.03078" lon="6.44027">
        <ele>1782.2</ele>
        <time>2020-08-18T08:34:40Z</time>
      </trkpt>
      <trkpt lat="45.03086" lon="6.44023">
        <ele>1782.8</ele>
        <time>2020-08-18T08:34:47Z</time>
      </trkpt>
      <trkpt lat="45.03096" lon="6.44019">
        <ele>1783.9</ele>
        <time>2020-08-18T08:34:55Z</time>
      </trkpt>
      <trkpt lat="45.03105" lon="6.44014">
        <ele>1785.2</ele>
        <time>2020-08-18T08:35:02Z</time>
      </trkpt>
      <trkpt lat="45.03112" lon="6.44005">
        <ele>1786.1</ele>
        <time>2020-08-18T08:35:08Z</time>
      </trkpt>
      <trkpt lat="45.03117" lon="6.43994">
        <ele>1787.2</ele>
        <time>2020-08-18T08:35:15Z</time>
      </trkpt>
      <trkpt lat="45.03123" lon="6.43982">
        <ele>1788.4</ele>
        <time>2020-08-18T08:35:23Z</time>
      </trkpt>
      <trkpt lat="45.03127" lon="6.4397">
        <ele>1789.1</ele>
        <time>2020-08-18T08:35:30Z</time>
      </trkpt>
      <trkpt lat="45.0313" lon="6.43957">
        <ele>1789.6</ele>
        <time>2020-08-18T08:35:38Z</time>
      </trkpt>
      <trkpt lat="45.03135" lon="6.43945">
        <ele>1789.9</ele>
        <time>2020-08-18T08:35:45Z</time>
      </trkpt>
      <trkpt lat="45.03141" lon="6.43934">
        <ele>1790.1</ele>
        <time>2020-08-18T08:35:52Z</time>
      </trkpt>
      <trkpt lat="45.03147" lon="6.43924">
        <ele>1790.3</ele>
        <time>2020-08-18T08:35:59Z</time>
      </trkpt>
      <trkpt lat="45.03154" lon="6.43915">
        <ele>1790.2</ele>
        <time>2020-08-18T08:36:06Z</time>
      </trkpt>
      <trkpt lat="45.0316" lon="6.43904">
        <ele>1790.2</ele>
        <time>2020-08-18T08:36:13Z</time>
      </trkpt>
      <trkpt lat="45.03167" lon="6.43894">
        <ele>1790</ele>
        <time>2020-08-18T08:36:20Z</time>
      </trkpt>
      <trkpt lat="45.03174" lon="6.43885">
        <ele>1789.8</ele>
        <time>2020-08-18T08:36:27Z</time>
      </trkpt>
      <trkpt lat="45.03181" lon="6.43875">
        <ele>1789.6</ele>
        <time>2020-08-18T08:36:35Z</time>
      </trkpt>
      <trkpt lat="45.03185" lon="6.43863">
        <ele>1789.2</ele>
        <time>2020-08-18T08:36:46Z</time>
      </trkpt>
      <trkpt lat="45.03191" lon="6.43851">
        <ele>1788.6</ele>
        <time>2020-08-18T08:37:19Z</time>
      </trkpt>
      <trkpt lat="45.03194" lon="6.43839">
        <ele>1788.6</ele>
        <time>2020-08-18T08:37:34Z</time>
      </trkpt>
      <trkpt lat="45.032" lon="6.43828">
        <ele>1788.6</ele>
        <time>2020-08-18T08:37:45Z</time>
      </trkpt>
      <trkpt lat="45.03206" lon="6.43817">
        <ele>1788.6</ele>
        <time>2020-08-18T08:37:53Z</time>
      </trkpt>
      <trkpt lat="45.03211" lon="6.43806">
        <ele>1789.2</ele>
        <time>2020-08-18T08:38:02Z</time>
      </trkpt>
      <trkpt lat="45.03218" lon="6.43797">
        <ele>1789.9</ele>
        <time>2020-08-18T08:38:09Z</time>
      </trkpt>
      <trkpt lat="45.03227" lon="6.43791">
        <ele>1790.8</ele>
        <time>2020-08-18T08:38:17Z</time>
      </trkpt>
      <trkpt lat="45.03236" lon="6.43786">
        <ele>1791.2</ele>
        <time>2020-08-18T08:38:24Z</time>
      </trkpt>
      <trkpt lat="45.03245" lon="6.4378">
        <ele>1791.5</ele>
        <time>2020-08-18T08:38:31Z</time>
      </trkpt>
      <trkpt lat="45.03254" lon="6.43775">
        <ele>1791.7</ele>
        <time>2020-08-18T08:38:38Z</time>
      </trkpt>
      <trkpt lat="45.03263" lon="6.4377">
        <ele>1791.9</ele>
        <time>2020-08-18T08:38:45Z</time>
      </trkpt>
      <trkpt lat="45.03272" lon="6.43764">
        <ele>1792.1</ele>
        <time>2020-08-18T08:38:52Z</time>
      </trkpt>
      <trkpt lat="45.03281" lon="6.4376">
        <ele>1792.5</ele>
        <time>2020-08-18T08:38:59Z</time>
      </trkpt>
      <trkpt lat="45.03289" lon="6.43752">
        <ele>1793.2</ele>
        <time>2020-08-18T08:39:06Z</time>
      </trkpt>
      <trkpt lat="45.03296" lon="6.43744">
        <ele>1793.9</ele>
        <time>2020-08-18T08:39:13Z</time>
      </trkpt>
      <trkpt lat="45.03305" lon="6.43737">
        <ele>1794.6</ele>
        <time>2020-08-18T08:39:20Z</time>
      </trkpt>
      <trkpt lat="45.03313" lon="6.4373">
        <ele>1795.5</ele>
        <time>2020-08-18T08:39:27Z</time>
      </trkpt>
      <trkpt lat="45.0332" lon="6.4372">
        <ele>1796</ele>
        <time>2020-08-18T08:39:34Z</time>
      </trkpt>
      <trkpt lat="45.03328" lon="6.43712">
        <ele>1796.5</ele>
        <time>2020-08-18T08:39:41Z</time>
      </trkpt>
      <trkpt lat="45.03335" lon="6.43702">
        <ele>1796.8</ele>
        <time>2020-08-18T08:39:48Z</time>
      </trkpt>
      <trkpt lat="45.03342" lon="6.43692">
        <ele>1797.2</ele>
        <time>2020-08-18T08:39:55Z</time>
      </trkpt>
      <trkpt lat="45.03349" lon="6.43683">
        <ele>1797.5</ele>
        <time>2020-08-18T08:40:02Z</time>
      </trkpt>
      <trkpt lat="45.03356" lon="6.43676">
        <ele>1797.7</ele>
        <time>2020-08-18T08:40:09Z</time>
      </trkpt>
      <trkpt lat="45.03366" lon="6.43673">
        <ele>1798.2</ele>
        <time>2020-08-18T08:40:16Z</time>
      </trkpt>
      <trkpt lat="45.03376" lon="6.43671">
        <ele>1798.9</ele>
        <time>2020-08-18T08:40:23Z</time>
      </trkpt>
      <trkpt lat="45.03386" lon="6.43671">
        <ele>1799.3</ele>
        <time>2020-08-18T08:40:30Z</time>
      </trkpt>
      <trkpt lat="45.03395" lon="6.43669">
        <ele>1799.6</ele>
        <time>2020-08-18T08:40:37Z</time>
      </trkpt>
      <trkpt lat="45.03404" lon="6.43669">
        <ele>1799.9</ele>
        <time>2020-08-18T08:40:43Z</time>
      </trkpt>
      <trkpt lat="45.03414" lon="6.43669">
        <ele>1800.3</ele>
        <time>2020-08-18T08:40:50Z</time>
      </trkpt>
      <trkpt lat="45.03424" lon="6.43667">
        <ele>1800.5</ele>
        <time>2020-08-18T08:40:57Z</time>
      </trkpt>
      <trkpt lat="45.03433" lon="6.43663">
        <ele>1800.7</ele>
        <time>2020-08-18T08:41:03Z</time>
      </trkpt>
      <trkpt lat="45.03442" lon="6.43659">
        <ele>1800.8</ele>
        <time>2020-08-18T08:41:10Z</time>
      </trkpt>
      <trkpt lat="45.0345" lon="6.43651">
        <ele>1800.8</ele>
        <time>2020-08-18T08:41:17Z</time>
      </trkpt>
      <trkpt lat="45.03456" lon="6.43641">
        <ele>1800.9</ele>
        <time>2020-08-18T08:41:23Z</time>
      </trkpt>
      <trkpt lat="45.03463" lon="6.43631">
        <ele>1801.1</ele>
        <time>2020-08-18T08:41:30Z</time>
      </trkpt>
      <trkpt lat="45.03468" lon="6.43618">
        <ele>1801.3</ele>
        <time>2020-08-18T08:41:37Z</time>
      </trkpt>
      <trkpt lat="45.03469" lon="6.43604">
        <ele>1801.6</ele>
        <time>2020-08-18T08:41:44Z</time>
      </trkpt>
      <trkpt lat="45.03471" lon="6.43591">
        <ele>1802</ele>
        <time>2020-08-18T08:41:51Z</time>
      </trkpt>
      <trkpt lat="45.03472" lon="6.43578">
        <ele>1802.4</ele>
        <time>2020-08-18T08:41:57Z</time>
      </trkpt>
      <trkpt lat="45.03471" lon="6.43564">
        <ele>1802.8</ele>
        <time>2020-08-18T08:42:03Z</time>
      </trkpt>
      <trkpt lat="45.03469" lon="6.43551">
        <ele>1803.6</ele>
        <time>2020-08-18T08:42:10Z</time>
      </trkpt>
      <trkpt lat="45.03469" lon="6.43537">
        <ele>1804.3</ele>
        <time>2020-08-18T08:42:17Z</time>
      </trkpt>
      <trkpt lat="45.03467" lon="6.43524">
        <ele>1804.8</ele>
        <time>2020-08-18T08:42:23Z</time>
      </trkpt>
      <trkpt lat="45.03466" lon="6.43509">
        <ele>1805.5</ele>
        <time>2020-08-18T08:42:30Z</time>
      </trkpt>
      <trkpt lat="45.03467" lon="6.43496">
        <ele>1806.1</ele>
        <time>2020-08-18T08:42:37Z</time>
      </trkpt>
      <trkpt lat="45.03471" lon="6.43484">
        <ele>1807.1</ele>
        <time>2020-08-18T08:42:52Z</time>
      </trkpt>
      <trkpt lat="45.03474" lon="6.43472">
        <ele>1807.5</ele>
        <time>2020-08-18T08:42:59Z</time>
      </trkpt>
      <trkpt lat="45.03476" lon="6.43458">
        <ele>1807.8</ele>
        <time>2020-08-18T08:43:03Z</time>
      </trkpt>
      <trkpt lat="45.03475" lon="6.43442">
        <ele>1808</ele>
        <time>2020-08-18T08:43:07Z</time>
      </trkpt>
      <trkpt lat="45.03474" lon="6.43427">
        <ele>1808.4</ele>
        <time>2020-08-18T08:43:13Z</time>
      </trkpt>
      <trkpt lat="45.03475" lon="6.43414">
        <ele>1808.8</ele>
        <time>2020-08-18T08:43:19Z</time>
      </trkpt>
      <trkpt lat="45.03478" lon="6.43401">
        <ele>1809.4</ele>
        <time>2020-08-18T08:43:26Z</time>
      </trkpt>
      <trkpt lat="45.0348" lon="6.43387">
        <ele>1809.7</ele>
        <time>2020-08-18T08:43:33Z</time>
      </trkpt>
      <trkpt lat="45.03483" lon="6.43374">
        <ele>1810</ele>
        <time>2020-08-18T08:43:40Z</time>
      </trkpt>
      <trkpt lat="45.03487" lon="6.43362">
        <ele>1810.5</ele>
        <time>2020-08-18T08:43:47Z</time>
      </trkpt>
      <trkpt lat="45.03492" lon="6.43349">
        <ele>1811.1</ele>
        <time>2020-08-18T08:43:54Z</time>
      </trkpt>
      <trkpt lat="45.03499" lon="6.43339">
        <ele>1811.5</ele>
        <time>2020-08-18T08:44:01Z</time>
      </trkpt>
      <trkpt lat="45.03503" lon="6.43327">
        <ele>1811.9</ele>
        <time>2020-08-18T08:44:08Z</time>
      </trkpt>
      <trkpt lat="45.03507" lon="6.43314">
        <ele>1812.2</ele>
        <time>2020-08-18T08:44:15Z</time>
      </trkpt>
      <trkpt lat="45.03511" lon="6.43302">
        <ele>1812.8</ele>
        <time>2020-08-18T08:44:23Z</time>
      </trkpt>
      <trkpt lat="45.03515" lon="6.4329">
        <ele>1813.4</ele>
        <time>2020-08-18T08:44:30Z</time>
      </trkpt>
      <trkpt lat="45.03518" lon="6.43276">
        <ele>1813.8</ele>
        <time>2020-08-18T08:44:37Z</time>
      </trkpt>
      <trkpt lat="45.03521" lon="6.43263">
        <ele>1814</ele>
        <time>2020-08-18T08:44:44Z</time>
      </trkpt>
      <trkpt lat="45.03526" lon="6.43251">
        <ele>1814.2</ele>
        <time>2020-08-18T08:44:51Z</time>
      </trkpt>
      <trkpt lat="45.03532" lon="6.4324">
        <ele>1814.3</ele>
        <time>2020-08-18T08:44:57Z</time>
      </trkpt>
      <trkpt lat="45.03537" lon="6.43228">
        <ele>1814.4</ele>
        <time>2020-08-18T08:45:04Z</time>
      </trkpt>
      <trkpt lat="45.03543" lon="6.43217">
        <ele>1814.6</ele>
        <time>2020-08-18T08:45:11Z</time>
      </trkpt>
      <trkpt lat="45.03546" lon="6.43204">
        <ele>1814.9</ele>
        <time>2020-08-18T08:45:19Z</time>
      </trkpt>
      <trkpt lat="45.03551" lon="6.43193">
        <ele>1815.6</ele>
        <time>2020-08-18T08:45:26Z</time>
      </trkpt>
      <trkpt lat="45.03556" lon="6.43183">
        <ele>1816.1</ele>
        <time>2020-08-18T08:45:33Z</time>
      </trkpt>
      <trkpt lat="45.03564" lon="6.43175">
        <ele>1816.7</ele>
        <time>2020-08-18T08:45:40Z</time>
      </trkpt>
      <trkpt lat="45.03572" lon="6.43169">
        <ele>1817.3</ele>
        <time>2020-08-18T08:45:47Z</time>
      </trkpt>
      <trkpt lat="45.03577" lon="6.43159">
        <ele>1818</ele>
        <time>2020-08-18T08:45:55Z</time>
      </trkpt>
      <trkpt lat="45.03575" lon="6.43145">
        <ele>1818.5</ele>
        <time>2020-08-18T08:46:02Z</time>
      </trkpt>
      <trkpt lat="45.03578" lon="6.43133">
        <ele>1818.8</ele>
        <time>2020-08-18T08:46:08Z</time>
      </trkpt>
      <trkpt lat="45.03583" lon="6.43121">
        <ele>1819.2</ele>
        <time>2020-08-18T08:46:15Z</time>
      </trkpt>
      <trkpt lat="45.03587" lon="6.43109">
        <ele>1819.5</ele>
        <time>2020-08-18T08:46:22Z</time>
      </trkpt>
      <trkpt lat="45.03591" lon="6.43096">
        <ele>1819.8</ele>
        <time>2020-08-18T08:46:30Z</time>
      </trkpt>
      <trkpt lat="45.03595" lon="6.43083">
        <ele>1820.1</ele>
        <time>2020-08-18T08:46:37Z</time>
      </trkpt>
      <trkpt lat="45.03599" lon="6.43072">
        <ele>1820.2</ele>
        <time>2020-08-18T08:46:44Z</time>
      </trkpt>
      <trkpt lat="45.03605" lon="6.4306">
        <ele>1820.4</ele>
        <time>2020-08-18T08:46:51Z</time>
      </trkpt>
      <trkpt lat="45.0361" lon="6.43048">
        <ele>1820.6</ele>
        <time>2020-08-18T08:46:58Z</time>
      </trkpt>
      <trkpt lat="45.03614" lon="6.43036">
        <ele>1820.7</ele>
        <time>2020-08-18T08:47:05Z</time>
      </trkpt>
      <trkpt lat="45.03619" lon="6.43025">
        <ele>1820.8</ele>
        <time>2020-08-18T08:47:11Z</time>
      </trkpt>
      <trkpt lat="45.03626" lon="6.43015">
        <ele>1820.8</ele>
        <time>2020-08-18T08:47:18Z</time>
      </trkpt>
      <trkpt lat="45.03631" lon="6.43004">
        <ele>1820.9</ele>
        <time>2020-08-18T08:47:25Z</time>
      </trkpt>
      <trkpt lat="45.03636" lon="6.42992">
        <ele>1820.9</ele>
        <time>2020-08-18T08:47:33Z</time>
      </trkpt>
      <trkpt lat="45.03641" lon="6.42981">
        <ele>1820.9</ele>
        <time>2020-08-18T08:47:39Z</time>
      </trkpt>
      <trkpt lat="45.03647" lon="6.42969">
        <ele>1821</ele>
        <time>2020-08-18T08:47:46Z</time>
      </trkpt>
      <trkpt lat="45.03653" lon="6.42958">
        <ele>1821.3</ele>
        <time>2020-08-18T08:47:53Z</time>
      </trkpt>
      <trkpt lat="45.03658" lon="6.42947">
        <ele>1821.6</ele>
        <time>2020-08-18T08:48:00Z</time>
      </trkpt>
      <trkpt lat="45.03662" lon="6.42935">
        <ele>1822</ele>
        <time>2020-08-18T08:48:08Z</time>
      </trkpt>
      <trkpt lat="45.03666" lon="6.42923">
        <ele>1822.2</ele>
        <time>2020-08-18T08:48:15Z</time>
      </trkpt>
      <trkpt lat="45.0367" lon="6.42911">
        <ele>1822.3</ele>
        <time>2020-08-18T08:48:22Z</time>
      </trkpt>
      <trkpt lat="45.03674" lon="6.42899">
        <ele>1822.4</ele>
        <time>2020-08-18T08:48:29Z</time>
      </trkpt>
      <trkpt lat="45.03678" lon="6.42885">
        <ele>1822.4</ele>
        <time>2020-08-18T08:48:36Z</time>
      </trkpt>
      <trkpt lat="45.03682" lon="6.42872">
        <ele>1822.4</ele>
        <time>2020-08-18T08:48:43Z</time>
      </trkpt>
      <trkpt lat="45.03685" lon="6.4286">
        <ele>1822.5</ele>
        <time>2020-08-18T08:48:50Z</time>
      </trkpt>
      <trkpt lat="45.03688" lon="6.42846">
        <ele>1822.5</ele>
        <time>2020-08-18T08:48:57Z</time>
      </trkpt>
      <trkpt lat="45.03692" lon="6.42833">
        <ele>1822.5</ele>
        <time>2020-08-18T08:49:03Z</time>
      </trkpt>
      <trkpt lat="45.03697" lon="6.42821">
        <ele>1822.5</ele>
        <time>2020-08-18T08:49:09Z</time>
      </trkpt>
      <trkpt lat="45.03703" lon="6.42809">
        <ele>1822.6</ele>
        <time>2020-08-18T08:49:15Z</time>
      </trkpt>
      <trkpt lat="45.03708" lon="6.42797">
        <ele>1822.7</ele>
        <time>2020-08-18T08:49:22Z</time>
      </trkpt>
      <trkpt lat="45.03713" lon="6.42785">
        <ele>1822.7</ele>
        <time>2020-08-18T08:49:29Z</time>
      </trkpt>
      <trkpt lat="45.03718" lon="6.42775">
        <ele>1822.7</ele>
        <time>2020-08-18T08:49:36Z</time>
      </trkpt>
      <trkpt lat="45.03723" lon="6.42764">
        <ele>1822.8</ele>
        <time>2020-08-18T08:49:43Z</time>
      </trkpt>
      <trkpt lat="45.03728" lon="6.42752">
        <ele>1822.8</ele>
        <time>2020-08-18T08:49:50Z</time>
      </trkpt>
      <trkpt lat="45.03731" lon="6.42739">
        <ele>1822.8</ele>
        <time>2020-08-18T08:49:57Z</time>
      </trkpt>
      <trkpt lat="45.03734" lon="6.42725">
        <ele>1822.9</ele>
        <time>2020-08-18T08:50:04Z</time>
      </trkpt>
      <trkpt lat="45.03736" lon="6.42712">
        <ele>1823</ele>
        <time>2020-08-18T08:50:07Z</time>
      </trkpt>
      <trkpt lat="45.03739" lon="6.42696">
        <ele>1823</ele>
        <time>2020-08-18T08:50:11Z</time>
      </trkpt>
      <trkpt lat="45.03741" lon="6.42683">
        <ele>1823.1</ele>
        <time>2020-08-18T08:50:14Z</time>
      </trkpt>
      <trkpt lat="45.03744" lon="6.42667">
        <ele>1823.3</ele>
        <time>2020-08-18T08:50:18Z</time>
      </trkpt>
      <trkpt lat="45.03746" lon="6.42651">
        <ele>1823.5</ele>
        <time>2020-08-18T08:50:22Z</time>
      </trkpt>
      <trkpt lat="45.03747" lon="6.42639">
        <ele>1823.6</ele>
        <time>2020-08-18T08:50:25Z</time>
      </trkpt>
      <trkpt lat="45.0375" lon="6.42625">
        <ele>1823.7</ele>
        <time>2020-08-18T08:50:29Z</time>
      </trkpt>
      <trkpt lat="45.03755" lon="6.42613">
        <ele>1823.9</ele>
        <time>2020-08-18T08:50:37Z</time>
      </trkpt>
      <trkpt lat="45.03758" lon="6.42599">
        <ele>1824</ele>
        <time>2020-08-18T08:50:42Z</time>
      </trkpt>
      <trkpt lat="45.03759" lon="6.42584">
        <ele>1824.1</ele>
        <time>2020-08-18T08:50:48Z</time>
      </trkpt>
      <trkpt lat="45.0376" lon="6.4257">
        <ele>1824.2</ele>
        <time>2020-08-18T08:50:54Z</time>
      </trkpt>
      <trkpt lat="45.03763" lon="6.42558">
        <ele>1824.3</ele>
        <time>2020-08-18T08:51:01Z</time>
      </trkpt>
      <trkpt lat="45.03768" lon="6.42546">
        <ele>1824.4</ele>
        <time>2020-08-18T08:51:08Z</time>
      </trkpt>
      <trkpt lat="45.03772" lon="6.42533">
        <ele>1824.4</ele>
        <time>2020-08-18T08:51:15Z</time>
      </trkpt>
      <trkpt lat="45.03776" lon="6.42521">
        <ele>1824.5</ele>
        <time>2020-08-18T08:51:22Z</time>
      </trkpt>
      <trkpt lat="45.03781" lon="6.4251">
        <ele>1824.9</ele>
        <time>2020-08-18T08:51:29Z</time>
      </trkpt>
      <trkpt lat="45.03786" lon="6.42499">
        <ele>1825.3</ele>
        <time>2020-08-18T08:51:36Z</time>
      </trkpt>
      <trkpt lat="45.0379" lon="6.42487">
        <ele>1825.5</ele>
        <time>2020-08-18T08:51:42Z</time>
      </trkpt>
      <trkpt lat="45.03797" lon="6.42476">
        <ele>1825.9</ele>
        <time>2020-08-18T08:51:49Z</time>
      </trkpt>
      <trkpt lat="45.03802" lon="6.42465">
        <ele>1826</ele>
        <time>2020-08-18T08:51:55Z</time>
      </trkpt>
      <trkpt lat="45.03804" lon="6.42452">
        <ele>1826.2</ele>
        <time>2020-08-18T08:52:02Z</time>
      </trkpt>
      <trkpt lat="45.03805" lon="6.42438">
        <ele>1826.3</ele>
        <time>2020-08-18T08:52:09Z</time>
      </trkpt>
      <trkpt lat="45.03805" lon="6.42425">
        <ele>1826.3</ele>
        <time>2020-08-18T08:52:15Z</time>
      </trkpt>
      <trkpt lat="45.03806" lon="6.42411">
        <ele>1826.4</ele>
        <time>2020-08-18T08:52:21Z</time>
      </trkpt>
      <trkpt lat="45.03808" lon="6.42399">
        <ele>1826.5</ele>
        <time>2020-08-18T08:52:27Z</time>
      </trkpt>
      <trkpt lat="45.03809" lon="6.42385">
        <ele>1826.6</ele>
        <time>2020-08-18T08:52:34Z</time>
      </trkpt>
      <trkpt lat="45.03809" lon="6.42371">
        <ele>1826.8</ele>
        <time>2020-08-18T08:52:42Z</time>
      </trkpt>
      <trkpt lat="45.03809" lon="6.42358">
        <ele>1827</ele>
        <time>2020-08-18T08:52:51Z</time>
      </trkpt>
      <trkpt lat="45.03808" lon="6.42345">
        <ele>1827.1</ele>
        <time>2020-08-18T08:52:58Z</time>
      </trkpt>
      <trkpt lat="45.0381" lon="6.42332">
        <ele>1827.1</ele>
        <time>2020-08-18T08:53:05Z</time>
      </trkpt>
      <trkpt lat="45.03812" lon="6.42319">
        <ele>1827.2</ele>
        <time>2020-08-18T08:53:09Z</time>
      </trkpt>
      <trkpt lat="45.03814" lon="6.42306">
        <ele>1827.4</ele>
        <time>2020-08-18T08:53:12Z</time>
      </trkpt>
      <trkpt lat="45.03821" lon="6.42294">
        <ele>1828</ele>
        <time>2020-08-18T08:53:16Z</time>
      </trkpt>
      <trkpt lat="45.03826" lon="6.42282">
        <ele>1829</ele>
        <time>2020-08-18T08:53:20Z</time>
      </trkpt>
      <trkpt lat="45.03817" lon="6.42276">
        <ele>1831.4</ele>
        <time>2020-08-18T08:53:30Z</time>
      </trkpt>
      <trkpt lat="45.03811" lon="6.42266">
        <ele>1832.7</ele>
        <time>2020-08-18T08:53:37Z</time>
      </trkpt>
      <trkpt lat="45.03808" lon="6.42252">
        <ele>1833.9</ele>
        <time>2020-08-18T08:53:44Z</time>
      </trkpt>
      <trkpt lat="45.03809" lon="6.42238">
        <ele>1835</ele>
        <time>2020-08-18T08:53:52Z</time>
      </trkpt>
      <trkpt lat="45.0381" lon="6.42224">
        <ele>1835.9</ele>
        <time>2020-08-18T08:53:59Z</time>
      </trkpt>
      <trkpt lat="45.03811" lon="6.42211">
        <ele>1836.8</ele>
        <time>2020-08-18T08:54:06Z</time>
      </trkpt>
      <trkpt lat="45.03814" lon="6.42198">
        <ele>1837.6</ele>
        <time>2020-08-18T08:54:13Z</time>
      </trkpt>
      <trkpt lat="45.03816" lon="6.42184">
        <ele>1838.4</ele>
        <time>2020-08-18T08:54:20Z</time>
      </trkpt>
      <trkpt lat="45.03818" lon="6.42171">
        <ele>1838.9</ele>
        <time>2020-08-18T08:54:26Z</time>
      </trkpt>
      <trkpt lat="45.03819" lon="6.42158">
        <ele>1839.7</ele>
        <time>2020-08-18T08:54:33Z</time>
      </trkpt>
      <trkpt lat="45.03821" lon="6.42143">
        <ele>1840.3</ele>
        <time>2020-08-18T08:54:40Z</time>
      </trkpt>
      <trkpt lat="45.03824" lon="6.42129">
        <ele>1840.5</ele>
        <time>2020-08-18T08:54:44Z</time>
      </trkpt>
      <trkpt lat="45.03826" lon="6.42115">
        <ele>1840.6</ele>
        <time>2020-08-18T08:54:46Z</time>
      </trkpt>
      <trkpt lat="45.03829" lon="6.42098">
        <ele>1841</ele>
        <time>2020-08-18T08:54:49Z</time>
      </trkpt>
      <trkpt lat="45.0383" lon="6.42082">
        <ele>1841.5</ele>
        <time>2020-08-18T08:54:52Z</time>
      </trkpt>
      <trkpt lat="45.03832" lon="6.42066">
        <ele>1841.9</ele>
        <time>2020-08-18T08:54:55Z</time>
      </trkpt>
      <trkpt lat="45.03832" lon="6.42053">
        <ele>1842.2</ele>
        <time>2020-08-18T08:54:57Z</time>
      </trkpt>
      <trkpt lat="45.03835" lon="6.42035">
        <ele>1842.7</ele>
        <time>2020-08-18T08:55:00Z</time>
      </trkpt>
      <trkpt lat="45.03835" lon="6.42021">
        <ele>1843.1</ele>
        <time>2020-08-18T08:55:02Z</time>
      </trkpt>
      <trkpt lat="45.03836" lon="6.42006">
        <ele>1843.5</ele>
        <time>2020-08-18T08:55:04Z</time>
      </trkpt>
      <trkpt lat="45.03838" lon="6.41993">
        <ele>1843.9</ele>
        <time>2020-08-18T08:55:06Z</time>
      </trkpt>
      <trkpt lat="45.0384" lon="6.41978">
        <ele>1844.5</ele>
        <time>2020-08-18T08:55:08Z</time>
      </trkpt>
      <trkpt lat="45.03844" lon="6.41961">
        <ele>1845.2</ele>
        <time>2020-08-18T08:55:11Z</time>
      </trkpt>
      <trkpt lat="45.03848" lon="6.41944">
        <ele>1846.1</ele>
        <time>2020-08-18T08:55:14Z</time>
      </trkpt>
      <trkpt lat="45.0385" lon="6.41929">
        <ele>1846.7</ele>
        <time>2020-08-18T08:55:16Z</time>
      </trkpt>
      <trkpt lat="45.03853" lon="6.41916">
        <ele>1847.4</ele>
        <time>2020-08-18T08:55:18Z</time>
      </trkpt>
      <trkpt lat="45.03857" lon="6.41899">
        <ele>1848.3</ele>
        <time>2020-08-18T08:55:21Z</time>
      </trkpt>
      <trkpt lat="45.03862" lon="6.41881">
        <ele>1849.2</ele>
        <time>2020-08-18T08:55:24Z</time>
      </trkpt>
      <trkpt lat="45.03865" lon="6.41866">
        <ele>1850.3</ele>
        <time>2020-08-18T08:55:27Z</time>
      </trkpt>
      <trkpt lat="45.0387" lon="6.41852">
        <ele>1851.5</ele>
        <time>2020-08-18T08:55:30Z</time>
      </trkpt>
      <trkpt lat="45.03873" lon="6.4184">
        <ele>1852.3</ele>
        <time>2020-08-18T08:55:32Z</time>
      </trkpt>
      <trkpt lat="45.03876" lon="6.41827">
        <ele>1853.1</ele>
        <time>2020-08-18T08:55:34Z</time>
      </trkpt>
      <trkpt lat="45.03879" lon="6.41814">
        <ele>1853.9</ele>
        <time>2020-08-18T08:55:36Z</time>
      </trkpt>
      <trkpt lat="45.03884" lon="6.41797">
        <ele>1855.2</ele>
        <time>2020-08-18T08:55:39Z</time>
      </trkpt>
      <trkpt lat="45.03887" lon="6.41785">
        <ele>1856.2</ele>
        <time>2020-08-18T08:55:41Z</time>
      </trkpt>
      <trkpt lat="45.03891" lon="6.41769">
        <ele>1857.7</ele>
        <time>2020-08-18T08:55:44Z</time>
      </trkpt>
      <trkpt lat="45.03894" lon="6.41756">
        <ele>1859.2</ele>
        <time>2020-08-18T08:55:47Z</time>
      </trkpt>
      <trkpt lat="45.03898" lon="6.4174">
        <ele>1860.7</ele>
        <time>2020-08-18T08:55:50Z</time>
      </trkpt>
      <trkpt lat="45.03903" lon="6.41727">
        <ele>1862.3</ele>
        <time>2020-08-18T08:55:53Z</time>
      </trkpt>
      <trkpt lat="45.03909" lon="6.41716">
        <ele>1864.7</ele>
        <time>2020-08-18T08:55:58Z</time>
      </trkpt>
      <trkpt lat="45.03915" lon="6.41705">
        <ele>1867.4</ele>
        <time>2020-08-18T08:56:05Z</time>
      </trkpt>
      <trkpt lat="45.03921" lon="6.41694">
        <ele>1869.8</ele>
        <time>2020-08-18T08:56:12Z</time>
      </trkpt>
      <trkpt lat="45.03928" lon="6.41685">
        <ele>1871.7</ele>
        <time>2020-08-18T08:56:19Z</time>
      </trkpt>
      <trkpt lat="45.03933" lon="6.41674">
        <ele>1873.3</ele>
        <time>2020-08-18T08:56:26Z</time>
      </trkpt>
      <trkpt lat="45.03939" lon="6.41663">
        <ele>1874.9</ele>
        <time>2020-08-18T08:56:34Z</time>
      </trkpt>
      <trkpt lat="45.03948" lon="6.41656">
        <ele>1876.6</ele>
        <time>2020-08-18T08:56:42Z</time>
      </trkpt>
      <trkpt lat="45.03957" lon="6.41653">
        <ele>1878.4</ele>
        <time>2020-08-18T08:56:50Z</time>
      </trkpt>
      <trkpt lat="45.03965" lon="6.41645">
        <ele>1880</ele>
        <time>2020-08-18T08:56:58Z</time>
      </trkpt>
      <trkpt lat="45.03972" lon="6.41637">
        <ele>1881</ele>
        <time>2020-08-18T08:57:05Z</time>
      </trkpt>
      <trkpt lat="45.03978" lon="6.41626">
        <ele>1881.7</ele>
        <time>2020-08-18T08:57:14Z</time>
      </trkpt>
      <trkpt lat="45.03981" lon="6.41613">
        <ele>1882.4</ele>
        <time>2020-08-18T08:57:33Z</time>
      </trkpt>
      <trkpt lat="45.03976" lon="6.41602">
        <ele>1882.5</ele>
        <time>2020-08-18T08:57:41Z</time>
      </trkpt>
      <trkpt lat="45.03967" lon="6.41603">
        <ele>1882.9</ele>
        <time>2020-08-18T08:57:50Z</time>
      </trkpt>
      <trkpt lat="45.03958" lon="6.41595">
        <ele>1884.1</ele>
        <time>2020-08-18T08:58:43Z</time>
      </trkpt>
      <trkpt lat="45.03953" lon="6.41584">
        <ele>1884.6</ele>
        <time>2020-08-18T08:59:28Z</time>
      </trkpt>
      <trkpt lat="45.03949" lon="6.41571">
        <ele>1885</ele>
        <time>2020-08-18T08:59:36Z</time>
      </trkpt>
      <trkpt lat="45.03942" lon="6.41561">
        <ele>1886.2</ele>
        <time>2020-08-18T08:59:48Z</time>
      </trkpt>
      <trkpt lat="45.03943" lon="6.41546">
        <ele>1887.5</ele>
        <time>2020-08-18T08:59:57Z</time>
      </trkpt>
      <trkpt lat="45.03949" lon="6.41536">
        <ele>1888.5</ele>
        <time>2020-08-18T09:00:05Z</time>
      </trkpt>
      <trkpt lat="45.03956" lon="6.41528">
        <ele>1890.1</ele>
        <time>2020-08-18T09:00:14Z</time>
      </trkpt>
      <trkpt lat="45.03964" lon="6.41535">
        <ele>1891.5</ele>
        <time>2020-08-18T09:00:21Z</time>
      </trkpt>
      <trkpt lat="45.03973" lon="6.41541">
        <ele>1893</ele>
        <time>2020-08-18T09:00:28Z</time>
      </trkpt>
      <trkpt lat="45.0398" lon="6.41533">
        <ele>1894.7</ele>
        <time>2020-08-18T09:00:37Z</time>
      </trkpt>
      <trkpt lat="45.03975" lon="6.4152">
        <ele>1896.1</ele>
        <time>2020-08-18T09:00:44Z</time>
      </trkpt>
      <trkpt lat="45.03969" lon="6.41511">
        <ele>1897.2</ele>
        <time>2020-08-18T09:00:50Z</time>
      </trkpt>
      <trkpt lat="45.03963" lon="6.415">
        <ele>1898.8</ele>
        <time>2020-08-18T09:00:58Z</time>
      </trkpt>
      <trkpt lat="45.03957" lon="6.41489">
        <ele>1900.1</ele>
        <time>2020-08-18T09:01:05Z</time>
      </trkpt>
      <trkpt lat="45.03951" lon="6.41478">
        <ele>1901.5</ele>
        <time>2020-08-18T09:01:13Z</time>
      </trkpt>
      <trkpt lat="45.03945" lon="6.41467">
        <ele>1903</ele>
        <time>2020-08-18T09:01:21Z</time>
      </trkpt>
      <trkpt lat="45.03937" lon="6.41461">
        <ele>1904.7</ele>
        <time>2020-08-18T09:01:29Z</time>
      </trkpt>
      <trkpt lat="45.03932" lon="6.41449">
        <ele>1906.6</ele>
        <time>2020-08-18T09:01:38Z</time>
      </trkpt>
      <trkpt lat="45.03926" lon="6.41438">
        <ele>1908.7</ele>
        <time>2020-08-18T09:01:47Z</time>
      </trkpt>
      <trkpt lat="45.0392" lon="6.41427">
        <ele>1910.6</ele>
        <time>2020-08-18T09:01:56Z</time>
      </trkpt>
      <trkpt lat="45.03915" lon="6.41414">
        <ele>1912.6</ele>
        <time>2020-08-18T09:02:05Z</time>
      </trkpt>
      <trkpt lat="45.03911" lon="6.41402">
        <ele>1914.6</ele>
        <time>2020-08-18T09:02:14Z</time>
      </trkpt>
      <trkpt lat="45.03908" lon="6.4139">
        <ele>1916.9</ele>
        <time>2020-08-18T09:02:24Z</time>
      </trkpt>
      <trkpt lat="45.03902" lon="6.4138">
        <ele>1918.9</ele>
        <time>2020-08-18T09:02:33Z</time>
      </trkpt>
      <trkpt lat="45.03895" lon="6.4137">
        <ele>1921</ele>
        <time>2020-08-18T09:02:43Z</time>
      </trkpt>
      <trkpt lat="45.03889" lon="6.41359">
        <ele>1922.8</ele>
        <time>2020-08-18T09:02:52Z</time>
      </trkpt>
      <trkpt lat="45.03882" lon="6.41351">
        <ele>1924.8</ele>
        <time>2020-08-18T09:03:01Z</time>
      </trkpt>
      <trkpt lat="45.03876" lon="6.4134">
        <ele>1926.8</ele>
        <time>2020-08-18T09:03:10Z</time>
      </trkpt>
      <trkpt lat="45.03872" lon="6.41329">
        <ele>1928.3</ele>
        <time>2020-08-18T09:03:18Z</time>
      </trkpt>
      <trkpt lat="45.03867" lon="6.41317">
        <ele>1930.3</ele>
        <time>2020-08-18T09:03:27Z</time>
      </trkpt>
      <trkpt lat="45.03862" lon="6.41305">
        <ele>1932.2</ele>
        <time>2020-08-18T09:03:35Z</time>
      </trkpt>
      <trkpt lat="45.03858" lon="6.41293">
        <ele>1934.1</ele>
        <time>2020-08-18T09:03:43Z</time>
      </trkpt>
      <trkpt lat="45.03854" lon="6.41282">
        <ele>1935.9</ele>
        <time>2020-08-18T09:03:51Z</time>
      </trkpt>
      <trkpt lat="45.03848" lon="6.4127">
        <ele>1937.8</ele>
        <time>2020-08-18T09:03:59Z</time>
      </trkpt>
      <trkpt lat="45.03844" lon="6.41258">
        <ele>1939.7</ele>
        <time>2020-08-18T09:04:07Z</time>
      </trkpt>
      <trkpt lat="45.03838" lon="6.41247">
        <ele>1941.6</ele>
        <time>2020-08-18T09:04:16Z</time>
      </trkpt>
      <trkpt lat="45.03831" lon="6.41236">
        <ele>1943.2</ele>
        <time>2020-08-18T09:04:24Z</time>
      </trkpt>
      <trkpt lat="45.03826" lon="6.41225">
        <ele>1945.2</ele>
        <time>2020-08-18T09:04:33Z</time>
      </trkpt>
      <trkpt lat="45.03819" lon="6.41216">
        <ele>1946.8</ele>
        <time>2020-08-18T09:04:40Z</time>
      </trkpt>
      <trkpt lat="45.03814" lon="6.41204">
        <ele>1948.3</ele>
        <time>2020-08-18T09:04:48Z</time>
      </trkpt>
      <trkpt lat="45.03808" lon="6.41193">
        <ele>1949.5</ele>
        <time>2020-08-18T09:04:55Z</time>
      </trkpt>
      <trkpt lat="45.03802" lon="6.41183">
        <ele>1950.6</ele>
        <time>2020-08-18T09:05:02Z</time>
      </trkpt>
      <trkpt lat="45.03797" lon="6.41172">
        <ele>1951.8</ele>
        <time>2020-08-18T09:05:09Z</time>
      </trkpt>
      <trkpt lat="45.0379" lon="6.41163">
        <ele>1952.8</ele>
        <time>2020-08-18T09:05:16Z</time>
      </trkpt>
      <trkpt lat="45.03783" lon="6.41153">
        <ele>1953.7</ele>
        <time>2020-08-18T09:05:23Z</time>
      </trkpt>
      <trkpt lat="45.03779" lon="6.4114">
        <ele>1954.7</ele>
        <time>2020-08-18T09:05:31Z</time>
      </trkpt>
      <trkpt lat="45.03777" lon="6.41127">
        <ele>1955.6</ele>
        <time>2020-08-18T09:05:38Z</time>
      </trkpt>
      <trkpt lat="45.03774" lon="6.41114">
        <ele>1956.6</ele>
        <time>2020-08-18T09:05:45Z</time>
      </trkpt>
      <trkpt lat="45.03767" lon="6.41104">
        <ele>1958.1</ele>
        <time>2020-08-18T09:05:54Z</time>
      </trkpt>
      <trkpt lat="45.03758" lon="6.41099">
        <ele>1959.5</ele>
        <time>2020-08-18T09:06:02Z</time>
      </trkpt>
      <trkpt lat="45.0375" lon="6.41092">
        <ele>1960.4</ele>
        <time>2020-08-18T09:06:09Z</time>
      </trkpt>
      <trkpt lat="45.0374" lon="6.41096">
        <ele>1963</ele>
        <time>2020-08-18T09:06:39Z</time>
      </trkpt>
      <trkpt lat="45.03733" lon="6.41102">
        <ele>1963.3</ele>
        <time>2020-08-18T09:06:45Z</time>
      </trkpt>
      <trkpt lat="45.03723" lon="6.41108">
        <ele>1964.1</ele>
        <time>2020-08-18T09:06:52Z</time>
      </trkpt>
      <trkpt lat="45.03717" lon="6.41117">
        <ele>1965.2</ele>
        <time>2020-08-18T09:06:59Z</time>
      </trkpt>
      <trkpt lat="45.0371" lon="6.41126">
        <ele>1966.4</ele>
        <time>2020-08-18T09:07:06Z</time>
      </trkpt>
      <trkpt lat="45.03702" lon="6.41134">
        <ele>1967.7</ele>
        <time>2020-08-18T09:07:14Z</time>
      </trkpt>
      <trkpt lat="45.03694" lon="6.41141">
        <ele>1968.6</ele>
        <time>2020-08-18T09:07:21Z</time>
      </trkpt>
      <trkpt lat="45.03685" lon="6.41145">
        <ele>1969.6</ele>
        <time>2020-08-18T09:07:28Z</time>
      </trkpt>
      <trkpt lat="45.03675" lon="6.41144">
        <ele>1970.7</ele>
        <time>2020-08-18T09:07:35Z</time>
      </trkpt>
      <trkpt lat="45.03666" lon="6.41142">
        <ele>1971.5</ele>
        <time>2020-08-18T09:07:41Z</time>
      </trkpt>
      <trkpt lat="45.03656" lon="6.41138">
        <ele>1971.8</ele>
        <time>2020-08-18T09:07:44Z</time>
      </trkpt>
      <trkpt lat="45.03647" lon="6.41134">
        <ele>1972.1</ele>
        <time>2020-08-18T09:07:47Z</time>
      </trkpt>
      <trkpt lat="45.03636" lon="6.41128">
        <ele>1972.8</ele>
        <time>2020-08-18T09:07:51Z</time>
      </trkpt>
      <trkpt lat="45.03628" lon="6.41123">
        <ele>1973.4</ele>
        <time>2020-08-18T09:07:54Z</time>
      </trkpt>
      <trkpt lat="45.03619" lon="6.41118">
        <ele>1973.9</ele>
        <time>2020-08-18T09:07:57Z</time>
      </trkpt>
      <trkpt lat="45.0361" lon="6.41114">
        <ele>1974.7</ele>
        <time>2020-08-18T09:08:00Z</time>
      </trkpt>
      <trkpt lat="45.036" lon="6.41108">
        <ele>1975.7</ele>
        <time>2020-08-18T09:08:04Z</time>
      </trkpt>
      <trkpt lat="45.03589" lon="6.41102">
        <ele>1976.6</ele>
        <time>2020-08-18T09:08:08Z</time>
      </trkpt>
      <trkpt lat="45.03583" lon="6.41088">
        <ele>1977.7</ele>
        <time>2020-08-18T09:08:12Z</time>
      </trkpt>
      <trkpt lat="45.03581" lon="6.41075">
        <ele>1978.5</ele>
        <time>2020-08-18T09:08:15Z</time>
      </trkpt>
      <trkpt lat="45.03581" lon="6.41059">
        <ele>1979.8</ele>
        <time>2020-08-18T09:08:19Z</time>
      </trkpt>
      <trkpt lat="45.03584" lon="6.41044">
        <ele>1981</ele>
        <time>2020-08-18T09:08:23Z</time>
      </trkpt>
      <trkpt lat="45.03588" lon="6.41029">
        <ele>1982.2</ele>
        <time>2020-08-18T09:08:27Z</time>
      </trkpt>
      <trkpt lat="45.03592" lon="6.41016">
        <ele>1983.4</ele>
        <time>2020-08-18T09:08:31Z</time>
      </trkpt>
      <trkpt lat="45.03597" lon="6.41004">
        <ele>1984.5</ele>
        <time>2020-08-18T09:08:35Z</time>
      </trkpt>
      <trkpt lat="45.03602" lon="6.40991">
        <ele>1985.6</ele>
        <time>2020-08-18T09:08:39Z</time>
      </trkpt>
      <trkpt lat="45.03607" lon="6.40976">
        <ele>1986.8</ele>
        <time>2020-08-18T09:08:43Z</time>
      </trkpt>
      <trkpt lat="45.03614" lon="6.40964">
        <ele>1987.9</ele>
        <time>2020-08-18T09:08:47Z</time>
      </trkpt>
      <trkpt lat="45.03619" lon="6.40952">
        <ele>1989</ele>
        <time>2020-08-18T09:08:51Z</time>
      </trkpt>
      <trkpt lat="45.03624" lon="6.40939">
        <ele>1990.3</ele>
        <time>2020-08-18T09:08:55Z</time>
      </trkpt>
      <trkpt lat="45.0363" lon="6.40925">
        <ele>1991.5</ele>
        <time>2020-08-18T09:08:59Z</time>
      </trkpt>
      <trkpt lat="45.03635" lon="6.40913">
        <ele>1992.8</ele>
        <time>2020-08-18T09:09:03Z</time>
      </trkpt>
      <trkpt lat="45.0364" lon="6.40899">
        <ele>1994</ele>
        <time>2020-08-18T09:09:07Z</time>
      </trkpt>
      <trkpt lat="45.03645" lon="6.40887">
        <ele>1995.1</ele>
        <time>2020-08-18T09:09:11Z</time>
      </trkpt>
      <trkpt lat="45.03652" lon="6.40875">
        <ele>1996.4</ele>
        <time>2020-08-18T09:09:15Z</time>
      </trkpt>
      <trkpt lat="45.03658" lon="6.40864">
        <ele>1998.2</ele>
        <time>2020-08-18T09:09:21Z</time>
      </trkpt>
      <trkpt lat="45.03666" lon="6.40854">
        <ele>2000.2</ele>
        <time>2020-08-18T09:09:29Z</time>
      </trkpt>
      <trkpt lat="45.03672" lon="6.40845">
        <ele>2002</ele>
        <time>2020-08-18T09:09:37Z</time>
      </trkpt>
      <trkpt lat="45.03677" lon="6.40834">
        <ele>2003.5</ele>
        <time>2020-08-18T09:09:45Z</time>
      </trkpt>
      <trkpt lat="45.03682" lon="6.40821">
        <ele>2005.1</ele>
        <time>2020-08-18T09:09:53Z</time>
      </trkpt>
      <trkpt lat="45.03687" lon="6.4081">
        <ele>2006.5</ele>
        <time>2020-08-18T09:10:01Z</time>
      </trkpt>
      <trkpt lat="45.03691" lon="6.40798">
        <ele>2007.7</ele>
        <time>2020-08-18T09:10:08Z</time>
      </trkpt>
      <trkpt lat="45.03694" lon="6.40785">
        <ele>2009</ele>
        <time>2020-08-18T09:10:17Z</time>
      </trkpt>
      <trkpt lat="45.03698" lon="6.40773">
        <ele>2010.8</ele>
        <time>2020-08-18T09:10:37Z</time>
      </trkpt>
      <trkpt lat="45.03701" lon="6.4076">
        <ele>2011.3</ele>
        <time>2020-08-18T09:10:45Z</time>
      </trkpt>
      <trkpt lat="45.03705" lon="6.40746">
        <ele>2011.6</ele>
        <time>2020-08-18T09:10:53Z</time>
      </trkpt>
      <trkpt lat="45.03709" lon="6.40734">
        <ele>2012</ele>
        <time>2020-08-18T09:11:01Z</time>
      </trkpt>
      <trkpt lat="45.03714" lon="6.40722">
        <ele>2012.3</ele>
        <time>2020-08-18T09:11:07Z</time>
      </trkpt>
      <trkpt lat="45.03718" lon="6.4071">
        <ele>2012.9</ele>
        <time>2020-08-18T09:11:14Z</time>
      </trkpt>
      <trkpt lat="45.0372" lon="6.40698">
        <ele>2013.4</ele>
        <time>2020-08-18T09:11:19Z</time>
      </trkpt>
      <trkpt lat="45.03723" lon="6.40684">
        <ele>2014.3</ele>
        <time>2020-08-18T09:11:26Z</time>
      </trkpt>
      <trkpt lat="45.03725" lon="6.4067">
        <ele>2015.7</ele>
        <time>2020-08-18T09:11:34Z</time>
      </trkpt>
      <trkpt lat="45.03727" lon="6.40657">
        <ele>2017.1</ele>
        <time>2020-08-18T09:11:42Z</time>
      </trkpt>
      <trkpt lat="45.03726" lon="6.40644">
        <ele>2018.3</ele>
        <time>2020-08-18T09:11:50Z</time>
      </trkpt>
      <trkpt lat="45.03717" lon="6.4065">
        <ele>2020.9</ele>
        <time>2020-08-18T09:12:01Z</time>
      </trkpt>
      <trkpt lat="45.0371" lon="6.40659">
        <ele>2022.8</ele>
        <time>2020-08-18T09:12:07Z</time>
      </trkpt>
      <trkpt lat="45.03703" lon="6.40669">
        <ele>2024.4</ele>
        <time>2020-08-18T09:12:12Z</time>
      </trkpt>
      <trkpt lat="45.03698" lon="6.40679">
        <ele>2026.3</ele>
        <time>2020-08-18T09:12:18Z</time>
      </trkpt>
      <trkpt lat="45.0369" lon="6.40688">
        <ele>2028.7</ele>
        <time>2020-08-18T09:12:26Z</time>
      </trkpt>
      <trkpt lat="45.03682" lon="6.40694">
        <ele>2030.6</ele>
        <time>2020-08-18T09:12:33Z</time>
      </trkpt>
      <trkpt lat="45.03676" lon="6.40681">
        <ele>2032.7</ele>
        <time>2020-08-18T09:12:41Z</time>
      </trkpt>
      <trkpt lat="45.0367" lon="6.40672">
        <ele>2034.4</ele>
        <time>2020-08-18T09:12:48Z</time>
      </trkpt>
      <trkpt lat="45.03661" lon="6.40669">
        <ele>2036.5</ele>
        <time>2020-08-18T09:12:56Z</time>
      </trkpt>
      <trkpt lat="45.03654" lon="6.4066">
        <ele>2038</ele>
        <time>2020-08-18T09:13:03Z</time>
      </trkpt>
      <trkpt lat="45.03649" lon="6.40649">
        <ele>2040.7</ele>
        <time>2020-08-18T09:13:21Z</time>
      </trkpt>
      <trkpt lat="45.03645" lon="6.40637">
        <ele>2041.4</ele>
        <time>2020-08-18T09:13:28Z</time>
      </trkpt>
      <trkpt lat="45.03638" lon="6.40628">
        <ele>2042.7</ele>
        <time>2020-08-18T09:13:49Z</time>
      </trkpt>
      <trkpt lat="45.03628" lon="6.40633">
        <ele>2045.1</ele>
        <time>2020-08-18T09:14:51Z</time>
      </trkpt>
      <trkpt lat="45.0362" lon="6.40625">
        <ele>2047.6</ele>
        <time>2020-08-18T09:16:03Z</time>
      </trkpt>
      <trkpt lat="45.03614" lon="6.40615">
        <ele>2047.9</ele>
        <time>2020-08-18T09:16:14Z</time>
      </trkpt>
      <trkpt lat="45.03606" lon="6.40607">
        <ele>2048</ele>
        <time>2020-08-18T09:16:21Z</time>
      </trkpt>
      <trkpt lat="45.036" lon="6.40597">
        <ele>2048.3</ele>
        <time>2020-08-18T09:16:28Z</time>
      </trkpt>
      <trkpt lat="45.03595" lon="6.40585">
        <ele>2048.6</ele>
        <time>2020-08-18T09:16:36Z</time>
      </trkpt>
      <trkpt lat="45.03593" lon="6.40572">
        <ele>2048.8</ele>
        <time>2020-08-18T09:16:42Z</time>
      </trkpt>
      <trkpt lat="45.03587" lon="6.40562">
        <ele>2049</ele>
        <time>2020-08-18T09:16:49Z</time>
      </trkpt>
      <trkpt lat="45.0358" lon="6.40553">
        <ele>2049.3</ele>
        <time>2020-08-18T09:16:56Z</time>
      </trkpt>
      <trkpt lat="45.03573" lon="6.40543">
        <ele>2049.8</ele>
        <time>2020-08-18T09:17:03Z</time>
      </trkpt>
      <trkpt lat="45.03568" lon="6.40533">
        <ele>2050.4</ele>
        <time>2020-08-18T09:17:10Z</time>
      </trkpt>
      <trkpt lat="45.0356" lon="6.40524">
        <ele>2051.2</ele>
        <time>2020-08-18T09:17:17Z</time>
      </trkpt>
      <trkpt lat="45.03554" lon="6.40515">
        <ele>2051.8</ele>
        <time>2020-08-18T09:17:24Z</time>
      </trkpt>
      <trkpt lat="45.03545" lon="6.40509">
        <ele>2052.5</ele>
        <time>2020-08-18T09:17:32Z</time>
      </trkpt>
      <trkpt lat="45.03535" lon="6.40506">
        <ele>2053.4</ele>
        <time>2020-08-18T09:17:42Z</time>
      </trkpt>
      <trkpt lat="45.03526" lon="6.40505">
        <ele>2053.9</ele>
        <time>2020-08-18T09:17:49Z</time>
      </trkpt>
      <trkpt lat="45.03517" lon="6.40502">
        <ele>2054.2</ele>
        <time>2020-08-18T09:17:57Z</time>
      </trkpt>
      <trkpt lat="45.03508" lon="6.40506">
        <ele>2054.7</ele>
        <time>2020-08-18T09:18:21Z</time>
      </trkpt>
      <trkpt lat="45.03499" lon="6.40508">
        <ele>2054.9</ele>
        <time>2020-08-18T09:18:29Z</time>
      </trkpt>
      <trkpt lat="45.0349" lon="6.40507">
        <ele>2055</ele>
        <time>2020-08-18T09:18:36Z</time>
      </trkpt>
      <trkpt lat="45.0348" lon="6.40504">
        <ele>2055</ele>
        <time>2020-08-18T09:18:44Z</time>
      </trkpt>
      <trkpt lat="45.03471" lon="6.405">
        <ele>2054.8</ele>
        <time>2020-08-18T09:18:52Z</time>
      </trkpt>
      <trkpt lat="45.03463" lon="6.40492">
        <ele>2054.3</ele>
        <time>2020-08-18T09:19:04Z</time>
      </trkpt>
      <trkpt lat="45.03458" lon="6.40479">
        <ele>2054.1</ele>
        <time>2020-08-18T09:19:11Z</time>
      </trkpt>
      <trkpt lat="45.03453" lon="6.40469">
        <ele>2053.9</ele>
        <time>2020-08-18T09:19:18Z</time>
      </trkpt>
      <trkpt lat="45.03451" lon="6.40455">
        <ele>2053.6</ele>
        <time>2020-08-18T09:19:27Z</time>
      </trkpt>
      <trkpt lat="45.03452" lon="6.40441">
        <ele>2053.1</ele>
        <time>2020-08-18T09:20:11Z</time>
      </trkpt>
      <trkpt lat="45.03452" lon="6.40427">
        <ele>2052.1</ele>
        <time>2020-08-18T09:20:20Z</time>
      </trkpt>
      <trkpt lat="45.03448" lon="6.40414">
        <ele>2051</ele>
        <time>2020-08-18T09:20:26Z</time>
      </trkpt>
      <trkpt lat="45.03443" lon="6.40403">
        <ele>2049.6</ele>
        <time>2020-08-18T09:20:32Z</time>
      </trkpt>
      <trkpt lat="45.03438" lon="6.40392">
        <ele>2048.6</ele>
        <time>2020-08-18T09:20:38Z</time>
      </trkpt>
      <trkpt lat="45.03432" lon="6.40381">
        <ele>2047.5</ele>
        <time>2020-08-18T09:20:44Z</time>
      </trkpt>
      <trkpt lat="45.03427" lon="6.40369">
        <ele>2046.5</ele>
        <time>2020-08-18T09:20:50Z</time>
      </trkpt>
      <trkpt lat="45.03421" lon="6.40357">
        <ele>2045.5</ele>
        <time>2020-08-18T09:20:57Z</time>
      </trkpt>
      <trkpt lat="45.03415" lon="6.40346">
        <ele>2044.6</ele>
        <time>2020-08-18T09:21:04Z</time>
      </trkpt>
      <trkpt lat="45.03412" lon="6.40334">
        <ele>2043.9</ele>
        <time>2020-08-18T09:21:10Z</time>
      </trkpt>
      <trkpt lat="45.03408" lon="6.40321">
        <ele>2043</ele>
        <time>2020-08-18T09:21:17Z</time>
      </trkpt>
      <trkpt lat="45.03403" lon="6.40308">
        <ele>2042.2</ele>
        <time>2020-08-18T09:21:24Z</time>
      </trkpt>
      <trkpt lat="45.034" lon="6.40294">
        <ele>2041.2</ele>
        <time>2020-08-18T09:21:31Z</time>
      </trkpt>
      <trkpt lat="45.03396" lon="6.40281">
        <ele>2040.2</ele>
        <time>2020-08-18T09:21:37Z</time>
      </trkpt>
      <trkpt lat="45.03392" lon="6.40267">
        <ele>2039.3</ele>
        <time>2020-08-18T09:21:43Z</time>
      </trkpt>
      <trkpt lat="45.03388" lon="6.40255">
        <ele>2038.6</ele>
        <time>2020-08-18T09:21:48Z</time>
      </trkpt>
      <trkpt lat="45.03393" lon="6.40244">
        <ele>2037.6</ele>
        <time>2020-08-18T09:21:55Z</time>
      </trkpt>
      <trkpt lat="45.03398" lon="6.40232">
        <ele>2036.8</ele>
        <time>2020-08-18T09:22:03Z</time>
      </trkpt>
      <trkpt lat="45.03397" lon="6.40217">
        <ele>2036.1</ele>
        <time>2020-08-18T09:22:09Z</time>
      </trkpt>
      <trkpt lat="45.03397" lon="6.40204">
        <ele>2035.3</ele>
        <time>2020-08-18T09:22:15Z</time>
      </trkpt>
      <trkpt lat="45.03395" lon="6.4019">
        <ele>2034.4</ele>
        <time>2020-08-18T09:22:21Z</time>
      </trkpt>
      <trkpt lat="45.03392" lon="6.40176">
        <ele>2033.2</ele>
        <time>2020-08-18T09:22:27Z</time>
      </trkpt>
      <trkpt lat="45.03396" lon="6.40163">
        <ele>2031.8</ele>
        <time>2020-08-18T09:22:34Z</time>
      </trkpt>
      <trkpt lat="45.03397" lon="6.40149">
        <ele>2030.7</ele>
        <time>2020-08-18T09:22:41Z</time>
      </trkpt>
      <trkpt lat="45.03397" lon="6.40135">
        <ele>2029.9</ele>
        <time>2020-08-18T09:22:47Z</time>
      </trkpt>
      <trkpt lat="45.03397" lon="6.40122">
        <ele>2029</ele>
        <time>2020-08-18T09:22:53Z</time>
      </trkpt>
      <trkpt lat="45.03403" lon="6.40111">
        <ele>2027.8</ele>
        <time>2020-08-18T09:23:01Z</time>
      </trkpt>
      <trkpt lat="45.03401" lon="6.40099">
        <ele>2027.2</ele>
        <time>2020-08-18T09:23:06Z</time>
      </trkpt>
      <trkpt lat="45.03404" lon="6.40085">
        <ele>2026.4</ele>
        <time>2020-08-18T09:23:12Z</time>
      </trkpt>
      <trkpt lat="45.03408" lon="6.40073">
        <ele>2025.8</ele>
        <time>2020-08-18T09:23:19Z</time>
      </trkpt>
      <trkpt lat="45.03412" lon="6.4006">
        <ele>2025.2</ele>
        <time>2020-08-18T09:23:28Z</time>
      </trkpt>
      <trkpt lat="45.03409" lon="6.40047">
        <ele>2025</ele>
        <time>2020-08-18T09:23:36Z</time>
      </trkpt>
      <trkpt lat="45.03404" lon="6.40034">
        <ele>2024.9</ele>
        <time>2020-08-18T09:23:42Z</time>
      </trkpt>
      <trkpt lat="45.03406" lon="6.40021">
        <ele>2025</ele>
        <time>2020-08-18T09:23:48Z</time>
      </trkpt>
      <trkpt lat="45.03409" lon="6.40008">
        <ele>2025.2</ele>
        <time>2020-08-18T09:23:56Z</time>
      </trkpt>
      <trkpt lat="45.03409" lon="6.39995">
        <ele>2025.3</ele>
        <time>2020-08-18T09:24:02Z</time>
      </trkpt>
      <trkpt lat="45.03409" lon="6.39982">
        <ele>2025.4</ele>
        <time>2020-08-18T09:24:09Z</time>
      </trkpt>
      <trkpt lat="45.03416" lon="6.39974">
        <ele>2025.5</ele>
        <time>2020-08-18T09:24:15Z</time>
      </trkpt>
      <trkpt lat="45.03419" lon="6.39962">
        <ele>2025.5</ele>
        <time>2020-08-18T09:24:21Z</time>
      </trkpt>
      <trkpt lat="45.03419" lon="6.39947">
        <ele>2025.6</ele>
        <time>2020-08-18T09:24:27Z</time>
      </trkpt>
      <trkpt lat="45.0342" lon="6.39931">
        <ele>2025.7</ele>
        <time>2020-08-18T09:24:33Z</time>
      </trkpt>
      <trkpt lat="45.03429" lon="6.39927">
        <ele>2025.7</ele>
        <time>2020-08-18T09:24:38Z</time>
      </trkpt>
      <trkpt lat="45.03431" lon="6.39913">
        <ele>2025.8</ele>
        <time>2020-08-18T09:24:46Z</time>
      </trkpt>
      <trkpt lat="45.03433" lon="6.399">
        <ele>2025.9</ele>
        <time>2020-08-18T09:24:52Z</time>
      </trkpt>
      <trkpt lat="45.03435" lon="6.39888">
        <ele>2025.9</ele>
        <time>2020-08-18T09:24:58Z</time>
      </trkpt>
      <trkpt lat="45.03438" lon="6.39872">
        <ele>2026</ele>
        <time>2020-08-18T09:25:05Z</time>
      </trkpt>
      <trkpt lat="45.03434" lon="6.39861">
        <ele>2026.1</ele>
        <time>2020-08-18T09:25:10Z</time>
      </trkpt>
      <trkpt lat="45.03441" lon="6.39852">
        <ele>2026.3</ele>
        <time>2020-08-18T09:25:18Z</time>
      </trkpt>
      <trkpt lat="45.0345" lon="6.39846">
        <ele>2026.5</ele>
        <time>2020-08-18T09:25:25Z</time>
      </trkpt>
      <trkpt lat="45.03448" lon="6.39832">
        <ele>2026.7</ele>
        <time>2020-08-18T09:25:34Z</time>
      </trkpt>
      <trkpt lat="45.03457" lon="6.39839">
        <ele>2026.7</ele>
        <time>2020-08-18T09:25:38Z</time>
      </trkpt>
      <trkpt lat="45.03465" lon="6.39832">
        <ele>2026.9</ele>
        <time>2020-08-18T09:25:50Z</time>
      </trkpt>
      <trkpt lat="45.03463" lon="6.3982">
        <ele>2027</ele>
        <time>2020-08-18T09:26:00Z</time>
      </trkpt>
      <trkpt lat="45.03466" lon="6.39807">
        <ele>2027.2</ele>
        <time>2020-08-18T09:26:10Z</time>
      </trkpt>
      <trkpt lat="45.03469" lon="6.39795">
        <ele>2027.4</ele>
        <time>2020-08-18T09:26:19Z</time>
      </trkpt>
      <trkpt lat="45.03472" lon="6.39782">
        <ele>2027.6</ele>
        <time>2020-08-18T09:26:27Z</time>
      </trkpt>
      <trkpt lat="45.03473" lon="6.39769">
        <ele>2027.7</ele>
        <time>2020-08-18T09:26:35Z</time>
      </trkpt>
      <trkpt lat="45.03469" lon="6.39757">
        <ele>2027.8</ele>
        <time>2020-08-18T09:26:40Z</time>
      </trkpt>
      <trkpt lat="45.03464" lon="6.39745">
        <ele>2027.9</ele>
        <time>2020-08-18T09:26:47Z</time>
      </trkpt>
      <trkpt lat="45.03458" lon="6.39733">
        <ele>2028</ele>
        <time>2020-08-18T09:26:55Z</time>
      </trkpt>
      <trkpt lat="45.0345" lon="6.39725">
        <ele>2028.1</ele>
        <time>2020-08-18T09:27:01Z</time>
      </trkpt>
      <trkpt lat="45.03443" lon="6.39716">
        <ele>2028.2</ele>
        <time>2020-08-18T09:27:08Z</time>
      </trkpt>
      <trkpt lat="45.03434" lon="6.39708">
        <ele>2030.9</ele>
        <time>2020-08-18T09:29:20Z</time>
      </trkpt>
      <trkpt lat="45.03426" lon="6.397">
        <ele>2030.9</ele>
        <time>2020-08-18T09:29:24Z</time>
      </trkpt>
      <trkpt lat="45.03418" lon="6.39692">
        <ele>2030.9</ele>
        <time>2020-08-18T09:29:29Z</time>
      </trkpt>
      <trkpt lat="45.03412" lon="6.39683">
        <ele>2031.8</ele>
        <time>2020-08-18T09:30:08Z</time>
      </trkpt>
      <trkpt lat="45.03408" lon="6.39671">
        <ele>2032</ele>
        <time>2020-08-18T09:30:15Z</time>
      </trkpt>
      <trkpt lat="45.03404" lon="6.39658">
        <ele>2032.2</ele>
        <time>2020-08-18T09:30:22Z</time>
      </trkpt>
      <trkpt lat="45.03401" lon="6.39646">
        <ele>2032.4</ele>
        <time>2020-08-18T09:30:29Z</time>
      </trkpt>
      <trkpt lat="45.03396" lon="6.39636">
        <ele>2032.5</ele>
        <time>2020-08-18T09:30:35Z</time>
      </trkpt>
      <trkpt lat="45.0339" lon="6.39625">
        <ele>2032.6</ele>
        <time>2020-08-18T09:30:41Z</time>
      </trkpt>
      <trkpt lat="45.03386" lon="6.39613">
        <ele>2032.6</ele>
        <time>2020-08-18T09:30:48Z</time>
      </trkpt>
      <trkpt lat="45.03383" lon="6.396">
        <ele>2032.6</ele>
        <time>2020-08-18T09:30:55Z</time>
      </trkpt>
      <trkpt lat="45.03381" lon="6.39586">
        <ele>2032.6</ele>
        <time>2020-08-18T09:31:02Z</time>
      </trkpt>
      <trkpt lat="45.03376" lon="6.39575">
        <ele>2032.7</ele>
        <time>2020-08-18T09:31:09Z</time>
      </trkpt>
      <trkpt lat="45.03371" lon="6.39564">
        <ele>2032.7</ele>
        <time>2020-08-18T09:31:16Z</time>
      </trkpt>
      <trkpt lat="45.03366" lon="6.39553">
        <ele>2032.7</ele>
        <time>2020-08-18T09:31:22Z</time>
      </trkpt>
      <trkpt lat="45.03361" lon="6.3954">
        <ele>2032.7</ele>
        <time>2020-08-18T09:31:28Z</time>
      </trkpt>
      <trkpt lat="45.03359" lon="6.39526">
        <ele>2032.7</ele>
        <time>2020-08-18T09:31:33Z</time>
      </trkpt>
      <trkpt lat="45.03356" lon="6.39512">
        <ele>2032.7</ele>
        <time>2020-08-18T09:31:41Z</time>
      </trkpt>
      <trkpt lat="45.03351" lon="6.395">
        <ele>2032.7</ele>
        <time>2020-08-18T09:31:48Z</time>
      </trkpt>
      <trkpt lat="45.03348" lon="6.39488">
        <ele>2032.8</ele>
        <time>2020-08-18T09:31:55Z</time>
      </trkpt>
      <trkpt lat="45.03344" lon="6.39476">
        <ele>2033</ele>
        <time>2020-08-18T09:32:02Z</time>
      </trkpt>
      <trkpt lat="45.0334" lon="6.39464">
        <ele>2033.3</ele>
        <time>2020-08-18T09:32:09Z</time>
      </trkpt>
      <trkpt lat="45.0334" lon="6.39451">
        <ele>2033.6</ele>
        <time>2020-08-18T09:32:16Z</time>
      </trkpt>
      <trkpt lat="45.03337" lon="6.39438">
        <ele>2033.8</ele>
        <time>2020-08-18T09:32:24Z</time>
      </trkpt>
      <trkpt lat="45.03334" lon="6.39424">
        <ele>2033.9</ele>
        <time>2020-08-18T09:32:31Z</time>
      </trkpt>
      <trkpt lat="45.03333" lon="6.39409">
        <ele>2034</ele>
        <time>2020-08-18T09:32:38Z</time>
      </trkpt>
      <trkpt lat="45.03333" lon="6.39396">
        <ele>2034</ele>
        <time>2020-08-18T09:32:44Z</time>
      </trkpt>
      <trkpt lat="45.03337" lon="6.39383">
        <ele>2034</ele>
        <time>2020-08-18T09:32:49Z</time>
      </trkpt>
      <trkpt lat="45.03338" lon="6.3937">
        <ele>2033.9</ele>
        <time>2020-08-18T09:32:56Z</time>
      </trkpt>
      <trkpt lat="45.03339" lon="6.39357">
        <ele>2033.9</ele>
        <time>2020-08-18T09:33:02Z</time>
      </trkpt>
      <trkpt lat="45.03342" lon="6.39343">
        <ele>2033.9</ele>
        <time>2020-08-18T09:33:09Z</time>
      </trkpt>
      <trkpt lat="45.03343" lon="6.39331">
        <ele>2033.9</ele>
        <time>2020-08-18T09:33:15Z</time>
      </trkpt>
      <trkpt lat="45.03344" lon="6.39318">
        <ele>2033.9</ele>
        <time>2020-08-18T09:33:21Z</time>
      </trkpt>
      <trkpt lat="45.03346" lon="6.39304">
        <ele>2033.7</ele>
        <time>2020-08-18T09:33:27Z</time>
      </trkpt>
      <trkpt lat="45.03345" lon="6.39289">
        <ele>2033.6</ele>
        <time>2020-08-18T09:33:34Z</time>
      </trkpt>
      <trkpt lat="45.03342" lon="6.39276">
        <ele>2033.4</ele>
        <time>2020-08-18T09:33:41Z</time>
      </trkpt>
      <trkpt lat="45.03335" lon="6.39267">
        <ele>2033.2</ele>
        <time>2020-08-18T09:33:48Z</time>
      </trkpt>
      <trkpt lat="45.03332" lon="6.39254">
        <ele>2033</ele>
        <time>2020-08-18T09:33:56Z</time>
      </trkpt>
      <trkpt lat="45.03329" lon="6.39241">
        <ele>2032.9</ele>
        <time>2020-08-18T09:34:03Z</time>
      </trkpt>
      <trkpt lat="45.03328" lon="6.39229">
        <ele>2032.9</ele>
        <time>2020-08-18T09:34:10Z</time>
      </trkpt>
      <trkpt lat="45.03332" lon="6.39214">
        <ele>2032.8</ele>
        <time>2020-08-18T09:34:16Z</time>
      </trkpt>
      <trkpt lat="45.03336" lon="6.392">
        <ele>2032.8</ele>
        <time>2020-08-18T09:34:21Z</time>
      </trkpt>
      <trkpt lat="45.03335" lon="6.39186">
        <ele>2032.8</ele>
        <time>2020-08-18T09:34:27Z</time>
      </trkpt>
      <trkpt lat="45.03331" lon="6.39173">
        <ele>2032.7</ele>
        <time>2020-08-18T09:34:35Z</time>
      </trkpt>
      <trkpt lat="45.03329" lon="6.39159">
        <ele>2032.6</ele>
        <time>2020-08-18T09:34:42Z</time>
      </trkpt>
      <trkpt lat="45.03329" lon="6.39145">
        <ele>2032.3</ele>
        <time>2020-08-18T09:34:49Z</time>
      </trkpt>
      <trkpt lat="45.03327" lon="6.39132">
        <ele>2032.2</ele>
        <time>2020-08-18T09:34:55Z</time>
      </trkpt>
      <trkpt lat="45.03327" lon="6.39118">
        <ele>2031.9</ele>
        <time>2020-08-18T09:35:02Z</time>
      </trkpt>
      <trkpt lat="45.03328" lon="6.39103">
        <ele>2031.6</ele>
        <time>2020-08-18T09:35:09Z</time>
      </trkpt>
      <trkpt lat="45.03327" lon="6.3909">
        <ele>2031.5</ele>
        <time>2020-08-18T09:35:15Z</time>
      </trkpt>
      <trkpt lat="45.0333" lon="6.39078">
        <ele>2031.4</ele>
        <time>2020-08-18T09:35:22Z</time>
      </trkpt>
      <trkpt lat="45.03325" lon="6.39066">
        <ele>2031.3</ele>
        <time>2020-08-18T09:35:30Z</time>
      </trkpt>
      <trkpt lat="45.03319" lon="6.39054">
        <ele>2031.2</ele>
        <time>2020-08-18T09:35:38Z</time>
      </trkpt>
      <trkpt lat="45.03316" lon="6.39041">
        <ele>2031.2</ele>
        <time>2020-08-18T09:35:45Z</time>
      </trkpt>
      <trkpt lat="45.03312" lon="6.39028">
        <ele>2031.2</ele>
        <time>2020-08-18T09:35:51Z</time>
      </trkpt>
      <trkpt lat="45.03309" lon="6.39016">
        <ele>2031.2</ele>
        <time>2020-08-18T09:35:57Z</time>
      </trkpt>
      <trkpt lat="45.03306" lon="6.39002">
        <ele>2031.1</ele>
        <time>2020-08-18T09:36:04Z</time>
      </trkpt>
      <trkpt lat="45.03305" lon="6.38988">
        <ele>2030.9</ele>
        <time>2020-08-18T09:36:11Z</time>
      </trkpt>
      <trkpt lat="45.03304" lon="6.38975">
        <ele>2030.8</ele>
        <time>2020-08-18T09:36:18Z</time>
      </trkpt>
      <trkpt lat="45.03309" lon="6.38963">
        <ele>2030.7</ele>
        <time>2020-08-18T09:36:23Z</time>
      </trkpt>
      <trkpt lat="45.03313" lon="6.3895">
        <ele>2030.3</ele>
        <time>2020-08-18T09:36:29Z</time>
      </trkpt>
      <trkpt lat="45.03315" lon="6.38935">
        <ele>2029.7</ele>
        <time>2020-08-18T09:36:36Z</time>
      </trkpt>
      <trkpt lat="45.03317" lon="6.38922">
        <ele>2029.3</ele>
        <time>2020-08-18T09:36:42Z</time>
      </trkpt>
      <trkpt lat="45.03318" lon="6.38908">
        <ele>2028.9</ele>
        <time>2020-08-18T09:36:48Z</time>
      </trkpt>
      <trkpt lat="45.0332" lon="6.38894">
        <ele>2028.4</ele>
        <time>2020-08-18T09:36:54Z</time>
      </trkpt>
      <trkpt lat="45.03321" lon="6.38881">
        <ele>2027.9</ele>
        <time>2020-08-18T09:36:59Z</time>
      </trkpt>
      <trkpt lat="45.03322" lon="6.38867">
        <ele>2027.5</ele>
        <time>2020-08-18T09:37:05Z</time>
      </trkpt>
      <trkpt lat="45.03323" lon="6.38854">
        <ele>2027</ele>
        <time>2020-08-18T09:37:12Z</time>
      </trkpt>
      <trkpt lat="45.03324" lon="6.3884">
        <ele>2026.5</ele>
        <time>2020-08-18T09:37:19Z</time>
      </trkpt>
      <trkpt lat="45.03325" lon="6.38826">
        <ele>2026.1</ele>
        <time>2020-08-18T09:37:27Z</time>
      </trkpt>
      <trkpt lat="45.03327" lon="6.38813">
        <ele>2025.8</ele>
        <time>2020-08-18T09:37:33Z</time>
      </trkpt>
      <trkpt lat="45.03328" lon="6.38799">
        <ele>2025.4</ele>
        <time>2020-08-18T09:37:40Z</time>
      </trkpt>
      <trkpt lat="45.0333" lon="6.38786">
        <ele>2025</ele>
        <time>2020-08-18T09:37:47Z</time>
      </trkpt>
      <trkpt lat="45.03331" lon="6.38773">
        <ele>2024.7</ele>
        <time>2020-08-18T09:37:53Z</time>
      </trkpt>
      <trkpt lat="45.03333" lon="6.38759">
        <ele>2024.2</ele>
        <time>2020-08-18T09:38:00Z</time>
      </trkpt>
      <trkpt lat="45.03336" lon="6.38747">
        <ele>2023.6</ele>
        <time>2020-08-18T09:38:07Z</time>
      </trkpt>
      <trkpt lat="45.03338" lon="6.38734">
        <ele>2023.1</ele>
        <time>2020-08-18T09:38:14Z</time>
      </trkpt>
      <trkpt lat="45.03343" lon="6.38723">
        <ele>2022.7</ele>
        <time>2020-08-18T09:38:21Z</time>
      </trkpt>
      <trkpt lat="45.0335" lon="6.38713">
        <ele>2022.2</ele>
        <time>2020-08-18T09:38:29Z</time>
      </trkpt>
      <trkpt lat="45.03356" lon="6.38703">
        <ele>2021.3</ele>
        <time>2020-08-18T09:38:37Z</time>
      </trkpt>
      <trkpt lat="45.03362" lon="6.38694">
        <ele>2020.5</ele>
        <time>2020-08-18T09:38:44Z</time>
      </trkpt>
      <trkpt lat="45.03364" lon="6.38679">
        <ele>2019.8</ele>
        <time>2020-08-18T09:38:52Z</time>
      </trkpt>
      <trkpt lat="45.03367" lon="6.38667">
        <ele>2019.5</ele>
        <time>2020-08-18T09:38:59Z</time>
      </trkpt>
      <trkpt lat="45.03373" lon="6.38655">
        <ele>2019.2</ele>
        <time>2020-08-18T09:39:06Z</time>
      </trkpt>
      <trkpt lat="45.03375" lon="6.38642">
        <ele>2018.6</ele>
        <time>2020-08-18T09:39:12Z</time>
      </trkpt>
      <trkpt lat="45.03381" lon="6.38631">
        <ele>2017.9</ele>
        <time>2020-08-18T09:39:19Z</time>
      </trkpt>
      <trkpt lat="45.03384" lon="6.38617">
        <ele>2017.1</ele>
        <time>2020-08-18T09:39:27Z</time>
      </trkpt>
      <trkpt lat="45.03389" lon="6.38605">
        <ele>2016.4</ele>
        <time>2020-08-18T09:39:34Z</time>
      </trkpt>
      <trkpt lat="45.03394" lon="6.38594">
        <ele>2015.8</ele>
        <time>2020-08-18T09:39:41Z</time>
      </trkpt>
      <trkpt lat="45.03396" lon="6.38581">
        <ele>2015.4</ele>
        <time>2020-08-18T09:39:48Z</time>
      </trkpt>
      <trkpt lat="45.034" lon="6.38568">
        <ele>2015.1</ele>
        <time>2020-08-18T09:39:56Z</time>
      </trkpt>
      <trkpt lat="45.03403" lon="6.38555">
        <ele>2014.9</ele>
        <time>2020-08-18T09:40:03Z</time>
      </trkpt>
      <trkpt lat="45.03409" lon="6.38543">
        <ele>2014.7</ele>
        <time>2020-08-18T09:40:10Z</time>
      </trkpt>
      <trkpt lat="45.03412" lon="6.38531">
        <ele>2014.6</ele>
        <time>2020-08-18T09:40:17Z</time>
      </trkpt>
      <trkpt lat="45.03417" lon="6.3852">
        <ele>2014.5</ele>
        <time>2020-08-18T09:40:23Z</time>
      </trkpt>
      <trkpt lat="45.03423" lon="6.3851">
        <ele>2014.1</ele>
        <time>2020-08-18T09:40:30Z</time>
      </trkpt>
      <trkpt lat="45.03424" lon="6.38497">
        <ele>2013.5</ele>
        <time>2020-08-18T09:40:37Z</time>
      </trkpt>
      <trkpt lat="45.03422" lon="6.38484">
        <ele>2012.9</ele>
        <time>2020-08-18T09:40:47Z</time>
      </trkpt>
      <trkpt lat="45.03419" lon="6.38471">
        <ele>2012.5</ele>
        <time>2020-08-18T09:40:55Z</time>
      </trkpt>
      <trkpt lat="45.03414" lon="6.38461">
        <ele>2012.3</ele>
        <time>2020-08-18T09:41:05Z</time>
      </trkpt>
      <trkpt lat="45.03409" lon="6.3845">
        <ele>2012.1</ele>
        <time>2020-08-18T09:41:12Z</time>
      </trkpt>
      <trkpt lat="45.03407" lon="6.38437">
        <ele>2011.6</ele>
        <time>2020-08-18T09:41:19Z</time>
      </trkpt>
      <trkpt lat="45.03407" lon="6.38423">
        <ele>2010.3</ele>
        <time>2020-08-18T09:41:37Z</time>
      </trkpt>
      <trkpt lat="45.03406" lon="6.3841">
        <ele>2010</ele>
        <time>2020-08-18T09:41:43Z</time>
      </trkpt>
      <trkpt lat="45.03405" lon="6.38397">
        <ele>2009.7</ele>
        <time>2020-08-18T09:41:49Z</time>
      </trkpt>
      <trkpt lat="45.03404" lon="6.38383">
        <ele>2009.3</ele>
        <time>2020-08-18T09:41:55Z</time>
      </trkpt>
      <trkpt lat="45.03399" lon="6.38371">
        <ele>2009</ele>
        <time>2020-08-18T09:42:02Z</time>
      </trkpt>
      <trkpt lat="45.03396" lon="6.38357">
        <ele>2008.8</ele>
        <time>2020-08-18T09:42:10Z</time>
      </trkpt>
      <trkpt lat="45.03391" lon="6.38344">
        <ele>2008.9</ele>
        <time>2020-08-18T09:42:16Z</time>
      </trkpt>
      <trkpt lat="45.03389" lon="6.38331">
        <ele>2009</ele>
        <time>2020-08-18T09:42:23Z</time>
      </trkpt>
      <trkpt lat="45.03386" lon="6.38319">
        <ele>2009</ele>
        <time>2020-08-18T09:42:29Z</time>
      </trkpt>
      <trkpt lat="45.03385" lon="6.38306">
        <ele>2008.9</ele>
        <time>2020-08-18T09:42:35Z</time>
      </trkpt>
      <trkpt lat="45.03381" lon="6.38294">
        <ele>2008.8</ele>
        <time>2020-08-18T09:42:42Z</time>
      </trkpt>
      <trkpt lat="45.03379" lon="6.3828">
        <ele>2008.7</ele>
        <time>2020-08-18T09:42:48Z</time>
      </trkpt>
      <trkpt lat="45.03378" lon="6.38266">
        <ele>2008.6</ele>
        <time>2020-08-18T09:42:55Z</time>
      </trkpt>
      <trkpt lat="45.03371" lon="6.38256">
        <ele>2008.5</ele>
        <time>2020-08-18T09:43:03Z</time>
      </trkpt>
      <trkpt lat="45.03362" lon="6.38254">
        <ele>2008.5</ele>
        <time>2020-08-18T09:43:08Z</time>
      </trkpt>
      <trkpt lat="45.03353" lon="6.38254">
        <ele>2008.5</ele>
        <time>2020-08-18T09:43:13Z</time>
      </trkpt>
      <trkpt lat="45.03344" lon="6.38249">
        <ele>2008.6</ele>
        <time>2020-08-18T09:43:18Z</time>
      </trkpt>
      <trkpt lat="45.03336" lon="6.3824">
        <ele>2008.7</ele>
        <time>2020-08-18T09:43:25Z</time>
      </trkpt>
      <trkpt lat="45.03331" lon="6.38228">
        <ele>2008.8</ele>
        <time>2020-08-18T09:43:32Z</time>
      </trkpt>
      <trkpt lat="45.03327" lon="6.38217">
        <ele>2008.9</ele>
        <time>2020-08-18T09:43:39Z</time>
      </trkpt>
      <trkpt lat="45.03321" lon="6.38206">
        <ele>2008.8</ele>
        <time>2020-08-18T09:43:46Z</time>
      </trkpt>
      <trkpt lat="45.03316" lon="6.38193">
        <ele>2008.4</ele>
        <time>2020-08-18T09:43:53Z</time>
      </trkpt>
      <trkpt lat="45.03311" lon="6.38182">
        <ele>2007.9</ele>
        <time>2020-08-18T09:43:59Z</time>
      </trkpt>
      <trkpt lat="45.03305" lon="6.38171">
        <ele>2007.5</ele>
        <time>2020-08-18T09:44:05Z</time>
      </trkpt>
      <trkpt lat="45.03298" lon="6.38163">
        <ele>2007.1</ele>
        <time>2020-08-18T09:44:11Z</time>
      </trkpt>
      <trkpt lat="45.03291" lon="6.38154">
        <ele>2006.7</ele>
        <time>2020-08-18T09:44:16Z</time>
      </trkpt>
      <trkpt lat="45.03285" lon="6.38143">
        <ele>2006.2</ele>
        <time>2020-08-18T09:44:23Z</time>
      </trkpt>
      <trkpt lat="45.03281" lon="6.3813">
        <ele>2005.4</ele>
        <time>2020-08-18T09:44:31Z</time>
      </trkpt>
      <trkpt lat="45.03279" lon="6.38117">
        <ele>2004.8</ele>
        <time>2020-08-18T09:44:38Z</time>
      </trkpt>
      <trkpt lat="45.0328" lon="6.38104">
        <ele>2004</ele>
        <time>2020-08-18T09:44:45Z</time>
      </trkpt>
      <trkpt lat="45.03281" lon="6.38089">
        <ele>2003.1</ele>
        <time>2020-08-18T09:44:56Z</time>
      </trkpt>
      <trkpt lat="45.03283" lon="6.38076">
        <ele>2002.3</ele>
        <time>2020-08-18T09:45:08Z</time>
      </trkpt>
      <trkpt lat="45.03281" lon="6.38063">
        <ele>2001.6</ele>
        <time>2020-08-18T09:45:14Z</time>
      </trkpt>
      <trkpt lat="45.0328" lon="6.3805">
        <ele>2000.6</ele>
        <time>2020-08-18T09:45:20Z</time>
      </trkpt>
      <trkpt lat="45.0328" lon="6.38036">
        <ele>1999.5</ele>
        <time>2020-08-18T09:45:27Z</time>
      </trkpt>
      <trkpt lat="45.03283" lon="6.38022">
        <ele>1998.2</ele>
        <time>2020-08-18T09:45:34Z</time>
      </trkpt>
      <trkpt lat="45.03286" lon="6.3801">
        <ele>1997</ele>
        <time>2020-08-18T09:45:41Z</time>
      </trkpt>
      <trkpt lat="45.03288" lon="6.37996">
        <ele>1995.9</ele>
        <time>2020-08-18T09:45:47Z</time>
      </trkpt>
      <trkpt lat="45.0329" lon="6.37983">
        <ele>1994.7</ele>
        <time>2020-08-18T09:45:53Z</time>
      </trkpt>
      <trkpt lat="45.03294" lon="6.37969">
        <ele>1993.2</ele>
        <time>2020-08-18T09:46:00Z</time>
      </trkpt>
      <trkpt lat="45.03298" lon="6.37955">
        <ele>1991.7</ele>
        <time>2020-08-18T09:46:07Z</time>
      </trkpt>
      <trkpt lat="45.03301" lon="6.37942">
        <ele>1990</ele>
        <time>2020-08-18T09:46:14Z</time>
      </trkpt>
      <trkpt lat="45.03306" lon="6.37931">
        <ele>1988.5</ele>
        <time>2020-08-18T09:46:21Z</time>
      </trkpt>
      <trkpt lat="45.0331" lon="6.37919">
        <ele>1985.1</ele>
        <time>2020-08-18T09:46:52Z</time>
      </trkpt>
      <trkpt lat="45.03313" lon="6.37906">
        <ele>1984.4</ele>
        <time>2020-08-18T09:46:59Z</time>
      </trkpt>
      <trkpt lat="45.03318" lon="6.37894">
        <ele>1983.4</ele>
        <time>2020-08-18T09:47:06Z</time>
      </trkpt>
      <trkpt lat="45.03321" lon="6.37882">
        <ele>1982.6</ele>
        <time>2020-08-18T09:47:12Z</time>
      </trkpt>
      <trkpt lat="45.03326" lon="6.37869">
        <ele>1981.7</ele>
        <time>2020-08-18T09:47:19Z</time>
      </trkpt>
      <trkpt lat="45.0333" lon="6.37858">
        <ele>1981</ele>
        <time>2020-08-18T09:47:26Z</time>
      </trkpt>
      <trkpt lat="45.03332" lon="6.37844">
        <ele>1978.2</ele>
        <time>2020-08-18T09:48:04Z</time>
      </trkpt>
      <trkpt lat="45.03337" lon="6.37834">
        <ele>1978</ele>
        <time>2020-08-18T09:48:14Z</time>
      </trkpt>
      <trkpt lat="45.03342" lon="6.37822">
        <ele>1977.5</ele>
        <time>2020-08-18T09:48:22Z</time>
      </trkpt>
      <trkpt lat="45.03347" lon="6.3781">
        <ele>1976.9</ele>
        <time>2020-08-18T09:48:28Z</time>
      </trkpt>
      <trkpt lat="45.03351" lon="6.37797">
        <ele>1976</ele>
        <time>2020-08-18T09:48:35Z</time>
      </trkpt>
      <trkpt lat="45.03354" lon="6.37785">
        <ele>1975</ele>
        <time>2020-08-18T09:48:41Z</time>
      </trkpt>
      <trkpt lat="45.03359" lon="6.37772">
        <ele>1973.6</ele>
        <time>2020-08-18T09:48:49Z</time>
      </trkpt>
      <trkpt lat="45.03362" lon="6.37758">
        <ele>1972.4</ele>
        <time>2020-08-18T09:48:55Z</time>
      </trkpt>
      <trkpt lat="45.03365" lon="6.37745">
        <ele>1971.2</ele>
        <time>2020-08-18T09:49:01Z</time>
      </trkpt>
      <trkpt lat="45.03368" lon="6.37731">
        <ele>1969.8</ele>
        <time>2020-08-18T09:49:07Z</time>
      </trkpt>
      <trkpt lat="45.0337" lon="6.37717">
        <ele>1968.6</ele>
        <time>2020-08-18T09:49:13Z</time>
      </trkpt>
      <trkpt lat="45.03375" lon="6.37704">
        <ele>1967</ele>
        <time>2020-08-18T09:49:20Z</time>
      </trkpt>
      <trkpt lat="45.0338" lon="6.37692">
        <ele>1965.6</ele>
        <time>2020-08-18T09:49:27Z</time>
      </trkpt>
      <trkpt lat="45.03385" lon="6.37679">
        <ele>1964.1</ele>
        <time>2020-08-18T09:49:34Z</time>
      </trkpt>
      <trkpt lat="45.03389" lon="6.37667">
        <ele>1962.7</ele>
        <time>2020-08-18T09:49:41Z</time>
      </trkpt>
      <trkpt lat="45.03391" lon="6.37655">
        <ele>1961.5</ele>
        <time>2020-08-18T09:49:48Z</time>
      </trkpt>
      <trkpt lat="45.03395" lon="6.37642">
        <ele>1960.1</ele>
        <time>2020-08-18T09:49:55Z</time>
      </trkpt>
      <trkpt lat="45.03399" lon="6.37629">
        <ele>1958.7</ele>
        <time>2020-08-18T09:50:02Z</time>
      </trkpt>
      <trkpt lat="45.03401" lon="6.37616">
        <ele>1957.5</ele>
        <time>2020-08-18T09:50:08Z</time>
      </trkpt>
      <trkpt lat="45.03404" lon="6.37604">
        <ele>1954</ele>
        <time>2020-08-18T09:50:39Z</time>
      </trkpt>
      <trkpt lat="45.03407" lon="6.37591">
        <ele>1953.3</ele>
        <time>2020-08-18T09:50:45Z</time>
      </trkpt>
      <trkpt lat="45.0341" lon="6.37579">
        <ele>1952.5</ele>
        <time>2020-08-18T09:50:51Z</time>
      </trkpt>
      <trkpt lat="45.03415" lon="6.37567">
        <ele>1951.7</ele>
        <time>2020-08-18T09:50:57Z</time>
      </trkpt>
      <trkpt lat="45.03421" lon="6.37557">
        <ele>1950.6</ele>
        <time>2020-08-18T09:51:04Z</time>
      </trkpt>
      <trkpt lat="45.03428" lon="6.37548">
        <ele>1949.6</ele>
        <time>2020-08-18T09:51:10Z</time>
      </trkpt>
      <trkpt lat="45.03435" lon="6.3754">
        <ele>1947.9</ele>
        <time>2020-08-18T09:51:18Z</time>
      </trkpt>
      <trkpt lat="45.03442" lon="6.37531">
        <ele>1946.3</ele>
        <time>2020-08-18T09:51:25Z</time>
      </trkpt>
      <trkpt lat="45.03447" lon="6.37519">
        <ele>1944.8</ele>
        <time>2020-08-18T09:51:31Z</time>
      </trkpt>
      <trkpt lat="45.03454" lon="6.3751">
        <ele>1943.2</ele>
        <time>2020-08-18T09:51:39Z</time>
      </trkpt>
      <trkpt lat="45.0346" lon="6.37498">
        <ele>1942.2</ele>
        <time>2020-08-18T09:51:46Z</time>
      </trkpt>
      <trkpt lat="45.03465" lon="6.37488">
        <ele>1941.3</ele>
        <time>2020-08-18T09:51:53Z</time>
      </trkpt>
      <trkpt lat="45.03469" lon="6.37476">
        <ele>1940.6</ele>
        <time>2020-08-18T09:52:00Z</time>
      </trkpt>
      <trkpt lat="45.03473" lon="6.37464">
        <ele>1940</ele>
        <time>2020-08-18T09:52:07Z</time>
      </trkpt>
      <trkpt lat="45.0348" lon="6.37454">
        <ele>1938.1</ele>
        <time>2020-08-18T09:52:40Z</time>
      </trkpt>
      <trkpt lat="45.03481" lon="6.37441">
        <ele>1937.6</ele>
        <time>2020-08-18T09:52:56Z</time>
      </trkpt>
      <trkpt lat="45.03477" lon="6.37429">
        <ele>1936.9</ele>
        <time>2020-08-18T09:53:04Z</time>
      </trkpt>
      <trkpt lat="45.03473" lon="6.37416">
        <ele>1935.9</ele>
        <time>2020-08-18T09:53:13Z</time>
      </trkpt>
      <trkpt lat="45.03473" lon="6.37402">
        <ele>1935.4</ele>
        <time>2020-08-18T09:53:18Z</time>
      </trkpt>
      <trkpt lat="45.03473" lon="6.37388">
        <ele>1934.9</ele>
        <time>2020-08-18T09:53:24Z</time>
      </trkpt>
      <trkpt lat="45.03472" lon="6.37374">
        <ele>1934.3</ele>
        <time>2020-08-18T09:53:30Z</time>
      </trkpt>
      <trkpt lat="45.03469" lon="6.37362">
        <ele>1933.1</ele>
        <time>2020-08-18T09:53:37Z</time>
      </trkpt>
      <trkpt lat="45.03471" lon="6.37347">
        <ele>1931.9</ele>
        <time>2020-08-18T09:53:44Z</time>
      </trkpt>
      <trkpt lat="45.03472" lon="6.37334">
        <ele>1931.2</ele>
        <time>2020-08-18T09:53:50Z</time>
      </trkpt>
      <trkpt lat="45.03474" lon="6.3732">
        <ele>1930.3</ele>
        <time>2020-08-18T09:53:57Z</time>
      </trkpt>
      <trkpt lat="45.03475" lon="6.37307">
        <ele>1929.3</ele>
        <time>2020-08-18T09:54:04Z</time>
      </trkpt>
      <trkpt lat="45.03476" lon="6.37292">
        <ele>1928.1</ele>
        <time>2020-08-18T09:54:13Z</time>
      </trkpt>
      <trkpt lat="45.0348" lon="6.3728">
        <ele>1927</ele>
        <time>2020-08-18T09:54:19Z</time>
      </trkpt>
      <trkpt lat="45.03486" lon="6.37269">
        <ele>1924.1</ele>
        <time>2020-08-18T09:54:38Z</time>
      </trkpt>
      <trkpt lat="45.03489" lon="6.37256">
        <ele>1922.8</ele>
        <time>2020-08-18T09:54:45Z</time>
      </trkpt>
      <trkpt lat="45.03492" lon="6.37242">
        <ele>1921.7</ele>
        <time>2020-08-18T09:54:52Z</time>
      </trkpt>
      <trkpt lat="45.03493" lon="6.37229">
        <ele>1919.8</ele>
        <time>2020-08-18T09:55:00Z</time>
      </trkpt>
      <trkpt lat="45.03497" lon="6.37216">
        <ele>1918.3</ele>
        <time>2020-08-18T09:55:07Z</time>
      </trkpt>
      <trkpt lat="45.03499" lon="6.37201">
        <ele>1916.8</ele>
        <time>2020-08-18T09:55:14Z</time>
      </trkpt>
      <trkpt lat="45.03501" lon="6.37188">
        <ele>1913.8</ele>
        <time>2020-08-18T09:55:35Z</time>
      </trkpt>
      <trkpt lat="45.03504" lon="6.37175">
        <ele>1912.9</ele>
        <time>2020-08-18T09:55:42Z</time>
      </trkpt>
      <trkpt lat="45.03506" lon="6.37161">
        <ele>1912.1</ele>
        <time>2020-08-18T09:55:47Z</time>
      </trkpt>
      <trkpt lat="45.03508" lon="6.37148">
        <ele>1911.4</ele>
        <time>2020-08-18T09:55:53Z</time>
      </trkpt>
      <trkpt lat="45.03516" lon="6.37139">
        <ele>1910.6</ele>
        <time>2020-08-18T09:56:01Z</time>
      </trkpt>
      <trkpt lat="45.03522" lon="6.37129">
        <ele>1909.4</ele>
        <time>2020-08-18T09:56:13Z</time>
      </trkpt>
      <trkpt lat="45.03526" lon="6.37117">
        <ele>1907.4</ele>
        <time>2020-08-18T09:56:27Z</time>
      </trkpt>
      <trkpt lat="45.03526" lon="6.37104">
        <ele>1904.9</ele>
        <time>2020-08-18T09:56:37Z</time>
      </trkpt>
      <trkpt lat="45.03535" lon="6.37104">
        <ele>1903.2</ele>
        <time>2020-08-18T09:56:44Z</time>
      </trkpt>
      <trkpt lat="45.03526" lon="6.37102">
        <ele>1899</ele>
        <time>2020-08-18T09:56:59Z</time>
      </trkpt>
      <trkpt lat="45.03517" lon="6.37108">
        <ele>1897.1</ele>
        <time>2020-08-18T09:57:06Z</time>
      </trkpt>
      <trkpt lat="45.03518" lon="6.37094">
        <ele>1894.3</ele>
        <time>2020-08-18T09:57:17Z</time>
      </trkpt>
      <trkpt lat="45.03522" lon="6.37083">
        <ele>1892.8</ele>
        <time>2020-08-18T09:57:23Z</time>
      </trkpt>
      <trkpt lat="45.03528" lon="6.37073">
        <ele>1891.1</ele>
        <time>2020-08-18T09:57:30Z</time>
      </trkpt>
      <trkpt lat="45.03535" lon="6.37064">
        <ele>1889.3</ele>
        <time>2020-08-18T09:57:39Z</time>
      </trkpt>
      <trkpt lat="45.03539" lon="6.37052">
        <ele>1887.2</ele>
        <time>2020-08-18T09:57:46Z</time>
      </trkpt>
      <trkpt lat="45.03542" lon="6.37039">
        <ele>1885.3</ele>
        <time>2020-08-18T09:57:53Z</time>
      </trkpt>
      <trkpt lat="45.03544" lon="6.37026">
        <ele>1883.6</ele>
        <time>2020-08-18T09:58:00Z</time>
      </trkpt>
      <trkpt lat="45.03547" lon="6.37014">
        <ele>1881.4</ele>
        <time>2020-08-18T09:58:09Z</time>
      </trkpt>
      <trkpt lat="45.03548" lon="6.37">
        <ele>1879.1</ele>
        <time>2020-08-18T09:58:19Z</time>
      </trkpt>
      <trkpt lat="45.03539" lon="6.36995">
        <ele>1873.7</ele>
        <time>2020-08-18T10:01:23Z</time>
      </trkpt>
      <trkpt lat="45.03548" lon="6.36994">
        <ele>1871.9</ele>
        <time>2020-08-18T10:05:43Z</time>
      </trkpt>
      <trkpt lat="45.03555" lon="6.36986">
        <ele>1871.2</ele>
        <time>2020-08-18T10:05:55Z</time>
      </trkpt>
      <trkpt lat="45.03555" lon="6.36973">
        <ele>1870.3</ele>
        <time>2020-08-18T10:06:05Z</time>
      </trkpt>
      <trkpt lat="45.03557" lon="6.3696">
        <ele>1869.1</ele>
        <time>2020-08-18T10:06:13Z</time>
      </trkpt>
      <trkpt lat="45.03561" lon="6.36948">
        <ele>1867.3</ele>
        <time>2020-08-18T10:06:23Z</time>
      </trkpt>
      <trkpt lat="45.03565" lon="6.36936">
        <ele>1866.1</ele>
        <time>2020-08-18T10:06:30Z</time>
      </trkpt>
      <trkpt lat="45.03571" lon="6.36925">
        <ele>1864.8</ele>
        <time>2020-08-18T10:06:38Z</time>
      </trkpt>
      <trkpt lat="45.03576" lon="6.36914">
        <ele>1863.3</ele>
        <time>2020-08-18T10:06:54Z</time>
      </trkpt>
      <trkpt lat="45.03575" lon="6.369">
        <ele>1862.6</ele>
        <time>2020-08-18T10:07:03Z</time>
      </trkpt>
      <trkpt lat="45.03574" lon="6.36887">
        <ele>1861.6</ele>
        <time>2020-08-18T10:07:11Z</time>
      </trkpt>
      <trkpt lat="45.03572" lon="6.36874">
        <ele>1860.3</ele>
        <time>2020-08-18T10:07:20Z</time>
      </trkpt>
      <trkpt lat="45.03573" lon="6.36861">
        <ele>1858.9</ele>
        <time>2020-08-18T10:07:28Z</time>
      </trkpt>
      <trkpt lat="45.03574" lon="6.36848">
        <ele>1857.4</ele>
        <time>2020-08-18T10:07:35Z</time>
      </trkpt>
      <trkpt lat="45.03568" lon="6.36837">
        <ele>1855.7</ele>
        <time>2020-08-18T10:07:42Z</time>
      </trkpt>
      <trkpt lat="45.03569" lon="6.36824">
        <ele>1853.7</ele>
        <time>2020-08-18T10:07:49Z</time>
      </trkpt>
      <trkpt lat="45.03568" lon="6.36811">
        <ele>1851.5</ele>
        <time>2020-08-18T10:07:57Z</time>
      </trkpt>
      <trkpt lat="45.03564" lon="6.36797">
        <ele>1848.9</ele>
        <time>2020-08-18T10:08:06Z</time>
      </trkpt>
      <trkpt lat="45.03561" lon="6.36784">
        <ele>1847.1</ele>
        <time>2020-08-18T10:08:12Z</time>
      </trkpt>
      <trkpt lat="45.03564" lon="6.36771">
        <ele>1845.3</ele>
        <time>2020-08-18T10:08:19Z</time>
      </trkpt>
      <trkpt lat="45.03567" lon="6.36757">
        <ele>1843.8</ele>
        <time>2020-08-18T10:08:26Z</time>
      </trkpt>
      <trkpt lat="45.03571" lon="6.36744">
        <ele>1842.2</ele>
        <time>2020-08-18T10:08:34Z</time>
      </trkpt>
      <trkpt lat="45.03574" lon="6.36731">
        <ele>1840.4</ele>
        <time>2020-08-18T10:08:43Z</time>
      </trkpt>
      <trkpt lat="45.03578" lon="6.36719">
        <ele>1838.2</ele>
        <time>2020-08-18T10:08:54Z</time>
      </trkpt>
      <trkpt lat="45.03576" lon="6.36706">
        <ele>1836.2</ele>
        <time>2020-08-18T10:09:03Z</time>
      </trkpt>
      <trkpt lat="45.03576" lon="6.36692">
        <ele>1833.9</ele>
        <time>2020-08-18T10:09:12Z</time>
      </trkpt>
      <trkpt lat="45.03578" lon="6.36678">
        <ele>1831.8</ele>
        <time>2020-08-18T10:09:21Z</time>
      </trkpt>
      <trkpt lat="45.03578" lon="6.36665">
        <ele>1829.7</ele>
        <time>2020-08-18T10:09:29Z</time>
      </trkpt>
      <trkpt lat="45.0358" lon="6.36652">
        <ele>1828</ele>
        <time>2020-08-18T10:09:36Z</time>
      </trkpt>
      <trkpt lat="45.0358" lon="6.36639">
        <ele>1825.6</ele>
        <time>2020-08-18T10:09:45Z</time>
      </trkpt>
      <trkpt lat="45.03581" lon="6.36626">
        <ele>1823.1</ele>
        <time>2020-08-18T10:09:54Z</time>
      </trkpt>
      <trkpt lat="45.03582" lon="6.36613">
        <ele>1820.5</ele>
        <time>2020-08-18T10:10:03Z</time>
      </trkpt>
      <trkpt lat="45.03584" lon="6.366">
        <ele>1818.3</ele>
        <time>2020-08-18T10:10:11Z</time>
      </trkpt>
      <trkpt lat="45.03587" lon="6.36587">
        <ele>1816.2</ele>
        <time>2020-08-18T10:10:18Z</time>
      </trkpt>
      <trkpt lat="45.03587" lon="6.36574">
        <ele>1814.2</ele>
        <time>2020-08-18T10:10:26Z</time>
      </trkpt>
      <trkpt lat="45.03585" lon="6.3656">
        <ele>1812.2</ele>
        <time>2020-08-18T10:10:34Z</time>
      </trkpt>
      <trkpt lat="45.03585" lon="6.36545">
        <ele>1810.2</ele>
        <time>2020-08-18T10:10:42Z</time>
      </trkpt>
      <trkpt lat="45.03584" lon="6.36531">
        <ele>1808.2</ele>
        <time>2020-08-18T10:10:51Z</time>
      </trkpt>
      <trkpt lat="45.03585" lon="6.36518">
        <ele>1806.6</ele>
        <time>2020-08-18T10:10:58Z</time>
      </trkpt>
      <trkpt lat="45.03584" lon="6.36503">
        <ele>1804.6</ele>
        <time>2020-08-18T10:11:06Z</time>
      </trkpt>
      <trkpt lat="45.03585" lon="6.36491">
        <ele>1802.9</ele>
        <time>2020-08-18T10:11:13Z</time>
      </trkpt>
      <trkpt lat="45.03585" lon="6.36478">
        <ele>1801.3</ele>
        <time>2020-08-18T10:11:20Z</time>
      </trkpt>
      <trkpt lat="45.03587" lon="6.36464">
        <ele>1799.5</ele>
        <time>2020-08-18T10:11:28Z</time>
      </trkpt>
      <trkpt lat="45.03589" lon="6.36451">
        <ele>1797.8</ele>
        <time>2020-08-18T10:11:36Z</time>
      </trkpt>
      <trkpt lat="45.03591" lon="6.36438">
        <ele>1796.4</ele>
        <time>2020-08-18T10:11:43Z</time>
      </trkpt>
      <trkpt lat="45.03594" lon="6.36426">
        <ele>1795.2</ele>
        <time>2020-08-18T10:11:50Z</time>
      </trkpt>
      <trkpt lat="45.03596" lon="6.36413">
        <ele>1793.9</ele>
        <time>2020-08-18T10:11:57Z</time>
      </trkpt>
      <trkpt lat="45.036" lon="6.364">
        <ele>1792.2</ele>
        <time>2020-08-18T10:12:06Z</time>
      </trkpt>
      <trkpt lat="45.03602" lon="6.36386">
        <ele>1790.8</ele>
        <time>2020-08-18T10:12:14Z</time>
      </trkpt>
      <trkpt lat="45.03604" lon="6.36373">
        <ele>1789.4</ele>
        <time>2020-08-18T10:12:21Z</time>
      </trkpt>
      <trkpt lat="45.03606" lon="6.3636">
        <ele>1787.8</ele>
        <time>2020-08-18T10:12:31Z</time>
      </trkpt>
      <trkpt lat="45.03608" lon="6.36347">
        <ele>1784.7</ele>
        <time>2020-08-18T10:12:58Z</time>
      </trkpt>
      <trkpt lat="45.0361" lon="6.36334">
        <ele>1783.3</ele>
        <time>2020-08-18T10:13:14Z</time>
      </trkpt>
      <trkpt lat="45.03615" lon="6.36322">
        <ele>1782.3</ele>
        <time>2020-08-18T10:13:22Z</time>
      </trkpt>
      <trkpt lat="45.0362" lon="6.36312">
        <ele>1780.5</ele>
        <time>2020-08-18T10:13:33Z</time>
      </trkpt>
      <trkpt lat="45.03627" lon="6.36302">
        <ele>1778.7</ele>
        <time>2020-08-18T10:13:42Z</time>
      </trkpt>
      <trkpt lat="45.0363" lon="6.36289">
        <ele>1777</ele>
        <time>2020-08-18T10:13:50Z</time>
      </trkpt>
      <trkpt lat="45.03632" lon="6.36277">
        <ele>1775.1</ele>
        <time>2020-08-18T10:13:58Z</time>
      </trkpt>
      <trkpt lat="45.03634" lon="6.36263">
        <ele>1772.6</ele>
        <time>2020-08-18T10:14:09Z</time>
      </trkpt>
      <trkpt lat="45.03633" lon="6.36251">
        <ele>1770.6</ele>
        <time>2020-08-18T10:14:18Z</time>
      </trkpt>
      <trkpt lat="45.03627" lon="6.36241">
        <ele>1768.2</ele>
        <time>2020-08-18T10:14:28Z</time>
      </trkpt>
      <trkpt lat="45.03621" lon="6.36231">
        <ele>1766</ele>
        <time>2020-08-18T10:14:37Z</time>
      </trkpt>
      <trkpt lat="45.03614" lon="6.3622">
        <ele>1763.7</ele>
        <time>2020-08-18T10:14:47Z</time>
      </trkpt>
      <trkpt lat="45.03609" lon="6.36209">
        <ele>1761.8</ele>
        <time>2020-08-18T10:14:55Z</time>
      </trkpt>
      <trkpt lat="45.03605" lon="6.36197">
        <ele>1760.2</ele>
        <time>2020-08-18T10:15:02Z</time>
      </trkpt>
      <trkpt lat="45.03604" lon="6.36185">
        <ele>1758.4</ele>
        <time>2020-08-18T10:15:09Z</time>
      </trkpt>
      <trkpt lat="45.03601" lon="6.36172">
        <ele>1756.7</ele>
        <time>2020-08-18T10:15:16Z</time>
      </trkpt>
      <trkpt lat="45.036" lon="6.36159">
        <ele>1754.9</ele>
        <time>2020-08-18T10:15:23Z</time>
      </trkpt>
      <trkpt lat="45.03598" lon="6.36144">
        <ele>1752.4</ele>
        <time>2020-08-18T10:15:33Z</time>
      </trkpt>
      <trkpt lat="45.03597" lon="6.3613">
        <ele>1750.3</ele>
        <time>2020-08-18T10:15:42Z</time>
      </trkpt>
      <trkpt lat="45.03594" lon="6.36116">
        <ele>1748.4</ele>
        <time>2020-08-18T10:15:51Z</time>
      </trkpt>
      <trkpt lat="45.03593" lon="6.36103">
        <ele>1746.5</ele>
        <time>2020-08-18T10:16:00Z</time>
      </trkpt>
      <trkpt lat="45.03591" lon="6.36089">
        <ele>1744.8</ele>
        <time>2020-08-18T10:16:08Z</time>
      </trkpt>
      <trkpt lat="45.03589" lon="6.36076">
        <ele>1743.6</ele>
        <time>2020-08-18T10:16:15Z</time>
      </trkpt>
      <trkpt lat="45.03587" lon="6.36062">
        <ele>1742.2</ele>
        <time>2020-08-18T10:16:23Z</time>
      </trkpt>
      <trkpt lat="45.03587" lon="6.36048">
        <ele>1740.8</ele>
        <time>2020-08-18T10:16:31Z</time>
      </trkpt>
      <trkpt lat="45.03588" lon="6.36035">
        <ele>1739.5</ele>
        <time>2020-08-18T10:16:39Z</time>
      </trkpt>
      <trkpt lat="45.03588" lon="6.36022">
        <ele>1738</ele>
        <time>2020-08-18T10:16:48Z</time>
      </trkpt>
      <trkpt lat="45.03586" lon="6.36009">
        <ele>1736.7</ele>
        <time>2020-08-18T10:16:56Z</time>
      </trkpt>
      <trkpt lat="45.03582" lon="6.35995">
        <ele>1734.6</ele>
        <time>2020-08-18T10:17:08Z</time>
      </trkpt>
      <trkpt lat="45.03579" lon="6.35983">
        <ele>1733.6</ele>
        <time>2020-08-18T10:17:14Z</time>
      </trkpt>
      <trkpt lat="45.03576" lon="6.35969">
        <ele>1731.9</ele>
        <time>2020-08-18T10:17:22Z</time>
      </trkpt>
      <trkpt lat="45.03573" lon="6.35956">
        <ele>1730.5</ele>
        <time>2020-08-18T10:17:29Z</time>
      </trkpt>
      <trkpt lat="45.0357" lon="6.35944">
        <ele>1728.8</ele>
        <time>2020-08-18T10:17:38Z</time>
      </trkpt>
      <trkpt lat="45.03571" lon="6.3593">
        <ele>1726</ele>
        <time>2020-08-18T10:17:56Z</time>
      </trkpt>
      <trkpt lat="45.03569" lon="6.35918">
        <ele>1724.9</ele>
        <time>2020-08-18T10:18:07Z</time>
      </trkpt>
      <trkpt lat="45.03559" lon="6.35918">
        <ele>1723.4</ele>
        <time>2020-08-18T10:18:20Z</time>
      </trkpt>
      <trkpt lat="45.03551" lon="6.35923">
        <ele>1722.9</ele>
        <time>2020-08-18T10:18:26Z</time>
      </trkpt>
      <trkpt lat="45.03545" lon="6.35934">
        <ele>1722</ele>
        <time>2020-08-18T10:18:37Z</time>
      </trkpt>
      <trkpt lat="45.03536" lon="6.35937">
        <ele>1721.3</ele>
        <time>2020-08-18T10:18:44Z</time>
      </trkpt>
      <trkpt lat="45.03527" lon="6.3594">
        <ele>1720.5</ele>
        <time>2020-08-18T10:18:51Z</time>
      </trkpt>
      <trkpt lat="45.03518" lon="6.35937">
        <ele>1719.1</ele>
        <time>2020-08-18T10:19:00Z</time>
      </trkpt>
      <trkpt lat="45.03509" lon="6.35936">
        <ele>1717.4</ele>
        <time>2020-08-18T10:19:10Z</time>
      </trkpt>
      <trkpt lat="45.03504" lon="6.35947">
        <ele>1715.5</ele>
        <time>2020-08-18T10:19:32Z</time>
      </trkpt>
      <trkpt lat="45.03495" lon="6.35954">
        <ele>1715.2</ele>
        <time>2020-08-18T10:19:39Z</time>
      </trkpt>
      <trkpt lat="45.03487" lon="6.35963">
        <ele>1714.8</ele>
        <time>2020-08-18T10:19:46Z</time>
      </trkpt>
      <trkpt lat="45.03481" lon="6.35974">
        <ele>1714.4</ele>
        <time>2020-08-18T10:19:55Z</time>
      </trkpt>
      <trkpt lat="45.03479" lon="6.35987">
        <ele>1714.1</ele>
        <time>2020-08-18T10:20:06Z</time>
      </trkpt>
      <trkpt lat="45.0348" lon="6.36001">
        <ele>1713.9</ele>
        <time>2020-08-18T10:20:17Z</time>
      </trkpt>
      <trkpt lat="45.03478" lon="6.36015">
        <ele>1713.8</ele>
        <time>2020-08-18T10:20:27Z</time>
      </trkpt>
      <trkpt lat="45.03475" lon="6.36028">
        <ele>1713.8</ele>
        <time>2020-08-18T10:20:34Z</time>
      </trkpt>
      <trkpt lat="45.03471" lon="6.36041">
        <ele>1713.8</ele>
        <time>2020-08-18T10:20:41Z</time>
      </trkpt>
      <trkpt lat="45.03466" lon="6.36054">
        <ele>1713.7</ele>
        <time>2020-08-18T10:20:49Z</time>
      </trkpt>
      <trkpt lat="45.03464" lon="6.36067">
        <ele>1713.5</ele>
        <time>2020-08-18T10:20:58Z</time>
      </trkpt>
      <trkpt lat="45.03462" lon="6.36081">
        <ele>1713.2</ele>
        <time>2020-08-18T10:21:07Z</time>
      </trkpt>
      <trkpt lat="45.03465" lon="6.36093">
        <ele>1712.5</ele>
        <time>2020-08-18T10:21:16Z</time>
      </trkpt>
      <trkpt lat="45.03468" lon="6.36106">
        <ele>1711.8</ele>
        <time>2020-08-18T10:21:24Z</time>
      </trkpt>
      <trkpt lat="45.03466" lon="6.36119">
        <ele>1711</ele>
        <time>2020-08-18T10:21:33Z</time>
      </trkpt>
      <trkpt lat="45.03462" lon="6.36131">
        <ele>1708.9</ele>
        <time>2020-08-18T10:22:15Z</time>
      </trkpt>
      <trkpt lat="45.03456" lon="6.36141">
        <ele>1708.2</ele>
        <time>2020-08-18T10:22:23Z</time>
      </trkpt>
      <trkpt lat="45.03449" lon="6.36151">
        <ele>1707.4</ele>
        <time>2020-08-18T10:22:29Z</time>
      </trkpt>
      <trkpt lat="45.0344" lon="6.36157">
        <ele>1706.5</ele>
        <time>2020-08-18T10:22:34Z</time>
      </trkpt>
      <trkpt lat="45.03431" lon="6.3616">
        <ele>1705.7</ele>
        <time>2020-08-18T10:22:38Z</time>
      </trkpt>
      <trkpt lat="45.03422" lon="6.36165">
        <ele>1704.7</ele>
        <time>2020-08-18T10:22:43Z</time>
      </trkpt>
      <trkpt lat="45.03415" lon="6.36173">
        <ele>1703.6</ele>
        <time>2020-08-18T10:22:48Z</time>
      </trkpt>
      <trkpt lat="45.03409" lon="6.36183">
        <ele>1702.3</ele>
        <time>2020-08-18T10:22:55Z</time>
      </trkpt>
      <trkpt lat="45.034" lon="6.3619">
        <ele>1700.9</ele>
        <time>2020-08-18T10:23:03Z</time>
      </trkpt>
      <trkpt lat="45.03395" lon="6.362">
        <ele>1699.4</ele>
        <time>2020-08-18T10:23:13Z</time>
      </trkpt>
      <trkpt lat="45.03387" lon="6.36209">
        <ele>1698.7</ele>
        <time>2020-08-18T10:23:19Z</time>
      </trkpt>
      <trkpt lat="45.03379" lon="6.36217">
        <ele>1698</ele>
        <time>2020-08-18T10:23:25Z</time>
      </trkpt>
      <trkpt lat="45.03372" lon="6.36225">
        <ele>1697</ele>
        <time>2020-08-18T10:23:33Z</time>
      </trkpt>
      <trkpt lat="45.03362" lon="6.3623">
        <ele>1696.3</ele>
        <time>2020-08-18T10:23:40Z</time>
      </trkpt>
      <trkpt lat="45.03354" lon="6.36237">
        <ele>1695.6</ele>
        <time>2020-08-18T10:23:47Z</time>
      </trkpt>
      <trkpt lat="45.03346" lon="6.36243">
        <ele>1695.2</ele>
        <time>2020-08-18T10:23:52Z</time>
      </trkpt>
      <trkpt lat="45.03338" lon="6.3625">
        <ele>1694.7</ele>
        <time>2020-08-18T10:23:58Z</time>
      </trkpt>
      <trkpt lat="45.03329" lon="6.36255">
        <ele>1693.9</ele>
        <time>2020-08-18T10:24:06Z</time>
      </trkpt>
      <trkpt lat="45.0332" lon="6.36258">
        <ele>1693.3</ele>
        <time>2020-08-18T10:24:13Z</time>
      </trkpt>
      <trkpt lat="45.03312" lon="6.36263">
        <ele>1692.5</ele>
        <time>2020-08-18T10:24:22Z</time>
      </trkpt>
      <trkpt lat="45.03303" lon="6.36269">
        <ele>1691.3</ele>
        <time>2020-08-18T10:24:35Z</time>
      </trkpt>
      <trkpt lat="45.03294" lon="6.36273">
        <ele>1690.7</ele>
        <time>2020-08-18T10:24:41Z</time>
      </trkpt>
      <trkpt lat="45.03284" lon="6.36278">
        <ele>1690.1</ele>
        <time>2020-08-18T10:24:47Z</time>
      </trkpt>
      <trkpt lat="45.03276" lon="6.36284">
        <ele>1689.4</ele>
        <time>2020-08-18T10:24:54Z</time>
      </trkpt>
      <trkpt lat="45.03267" lon="6.3629">
        <ele>1688.6</ele>
        <time>2020-08-18T10:25:03Z</time>
      </trkpt>
      <trkpt lat="45.03258" lon="6.36296">
        <ele>1688</ele>
        <time>2020-08-18T10:25:10Z</time>
      </trkpt>
      <trkpt lat="45.0325" lon="6.36303">
        <ele>1687.3</ele>
        <time>2020-08-18T10:25:18Z</time>
      </trkpt>
      <trkpt lat="45.0324" lon="6.36308">
        <ele>1686.5</ele>
        <time>2020-08-18T10:25:25Z</time>
      </trkpt>
      <trkpt lat="45.03231" lon="6.36308">
        <ele>1685.6</ele>
        <time>2020-08-18T10:25:33Z</time>
      </trkpt>
      <trkpt lat="45.03222" lon="6.36313">
        <ele>1685</ele>
        <time>2020-08-18T10:25:41Z</time>
      </trkpt>
      <trkpt lat="45.03214" lon="6.36321">
        <ele>1684.4</ele>
        <time>2020-08-18T10:25:48Z</time>
      </trkpt>
      <trkpt lat="45.03206" lon="6.36329">
        <ele>1683.7</ele>
        <time>2020-08-18T10:25:56Z</time>
      </trkpt>
      <trkpt lat="45.03196" lon="6.36332">
        <ele>1683</ele>
        <time>2020-08-18T10:26:02Z</time>
      </trkpt>
      <trkpt lat="45.03189" lon="6.36343">
        <ele>1682.4</ele>
        <time>2020-08-18T10:26:09Z</time>
      </trkpt>
      <trkpt lat="45.03184" lon="6.36355">
        <ele>1681.8</ele>
        <time>2020-08-18T10:26:19Z</time>
      </trkpt>
      <trkpt lat="45.03175" lon="6.36356">
        <ele>1681.2</ele>
        <time>2020-08-18T10:26:33Z</time>
      </trkpt>
      <trkpt lat="45.03165" lon="6.36353">
        <ele>1679.9</ele>
        <time>2020-08-18T10:29:28Z</time>
      </trkpt>
      <trkpt lat="45.03157" lon="6.36347">
        <ele>1679.9</ele>
        <time>2020-08-18T10:29:35Z</time>
      </trkpt>
      <trkpt lat="45.03154" lon="6.36333">
        <ele>1679.9</ele>
        <time>2020-08-18T10:29:42Z</time>
      </trkpt>
      <trkpt lat="45.03149" lon="6.36322">
        <ele>1679.7</ele>
        <time>2020-08-18T10:29:48Z</time>
      </trkpt>
      <trkpt lat="45.03142" lon="6.36312">
        <ele>1679.5</ele>
        <time>2020-08-18T10:29:53Z</time>
      </trkpt>
      <trkpt lat="45.03137" lon="6.36301">
        <ele>1679.3</ele>
        <time>2020-08-18T10:30:00Z</time>
      </trkpt>
      <trkpt lat="45.03132" lon="6.3629">
        <ele>1679.2</ele>
        <time>2020-08-18T10:30:08Z</time>
      </trkpt>
      <trkpt lat="45.03124" lon="6.36284">
        <ele>1679.1</ele>
        <time>2020-08-18T10:30:12Z</time>
      </trkpt>
      <trkpt lat="45.03117" lon="6.36274">
        <ele>1679</ele>
        <time>2020-08-18T10:30:18Z</time>
      </trkpt>
      <trkpt lat="45.03107" lon="6.36275">
        <ele>1678.6</ele>
        <time>2020-08-18T10:30:33Z</time>
      </trkpt>
      <trkpt lat="45.03099" lon="6.36281">
        <ele>1678.5</ele>
        <time>2020-08-18T10:30:37Z</time>
      </trkpt>
      <trkpt lat="45.03092" lon="6.36293">
        <ele>1678.4</ele>
        <time>2020-08-18T10:30:43Z</time>
      </trkpt>
      <trkpt lat="45.03084" lon="6.363">
        <ele>1678.4</ele>
        <time>2020-08-18T10:30:47Z</time>
      </trkpt>
      <trkpt lat="45.03077" lon="6.36311">
        <ele>1678.3</ele>
        <time>2020-08-18T10:30:53Z</time>
      </trkpt>
      <trkpt lat="45.03071" lon="6.36322">
        <ele>1678.3</ele>
        <time>2020-08-18T10:31:01Z</time>
      </trkpt>
      <trkpt lat="45.03063" lon="6.36328">
        <ele>1678.3</ele>
        <time>2020-08-18T10:31:07Z</time>
      </trkpt>
      <trkpt lat="45.03069" lon="6.36319">
        <ele>1678.4</ele>
        <time>2020-08-18T10:32:04Z</time>
      </trkpt>
      <trkpt lat="45.03078" lon="6.36323">
        <ele>1678.8</ele>
        <time>2020-08-18T10:32:44Z</time>
      </trkpt>
      <trkpt lat="45.03087" lon="6.36318">
        <ele>1678.9</ele>
        <time>2020-08-18T10:32:48Z</time>
      </trkpt>
      <trkpt lat="45.03105" lon="6.36321">
        <ele>1679</ele>
        <time>2020-08-18T10:33:18Z</time>
      </trkpt>
      <trkpt lat="45.03095" lon="6.3632">
        <ele>1679.2</ele>
        <time>2020-08-18T10:33:25Z</time>
      </trkpt>
      <trkpt lat="45.03086" lon="6.3632">
        <ele>1679.2</ele>
        <time>2020-08-18T10:34:01Z</time>
      </trkpt>
      <trkpt lat="45.03077" lon="6.36328">
        <ele>1679.2</ele>
        <time>2020-08-18T10:34:07Z</time>
      </trkpt>
      <trkpt lat="45.03069" lon="6.36331">
        <ele>1679.2</ele>
        <time>2020-08-18T10:34:11Z</time>
      </trkpt>
      <trkpt lat="45.03084" lon="6.36325">
        <ele>1679.2</ele>
        <time>2020-08-18T10:34:19Z</time>
      </trkpt>
      <trkpt lat="45.03075" lon="6.36328">
        <ele>1679.2</ele>
        <time>2020-08-18T10:34:40Z</time>
      </trkpt>
      <trkpt lat="45.03067" lon="6.36336">
        <ele>1679.2</ele>
        <time>2020-08-18T10:35:05Z</time>
      </trkpt>
      <trkpt lat="45.0306" lon="6.36346">
        <ele>1679.2</ele>
        <time>2020-08-18T10:35:11Z</time>
      </trkpt>
      <trkpt lat="45.03051" lon="6.3635">
        <ele>1679.2</ele>
        <time>2020-08-18T10:35:20Z</time>
      </trkpt>
      <trkpt lat="45.03043" lon="6.36358">
        <ele>1679.2</ele>
        <time>2020-08-18T10:35:30Z</time>
      </trkpt>
      <trkpt lat="45.03035" lon="6.36365">
        <ele>1679.2</ele>
        <time>2020-08-18T10:35:38Z</time>
      </trkpt>
      <trkpt lat="45.03027" lon="6.36373">
        <ele>1679.1</ele>
        <time>2020-08-18T10:35:45Z</time>
      </trkpt>
      <trkpt lat="45.03018" lon="6.3638">
        <ele>1679.1</ele>
        <time>2020-08-18T10:35:52Z</time>
      </trkpt>
      <trkpt lat="45.0301" lon="6.36386">
        <ele>1679.1</ele>
        <time>2020-08-18T10:35:59Z</time>
      </trkpt>
      <trkpt lat="45.03003" lon="6.36394">
        <ele>1679.1</ele>
        <time>2020-08-18T10:36:06Z</time>
      </trkpt>
      <trkpt lat="45.02996" lon="6.36403">
        <ele>1679.1</ele>
        <time>2020-08-18T10:36:13Z</time>
      </trkpt>
      <trkpt lat="45.02989" lon="6.36413">
        <ele>1679.1</ele>
        <time>2020-08-18T10:36:21Z</time>
      </trkpt>
      <trkpt lat="45.02981" lon="6.36421">
        <ele>1679.2</ele>
        <time>2020-08-18T10:36:29Z</time>
      </trkpt>
      <trkpt lat="45.02974" lon="6.36431">
        <ele>1679.3</ele>
        <time>2020-08-18T10:36:37Z</time>
      </trkpt>
      <trkpt lat="45.02967" lon="6.36439">
        <ele>1679.3</ele>
        <time>2020-08-18T10:36:44Z</time>
      </trkpt>
      <trkpt lat="45.02959" lon="6.36449">
        <ele>1679.3</ele>
        <time>2020-08-18T10:36:50Z</time>
      </trkpt>
      <trkpt lat="45.02951" lon="6.36455">
        <ele>1679.4</ele>
        <time>2020-08-18T10:36:57Z</time>
      </trkpt>
      <trkpt lat="45.02949" lon="6.36468">
        <ele>1679.5</ele>
        <time>2020-08-18T10:37:24Z</time>
      </trkpt>
      <trkpt lat="45.02943" lon="6.36479">
        <ele>1679.6</ele>
        <time>2020-08-18T10:37:33Z</time>
      </trkpt>
      <trkpt lat="45.02937" lon="6.36489">
        <ele>1680.3</ele>
        <time>2020-08-18T10:38:05Z</time>
      </trkpt>
      <trkpt lat="45.02955" lon="6.36482">
        <ele>1680</ele>
        <time>2020-08-18T10:40:07Z</time>
      </trkpt>
      <trkpt lat="45.02947" lon="6.36477">
        <ele>1681.2</ele>
        <time>2020-08-18T11:44:26Z</time>
      </trkpt>
      <trkpt lat="45.02948" lon="6.36463">
        <ele>1681.2</ele>
        <time>2020-08-18T11:44:34Z</time>
      </trkpt>
      <trkpt lat="45.02951" lon="6.36449">
        <ele>1681.2</ele>
        <time>2020-08-18T11:44:46Z</time>
      </trkpt>
      <trkpt lat="45.02953" lon="6.36436">
        <ele>1681.2</ele>
        <time>2020-08-18T11:44:56Z</time>
      </trkpt>
      <trkpt lat="45.02946" lon="6.36447">
        <ele>1680.3</ele>
        <time>2020-08-18T11:45:37Z</time>
      </trkpt>
      <trkpt lat="45.02937" lon="6.36452">
        <ele>1680.1</ele>
        <time>2020-08-18T11:46:46Z</time>
      </trkpt>
      <trkpt lat="45.02929" lon="6.36462">
        <ele>1680.1</ele>
        <time>2020-08-18T11:46:54Z</time>
      </trkpt>
      <trkpt lat="45.02921" lon="6.36469">
        <ele>1680.1</ele>
        <time>2020-08-18T11:47:15Z</time>
      </trkpt>
      <trkpt lat="45.02913" lon="6.36475">
        <ele>1680.1</ele>
        <time>2020-08-18T11:47:21Z</time>
      </trkpt>
      <trkpt lat="45.02904" lon="6.36481">
        <ele>1680.1</ele>
        <time>2020-08-18T11:47:30Z</time>
      </trkpt>
      <trkpt lat="45.02897" lon="6.36488">
        <ele>1680.1</ele>
        <time>2020-08-18T11:47:38Z</time>
      </trkpt>
      <trkpt lat="45.02888" lon="6.36494">
        <ele>1680.1</ele>
        <time>2020-08-18T11:47:46Z</time>
      </trkpt>
      <trkpt lat="45.0288" lon="6.36501">
        <ele>1680.1</ele>
        <time>2020-08-18T11:47:55Z</time>
      </trkpt>
      <trkpt lat="45.02871" lon="6.36502">
        <ele>1680.1</ele>
        <time>2020-08-18T11:48:03Z</time>
      </trkpt>
      <trkpt lat="45.02863" lon="6.36506">
        <ele>1680.1</ele>
        <time>2020-08-18T11:48:11Z</time>
      </trkpt>
      <trkpt lat="45.02853" lon="6.36513">
        <ele>1680.1</ele>
        <time>2020-08-18T11:48:19Z</time>
      </trkpt>
      <trkpt lat="45.02844" lon="6.36518">
        <ele>1680.1</ele>
        <time>2020-08-18T11:48:26Z</time>
      </trkpt>
      <trkpt lat="45.02835" lon="6.36523">
        <ele>1680.1</ele>
        <time>2020-08-18T11:48:34Z</time>
      </trkpt>
      <trkpt lat="45.02826" lon="6.36527">
        <ele>1680.1</ele>
        <time>2020-08-18T11:48:42Z</time>
      </trkpt>
      <trkpt lat="45.02818" lon="6.36534">
        <ele>1680.1</ele>
        <time>2020-08-18T11:48:49Z</time>
      </trkpt>
      <trkpt lat="45.02808" lon="6.36538">
        <ele>1680.1</ele>
        <time>2020-08-18T11:48:57Z</time>
      </trkpt>
      <trkpt lat="45.02799" lon="6.36545">
        <ele>1680.1</ele>
        <time>2020-08-18T11:49:05Z</time>
      </trkpt>
      <trkpt lat="45.0279" lon="6.36547">
        <ele>1680.1</ele>
        <time>2020-08-18T11:49:13Z</time>
      </trkpt>
      <trkpt lat="45.02781" lon="6.36544">
        <ele>1680.1</ele>
        <time>2020-08-18T11:49:23Z</time>
      </trkpt>
      <trkpt lat="45.02771" lon="6.36547">
        <ele>1680.2</ele>
        <time>2020-08-18T11:49:52Z</time>
      </trkpt>
      <trkpt lat="45.02762" lon="6.36552">
        <ele>1680.2</ele>
        <time>2020-08-18T11:49:57Z</time>
      </trkpt>
      <trkpt lat="45.02754" lon="6.36559">
        <ele>1680.4</ele>
        <time>2020-08-18T11:50:04Z</time>
      </trkpt>
      <trkpt lat="45.02745" lon="6.36562">
        <ele>1680.7</ele>
        <time>2020-08-18T11:50:11Z</time>
      </trkpt>
      <trkpt lat="45.02736" lon="6.36565">
        <ele>1681.1</ele>
        <time>2020-08-18T11:50:18Z</time>
      </trkpt>
      <trkpt lat="45.02726" lon="6.36566">
        <ele>1681.6</ele>
        <time>2020-08-18T11:50:25Z</time>
      </trkpt>
      <trkpt lat="45.02718" lon="6.36573">
        <ele>1681.8</ele>
        <time>2020-08-18T11:50:32Z</time>
      </trkpt>
      <trkpt lat="45.02709" lon="6.3658">
        <ele>1682.1</ele>
        <time>2020-08-18T11:50:39Z</time>
      </trkpt>
      <trkpt lat="45.02703" lon="6.36589">
        <ele>1682.7</ele>
        <time>2020-08-18T11:50:47Z</time>
      </trkpt>
      <trkpt lat="45.02704" lon="6.36603">
        <ele>1683.3</ele>
        <time>2020-08-18T11:50:57Z</time>
      </trkpt>
      <trkpt lat="45.02703" lon="6.36616">
        <ele>1683.7</ele>
        <time>2020-08-18T11:51:05Z</time>
      </trkpt>
      <trkpt lat="45.02694" lon="6.36617">
        <ele>1684.3</ele>
        <time>2020-08-18T11:51:17Z</time>
      </trkpt>
      <trkpt lat="45.02685" lon="6.36616">
        <ele>1684.5</ele>
        <time>2020-08-18T11:51:24Z</time>
      </trkpt>
      <trkpt lat="45.02675" lon="6.36618">
        <ele>1684.8</ele>
        <time>2020-08-18T11:51:32Z</time>
      </trkpt>
      <trkpt lat="45.02666" lon="6.36624">
        <ele>1685.1</ele>
        <time>2020-08-18T11:51:38Z</time>
      </trkpt>
      <trkpt lat="45.02657" lon="6.36626">
        <ele>1685.5</ele>
        <time>2020-08-18T11:51:44Z</time>
      </trkpt>
      <trkpt lat="45.02647" lon="6.3663">
        <ele>1685.8</ele>
        <time>2020-08-18T11:51:50Z</time>
      </trkpt>
      <trkpt lat="45.02637" lon="6.36634">
        <ele>1686.2</ele>
        <time>2020-08-18T11:51:58Z</time>
      </trkpt>
      <trkpt lat="45.02629" lon="6.36638">
        <ele>1686.5</ele>
        <time>2020-08-18T11:52:03Z</time>
      </trkpt>
      <trkpt lat="45.02623" lon="6.3665">
        <ele>1686.9</ele>
        <time>2020-08-18T11:52:10Z</time>
      </trkpt>
      <trkpt lat="45.02614" lon="6.36656">
        <ele>1688</ele>
        <time>2020-08-18T11:52:19Z</time>
      </trkpt>
      <trkpt lat="45.02604" lon="6.36656">
        <ele>1689</ele>
        <time>2020-08-18T11:52:26Z</time>
      </trkpt>
      <trkpt lat="45.02595" lon="6.36656">
        <ele>1689.8</ele>
        <time>2020-08-18T11:52:32Z</time>
      </trkpt>
      <trkpt lat="45.02586" lon="6.36663">
        <ele>1690.6</ele>
        <time>2020-08-18T11:52:39Z</time>
      </trkpt>
      <trkpt lat="45.02579" lon="6.36672">
        <ele>1691.2</ele>
        <time>2020-08-18T11:52:46Z</time>
      </trkpt>
      <trkpt lat="45.02571" lon="6.36679">
        <ele>1691.7</ele>
        <time>2020-08-18T11:52:53Z</time>
      </trkpt>
      <trkpt lat="45.02562" lon="6.36681">
        <ele>1692.1</ele>
        <time>2020-08-18T11:53:01Z</time>
      </trkpt>
      <trkpt lat="45.02556" lon="6.36691">
        <ele>1692.8</ele>
        <time>2020-08-18T11:53:11Z</time>
      </trkpt>
      <trkpt lat="45.02546" lon="6.36695">
        <ele>1693.4</ele>
        <time>2020-08-18T11:53:21Z</time>
      </trkpt>
      <trkpt lat="45.02537" lon="6.367">
        <ele>1693.8</ele>
        <time>2020-08-18T11:53:28Z</time>
      </trkpt>
      <trkpt lat="45.0253" lon="6.3671">
        <ele>1694</ele>
        <time>2020-08-18T11:53:34Z</time>
      </trkpt>
      <trkpt lat="45.02521" lon="6.36717">
        <ele>1694.2</ele>
        <time>2020-08-18T11:53:43Z</time>
      </trkpt>
      <trkpt lat="45.02514" lon="6.36726">
        <ele>1694.3</ele>
        <time>2020-08-18T11:53:49Z</time>
      </trkpt>
      <trkpt lat="45.02506" lon="6.36733">
        <ele>1694.6</ele>
        <time>2020-08-18T11:53:55Z</time>
      </trkpt>
      <trkpt lat="45.02495" lon="6.36736">
        <ele>1694.9</ele>
        <time>2020-08-18T11:54:01Z</time>
      </trkpt>
      <trkpt lat="45.02487" lon="6.36741">
        <ele>1695.2</ele>
        <time>2020-08-18T11:54:08Z</time>
      </trkpt>
      <trkpt lat="45.02478" lon="6.36746">
        <ele>1695.5</ele>
        <time>2020-08-18T11:54:15Z</time>
      </trkpt>
      <trkpt lat="45.02469" lon="6.36749">
        <ele>1695.6</ele>
        <time>2020-08-18T11:54:21Z</time>
      </trkpt>
      <trkpt lat="45.02461" lon="6.36755">
        <ele>1695.8</ele>
        <time>2020-08-18T11:54:27Z</time>
      </trkpt>
      <trkpt lat="45.02452" lon="6.36759">
        <ele>1696</ele>
        <time>2020-08-18T11:54:33Z</time>
      </trkpt>
      <trkpt lat="45.02442" lon="6.36766">
        <ele>1696.3</ele>
        <time>2020-08-18T11:54:41Z</time>
      </trkpt>
      <trkpt lat="45.02434" lon="6.36771">
        <ele>1696.6</ele>
        <time>2020-08-18T11:54:47Z</time>
      </trkpt>
      <trkpt lat="45.02426" lon="6.3678">
        <ele>1696.9</ele>
        <time>2020-08-18T11:54:55Z</time>
      </trkpt>
      <trkpt lat="45.0242" lon="6.3679">
        <ele>1697.1</ele>
        <time>2020-08-18T11:55:01Z</time>
      </trkpt>
      <trkpt lat="45.02413" lon="6.36798">
        <ele>1697.4</ele>
        <time>2020-08-18T11:55:06Z</time>
      </trkpt>
      <trkpt lat="45.02403" lon="6.36801">
        <ele>1697.7</ele>
        <time>2020-08-18T11:55:16Z</time>
      </trkpt>
      <trkpt lat="45.02394" lon="6.36806">
        <ele>1698.1</ele>
        <time>2020-08-18T11:55:23Z</time>
      </trkpt>
      <trkpt lat="45.02386" lon="6.36813">
        <ele>1698.5</ele>
        <time>2020-08-18T11:55:30Z</time>
      </trkpt>
      <trkpt lat="45.02377" lon="6.3682">
        <ele>1699</ele>
        <time>2020-08-18T11:55:37Z</time>
      </trkpt>
      <trkpt lat="45.02368" lon="6.36827">
        <ele>1699.4</ele>
        <time>2020-08-18T11:55:47Z</time>
      </trkpt>
      <trkpt lat="45.02359" lon="6.36829">
        <ele>1699.6</ele>
        <time>2020-08-18T11:55:53Z</time>
      </trkpt>
      <trkpt lat="45.0235" lon="6.36827">
        <ele>1699.7</ele>
        <time>2020-08-18T11:55:59Z</time>
      </trkpt>
      <trkpt lat="45.02341" lon="6.36821">
        <ele>1699.9</ele>
        <time>2020-08-18T11:56:05Z</time>
      </trkpt>
      <trkpt lat="45.02332" lon="6.36817">
        <ele>1700.1</ele>
        <time>2020-08-18T11:56:12Z</time>
      </trkpt>
      <trkpt lat="45.02324" lon="6.36814">
        <ele>1700.4</ele>
        <time>2020-08-18T11:56:18Z</time>
      </trkpt>
      <trkpt lat="45.02314" lon="6.36811">
        <ele>1700.9</ele>
        <time>2020-08-18T11:56:28Z</time>
      </trkpt>
      <trkpt lat="45.02306" lon="6.3682">
        <ele>1701.4</ele>
        <time>2020-08-18T11:56:41Z</time>
      </trkpt>
      <trkpt lat="45.02298" lon="6.36828">
        <ele>1701.6</ele>
        <time>2020-08-18T11:56:46Z</time>
      </trkpt>
      <trkpt lat="45.0229" lon="6.36838">
        <ele>1702</ele>
        <time>2020-08-18T11:56:53Z</time>
      </trkpt>
      <trkpt lat="45.02285" lon="6.36849">
        <ele>1702.3</ele>
        <time>2020-08-18T11:56:59Z</time>
      </trkpt>
      <trkpt lat="45.02282" lon="6.36863">
        <ele>1702.7</ele>
        <time>2020-08-18T11:57:06Z</time>
      </trkpt>
      <trkpt lat="45.02279" lon="6.36876">
        <ele>1703</ele>
        <time>2020-08-18T11:57:11Z</time>
      </trkpt>
      <trkpt lat="45.02277" lon="6.36889">
        <ele>1703.6</ele>
        <time>2020-08-18T11:57:18Z</time>
      </trkpt>
      <trkpt lat="45.02276" lon="6.36902">
        <ele>1704</ele>
        <time>2020-08-18T11:57:25Z</time>
      </trkpt>
      <trkpt lat="45.0227" lon="6.36914">
        <ele>1704.6</ele>
        <time>2020-08-18T11:57:35Z</time>
      </trkpt>
      <trkpt lat="45.02261" lon="6.3691">
        <ele>1705.4</ele>
        <time>2020-08-18T11:57:45Z</time>
      </trkpt>
      <trkpt lat="45.02252" lon="6.36913">
        <ele>1705.8</ele>
        <time>2020-08-18T11:57:54Z</time>
      </trkpt>
      <trkpt lat="45.02243" lon="6.36916">
        <ele>1706.1</ele>
        <time>2020-08-18T11:58:00Z</time>
      </trkpt>
      <trkpt lat="45.02234" lon="6.36922">
        <ele>1706.6</ele>
        <time>2020-08-18T11:58:07Z</time>
      </trkpt>
      <trkpt lat="45.02224" lon="6.36924">
        <ele>1706.9</ele>
        <time>2020-08-18T11:58:13Z</time>
      </trkpt>
      <trkpt lat="45.02214" lon="6.36927">
        <ele>1707.2</ele>
        <time>2020-08-18T11:58:21Z</time>
      </trkpt>
      <trkpt lat="45.02205" lon="6.36931">
        <ele>1707.5</ele>
        <time>2020-08-18T11:58:28Z</time>
      </trkpt>
      <trkpt lat="45.02196" lon="6.36937">
        <ele>1707.7</ele>
        <time>2020-08-18T11:58:36Z</time>
      </trkpt>
      <trkpt lat="45.02186" lon="6.36942">
        <ele>1707.8</ele>
        <time>2020-08-18T11:58:43Z</time>
      </trkpt>
      <trkpt lat="45.02176" lon="6.36945">
        <ele>1708</ele>
        <time>2020-08-18T11:58:49Z</time>
      </trkpt>
      <trkpt lat="45.02166" lon="6.36949">
        <ele>1708.2</ele>
        <time>2020-08-18T11:58:55Z</time>
      </trkpt>
      <trkpt lat="45.02158" lon="6.36954">
        <ele>1708.9</ele>
        <time>2020-08-18T11:59:11Z</time>
      </trkpt>
      <trkpt lat="45.02149" lon="6.3696">
        <ele>1709</ele>
        <time>2020-08-18T11:59:17Z</time>
      </trkpt>
      <trkpt lat="45.0214" lon="6.36962">
        <ele>1709.2</ele>
        <time>2020-08-18T11:59:24Z</time>
      </trkpt>
      <trkpt lat="45.02132" lon="6.36971">
        <ele>1709.5</ele>
        <time>2020-08-18T11:59:31Z</time>
      </trkpt>
      <trkpt lat="45.02126" lon="6.36981">
        <ele>1709.8</ele>
        <time>2020-08-18T11:59:39Z</time>
      </trkpt>
      <trkpt lat="45.02117" lon="6.36989">
        <ele>1710.1</ele>
        <time>2020-08-18T11:59:46Z</time>
      </trkpt>
      <trkpt lat="45.02109" lon="6.36996">
        <ele>1710.5</ele>
        <time>2020-08-18T11:59:53Z</time>
      </trkpt>
      <trkpt lat="45.021" lon="6.37002">
        <ele>1711.2</ele>
        <time>2020-08-18T12:00:01Z</time>
      </trkpt>
      <trkpt lat="45.02092" lon="6.37012">
        <ele>1711.7</ele>
        <time>2020-08-18T12:00:09Z</time>
      </trkpt>
      <trkpt lat="45.02087" lon="6.37024">
        <ele>1712</ele>
        <time>2020-08-18T12:00:16Z</time>
      </trkpt>
      <trkpt lat="45.02083" lon="6.37037">
        <ele>1712.3</ele>
        <time>2020-08-18T12:00:24Z</time>
      </trkpt>
      <trkpt lat="45.02079" lon="6.37048">
        <ele>1712.7</ele>
        <time>2020-08-18T12:00:31Z</time>
      </trkpt>
      <trkpt lat="45.02075" lon="6.3706">
        <ele>1713.1</ele>
        <time>2020-08-18T12:00:38Z</time>
      </trkpt>
      <trkpt lat="45.0207" lon="6.37071">
        <ele>1713.4</ele>
        <time>2020-08-18T12:00:44Z</time>
      </trkpt>
      <trkpt lat="45.02066" lon="6.37082">
        <ele>1713.8</ele>
        <time>2020-08-18T12:00:52Z</time>
      </trkpt>
      <trkpt lat="45.02059" lon="6.37091">
        <ele>1714.2</ele>
        <time>2020-08-18T12:00:59Z</time>
      </trkpt>
      <trkpt lat="45.02052" lon="6.37101">
        <ele>1714.8</ele>
        <time>2020-08-18T12:01:06Z</time>
      </trkpt>
      <trkpt lat="45.02048" lon="6.37113">
        <ele>1715.5</ele>
        <time>2020-08-18T12:01:14Z</time>
      </trkpt>
      <trkpt lat="45.02052" lon="6.37126">
        <ele>1716.2</ele>
        <time>2020-08-18T12:01:20Z</time>
      </trkpt>
      <trkpt lat="45.02052" lon="6.3714">
        <ele>1717.8</ele>
        <time>2020-08-18T12:01:31Z</time>
      </trkpt>
      <trkpt lat="45.02043" lon="6.37143">
        <ele>1718.5</ele>
        <time>2020-08-18T12:01:38Z</time>
      </trkpt>
      <trkpt lat="45.02034" lon="6.37149">
        <ele>1718.9</ele>
        <time>2020-08-18T12:01:44Z</time>
      </trkpt>
      <trkpt lat="45.02024" lon="6.37152">
        <ele>1719</ele>
        <time>2020-08-18T12:01:49Z</time>
      </trkpt>
      <trkpt lat="45.02014" lon="6.37151">
        <ele>1719.1</ele>
        <time>2020-08-18T12:01:55Z</time>
      </trkpt>
      <trkpt lat="45.02005" lon="6.37151">
        <ele>1719.1</ele>
        <time>2020-08-18T12:02:02Z</time>
      </trkpt>
      <trkpt lat="45.01994" lon="6.37152">
        <ele>1719.1</ele>
        <time>2020-08-18T12:02:09Z</time>
      </trkpt>
      <trkpt lat="45.01986" lon="6.37156">
        <ele>1719.4</ele>
        <time>2020-08-18T12:02:16Z</time>
      </trkpt>
      <trkpt lat="45.01975" lon="6.37156">
        <ele>1719.8</ele>
        <time>2020-08-18T12:02:22Z</time>
      </trkpt>
      <trkpt lat="45.01966" lon="6.37151">
        <ele>1720.3</ele>
        <time>2020-08-18T12:02:28Z</time>
      </trkpt>
      <trkpt lat="45.01957" lon="6.37147">
        <ele>1721.1</ele>
        <time>2020-08-18T12:02:35Z</time>
      </trkpt>
      <trkpt lat="45.01947" lon="6.37145">
        <ele>1722.4</ele>
        <time>2020-08-18T12:02:45Z</time>
      </trkpt>
      <trkpt lat="45.01938" lon="6.37146">
        <ele>1722.8</ele>
        <time>2020-08-18T12:02:50Z</time>
      </trkpt>
      <trkpt lat="45.01929" lon="6.37149">
        <ele>1723.3</ele>
        <time>2020-08-18T12:02:59Z</time>
      </trkpt>
      <trkpt lat="45.01919" lon="6.37148">
        <ele>1723.9</ele>
        <time>2020-08-18T12:03:10Z</time>
      </trkpt>
      <trkpt lat="45.0191" lon="6.37153">
        <ele>1724.5</ele>
        <time>2020-08-18T12:03:17Z</time>
      </trkpt>
      <trkpt lat="45.019" lon="6.37155">
        <ele>1725.1</ele>
        <time>2020-08-18T12:03:23Z</time>
      </trkpt>
      <trkpt lat="45.01891" lon="6.37158">
        <ele>1725.7</ele>
        <time>2020-08-18T12:03:30Z</time>
      </trkpt>
      <trkpt lat="45.01882" lon="6.37161">
        <ele>1726.3</ele>
        <time>2020-08-18T12:03:38Z</time>
      </trkpt>
      <trkpt lat="45.01873" lon="6.37166">
        <ele>1727</ele>
        <time>2020-08-18T12:03:45Z</time>
      </trkpt>
      <trkpt lat="45.01864" lon="6.37169">
        <ele>1727.6</ele>
        <time>2020-08-18T12:03:52Z</time>
      </trkpt>
      <trkpt lat="45.01855" lon="6.37172">
        <ele>1728</ele>
        <time>2020-08-18T12:03:58Z</time>
      </trkpt>
      <trkpt lat="45.01848" lon="6.37181">
        <ele>1728.3</ele>
        <time>2020-08-18T12:04:08Z</time>
      </trkpt>
      <trkpt lat="45.01839" lon="6.37183">
        <ele>1728.4</ele>
        <time>2020-08-18T12:04:15Z</time>
      </trkpt>
      <trkpt lat="45.01829" lon="6.37184">
        <ele>1728.5</ele>
        <time>2020-08-18T12:04:22Z</time>
      </trkpt>
      <trkpt lat="45.0182" lon="6.37186">
        <ele>1728.7</ele>
        <time>2020-08-18T12:04:28Z</time>
      </trkpt>
      <trkpt lat="45.01811" lon="6.37188">
        <ele>1729</ele>
        <time>2020-08-18T12:04:34Z</time>
      </trkpt>
      <trkpt lat="45.01801" lon="6.37189">
        <ele>1729.5</ele>
        <time>2020-08-18T12:04:43Z</time>
      </trkpt>
      <trkpt lat="45.01792" lon="6.37191">
        <ele>1729.8</ele>
        <time>2020-08-18T12:04:50Z</time>
      </trkpt>
      <trkpt lat="45.01782" lon="6.37193">
        <ele>1730.1</ele>
        <time>2020-08-18T12:04:57Z</time>
      </trkpt>
      <trkpt lat="45.01772" lon="6.37194">
        <ele>1730.3</ele>
        <time>2020-08-18T12:05:03Z</time>
      </trkpt>
      <trkpt lat="45.01762" lon="6.37196">
        <ele>1730.5</ele>
        <time>2020-08-18T12:05:11Z</time>
      </trkpt>
      <trkpt lat="45.01752" lon="6.37198">
        <ele>1731.2</ele>
        <time>2020-08-18T12:05:21Z</time>
      </trkpt>
      <trkpt lat="45.01741" lon="6.37198">
        <ele>1732</ele>
        <time>2020-08-18T12:05:28Z</time>
      </trkpt>
      <trkpt lat="45.01732" lon="6.37199">
        <ele>1732.4</ele>
        <time>2020-08-18T12:05:34Z</time>
      </trkpt>
      <trkpt lat="45.01722" lon="6.37203">
        <ele>1733</ele>
        <time>2020-08-18T12:05:43Z</time>
      </trkpt>
      <trkpt lat="45.01713" lon="6.37207">
        <ele>1733.3</ele>
        <time>2020-08-18T12:05:48Z</time>
      </trkpt>
      <trkpt lat="45.01703" lon="6.37211">
        <ele>1733.4</ele>
        <time>2020-08-18T12:05:52Z</time>
      </trkpt>
      <trkpt lat="45.01694" lon="6.37216">
        <ele>1733.6</ele>
        <time>2020-08-18T12:05:55Z</time>
      </trkpt>
      <trkpt lat="45.01685" lon="6.37219">
        <ele>1733.6</ele>
        <time>2020-08-18T12:05:58Z</time>
      </trkpt>
      <trkpt lat="45.01674" lon="6.37215">
        <ele>1733.8</ele>
        <time>2020-08-18T12:06:01Z</time>
      </trkpt>
      <trkpt lat="45.01664" lon="6.3721">
        <ele>1734.2</ele>
        <time>2020-08-18T12:06:05Z</time>
      </trkpt>
      <trkpt lat="45.01657" lon="6.37197">
        <ele>1734.5</ele>
        <time>2020-08-18T12:06:09Z</time>
      </trkpt>
      <trkpt lat="45.01649" lon="6.37189">
        <ele>1734.8</ele>
        <time>2020-08-18T12:06:12Z</time>
      </trkpt>
      <trkpt lat="45.01641" lon="6.3718">
        <ele>1735.5</ele>
        <time>2020-08-18T12:06:17Z</time>
      </trkpt>
      <trkpt lat="45.01634" lon="6.3717">
        <ele>1737</ele>
        <time>2020-08-18T12:06:24Z</time>
      </trkpt>
      <trkpt lat="45.01627" lon="6.37159">
        <ele>1739.2</ele>
        <time>2020-08-18T12:06:33Z</time>
      </trkpt>
      <trkpt lat="45.01619" lon="6.37153">
        <ele>1741.2</ele>
        <time>2020-08-18T12:06:41Z</time>
      </trkpt>
      <trkpt lat="45.0161" lon="6.37147">
        <ele>1743.5</ele>
        <time>2020-08-18T12:06:51Z</time>
      </trkpt>
      <trkpt lat="45.01601" lon="6.37145">
        <ele>1745.2</ele>
        <time>2020-08-18T12:06:59Z</time>
      </trkpt>
      <trkpt lat="45.01593" lon="6.37139">
        <ele>1748.2</ele>
        <time>2020-08-18T12:07:12Z</time>
      </trkpt>
      <trkpt lat="45.01584" lon="6.37134">
        <ele>1750.9</ele>
        <time>2020-08-18T12:07:23Z</time>
      </trkpt>
      <trkpt lat="45.01573" lon="6.37133">
        <ele>1753.2</ele>
        <time>2020-08-18T12:07:33Z</time>
      </trkpt>
      <trkpt lat="45.01565" lon="6.37125">
        <ele>1757.3</ele>
        <time>2020-08-18T12:07:50Z</time>
      </trkpt>
      <trkpt lat="45.01557" lon="6.37117">
        <ele>1758.9</ele>
        <time>2020-08-18T12:07:57Z</time>
      </trkpt>
      <trkpt lat="45.01548" lon="6.37113">
        <ele>1761.9</ele>
        <time>2020-08-18T12:08:09Z</time>
      </trkpt>
      <trkpt lat="45.01541" lon="6.37105">
        <ele>1764.6</ele>
        <time>2020-08-18T12:08:22Z</time>
      </trkpt>
      <trkpt lat="45.01533" lon="6.37101">
        <ele>1766.4</ele>
        <time>2020-08-18T12:08:32Z</time>
      </trkpt>
      <trkpt lat="45.01525" lon="6.3711">
        <ele>1768.9</ele>
        <time>2020-08-18T12:08:49Z</time>
      </trkpt>
      <trkpt lat="45.0152" lon="6.37121">
        <ele>1769.6</ele>
        <time>2020-08-18T12:08:57Z</time>
      </trkpt>
      <trkpt lat="45.01512" lon="6.37128">
        <ele>1770.4</ele>
        <time>2020-08-18T12:09:03Z</time>
      </trkpt>
      <trkpt lat="45.01503" lon="6.37131">
        <ele>1771.3</ele>
        <time>2020-08-18T12:09:10Z</time>
      </trkpt>
      <trkpt lat="45.01497" lon="6.37141">
        <ele>1772.8</ele>
        <time>2020-08-18T12:09:20Z</time>
      </trkpt>
      <trkpt lat="45.01491" lon="6.37151">
        <ele>1774.9</ele>
        <time>2020-08-18T12:09:32Z</time>
      </trkpt>
      <trkpt lat="45.01486" lon="6.37162">
        <ele>1776.3</ele>
        <time>2020-08-18T12:09:43Z</time>
      </trkpt>
      <trkpt lat="45.01482" lon="6.37176">
        <ele>1777</ele>
        <time>2020-08-18T12:09:52Z</time>
      </trkpt>
      <trkpt lat="45.01477" lon="6.37187">
        <ele>1777.1</ele>
        <time>2020-08-18T12:09:59Z</time>
      </trkpt>
      <trkpt lat="45.01471" lon="6.37199">
        <ele>1776.7</ele>
        <time>2020-08-18T12:10:05Z</time>
      </trkpt>
      <trkpt lat="45.01463" lon="6.37207">
        <ele>1776.4</ele>
        <time>2020-08-18T12:10:11Z</time>
      </trkpt>
      <trkpt lat="45.01457" lon="6.37217">
        <ele>1776</ele>
        <time>2020-08-18T12:10:19Z</time>
      </trkpt>
      <trkpt lat="45.0145" lon="6.37228">
        <ele>1776</ele>
        <time>2020-08-18T12:10:28Z</time>
      </trkpt>
      <trkpt lat="45.01445" lon="6.3724">
        <ele>1776</ele>
        <time>2020-08-18T12:10:35Z</time>
      </trkpt>
      <trkpt lat="45.01442" lon="6.37252">
        <ele>1776</ele>
        <time>2020-08-18T12:10:41Z</time>
      </trkpt>
      <trkpt lat="45.0144" lon="6.37265">
        <ele>1776</ele>
        <time>2020-08-18T12:10:47Z</time>
      </trkpt>
      <trkpt lat="45.01436" lon="6.37279">
        <ele>1776.6</ele>
        <time>2020-08-18T12:10:58Z</time>
      </trkpt>
      <trkpt lat="45.0143" lon="6.3729">
        <ele>1777.1</ele>
        <time>2020-08-18T12:11:06Z</time>
      </trkpt>
      <trkpt lat="45.01424" lon="6.37301">
        <ele>1777.5</ele>
        <time>2020-08-18T12:11:13Z</time>
      </trkpt>
      <trkpt lat="45.01416" lon="6.37308">
        <ele>1777.9</ele>
        <time>2020-08-18T12:11:20Z</time>
      </trkpt>
      <trkpt lat="45.01407" lon="6.37316">
        <ele>1778.2</ele>
        <time>2020-08-18T12:11:28Z</time>
      </trkpt>
      <trkpt lat="45.01401" lon="6.37327">
        <ele>1777.7</ele>
        <time>2020-08-18T12:11:39Z</time>
      </trkpt>
      <trkpt lat="45.01395" lon="6.37336">
        <ele>1777.1</ele>
        <time>2020-08-18T12:11:49Z</time>
      </trkpt>
      <trkpt lat="45.01386" lon="6.37341">
        <ele>1776.1</ele>
        <time>2020-08-18T12:11:57Z</time>
      </trkpt>
      <trkpt lat="45.0138" lon="6.3735">
        <ele>1775.1</ele>
        <time>2020-08-18T12:13:34Z</time>
      </trkpt>
      <trkpt lat="45.01377" lon="6.37363">
        <ele>1776.1</ele>
        <time>2020-08-18T12:13:44Z</time>
      </trkpt>
      <trkpt lat="45.0137" lon="6.37371">
        <ele>1777.5</ele>
        <time>2020-08-18T12:13:53Z</time>
      </trkpt>
      <trkpt lat="45.01369" lon="6.37384">
        <ele>1780</ele>
        <time>2020-08-18T12:14:04Z</time>
      </trkpt>
      <trkpt lat="45.01372" lon="6.37396">
        <ele>1783.3</ele>
        <time>2020-08-18T12:14:16Z</time>
      </trkpt>
      <trkpt lat="45.01363" lon="6.37396">
        <ele>1786.3</ele>
        <time>2020-08-18T12:14:28Z</time>
      </trkpt>
      <trkpt lat="45.01354" lon="6.37392">
        <ele>1788.9</ele>
        <time>2020-08-18T12:14:39Z</time>
      </trkpt>
      <trkpt lat="45.01354" lon="6.37407">
        <ele>1793.9</ele>
        <time>2020-08-18T12:15:01Z</time>
      </trkpt>
      <trkpt lat="45.01359" lon="6.37419">
        <ele>1795.5</ele>
        <time>2020-08-18T12:15:12Z</time>
      </trkpt>
      <trkpt lat="45.01365" lon="6.3743">
        <ele>1797.2</ele>
        <time>2020-08-18T12:15:28Z</time>
      </trkpt>
      <trkpt lat="45.01355" lon="6.3743">
        <ele>1799.4</ele>
        <time>2020-08-18T12:15:46Z</time>
      </trkpt>
      <trkpt lat="45.01346" lon="6.37425">
        <ele>1800.6</ele>
        <time>2020-08-18T12:15:56Z</time>
      </trkpt>
      <trkpt lat="45.0134" lon="6.37436">
        <ele>1803</ele>
        <time>2020-08-18T12:16:12Z</time>
      </trkpt>
      <trkpt lat="45.01347" lon="6.37447">
        <ele>1805.1</ele>
        <time>2020-08-18T12:16:23Z</time>
      </trkpt>
      <trkpt lat="45.01337" lon="6.37445">
        <ele>1807.7</ele>
        <time>2020-08-18T12:16:35Z</time>
      </trkpt>
      <trkpt lat="45.01329" lon="6.37436">
        <ele>1813.4</ele>
        <time>2020-08-18T12:17:03Z</time>
      </trkpt>
      <trkpt lat="45.0132" lon="6.37433">
        <ele>1817</ele>
        <time>2020-08-18T12:17:21Z</time>
      </trkpt>
      <trkpt lat="45.01314" lon="6.37422">
        <ele>1818.5</ele>
        <time>2020-08-18T12:17:30Z</time>
      </trkpt>
      <trkpt lat="45.01307" lon="6.37411">
        <ele>1819.5</ele>
        <time>2020-08-18T12:17:36Z</time>
      </trkpt>
      <trkpt lat="45.01314" lon="6.37398">
        <ele>1820.5</ele>
        <time>2020-08-18T12:17:42Z</time>
      </trkpt>
      <trkpt lat="45.01316" lon="6.37384">
        <ele>1821.8</ele>
        <time>2020-08-18T12:17:49Z</time>
      </trkpt>
      <trkpt lat="45.01313" lon="6.37371">
        <ele>1824.1</ele>
        <time>2020-08-18T12:18:00Z</time>
      </trkpt>
      <trkpt lat="45.01304" lon="6.37374">
        <ele>1828.2</ele>
        <time>2020-08-18T12:18:34Z</time>
      </trkpt>
      <trkpt lat="45.01297" lon="6.37382">
        <ele>1830</ele>
        <time>2020-08-18T12:18:59Z</time>
      </trkpt>
      <trkpt lat="45.01301" lon="6.37394">
        <ele>1832.9</ele>
        <time>2020-08-18T12:19:27Z</time>
      </trkpt>
      <trkpt lat="45.01296" lon="6.37405">
        <ele>1834.4</ele>
        <time>2020-08-18T12:19:40Z</time>
      </trkpt>
      <trkpt lat="45.01287" lon="6.37407">
        <ele>1835.9</ele>
        <time>2020-08-18T12:19:49Z</time>
      </trkpt>
      <trkpt lat="45.01293" lon="6.37418">
        <ele>1838</ele>
        <time>2020-08-18T12:20:01Z</time>
      </trkpt>
      <trkpt lat="45.01287" lon="6.37428">
        <ele>1840.5</ele>
        <time>2020-08-18T12:20:15Z</time>
      </trkpt>
      <trkpt lat="45.01278" lon="6.37434">
        <ele>1842.8</ele>
        <time>2020-08-18T12:20:25Z</time>
      </trkpt>
      <trkpt lat="45.01277" lon="6.37447">
        <ele>1845</ele>
        <time>2020-08-18T12:20:35Z</time>
      </trkpt>
      <trkpt lat="45.01282" lon="6.37458">
        <ele>1847.1</ele>
        <time>2020-08-18T12:20:44Z</time>
      </trkpt>
      <trkpt lat="45.01285" lon="6.3747">
        <ele>1851.2</ele>
        <time>2020-08-18T12:21:23Z</time>
      </trkpt>
      <trkpt lat="45.01287" lon="6.37482">
        <ele>1852.5</ele>
        <time>2020-08-18T12:21:34Z</time>
      </trkpt>
      <trkpt lat="45.01278" lon="6.37487">
        <ele>1854.1</ele>
        <time>2020-08-18T12:21:44Z</time>
      </trkpt>
      <trkpt lat="45.01272" lon="6.37497">
        <ele>1855.4</ele>
        <time>2020-08-18T12:21:52Z</time>
      </trkpt>
      <trkpt lat="45.01282" lon="6.37501">
        <ele>1857.8</ele>
        <time>2020-08-18T12:22:05Z</time>
      </trkpt>
      <trkpt lat="45.01287" lon="6.37512">
        <ele>1859.3</ele>
        <time>2020-08-18T12:22:15Z</time>
      </trkpt>
      <trkpt lat="45.0128" lon="6.3752">
        <ele>1862</ele>
        <time>2020-08-18T12:22:30Z</time>
      </trkpt>
      <trkpt lat="45.01276" lon="6.37532">
        <ele>1865.9</ele>
        <time>2020-08-18T12:22:58Z</time>
      </trkpt>
      <trkpt lat="45.01289" lon="6.37543">
        <ele>1872.4</ele>
        <time>2020-08-18T12:23:52Z</time>
      </trkpt>
      <trkpt lat="45.01299" lon="6.37543">
        <ele>1873.2</ele>
        <time>2020-08-18T12:24:07Z</time>
      </trkpt>
      <trkpt lat="45.01307" lon="6.37548">
        <ele>1874.4</ele>
        <time>2020-08-18T12:24:16Z</time>
      </trkpt>
      <trkpt lat="45.01299" lon="6.37553">
        <ele>1876.1</ele>
        <time>2020-08-18T12:24:25Z</time>
      </trkpt>
      <trkpt lat="45.01289" lon="6.37557">
        <ele>1877</ele>
        <time>2020-08-18T12:24:31Z</time>
      </trkpt>
      <trkpt lat="45.01285" lon="6.37568">
        <ele>1878.8</ele>
        <time>2020-08-18T12:24:40Z</time>
      </trkpt>
      <trkpt lat="45.01277" lon="6.37576">
        <ele>1880.3</ele>
        <time>2020-08-18T12:24:49Z</time>
      </trkpt>
      <trkpt lat="45.01268" lon="6.37578">
        <ele>1881.6</ele>
        <time>2020-08-18T12:24:57Z</time>
      </trkpt>
      <trkpt lat="45.01259" lon="6.37581">
        <ele>1883.1</ele>
        <time>2020-08-18T12:25:05Z</time>
      </trkpt>
      <trkpt lat="45.0125" lon="6.37586">
        <ele>1885</ele>
        <time>2020-08-18T12:25:13Z</time>
      </trkpt>
      <trkpt lat="45.01257" lon="6.37594">
        <ele>1888.4</ele>
        <time>2020-08-18T12:25:33Z</time>
      </trkpt>
      <trkpt lat="45.01265" lon="6.37601">
        <ele>1890.7</ele>
        <time>2020-08-18T12:25:43Z</time>
      </trkpt>
      <trkpt lat="45.01274" lon="6.37605">
        <ele>1892.7</ele>
        <time>2020-08-18T12:25:52Z</time>
      </trkpt>
      <trkpt lat="45.01271" lon="6.37617">
        <ele>1897.8</ele>
        <time>2020-08-18T12:26:14Z</time>
      </trkpt>
      <trkpt lat="45.01262" lon="6.37623">
        <ele>1899.6</ele>
        <time>2020-08-18T12:26:24Z</time>
      </trkpt>
      <trkpt lat="45.01258" lon="6.37635">
        <ele>1907.2</ele>
        <time>2020-08-18T12:26:58Z</time>
      </trkpt>
      <trkpt lat="45.01249" lon="6.37638">
        <ele>1910</ele>
        <time>2020-08-18T12:27:09Z</time>
      </trkpt>
      <trkpt lat="45.0124" lon="6.37641">
        <ele>1911.9</ele>
        <time>2020-08-18T12:27:18Z</time>
      </trkpt>
      <trkpt lat="45.0123" lon="6.37644">
        <ele>1913.2</ele>
        <time>2020-08-18T12:27:26Z</time>
      </trkpt>
      <trkpt lat="45.01222" lon="6.37652">
        <ele>1915.2</ele>
        <time>2020-08-18T12:27:36Z</time>
      </trkpt>
      <trkpt lat="45.01213" lon="6.37654">
        <ele>1918.2</ele>
        <time>2020-08-18T12:27:47Z</time>
      </trkpt>
      <trkpt lat="45.01204" lon="6.37651">
        <ele>1920.8</ele>
        <time>2020-08-18T12:27:55Z</time>
      </trkpt>
      <trkpt lat="45.01194" lon="6.37655">
        <ele>1923.1</ele>
        <time>2020-08-18T12:28:03Z</time>
      </trkpt>
      <trkpt lat="45.01185" lon="6.37657">
        <ele>1925.1</ele>
        <time>2020-08-18T12:28:11Z</time>
      </trkpt>
      <trkpt lat="45.01176" lon="6.37657">
        <ele>1926.9</ele>
        <time>2020-08-18T12:28:19Z</time>
      </trkpt>
      <trkpt lat="45.01168" lon="6.37663">
        <ele>1931.7</ele>
        <time>2020-08-18T12:29:35Z</time>
      </trkpt>
      <trkpt lat="45.01159" lon="6.37658">
        <ele>1935.5</ele>
        <time>2020-08-18T12:29:58Z</time>
      </trkpt>
      <trkpt lat="45.0115" lon="6.37656">
        <ele>1938.3</ele>
        <time>2020-08-18T12:30:10Z</time>
      </trkpt>
      <trkpt lat="45.01139" lon="6.37657">
        <ele>1941.5</ele>
        <time>2020-08-18T12:30:28Z</time>
      </trkpt>
      <trkpt lat="45.01131" lon="6.37654">
        <ele>1943</ele>
        <time>2020-08-18T12:30:38Z</time>
      </trkpt>
      <trkpt lat="45.01133" lon="6.37667">
        <ele>1945</ele>
        <time>2020-08-18T12:30:53Z</time>
      </trkpt>
      <trkpt lat="45.01139" lon="6.37677">
        <ele>1947.3</ele>
        <time>2020-08-18T12:31:04Z</time>
      </trkpt>
      <trkpt lat="45.01138" lon="6.37691">
        <ele>1949.8</ele>
        <time>2020-08-18T12:31:16Z</time>
      </trkpt>
      <trkpt lat="45.0113" lon="6.37683">
        <ele>1954.6</ele>
        <time>2020-08-18T12:31:42Z</time>
      </trkpt>
      <trkpt lat="45.01121" lon="6.3768">
        <ele>1958.3</ele>
        <time>2020-08-18T12:31:58Z</time>
      </trkpt>
      <trkpt lat="45.01112" lon="6.37682">
        <ele>1960.8</ele>
        <time>2020-08-18T12:32:09Z</time>
      </trkpt>
      <trkpt lat="45.01103" lon="6.37684">
        <ele>1964.7</ele>
        <time>2020-08-18T12:32:47Z</time>
      </trkpt>
      <trkpt lat="45.01109" lon="6.37696">
        <ele>1965.5</ele>
        <time>2020-08-18T12:32:57Z</time>
      </trkpt>
      <trkpt lat="45.01107" lon="6.37709">
        <ele>1968.2</ele>
        <time>2020-08-18T12:33:11Z</time>
      </trkpt>
      <trkpt lat="45.01107" lon="6.37722">
        <ele>1970.2</ele>
        <time>2020-08-18T12:33:19Z</time>
      </trkpt>
      <trkpt lat="45.01102" lon="6.37733">
        <ele>1972.4</ele>
        <time>2020-08-18T12:33:30Z</time>
      </trkpt>
      <trkpt lat="45.01108" lon="6.37744">
        <ele>1974.3</ele>
        <time>2020-08-18T12:33:39Z</time>
      </trkpt>
      <trkpt lat="45.01102" lon="6.37755">
        <ele>1977.3</ele>
        <time>2020-08-18T12:33:54Z</time>
      </trkpt>
      <trkpt lat="45.01093" lon="6.37753">
        <ele>1980.8</ele>
        <time>2020-08-18T12:34:34Z</time>
      </trkpt>
      <trkpt lat="45.01083" lon="6.37756">
        <ele>1981</ele>
        <time>2020-08-18T12:34:41Z</time>
      </trkpt>
      <trkpt lat="45.01073" lon="6.37758">
        <ele>1981.8</ele>
        <time>2020-08-18T12:34:49Z</time>
      </trkpt>
      <trkpt lat="45.01064" lon="6.37761">
        <ele>1983.1</ele>
        <time>2020-08-18T12:34:59Z</time>
      </trkpt>
      <trkpt lat="45.01055" lon="6.37766">
        <ele>1985</ele>
        <time>2020-08-18T12:35:11Z</time>
      </trkpt>
      <trkpt lat="45.01045" lon="6.37766">
        <ele>1989.2</ele>
        <time>2020-08-18T12:35:35Z</time>
      </trkpt>
      <trkpt lat="45.01036" lon="6.37771">
        <ele>1990.4</ele>
        <time>2020-08-18T12:35:45Z</time>
      </trkpt>
      <trkpt lat="45.01028" lon="6.3778">
        <ele>1991.7</ele>
        <time>2020-08-18T12:35:54Z</time>
      </trkpt>
      <trkpt lat="45.0102" lon="6.37785">
        <ele>1993.6</ele>
        <time>2020-08-18T12:36:04Z</time>
      </trkpt>
      <trkpt lat="45.0101" lon="6.37788">
        <ele>1995.2</ele>
        <time>2020-08-18T12:36:12Z</time>
      </trkpt>
      <trkpt lat="45.01001" lon="6.37788">
        <ele>1996.5</ele>
        <time>2020-08-18T12:36:20Z</time>
      </trkpt>
      <trkpt lat="45.00992" lon="6.37791">
        <ele>1998</ele>
        <time>2020-08-18T12:36:28Z</time>
      </trkpt>
      <trkpt lat="45.00983" lon="6.37795">
        <ele>1999.9</ele>
        <time>2020-08-18T12:36:37Z</time>
      </trkpt>
      <trkpt lat="45.00974" lon="6.37799">
        <ele>2001.7</ele>
        <time>2020-08-18T12:36:46Z</time>
      </trkpt>
      <trkpt lat="45.00966" lon="6.37804">
        <ele>2005.5</ele>
        <time>2020-08-18T12:37:42Z</time>
      </trkpt>
      <trkpt lat="45.00957" lon="6.37806">
        <ele>2007.3</ele>
        <time>2020-08-18T12:38:04Z</time>
      </trkpt>
      <trkpt lat="45.00948" lon="6.37805">
        <ele>2008.1</ele>
        <time>2020-08-18T12:38:12Z</time>
      </trkpt>
      <trkpt lat="45.00938" lon="6.37807">
        <ele>2009</ele>
        <time>2020-08-18T12:38:20Z</time>
      </trkpt>
      <trkpt lat="45.00929" lon="6.37808">
        <ele>2009.9</ele>
        <time>2020-08-18T12:38:28Z</time>
      </trkpt>
      <trkpt lat="45.00921" lon="6.37813">
        <ele>2011</ele>
        <time>2020-08-18T12:38:39Z</time>
      </trkpt>
      <trkpt lat="45.00911" lon="6.37813">
        <ele>2012.3</ele>
        <time>2020-08-18T12:38:50Z</time>
      </trkpt>
      <trkpt lat="45.00902" lon="6.37817">
        <ele>2013.8</ele>
        <time>2020-08-18T12:38:59Z</time>
      </trkpt>
      <trkpt lat="45.00894" lon="6.37824">
        <ele>2015.1</ele>
        <time>2020-08-18T12:39:06Z</time>
      </trkpt>
      <trkpt lat="45.00885" lon="6.3783">
        <ele>2016.5</ele>
        <time>2020-08-18T12:39:14Z</time>
      </trkpt>
      <trkpt lat="45.00877" lon="6.37836">
        <ele>2020</ele>
        <time>2020-08-18T12:39:44Z</time>
      </trkpt>
      <trkpt lat="45.00868" lon="6.37836">
        <ele>2023.3</ele>
        <time>2020-08-18T12:42:07Z</time>
      </trkpt>
      <trkpt lat="45.0086" lon="6.37844">
        <ele>2023.6</ele>
        <time>2020-08-18T12:42:38Z</time>
      </trkpt>
      <trkpt lat="45.00855" lon="6.37855">
        <ele>2024.4</ele>
        <time>2020-08-18T12:42:47Z</time>
      </trkpt>
      <trkpt lat="45.00847" lon="6.37863">
        <ele>2025.5</ele>
        <time>2020-08-18T12:42:55Z</time>
      </trkpt>
      <trkpt lat="45.00838" lon="6.37869">
        <ele>2027.3</ele>
        <time>2020-08-18T12:43:06Z</time>
      </trkpt>
      <trkpt lat="45.00831" lon="6.37877">
        <ele>2028.6</ele>
        <time>2020-08-18T12:43:15Z</time>
      </trkpt>
      <trkpt lat="45.00823" lon="6.37885">
        <ele>2029.8</ele>
        <time>2020-08-18T12:43:24Z</time>
      </trkpt>
      <trkpt lat="45.00814" lon="6.37891">
        <ele>2031</ele>
        <time>2020-08-18T12:43:33Z</time>
      </trkpt>
      <trkpt lat="45.00806" lon="6.37898">
        <ele>2032.4</ele>
        <time>2020-08-18T12:43:41Z</time>
      </trkpt>
      <trkpt lat="45.00798" lon="6.37905">
        <ele>2033.7</ele>
        <time>2020-08-18T12:43:49Z</time>
      </trkpt>
      <trkpt lat="45.00789" lon="6.37912">
        <ele>2035</ele>
        <time>2020-08-18T12:43:58Z</time>
      </trkpt>
      <trkpt lat="45.00781" lon="6.37918">
        <ele>2036.2</ele>
        <time>2020-08-18T12:44:06Z</time>
      </trkpt>
      <trkpt lat="45.00773" lon="6.37925">
        <ele>2037.1</ele>
        <time>2020-08-18T12:44:14Z</time>
      </trkpt>
      <trkpt lat="45.00764" lon="6.37932">
        <ele>2038.2</ele>
        <time>2020-08-18T12:44:22Z</time>
      </trkpt>
      <trkpt lat="45.00755" lon="6.37938">
        <ele>2039.4</ele>
        <time>2020-08-18T12:44:31Z</time>
      </trkpt>
      <trkpt lat="45.00747" lon="6.37944">
        <ele>2040.4</ele>
        <time>2020-08-18T12:44:40Z</time>
      </trkpt>
      <trkpt lat="45.00738" lon="6.37951">
        <ele>2041.4</ele>
        <time>2020-08-18T12:44:49Z</time>
      </trkpt>
      <trkpt lat="45.00729" lon="6.37958">
        <ele>2042.9</ele>
        <time>2020-08-18T12:44:58Z</time>
      </trkpt>
      <trkpt lat="45.0072" lon="6.37963">
        <ele>2044.4</ele>
        <time>2020-08-18T12:45:07Z</time>
      </trkpt>
      <trkpt lat="45.0071" lon="6.37968">
        <ele>2049.7</ele>
        <time>2020-08-18T12:47:49Z</time>
      </trkpt>
      <trkpt lat="45.007" lon="6.37974">
        <ele>2049.7</ele>
        <time>2020-08-18T12:48:10Z</time>
      </trkpt>
      <trkpt lat="45.00692" lon="6.37981">
        <ele>2049.7</ele>
        <time>2020-08-18T12:48:16Z</time>
      </trkpt>
      <trkpt lat="45.00683" lon="6.37988">
        <ele>2049.7</ele>
        <time>2020-08-18T12:48:22Z</time>
      </trkpt>
      <trkpt lat="45.00675" lon="6.37994">
        <ele>2049.7</ele>
        <time>2020-08-18T12:48:28Z</time>
      </trkpt>
      <trkpt lat="45.00666" lon="6.37999">
        <ele>2049.7</ele>
        <time>2020-08-18T12:48:36Z</time>
      </trkpt>
      <trkpt lat="45.00656" lon="6.38002">
        <ele>2050</ele>
        <time>2020-08-18T12:48:44Z</time>
      </trkpt>
      <trkpt lat="45.00648" lon="6.3801">
        <ele>2050.5</ele>
        <time>2020-08-18T12:48:51Z</time>
      </trkpt>
      <trkpt lat="45.00639" lon="6.38015">
        <ele>2051.1</ele>
        <time>2020-08-18T12:48:58Z</time>
      </trkpt>
      <trkpt lat="45.00629" lon="6.38018">
        <ele>2051.5</ele>
        <time>2020-08-18T12:49:06Z</time>
      </trkpt>
      <trkpt lat="45.00621" lon="6.38022">
        <ele>2051.7</ele>
        <time>2020-08-18T12:49:13Z</time>
      </trkpt>
      <trkpt lat="45.00611" lon="6.38025">
        <ele>2051.9</ele>
        <time>2020-08-18T12:49:21Z</time>
      </trkpt>
      <trkpt lat="45.00605" lon="6.38034">
        <ele>2052.1</ele>
        <time>2020-08-18T12:49:28Z</time>
      </trkpt>
      <trkpt lat="45.00597" lon="6.38041">
        <ele>2052.1</ele>
        <time>2020-08-18T12:49:35Z</time>
      </trkpt>
      <trkpt lat="45.0059" lon="6.3805">
        <ele>2052.2</ele>
        <time>2020-08-18T12:49:42Z</time>
      </trkpt>
      <trkpt lat="45.00581" lon="6.38058">
        <ele>2052.2</ele>
        <time>2020-08-18T12:49:48Z</time>
      </trkpt>
      <trkpt lat="45.00574" lon="6.38066">
        <ele>2052.2</ele>
        <time>2020-08-18T12:49:54Z</time>
      </trkpt>
      <trkpt lat="45.00565" lon="6.38071">
        <ele>2052.2</ele>
        <time>2020-08-18T12:50:01Z</time>
      </trkpt>
      <trkpt lat="45.00558" lon="6.3808">
        <ele>2051.8</ele>
        <time>2020-08-18T12:50:10Z</time>
      </trkpt>
      <trkpt lat="45.00551" lon="6.38089">
        <ele>2051.2</ele>
        <time>2020-08-18T12:50:17Z</time>
      </trkpt>
      <trkpt lat="45.00543" lon="6.38096">
        <ele>2050.6</ele>
        <time>2020-08-18T12:50:23Z</time>
      </trkpt>
      <trkpt lat="45.00537" lon="6.38106">
        <ele>2049.8</ele>
        <time>2020-08-18T12:50:36Z</time>
      </trkpt>
      <trkpt lat="45.00531" lon="6.38116">
        <ele>2049.5</ele>
        <time>2020-08-18T12:50:44Z</time>
      </trkpt>
      <trkpt lat="45.00523" lon="6.38124">
        <ele>2049.2</ele>
        <time>2020-08-18T12:50:50Z</time>
      </trkpt>
      <trkpt lat="45.00515" lon="6.38131">
        <ele>2048.9</ele>
        <time>2020-08-18T12:50:56Z</time>
      </trkpt>
      <trkpt lat="45.00506" lon="6.38137">
        <ele>2047.8</ele>
        <time>2020-08-18T12:51:11Z</time>
      </trkpt>
      <trkpt lat="45.00498" lon="6.38145">
        <ele>2047.4</ele>
        <time>2020-08-18T12:51:18Z</time>
      </trkpt>
      <trkpt lat="45.00494" lon="6.38159">
        <ele>2047.2</ele>
        <time>2020-08-18T12:51:25Z</time>
      </trkpt>
      <trkpt lat="45.00488" lon="6.38169">
        <ele>2047</ele>
        <time>2020-08-18T12:51:32Z</time>
      </trkpt>
      <trkpt lat="45.0048" lon="6.38176">
        <ele>2046.9</ele>
        <time>2020-08-18T12:51:38Z</time>
      </trkpt>
      <trkpt lat="45.00471" lon="6.38181">
        <ele>2046.8</ele>
        <time>2020-08-18T12:51:45Z</time>
      </trkpt>
      <trkpt lat="45.00461" lon="6.38183">
        <ele>2046.8</ele>
        <time>2020-08-18T12:51:52Z</time>
      </trkpt>
      <trkpt lat="45.00453" lon="6.38191">
        <ele>2047.1</ele>
        <time>2020-08-18T12:52:00Z</time>
      </trkpt>
      <trkpt lat="45.00445" lon="6.38197">
        <ele>2047.3</ele>
        <time>2020-08-18T12:52:06Z</time>
      </trkpt>
      <trkpt lat="45.00436" lon="6.38202">
        <ele>2047.8</ele>
        <time>2020-08-18T12:52:14Z</time>
      </trkpt>
      <trkpt lat="45.00427" lon="6.38205">
        <ele>2048.2</ele>
        <time>2020-08-18T12:52:21Z</time>
      </trkpt>
      <trkpt lat="45.00417" lon="6.38209">
        <ele>2048.5</ele>
        <time>2020-08-18T12:52:28Z</time>
      </trkpt>
      <trkpt lat="45.00408" lon="6.38212">
        <ele>2049.3</ele>
        <time>2020-08-18T12:52:36Z</time>
      </trkpt>
      <trkpt lat="45.00399" lon="6.38211">
        <ele>2050.7</ele>
        <time>2020-08-18T12:52:50Z</time>
      </trkpt>
      <trkpt lat="45.0039" lon="6.38213">
        <ele>2051.2</ele>
        <time>2020-08-18T12:52:58Z</time>
      </trkpt>
      <trkpt lat="45.00382" lon="6.3822">
        <ele>2052.5</ele>
        <time>2020-08-18T12:53:09Z</time>
      </trkpt>
      <trkpt lat="45.00375" lon="6.38229">
        <ele>2053.2</ele>
        <time>2020-08-18T12:53:17Z</time>
      </trkpt>
      <trkpt lat="45.00365" lon="6.38232">
        <ele>2053.6</ele>
        <time>2020-08-18T12:53:24Z</time>
      </trkpt>
      <trkpt lat="45.00354" lon="6.38233">
        <ele>2054.2</ele>
        <time>2020-08-18T12:53:29Z</time>
      </trkpt>
      <trkpt lat="45.00345" lon="6.38234">
        <ele>2055.2</ele>
        <time>2020-08-18T12:53:37Z</time>
      </trkpt>
      <trkpt lat="45.00336" lon="6.38236">
        <ele>2055.8</ele>
        <time>2020-08-18T12:53:44Z</time>
      </trkpt>
      <trkpt lat="45.00328" lon="6.38242">
        <ele>2056.4</ele>
        <time>2020-08-18T12:53:51Z</time>
      </trkpt>
      <trkpt lat="45.00319" lon="6.38249">
        <ele>2057</ele>
        <time>2020-08-18T12:53:59Z</time>
      </trkpt>
      <trkpt lat="45.0031" lon="6.38255">
        <ele>2057.4</ele>
        <time>2020-08-18T12:54:06Z</time>
      </trkpt>
      <trkpt lat="45.00302" lon="6.3826">
        <ele>2057.7</ele>
        <time>2020-08-18T12:54:11Z</time>
      </trkpt>
      <trkpt lat="45.00293" lon="6.38266">
        <ele>2058.6</ele>
        <time>2020-08-18T12:54:18Z</time>
      </trkpt>
      <trkpt lat="45.00286" lon="6.38275">
        <ele>2059.2</ele>
        <time>2020-08-18T12:54:26Z</time>
      </trkpt>
      <trkpt lat="45.00284" lon="6.38288">
        <ele>2059.8</ele>
        <time>2020-08-18T12:54:35Z</time>
      </trkpt>
      <trkpt lat="45.00275" lon="6.38291">
        <ele>2060.3</ele>
        <time>2020-08-18T12:54:41Z</time>
      </trkpt>
      <trkpt lat="45.00269" lon="6.38301">
        <ele>2060.9</ele>
        <time>2020-08-18T12:54:48Z</time>
      </trkpt>
      <trkpt lat="45.0026" lon="6.38304">
        <ele>2061.5</ele>
        <time>2020-08-18T12:54:55Z</time>
      </trkpt>
      <trkpt lat="45.0025" lon="6.38307">
        <ele>2062.3</ele>
        <time>2020-08-18T12:55:05Z</time>
      </trkpt>
      <trkpt lat="45.0024" lon="6.38305">
        <ele>2062.9</ele>
        <time>2020-08-18T12:55:11Z</time>
      </trkpt>
      <trkpt lat="45.00232" lon="6.38312">
        <ele>2064.1</ele>
        <time>2020-08-18T12:55:20Z</time>
      </trkpt>
      <trkpt lat="45.00223" lon="6.38318">
        <ele>2065.3</ele>
        <time>2020-08-18T12:55:28Z</time>
      </trkpt>
      <trkpt lat="45.00215" lon="6.38325">
        <ele>2066.1</ele>
        <time>2020-08-18T12:55:35Z</time>
      </trkpt>
      <trkpt lat="45.00207" lon="6.38333">
        <ele>2066.7</ele>
        <time>2020-08-18T12:55:41Z</time>
      </trkpt>
      <trkpt lat="45.00199" lon="6.38342">
        <ele>2067.4</ele>
        <time>2020-08-18T12:55:48Z</time>
      </trkpt>
      <trkpt lat="45.00191" lon="6.38349">
        <ele>2067.8</ele>
        <time>2020-08-18T12:55:54Z</time>
      </trkpt>
      <trkpt lat="45.00183" lon="6.38355">
        <ele>2068.2</ele>
        <time>2020-08-18T12:56:01Z</time>
      </trkpt>
      <trkpt lat="45.00173" lon="6.38358">
        <ele>2068.7</ele>
        <time>2020-08-18T12:56:09Z</time>
      </trkpt>
      <trkpt lat="45.00164" lon="6.3836">
        <ele>2069.6</ele>
        <time>2020-08-18T12:56:17Z</time>
      </trkpt>
      <trkpt lat="45.00156" lon="6.38365">
        <ele>2070.7</ele>
        <time>2020-08-18T12:56:25Z</time>
      </trkpt>
      <trkpt lat="45.00154" lon="6.38379">
        <ele>2071.6</ele>
        <time>2020-08-18T12:56:31Z</time>
      </trkpt>
      <trkpt lat="45.00162" lon="6.3837">
        <ele>2075.5</ele>
        <time>2020-08-18T12:57:01Z</time>
      </trkpt>
      <trkpt lat="45.0017" lon="6.38358">
        <ele>2075.2</ele>
        <time>2020-08-18T12:57:06Z</time>
      </trkpt>
      <trkpt lat="45.00176" lon="6.38345">
        <ele>2075.1</ele>
        <time>2020-08-18T12:57:09Z</time>
      </trkpt>
      <trkpt lat="45.00183" lon="6.38335">
        <ele>2074.5</ele>
        <time>2020-08-18T12:57:16Z</time>
      </trkpt>
      <trkpt lat="45.00191" lon="6.3833">
        <ele>2073.6</ele>
        <time>2020-08-18T12:57:23Z</time>
      </trkpt>
      <trkpt lat="45.00201" lon="6.38326">
        <ele>2072.2</ele>
        <time>2020-08-18T12:57:33Z</time>
      </trkpt>
      <trkpt lat="45.00209" lon="6.38318">
        <ele>2070.3</ele>
        <time>2020-08-18T12:57:51Z</time>
      </trkpt>
      <trkpt lat="45.00218" lon="6.38313">
        <ele>2069.9</ele>
        <time>2020-08-18T12:57:58Z</time>
      </trkpt>
      <trkpt lat="45.00225" lon="6.38302">
        <ele>2069.7</ele>
        <time>2020-08-18T12:58:04Z</time>
      </trkpt>
      <trkpt lat="45.00233" lon="6.38293">
        <ele>2069.5</ele>
        <time>2020-08-18T12:58:11Z</time>
      </trkpt>
      <trkpt lat="45.00242" lon="6.38293">
        <ele>2068.5</ele>
        <time>2020-08-18T12:58:45Z</time>
      </trkpt>
      <trkpt lat="45.00251" lon="6.38289">
        <ele>2067.9</ele>
        <time>2020-08-18T12:58:55Z</time>
      </trkpt>
      <trkpt lat="45.00261" lon="6.38283">
        <ele>2067.3</ele>
        <time>2020-08-18T12:59:01Z</time>
      </trkpt>
      <trkpt lat="45.0027" lon="6.38278">
        <ele>2066.6</ele>
        <time>2020-08-18T12:59:08Z</time>
      </trkpt>
      <trkpt lat="45.00277" lon="6.38269">
        <ele>2065.7</ele>
        <time>2020-08-18T12:59:14Z</time>
      </trkpt>
      <trkpt lat="45.00274" lon="6.38283">
        <ele>2063.6</ele>
        <time>2020-08-18T13:00:39Z</time>
      </trkpt>
      <trkpt lat="45.00267" lon="6.38293">
        <ele>2063.6</ele>
        <time>2020-08-18T13:00:42Z</time>
      </trkpt>
      <trkpt lat="45.00258" lon="6.38301">
        <ele>2063.7</ele>
        <time>2020-08-18T13:00:47Z</time>
      </trkpt>
      <trkpt lat="45.0025" lon="6.38307">
        <ele>2064.1</ele>
        <time>2020-08-18T13:00:53Z</time>
      </trkpt>
      <trkpt lat="45.00244" lon="6.38317">
        <ele>2065</ele>
        <time>2020-08-18T13:01:02Z</time>
      </trkpt>
      <trkpt lat="45.00235" lon="6.38322">
        <ele>2065.8</ele>
        <time>2020-08-18T13:01:08Z</time>
      </trkpt>
      <trkpt lat="45.00228" lon="6.38331">
        <ele>2066.5</ele>
        <time>2020-08-18T13:01:13Z</time>
      </trkpt>
      <trkpt lat="45.00219" lon="6.38336">
        <ele>2066.9</ele>
        <time>2020-08-18T13:01:17Z</time>
      </trkpt>
      <trkpt lat="45.00209" lon="6.38344">
        <ele>2067.3</ele>
        <time>2020-08-18T13:01:21Z</time>
      </trkpt>
      <trkpt lat="45.002" lon="6.38353">
        <ele>2067.8</ele>
        <time>2020-08-18T13:01:26Z</time>
      </trkpt>
      <trkpt lat="45.0019" lon="6.38361">
        <ele>2068.3</ele>
        <time>2020-08-18T13:01:30Z</time>
      </trkpt>
      <trkpt lat="45.0018" lon="6.38367">
        <ele>2069.2</ele>
        <time>2020-08-18T13:01:34Z</time>
      </trkpt>
      <trkpt lat="45.0017" lon="6.38373">
        <ele>2070.2</ele>
        <time>2020-08-18T13:01:38Z</time>
      </trkpt>
      <trkpt lat="45.00163" lon="6.38381">
        <ele>2071</ele>
        <time>2020-08-18T13:01:41Z</time>
      </trkpt>
      <trkpt lat="45.00155" lon="6.38386">
        <ele>2072.3</ele>
        <time>2020-08-18T13:01:45Z</time>
      </trkpt>
      <trkpt lat="45.00145" lon="6.3839">
        <ele>2073.6</ele>
        <time>2020-08-18T13:01:49Z</time>
      </trkpt>
      <trkpt lat="45.00136" lon="6.38395">
        <ele>2074.8</ele>
        <time>2020-08-18T13:01:53Z</time>
      </trkpt>
      <trkpt lat="45.00127" lon="6.38399">
        <ele>2076.1</ele>
        <time>2020-08-18T13:01:57Z</time>
      </trkpt>
      <trkpt lat="45.00118" lon="6.38405">
        <ele>2077.1</ele>
        <time>2020-08-18T13:02:01Z</time>
      </trkpt>
      <trkpt lat="45.00108" lon="6.3841">
        <ele>2077.9</ele>
        <time>2020-08-18T13:02:05Z</time>
      </trkpt>
      <trkpt lat="45.00097" lon="6.38415">
        <ele>2078.7</ele>
        <time>2020-08-18T13:02:09Z</time>
      </trkpt>
      <trkpt lat="45.00087" lon="6.38416">
        <ele>2079.5</ele>
        <time>2020-08-18T13:02:13Z</time>
      </trkpt>
      <trkpt lat="45.00078" lon="6.3842">
        <ele>2080.2</ele>
        <time>2020-08-18T13:02:18Z</time>
      </trkpt>
      <trkpt lat="45.00069" lon="6.38424">
        <ele>2081.2</ele>
        <time>2020-08-18T13:02:30Z</time>
      </trkpt>
      <trkpt lat="45.00061" lon="6.38431">
        <ele>2081.3</ele>
        <time>2020-08-18T13:02:36Z</time>
      </trkpt>
      <trkpt lat="45.00054" lon="6.38441">
        <ele>2080.9</ele>
        <time>2020-08-18T13:02:43Z</time>
      </trkpt>
      <trkpt lat="45.00045" lon="6.3845">
        <ele>2080.3</ele>
        <time>2020-08-18T13:02:50Z</time>
      </trkpt>
      <trkpt lat="45.00037" lon="6.38457">
        <ele>2079.8</ele>
        <time>2020-08-18T13:02:57Z</time>
      </trkpt>
      <trkpt lat="45.0003" lon="6.38465">
        <ele>2079.2</ele>
        <time>2020-08-18T13:03:03Z</time>
      </trkpt>
      <trkpt lat="45.00021" lon="6.38469">
        <ele>2078.7</ele>
        <time>2020-08-18T13:03:08Z</time>
      </trkpt>
      <trkpt lat="45.00013" lon="6.38473">
        <ele>2078.1</ele>
        <time>2020-08-18T13:03:14Z</time>
      </trkpt>
      <trkpt lat="45.00004" lon="6.38478">
        <ele>2077.4</ele>
        <time>2020-08-18T13:03:21Z</time>
      </trkpt>
      <trkpt lat="44.99995" lon="6.38482">
        <ele>2076.6</ele>
        <time>2020-08-18T13:03:29Z</time>
      </trkpt>
      <trkpt lat="44.99985" lon="6.38484">
        <ele>2076</ele>
        <time>2020-08-18T13:03:37Z</time>
      </trkpt>
      <trkpt lat="44.99975" lon="6.38489">
        <ele>2075.4</ele>
        <time>2020-08-18T13:03:51Z</time>
      </trkpt>
      <trkpt lat="44.99964" lon="6.38495">
        <ele>2075.3</ele>
        <time>2020-08-18T13:03:55Z</time>
      </trkpt>
      <trkpt lat="44.99956" lon="6.38503">
        <ele>2075.3</ele>
        <time>2020-08-18T13:03:59Z</time>
      </trkpt>
      <trkpt lat="44.99948" lon="6.3851">
        <ele>2075.2</ele>
        <time>2020-08-18T13:04:03Z</time>
      </trkpt>
      <trkpt lat="44.99938" lon="6.38514">
        <ele>2075.2</ele>
        <time>2020-08-18T13:04:07Z</time>
      </trkpt>
      <trkpt lat="44.99931" lon="6.38522">
        <ele>2075.1</ele>
        <time>2020-08-18T13:04:13Z</time>
      </trkpt>
      <trkpt lat="44.99923" lon="6.38529">
        <ele>2075.1</ele>
        <time>2020-08-18T13:04:24Z</time>
      </trkpt>
      <trkpt lat="44.99915" lon="6.38536">
        <ele>2075.1</ele>
        <time>2020-08-18T13:04:32Z</time>
      </trkpt>
      <trkpt lat="44.99907" lon="6.38543">
        <ele>2075.1</ele>
        <time>2020-08-18T13:04:38Z</time>
      </trkpt>
      <trkpt lat="44.999" lon="6.38554">
        <ele>2075.1</ele>
        <time>2020-08-18T13:04:46Z</time>
      </trkpt>
      <trkpt lat="44.99895" lon="6.38566">
        <ele>2075.2</ele>
        <time>2020-08-18T13:04:53Z</time>
      </trkpt>
      <trkpt lat="44.9989" lon="6.38578">
        <ele>2075.2</ele>
        <time>2020-08-18T13:04:58Z</time>
      </trkpt>
      <trkpt lat="44.99883" lon="6.38588">
        <ele>2075.1</ele>
        <time>2020-08-18T13:05:02Z</time>
      </trkpt>
      <trkpt lat="44.99874" lon="6.38597">
        <ele>2075</ele>
        <time>2020-08-18T13:05:06Z</time>
      </trkpt>
      <trkpt lat="44.99864" lon="6.38601">
        <ele>2075</ele>
        <time>2020-08-18T13:05:11Z</time>
      </trkpt>
      <trkpt lat="44.99856" lon="6.38607">
        <ele>2074.9</ele>
        <time>2020-08-18T13:05:22Z</time>
      </trkpt>
      <trkpt lat="44.99847" lon="6.38621">
        <ele>2074.9</ele>
        <time>2020-08-18T13:05:29Z</time>
      </trkpt>
      <trkpt lat="44.99841" lon="6.38633">
        <ele>2074.9</ele>
        <time>2020-08-18T13:05:37Z</time>
      </trkpt>
      <trkpt lat="44.99833" lon="6.38639">
        <ele>2074.8</ele>
        <time>2020-08-18T13:05:44Z</time>
      </trkpt>
      <trkpt lat="44.99823" lon="6.38638">
        <ele>2074.8</ele>
        <time>2020-08-18T13:05:49Z</time>
      </trkpt>
      <trkpt lat="44.99814" lon="6.38643">
        <ele>2075.4</ele>
        <time>2020-08-18T13:06:09Z</time>
      </trkpt>
      <trkpt lat="44.99805" lon="6.38649">
        <ele>2075.6</ele>
        <time>2020-08-18T13:06:41Z</time>
      </trkpt>
      <trkpt lat="44.99796" lon="6.38653">
        <ele>2075.8</ele>
        <time>2020-08-18T13:06:48Z</time>
      </trkpt>
      <trkpt lat="44.99788" lon="6.38659">
        <ele>2076.1</ele>
        <time>2020-08-18T13:06:56Z</time>
      </trkpt>
      <trkpt lat="44.99779" lon="6.38665">
        <ele>2077.6</ele>
        <time>2020-08-18T13:07:25Z</time>
      </trkpt>
      <trkpt lat="44.9977" lon="6.3867">
        <ele>2077.8</ele>
        <time>2020-08-18T13:07:36Z</time>
      </trkpt>
      <trkpt lat="44.99762" lon="6.38678">
        <ele>2078</ele>
        <time>2020-08-18T13:07:43Z</time>
      </trkpt>
      <trkpt lat="44.99755" lon="6.38688">
        <ele>2079</ele>
        <time>2020-08-18T13:07:51Z</time>
      </trkpt>
      <trkpt lat="44.99749" lon="6.38698">
        <ele>2080.3</ele>
        <time>2020-08-18T13:07:59Z</time>
      </trkpt>
      <trkpt lat="44.99742" lon="6.38689">
        <ele>2083.4</ele>
        <time>2020-08-18T13:08:21Z</time>
      </trkpt>
      <trkpt lat="44.99734" lon="6.38696">
        <ele>2083.8</ele>
        <time>2020-08-18T13:08:29Z</time>
      </trkpt>
      <trkpt lat="44.99727" lon="6.38705">
        <ele>2084.8</ele>
        <time>2020-08-18T13:08:42Z</time>
      </trkpt>
      <trkpt lat="44.99719" lon="6.38714">
        <ele>2085.4</ele>
        <time>2020-08-18T13:08:46Z</time>
      </trkpt>
      <trkpt lat="44.99714" lon="6.38725">
        <ele>2086.5</ele>
        <time>2020-08-18T13:08:51Z</time>
      </trkpt>
      <trkpt lat="44.99707" lon="6.38732">
        <ele>2088.6</ele>
        <time>2020-08-18T13:09:00Z</time>
      </trkpt>
      <trkpt lat="44.99701" lon="6.38744">
        <ele>2090.3</ele>
        <time>2020-08-18T13:09:09Z</time>
      </trkpt>
      <trkpt lat="44.99692" lon="6.38748">
        <ele>2092.1</ele>
        <time>2020-08-18T13:09:18Z</time>
      </trkpt>
      <trkpt lat="44.99683" lon="6.38748">
        <ele>2093.7</ele>
        <time>2020-08-18T13:09:27Z</time>
      </trkpt>
      <trkpt lat="44.99674" lon="6.38745">
        <ele>2095.1</ele>
        <time>2020-08-18T13:09:34Z</time>
      </trkpt>
      <trkpt lat="44.99667" lon="6.38754">
        <ele>2096.5</ele>
        <time>2020-08-18T13:09:42Z</time>
      </trkpt>
      <trkpt lat="44.99658" lon="6.38761">
        <ele>2098.2</ele>
        <time>2020-08-18T13:09:52Z</time>
      </trkpt>
      <trkpt lat="44.99649" lon="6.38766">
        <ele>2100</ele>
        <time>2020-08-18T13:10:02Z</time>
      </trkpt>
      <trkpt lat="44.99641" lon="6.38774">
        <ele>2102</ele>
        <time>2020-08-18T13:10:14Z</time>
      </trkpt>
      <trkpt lat="44.99634" lon="6.38782">
        <ele>2103.4</ele>
        <time>2020-08-18T13:10:22Z</time>
      </trkpt>
      <trkpt lat="44.99624" lon="6.38786">
        <ele>2104.2</ele>
        <time>2020-08-18T13:10:30Z</time>
      </trkpt>
      <trkpt lat="44.99617" lon="6.38793">
        <ele>2105</ele>
        <time>2020-08-18T13:10:39Z</time>
      </trkpt>
      <trkpt lat="44.9961" lon="6.38802">
        <ele>2106.5</ele>
        <time>2020-08-18T13:10:50Z</time>
      </trkpt>
      <trkpt lat="44.996" lon="6.38805">
        <ele>2107.6</ele>
        <time>2020-08-18T13:10:58Z</time>
      </trkpt>
      <trkpt lat="44.99591" lon="6.38806">
        <ele>2108.6</ele>
        <time>2020-08-18T13:11:06Z</time>
      </trkpt>
      <trkpt lat="44.99582" lon="6.38805">
        <ele>2110.1</ele>
        <time>2020-08-18T13:11:13Z</time>
      </trkpt>
      <trkpt lat="44.99574" lon="6.38812">
        <ele>2111.7</ele>
        <time>2020-08-18T13:11:22Z</time>
      </trkpt>
      <trkpt lat="44.99571" lon="6.38825">
        <ele>2112.6</ele>
        <time>2020-08-18T13:11:30Z</time>
      </trkpt>
      <trkpt lat="44.99562" lon="6.38828">
        <ele>2114</ele>
        <time>2020-08-18T13:11:48Z</time>
      </trkpt>
      <trkpt lat="44.99552" lon="6.38831">
        <ele>2114.3</ele>
        <time>2020-08-18T13:11:56Z</time>
      </trkpt>
      <trkpt lat="44.99542" lon="6.3883">
        <ele>2115.2</ele>
        <time>2020-08-18T13:12:07Z</time>
      </trkpt>
      <trkpt lat="44.99534" lon="6.38836">
        <ele>2117.2</ele>
        <time>2020-08-18T13:12:16Z</time>
      </trkpt>
      <trkpt lat="44.99528" lon="6.38846">
        <ele>2118.4</ele>
        <time>2020-08-18T13:12:22Z</time>
      </trkpt>
      <trkpt lat="44.99519" lon="6.38846">
        <ele>2119.7</ele>
        <time>2020-08-18T13:12:29Z</time>
      </trkpt>
      <trkpt lat="44.9951" lon="6.3884">
        <ele>2121.3</ele>
        <time>2020-08-18T13:12:36Z</time>
      </trkpt>
      <trkpt lat="44.995" lon="6.38839">
        <ele>2122.8</ele>
        <time>2020-08-18T13:12:44Z</time>
      </trkpt>
      <trkpt lat="44.99492" lon="6.38847">
        <ele>2124.1</ele>
        <time>2020-08-18T13:12:51Z</time>
      </trkpt>
      <trkpt lat="44.99482" lon="6.38848">
        <ele>2125.1</ele>
        <time>2020-08-18T13:12:59Z</time>
      </trkpt>
      <trkpt lat="44.99474" lon="6.38853">
        <ele>2125.6</ele>
        <time>2020-08-18T13:13:05Z</time>
      </trkpt>
      <trkpt lat="44.99464" lon="6.38852">
        <ele>2126.4</ele>
        <time>2020-08-18T13:13:13Z</time>
      </trkpt>
      <trkpt lat="44.99455" lon="6.38857">
        <ele>2127.4</ele>
        <time>2020-08-18T13:13:22Z</time>
      </trkpt>
      <trkpt lat="44.99447" lon="6.38866">
        <ele>2128.1</ele>
        <time>2020-08-18T13:13:29Z</time>
      </trkpt>
      <trkpt lat="44.99438" lon="6.38871">
        <ele>2128.9</ele>
        <time>2020-08-18T13:13:36Z</time>
      </trkpt>
      <trkpt lat="44.99429" lon="6.3887">
        <ele>2129.9</ele>
        <time>2020-08-18T13:13:43Z</time>
      </trkpt>
      <trkpt lat="44.9942" lon="6.38874">
        <ele>2130.8</ele>
        <time>2020-08-18T13:13:50Z</time>
      </trkpt>
      <trkpt lat="44.99412" lon="6.38882">
        <ele>2131.7</ele>
        <time>2020-08-18T13:13:58Z</time>
      </trkpt>
      <trkpt lat="44.99406" lon="6.38893">
        <ele>2131.9</ele>
        <time>2020-08-18T13:14:07Z</time>
      </trkpt>
      <trkpt lat="44.99396" lon="6.38894">
        <ele>2131.9</ele>
        <time>2020-08-18T13:14:14Z</time>
      </trkpt>
      <trkpt lat="44.99388" lon="6.38901">
        <ele>2131.9</ele>
        <time>2020-08-18T13:14:21Z</time>
      </trkpt>
      <trkpt lat="44.99378" lon="6.38906">
        <ele>2131.9</ele>
        <time>2020-08-18T13:14:32Z</time>
      </trkpt>
      <trkpt lat="44.9937" lon="6.38914">
        <ele>2132</ele>
        <time>2020-08-18T13:14:40Z</time>
      </trkpt>
      <trkpt lat="44.99362" lon="6.38922">
        <ele>2132.2</ele>
        <time>2020-08-18T13:14:51Z</time>
      </trkpt>
      <trkpt lat="44.99353" lon="6.38916">
        <ele>2132.9</ele>
        <time>2020-08-18T13:14:57Z</time>
      </trkpt>
      <trkpt lat="44.99343" lon="6.38916">
        <ele>2134.3</ele>
        <time>2020-08-18T13:15:04Z</time>
      </trkpt>
      <trkpt lat="44.99334" lon="6.38922">
        <ele>2135.7</ele>
        <time>2020-08-18T13:15:12Z</time>
      </trkpt>
      <trkpt lat="44.99325" lon="6.38925">
        <ele>2136.5</ele>
        <time>2020-08-18T13:15:19Z</time>
      </trkpt>
      <trkpt lat="44.99315" lon="6.38924">
        <ele>2137.1</ele>
        <time>2020-08-18T13:15:25Z</time>
      </trkpt>
      <trkpt lat="44.9931" lon="6.38935">
        <ele>2137.7</ele>
        <time>2020-08-18T13:15:30Z</time>
      </trkpt>
      <trkpt lat="44.99303" lon="6.38945">
        <ele>2138.5</ele>
        <time>2020-08-18T13:15:38Z</time>
      </trkpt>
      <trkpt lat="44.99295" lon="6.38951">
        <ele>2139.2</ele>
        <time>2020-08-18T13:15:45Z</time>
      </trkpt>
      <trkpt lat="44.99292" lon="6.38964">
        <ele>2139.6</ele>
        <time>2020-08-18T13:15:51Z</time>
      </trkpt>
      <trkpt lat="44.99288" lon="6.38977">
        <ele>2140.2</ele>
        <time>2020-08-18T13:15:59Z</time>
      </trkpt>
      <trkpt lat="44.99283" lon="6.38989">
        <ele>2141.2</ele>
        <time>2020-08-18T13:16:10Z</time>
      </trkpt>
      <trkpt lat="44.99281" lon="6.39001">
        <ele>2142.2</ele>
        <time>2020-08-18T13:16:18Z</time>
      </trkpt>
      <trkpt lat="44.99279" lon="6.39015">
        <ele>2147.1</ele>
        <time>2020-08-18T13:17:07Z</time>
      </trkpt>
      <trkpt lat="44.99277" lon="6.39001">
        <ele>2148.3</ele>
        <time>2020-08-18T13:17:36Z</time>
      </trkpt>
      <trkpt lat="44.99277" lon="6.38988">
        <ele>2147.9</ele>
        <time>2020-08-18T13:17:48Z</time>
      </trkpt>
      <trkpt lat="44.99278" lon="6.38975">
        <ele>2146.9</ele>
        <time>2020-08-18T13:17:57Z</time>
      </trkpt>
      <trkpt lat="44.99271" lon="6.38987">
        <ele>2145.6</ele>
        <time>2020-08-18T13:18:19Z</time>
      </trkpt>
      <trkpt lat="44.99266" lon="6.38997">
        <ele>2145.6</ele>
        <time>2020-08-18T13:18:25Z</time>
      </trkpt>
      <trkpt lat="44.99261" lon="6.39009">
        <ele>2146.1</ele>
        <time>2020-08-18T13:18:32Z</time>
      </trkpt>
      <trkpt lat="44.99254" lon="6.39019">
        <ele>2146.6</ele>
        <time>2020-08-18T13:18:39Z</time>
      </trkpt>
      <trkpt lat="44.99245" lon="6.39028">
        <ele>2147.3</ele>
        <time>2020-08-18T13:18:45Z</time>
      </trkpt>
      <trkpt lat="44.99238" lon="6.39038">
        <ele>2148.3</ele>
        <time>2020-08-18T13:18:53Z</time>
      </trkpt>
      <trkpt lat="44.99233" lon="6.39048">
        <ele>2148.9</ele>
        <time>2020-08-18T13:18:59Z</time>
      </trkpt>
      <trkpt lat="44.99225" lon="6.39056">
        <ele>2149.5</ele>
        <time>2020-08-18T13:19:05Z</time>
      </trkpt>
      <trkpt lat="44.99216" lon="6.39062">
        <ele>2150.7</ele>
        <time>2020-08-18T13:19:14Z</time>
      </trkpt>
      <trkpt lat="44.99208" lon="6.39071">
        <ele>2151.3</ele>
        <time>2020-08-18T13:19:22Z</time>
      </trkpt>
      <trkpt lat="44.99201" lon="6.39079">
        <ele>2151.8</ele>
        <time>2020-08-18T13:19:30Z</time>
      </trkpt>
      <trkpt lat="44.99195" lon="6.39088">
        <ele>2152.3</ele>
        <time>2020-08-18T13:19:37Z</time>
      </trkpt>
      <trkpt lat="44.99184" lon="6.39089">
        <ele>2153.3</ele>
        <time>2020-08-18T13:19:45Z</time>
      </trkpt>
      <trkpt lat="44.99174" lon="6.3909">
        <ele>2154</ele>
        <time>2020-08-18T13:19:52Z</time>
      </trkpt>
      <trkpt lat="44.99166" lon="6.39096">
        <ele>2155.2</ele>
        <time>2020-08-18T13:20:02Z</time>
      </trkpt>
      <trkpt lat="44.99159" lon="6.39106">
        <ele>2156.4</ele>
        <time>2020-08-18T13:20:11Z</time>
      </trkpt>
      <trkpt lat="44.99153" lon="6.39117">
        <ele>2157.1</ele>
        <time>2020-08-18T13:20:19Z</time>
      </trkpt>
      <trkpt lat="44.99146" lon="6.39125">
        <ele>2158.2</ele>
        <time>2020-08-18T13:20:32Z</time>
      </trkpt>
      <trkpt lat="44.99139" lon="6.39137">
        <ele>2158.6</ele>
        <time>2020-08-18T13:20:40Z</time>
      </trkpt>
      <trkpt lat="44.99131" lon="6.39146">
        <ele>2158.9</ele>
        <time>2020-08-18T13:20:47Z</time>
      </trkpt>
      <trkpt lat="44.99122" lon="6.39153">
        <ele>2159.2</ele>
        <time>2020-08-18T13:20:55Z</time>
      </trkpt>
      <trkpt lat="44.99112" lon="6.39152">
        <ele>2159.7</ele>
        <time>2020-08-18T13:21:01Z</time>
      </trkpt>
      <trkpt lat="44.99105" lon="6.3916">
        <ele>2160.3</ele>
        <time>2020-08-18T13:21:09Z</time>
      </trkpt>
      <trkpt lat="44.99096" lon="6.39167">
        <ele>2161.5</ele>
        <time>2020-08-18T13:21:22Z</time>
      </trkpt>
      <trkpt lat="44.99086" lon="6.39166">
        <ele>2162.5</ele>
        <time>2020-08-18T13:21:34Z</time>
      </trkpt>
      <trkpt lat="44.9908" lon="6.39177">
        <ele>2163.3</ele>
        <time>2020-08-18T13:21:41Z</time>
      </trkpt>
      <trkpt lat="44.99075" lon="6.39189">
        <ele>2164.3</ele>
        <time>2020-08-18T13:21:52Z</time>
      </trkpt>
      <trkpt lat="44.99067" lon="6.39195">
        <ele>2164.7</ele>
        <time>2020-08-18T13:21:58Z</time>
      </trkpt>
      <trkpt lat="44.9906" lon="6.39204">
        <ele>2165.3</ele>
        <time>2020-08-18T13:22:04Z</time>
      </trkpt>
      <trkpt lat="44.99051" lon="6.39203">
        <ele>2165.7</ele>
        <time>2020-08-18T13:22:10Z</time>
      </trkpt>
      <trkpt lat="44.99041" lon="6.39208">
        <ele>2166.1</ele>
        <time>2020-08-18T13:22:16Z</time>
      </trkpt>
      <trkpt lat="44.99031" lon="6.39211">
        <ele>2166.4</ele>
        <time>2020-08-18T13:22:23Z</time>
      </trkpt>
      <trkpt lat="44.99022" lon="6.39214">
        <ele>2166.6</ele>
        <time>2020-08-18T13:22:29Z</time>
      </trkpt>
      <trkpt lat="44.99016" lon="6.39226">
        <ele>2166.9</ele>
        <time>2020-08-18T13:22:37Z</time>
      </trkpt>
      <trkpt lat="44.99013" lon="6.39239">
        <ele>2167.4</ele>
        <time>2020-08-18T13:22:41Z</time>
      </trkpt>
      <trkpt lat="44.99009" lon="6.39254">
        <ele>2168.9</ele>
        <time>2020-08-18T13:22:49Z</time>
      </trkpt>
      <trkpt lat="44.99008" lon="6.39268">
        <ele>2169.6</ele>
        <time>2020-08-18T13:22:54Z</time>
      </trkpt>
      <trkpt lat="44.99002" lon="6.39278">
        <ele>2170.1</ele>
        <time>2020-08-18T13:23:00Z</time>
      </trkpt>
      <trkpt lat="44.98996" lon="6.39289">
        <ele>2170.6</ele>
        <time>2020-08-18T13:23:07Z</time>
      </trkpt>
      <trkpt lat="44.98989" lon="6.393">
        <ele>2170.8</ele>
        <time>2020-08-18T13:23:13Z</time>
      </trkpt>
      <trkpt lat="44.98983" lon="6.3931">
        <ele>2171</ele>
        <time>2020-08-18T13:23:20Z</time>
      </trkpt>
      <trkpt lat="44.98974" lon="6.39318">
        <ele>2171.2</ele>
        <time>2020-08-18T13:23:27Z</time>
      </trkpt>
      <trkpt lat="44.98964" lon="6.39317">
        <ele>2171.4</ele>
        <time>2020-08-18T13:23:35Z</time>
      </trkpt>
      <trkpt lat="44.98957" lon="6.39326">
        <ele>2171.5</ele>
        <time>2020-08-18T13:23:42Z</time>
      </trkpt>
      <trkpt lat="44.98949" lon="6.39334">
        <ele>2171.7</ele>
        <time>2020-08-18T13:23:49Z</time>
      </trkpt>
      <trkpt lat="44.98941" lon="6.39343">
        <ele>2172.2</ele>
        <time>2020-08-18T13:23:58Z</time>
      </trkpt>
      <trkpt lat="44.98939" lon="6.39358">
        <ele>2172.5</ele>
        <time>2020-08-18T13:24:03Z</time>
      </trkpt>
      <trkpt lat="44.98932" lon="6.39367">
        <ele>2173.2</ele>
        <time>2020-08-18T13:24:10Z</time>
      </trkpt>
      <trkpt lat="44.98925" lon="6.39379">
        <ele>2173.7</ele>
        <time>2020-08-18T13:24:17Z</time>
      </trkpt>
      <trkpt lat="44.98921" lon="6.3939">
        <ele>2174.1</ele>
        <time>2020-08-18T13:24:23Z</time>
      </trkpt>
      <trkpt lat="44.98911" lon="6.39396">
        <ele>2174.8</ele>
        <time>2020-08-18T13:24:31Z</time>
      </trkpt>
      <trkpt lat="44.98905" lon="6.39406">
        <ele>2175.5</ele>
        <time>2020-08-18T13:24:39Z</time>
      </trkpt>
      <trkpt lat="44.989" lon="6.39418">
        <ele>2176.5</ele>
        <time>2020-08-18T13:24:47Z</time>
      </trkpt>
      <trkpt lat="44.98891" lon="6.3942">
        <ele>2177</ele>
        <time>2020-08-18T13:24:53Z</time>
      </trkpt>
      <trkpt lat="44.98883" lon="6.39428">
        <ele>2177.6</ele>
        <time>2020-08-18T13:25:01Z</time>
      </trkpt>
      <trkpt lat="44.98875" lon="6.39435">
        <ele>2178.5</ele>
        <time>2020-08-18T13:25:11Z</time>
      </trkpt>
      <trkpt lat="44.98867" lon="6.39443">
        <ele>2179.3</ele>
        <time>2020-08-18T13:25:20Z</time>
      </trkpt>
      <trkpt lat="44.98859" lon="6.39453">
        <ele>2180.3</ele>
        <time>2020-08-18T13:25:28Z</time>
      </trkpt>
      <trkpt lat="44.98849" lon="6.39462">
        <ele>2181.1</ele>
        <time>2020-08-18T13:25:36Z</time>
      </trkpt>
      <trkpt lat="44.9884" lon="6.39466">
        <ele>2181.7</ele>
        <time>2020-08-18T13:25:42Z</time>
      </trkpt>
      <trkpt lat="44.98831" lon="6.39469">
        <ele>2182.2</ele>
        <time>2020-08-18T13:25:50Z</time>
      </trkpt>
      <trkpt lat="44.98822" lon="6.39475">
        <ele>2182.6</ele>
        <time>2020-08-18T13:25:55Z</time>
      </trkpt>
      <trkpt lat="44.98815" lon="6.39483">
        <ele>2183</ele>
        <time>2020-08-18T13:26:01Z</time>
      </trkpt>
      <trkpt lat="44.98806" lon="6.39493">
        <ele>2183.3</ele>
        <time>2020-08-18T13:26:06Z</time>
      </trkpt>
      <trkpt lat="44.98805" lon="6.39505">
        <ele>2183.5</ele>
        <time>2020-08-18T13:26:12Z</time>
      </trkpt>
      <trkpt lat="44.98798" lon="6.39516">
        <ele>2184</ele>
        <time>2020-08-18T13:26:20Z</time>
      </trkpt>
      <trkpt lat="44.9879" lon="6.39523">
        <ele>2185</ele>
        <time>2020-08-18T13:26:31Z</time>
      </trkpt>
      <trkpt lat="44.9878" lon="6.39521">
        <ele>2185.7</ele>
        <time>2020-08-18T13:26:40Z</time>
      </trkpt>
      <trkpt lat="44.98781" lon="6.39535">
        <ele>2186.9</ele>
        <time>2020-08-18T13:27:02Z</time>
      </trkpt>
      <trkpt lat="44.98779" lon="6.39549">
        <ele>2188.3</ele>
        <time>2020-08-18T13:27:12Z</time>
      </trkpt>
      <trkpt lat="44.9877" lon="6.39547">
        <ele>2189.2</ele>
        <time>2020-08-18T13:27:24Z</time>
      </trkpt>
      <trkpt lat="44.98761" lon="6.39545">
        <ele>2189.7</ele>
        <time>2020-08-18T13:27:33Z</time>
      </trkpt>
      <trkpt lat="44.98753" lon="6.39555">
        <ele>2190.1</ele>
        <time>2020-08-18T13:27:44Z</time>
      </trkpt>
      <trkpt lat="44.98745" lon="6.39562">
        <ele>2190.3</ele>
        <time>2020-08-18T13:27:54Z</time>
      </trkpt>
      <trkpt lat="44.98737" lon="6.39569">
        <ele>2190.4</ele>
        <time>2020-08-18T13:28:04Z</time>
      </trkpt>
      <trkpt lat="44.9873" lon="6.39579">
        <ele>2190.4</ele>
        <time>2020-08-18T13:28:11Z</time>
      </trkpt>
      <trkpt lat="44.98724" lon="6.39589">
        <ele>2190.4</ele>
        <time>2020-08-18T13:28:18Z</time>
      </trkpt>
      <trkpt lat="44.98716" lon="6.39597">
        <ele>2190.6</ele>
        <time>2020-08-18T13:28:35Z</time>
      </trkpt>
      <trkpt lat="44.98707" lon="6.39605">
        <ele>2190.7</ele>
        <time>2020-08-18T13:28:43Z</time>
      </trkpt>
      <trkpt lat="44.98697" lon="6.3961">
        <ele>2190.7</ele>
        <time>2020-08-18T13:28:50Z</time>
      </trkpt>
      <trkpt lat="44.98688" lon="6.39612">
        <ele>2190.9</ele>
        <time>2020-08-18T13:28:56Z</time>
      </trkpt>
      <trkpt lat="44.98679" lon="6.3962">
        <ele>2191.5</ele>
        <time>2020-08-18T13:29:05Z</time>
      </trkpt>
      <trkpt lat="44.98669" lon="6.39619">
        <ele>2192</ele>
        <time>2020-08-18T13:29:12Z</time>
      </trkpt>
      <trkpt lat="44.98664" lon="6.3963">
        <ele>2192.8</ele>
        <time>2020-08-18T13:29:19Z</time>
      </trkpt>
      <trkpt lat="44.98658" lon="6.39642">
        <ele>2193.5</ele>
        <time>2020-08-18T13:29:26Z</time>
      </trkpt>
      <trkpt lat="44.98653" lon="6.39655">
        <ele>2194.1</ele>
        <time>2020-08-18T13:29:33Z</time>
      </trkpt>
      <trkpt lat="44.98644" lon="6.39659">
        <ele>2194.5</ele>
        <time>2020-08-18T13:29:40Z</time>
      </trkpt>
      <trkpt lat="44.98636" lon="6.39663">
        <ele>2194.8</ele>
        <time>2020-08-18T13:29:47Z</time>
      </trkpt>
      <trkpt lat="44.98631" lon="6.39675">
        <ele>2195.5</ele>
        <time>2020-08-18T13:29:55Z</time>
      </trkpt>
      <trkpt lat="44.98623" lon="6.39683">
        <ele>2196.5</ele>
        <time>2020-08-18T13:30:04Z</time>
      </trkpt>
      <trkpt lat="44.98622" lon="6.39696">
        <ele>2197.3</ele>
        <time>2020-08-18T13:30:10Z</time>
      </trkpt>
      <trkpt lat="44.98615" lon="6.39707">
        <ele>2198.2</ele>
        <time>2020-08-18T13:30:20Z</time>
      </trkpt>
      <trkpt lat="44.98609" lon="6.39717">
        <ele>2198.7</ele>
        <time>2020-08-18T13:30:28Z</time>
      </trkpt>
      <trkpt lat="44.98602" lon="6.39727">
        <ele>2199.4</ele>
        <time>2020-08-18T13:30:36Z</time>
      </trkpt>
      <trkpt lat="44.98592" lon="6.39724">
        <ele>2199.9</ele>
        <time>2020-08-18T13:30:41Z</time>
      </trkpt>
      <trkpt lat="44.98583" lon="6.39728">
        <ele>2200.6</ele>
        <time>2020-08-18T13:30:47Z</time>
      </trkpt>
      <trkpt lat="44.98576" lon="6.39739">
        <ele>2201.5</ele>
        <time>2020-08-18T13:30:55Z</time>
      </trkpt>
      <trkpt lat="44.98572" lon="6.3975">
        <ele>2202</ele>
        <time>2020-08-18T13:31:02Z</time>
      </trkpt>
      <trkpt lat="44.98568" lon="6.39763">
        <ele>2202.8</ele>
        <time>2020-08-18T13:31:11Z</time>
      </trkpt>
      <trkpt lat="44.98559" lon="6.39765">
        <ele>2203.4</ele>
        <time>2020-08-18T13:31:17Z</time>
      </trkpt>
      <trkpt lat="44.9855" lon="6.3977">
        <ele>2204.4</ele>
        <time>2020-08-18T13:31:25Z</time>
      </trkpt>
      <trkpt lat="44.98542" lon="6.39778">
        <ele>2205</ele>
        <time>2020-08-18T13:31:32Z</time>
      </trkpt>
      <trkpt lat="44.98532" lon="6.39784">
        <ele>2206.2</ele>
        <time>2020-08-18T13:31:41Z</time>
      </trkpt>
      <trkpt lat="44.98524" lon="6.39789">
        <ele>2207</ele>
        <time>2020-08-18T13:31:48Z</time>
      </trkpt>
      <trkpt lat="44.98518" lon="6.39801">
        <ele>2207.8</ele>
        <time>2020-08-18T13:31:55Z</time>
      </trkpt>
      <trkpt lat="44.98512" lon="6.39811">
        <ele>2208.7</ele>
        <time>2020-08-18T13:32:03Z</time>
      </trkpt>
      <trkpt lat="44.98509" lon="6.39824">
        <ele>2209.4</ele>
        <time>2020-08-18T13:32:11Z</time>
      </trkpt>
      <trkpt lat="44.98511" lon="6.39811">
        <ele>2211.2</ele>
        <time>2020-08-18T13:32:56Z</time>
      </trkpt>
      <trkpt lat="44.98508" lon="6.39826">
        <ele>2211</ele>
        <time>2020-08-18T13:33:29Z</time>
      </trkpt>
      <trkpt lat="44.98501" lon="6.39838">
        <ele>2211.2</ele>
        <time>2020-08-18T13:33:33Z</time>
      </trkpt>
      <trkpt lat="44.98497" lon="6.3985">
        <ele>2211.5</ele>
        <time>2020-08-18T13:33:38Z</time>
      </trkpt>
      <trkpt lat="44.98489" lon="6.39857">
        <ele>2212.1</ele>
        <time>2020-08-18T13:33:44Z</time>
      </trkpt>
      <trkpt lat="44.9848" lon="6.39864">
        <ele>2212.7</ele>
        <time>2020-08-18T13:33:52Z</time>
      </trkpt>
      <trkpt lat="44.98475" lon="6.39875">
        <ele>2213</ele>
        <time>2020-08-18T13:33:59Z</time>
      </trkpt>
      <trkpt lat="44.98468" lon="6.39884">
        <ele>2213.4</ele>
        <time>2020-08-18T13:34:06Z</time>
      </trkpt>
      <trkpt lat="44.98459" lon="6.39889">
        <ele>2213.6</ele>
        <time>2020-08-18T13:34:13Z</time>
      </trkpt>
      <trkpt lat="44.98453" lon="6.39899">
        <ele>2213.9</ele>
        <time>2020-08-18T13:34:20Z</time>
      </trkpt>
      <trkpt lat="44.9845" lon="6.39912">
        <ele>2214.2</ele>
        <time>2020-08-18T13:34:27Z</time>
      </trkpt>
      <trkpt lat="44.98444" lon="6.39924">
        <ele>2214.9</ele>
        <time>2020-08-18T13:34:36Z</time>
      </trkpt>
      <trkpt lat="44.9844" lon="6.39935">
        <ele>2215.5</ele>
        <time>2020-08-18T13:34:45Z</time>
      </trkpt>
      <trkpt lat="44.9843" lon="6.39932">
        <ele>2216.1</ele>
        <time>2020-08-18T13:34:55Z</time>
      </trkpt>
      <trkpt lat="44.98423" lon="6.39939">
        <ele>2216.7</ele>
        <time>2020-08-18T13:35:08Z</time>
      </trkpt>
      <trkpt lat="44.98415" lon="6.39951">
        <ele>2217.4</ele>
        <time>2020-08-18T13:35:26Z</time>
      </trkpt>
      <trkpt lat="44.98407" lon="6.39957">
        <ele>2217.9</ele>
        <time>2020-08-18T13:35:34Z</time>
      </trkpt>
      <trkpt lat="44.984" lon="6.39966">
        <ele>2218.5</ele>
        <time>2020-08-18T13:35:44Z</time>
      </trkpt>
      <trkpt lat="44.98393" lon="6.39975">
        <ele>2219.3</ele>
        <time>2020-08-18T13:35:53Z</time>
      </trkpt>
      <trkpt lat="44.98385" lon="6.39982">
        <ele>2220.1</ele>
        <time>2020-08-18T13:36:00Z</time>
      </trkpt>
      <trkpt lat="44.98381" lon="6.39993">
        <ele>2221.2</ele>
        <time>2020-08-18T13:36:08Z</time>
      </trkpt>
      <trkpt lat="44.98372" lon="6.39997">
        <ele>2222</ele>
        <time>2020-08-18T13:36:18Z</time>
      </trkpt>
      <trkpt lat="44.98367" lon="6.40008">
        <ele>2222.6</ele>
        <time>2020-08-18T13:36:27Z</time>
      </trkpt>
      <trkpt lat="44.98362" lon="6.40019">
        <ele>2223.1</ele>
        <time>2020-08-18T13:36:34Z</time>
      </trkpt>
      <trkpt lat="44.98356" lon="6.4003">
        <ele>2223.7</ele>
        <time>2020-08-18T13:36:43Z</time>
      </trkpt>
      <trkpt lat="44.9835" lon="6.40041">
        <ele>2224.2</ele>
        <time>2020-08-18T13:36:51Z</time>
      </trkpt>
      <trkpt lat="44.98342" lon="6.40046">
        <ele>2224.7</ele>
        <time>2020-08-18T13:37:05Z</time>
      </trkpt>
      <trkpt lat="44.98334" lon="6.40055">
        <ele>2225</ele>
        <time>2020-08-18T13:37:14Z</time>
      </trkpt>
      <trkpt lat="44.9833" lon="6.40068">
        <ele>2225.1</ele>
        <time>2020-08-18T13:37:21Z</time>
      </trkpt>
      <trkpt lat="44.98325" lon="6.40079">
        <ele>2225.3</ele>
        <time>2020-08-18T13:37:28Z</time>
      </trkpt>
      <trkpt lat="44.98322" lon="6.40091">
        <ele>2225.6</ele>
        <time>2020-08-18T13:37:34Z</time>
      </trkpt>
      <trkpt lat="44.98316" lon="6.40102">
        <ele>2226.1</ele>
        <time>2020-08-18T13:37:40Z</time>
      </trkpt>
      <trkpt lat="44.9831" lon="6.40113">
        <ele>2226.9</ele>
        <time>2020-08-18T13:37:49Z</time>
      </trkpt>
      <trkpt lat="44.98303" lon="6.40122">
        <ele>2227.7</ele>
        <time>2020-08-18T13:37:57Z</time>
      </trkpt>
      <trkpt lat="44.98294" lon="6.40125">
        <ele>2228.3</ele>
        <time>2020-08-18T13:38:05Z</time>
      </trkpt>
      <trkpt lat="44.98287" lon="6.40134">
        <ele>2228.8</ele>
        <time>2020-08-18T13:38:13Z</time>
      </trkpt>
      <trkpt lat="44.9828" lon="6.40144">
        <ele>2229.4</ele>
        <time>2020-08-18T13:38:22Z</time>
      </trkpt>
      <trkpt lat="44.98274" lon="6.40154">
        <ele>2229.7</ele>
        <time>2020-08-18T13:38:29Z</time>
      </trkpt>
      <trkpt lat="44.98267" lon="6.40162">
        <ele>2229.9</ele>
        <time>2020-08-18T13:38:35Z</time>
      </trkpt>
      <trkpt lat="44.98259" lon="6.40171">
        <ele>2230.4</ele>
        <time>2020-08-18T13:38:43Z</time>
      </trkpt>
      <trkpt lat="44.98252" lon="6.40181">
        <ele>2230.8</ele>
        <time>2020-08-18T13:38:50Z</time>
      </trkpt>
      <trkpt lat="44.98244" lon="6.40188">
        <ele>2231.2</ele>
        <time>2020-08-18T13:38:58Z</time>
      </trkpt>
      <trkpt lat="44.98235" lon="6.40195">
        <ele>2232</ele>
        <time>2020-08-18T13:39:07Z</time>
      </trkpt>
      <trkpt lat="44.98231" lon="6.40207">
        <ele>2233</ele>
        <time>2020-08-18T13:39:20Z</time>
      </trkpt>
      <trkpt lat="44.98224" lon="6.40217">
        <ele>2233.2</ele>
        <time>2020-08-18T13:39:27Z</time>
      </trkpt>
      <trkpt lat="44.98217" lon="6.40227">
        <ele>2233.4</ele>
        <time>2020-08-18T13:39:33Z</time>
      </trkpt>
      <trkpt lat="44.98208" lon="6.4023">
        <ele>2233.9</ele>
        <time>2020-08-18T13:39:39Z</time>
      </trkpt>
      <trkpt lat="44.98201" lon="6.40238">
        <ele>2234.6</ele>
        <time>2020-08-18T13:39:47Z</time>
      </trkpt>
      <trkpt lat="44.98192" lon="6.40243">
        <ele>2235.1</ele>
        <time>2020-08-18T13:39:55Z</time>
      </trkpt>
      <trkpt lat="44.98186" lon="6.40254">
        <ele>2235.5</ele>
        <time>2020-08-18T13:40:03Z</time>
      </trkpt>
      <trkpt lat="44.98181" lon="6.40266">
        <ele>2236.1</ele>
        <time>2020-08-18T13:40:11Z</time>
      </trkpt>
      <trkpt lat="44.98172" lon="6.40271">
        <ele>2236.7</ele>
        <time>2020-08-18T13:40:18Z</time>
      </trkpt>
      <trkpt lat="44.98166" lon="6.40281">
        <ele>2237.1</ele>
        <time>2020-08-18T13:40:26Z</time>
      </trkpt>
      <trkpt lat="44.98159" lon="6.40292">
        <ele>2237.7</ele>
        <time>2020-08-18T13:40:38Z</time>
      </trkpt>
      <trkpt lat="44.9815" lon="6.40295">
        <ele>2238.3</ele>
        <time>2020-08-18T13:40:46Z</time>
      </trkpt>
      <trkpt lat="44.98143" lon="6.40304">
        <ele>2238.8</ele>
        <time>2020-08-18T13:40:53Z</time>
      </trkpt>
      <trkpt lat="44.98137" lon="6.40315">
        <ele>2239.3</ele>
        <time>2020-08-18T13:41:01Z</time>
      </trkpt>
      <trkpt lat="44.98132" lon="6.40328">
        <ele>2239.7</ele>
        <time>2020-08-18T13:41:10Z</time>
      </trkpt>
      <trkpt lat="44.98128" lon="6.40341">
        <ele>2240.1</ele>
        <time>2020-08-18T13:41:17Z</time>
      </trkpt>
      <trkpt lat="44.98123" lon="6.40353">
        <ele>2240.6</ele>
        <time>2020-08-18T13:41:27Z</time>
      </trkpt>
      <trkpt lat="44.98117" lon="6.40363">
        <ele>2241.1</ele>
        <time>2020-08-18T13:41:34Z</time>
      </trkpt>
      <trkpt lat="44.98111" lon="6.40375">
        <ele>2241.6</ele>
        <time>2020-08-18T13:41:42Z</time>
      </trkpt>
      <trkpt lat="44.98107" lon="6.40387">
        <ele>2242.1</ele>
        <time>2020-08-18T13:41:50Z</time>
      </trkpt>
      <trkpt lat="44.98102" lon="6.40399">
        <ele>2242.4</ele>
        <time>2020-08-18T13:41:57Z</time>
      </trkpt>
      <trkpt lat="44.98095" lon="6.4041">
        <ele>2242.8</ele>
        <time>2020-08-18T13:42:05Z</time>
      </trkpt>
      <trkpt lat="44.9809" lon="6.40421">
        <ele>2243.3</ele>
        <time>2020-08-18T13:42:12Z</time>
      </trkpt>
      <trkpt lat="44.98083" lon="6.40431">
        <ele>2243.6</ele>
        <time>2020-08-18T13:42:19Z</time>
      </trkpt>
      <trkpt lat="44.98075" lon="6.40437">
        <ele>2244.1</ele>
        <time>2020-08-18T13:42:26Z</time>
      </trkpt>
      <trkpt lat="44.98067" lon="6.40442">
        <ele>2244.5</ele>
        <time>2020-08-18T13:42:33Z</time>
      </trkpt>
      <trkpt lat="44.9806" lon="6.40452">
        <ele>2245.2</ele>
        <time>2020-08-18T13:42:43Z</time>
      </trkpt>
      <trkpt lat="44.98056" lon="6.40465">
        <ele>2246</ele>
        <time>2020-08-18T13:42:52Z</time>
      </trkpt>
      <trkpt lat="44.9805" lon="6.40476">
        <ele>2246.7</ele>
        <time>2020-08-18T13:43:01Z</time>
      </trkpt>
      <trkpt lat="44.98044" lon="6.40486">
        <ele>2247.2</ele>
        <time>2020-08-18T13:43:10Z</time>
      </trkpt>
      <trkpt lat="44.98037" lon="6.40495">
        <ele>2247.6</ele>
        <time>2020-08-18T13:43:19Z</time>
      </trkpt>
      <trkpt lat="44.98029" lon="6.40502">
        <ele>2248.1</ele>
        <time>2020-08-18T13:43:30Z</time>
      </trkpt>
      <trkpt lat="44.9802" lon="6.40505">
        <ele>2249</ele>
        <time>2020-08-18T13:43:41Z</time>
      </trkpt>
      <trkpt lat="44.98011" lon="6.40509">
        <ele>2250.5</ele>
        <time>2020-08-18T13:43:52Z</time>
      </trkpt>
      <trkpt lat="44.98002" lon="6.40517">
        <ele>2251.8</ele>
        <time>2020-08-18T13:44:03Z</time>
      </trkpt>
      <trkpt lat="44.97993" lon="6.40521">
        <ele>2252.6</ele>
        <time>2020-08-18T13:44:13Z</time>
      </trkpt>
      <trkpt lat="44.97986" lon="6.4053">
        <ele>2253.2</ele>
        <time>2020-08-18T13:44:20Z</time>
      </trkpt>
      <trkpt lat="44.97977" lon="6.40534">
        <ele>2254.1</ele>
        <time>2020-08-18T13:44:29Z</time>
      </trkpt>
      <trkpt lat="44.97969" lon="6.40542">
        <ele>2254.9</ele>
        <time>2020-08-18T13:44:36Z</time>
      </trkpt>
      <trkpt lat="44.9796" lon="6.40547">
        <ele>2255.8</ele>
        <time>2020-08-18T13:44:43Z</time>
      </trkpt>
      <trkpt lat="44.97953" lon="6.40553">
        <ele>2257.2</ele>
        <time>2020-08-18T13:44:53Z</time>
      </trkpt>
      <trkpt lat="44.97945" lon="6.4056">
        <ele>2259.1</ele>
        <time>2020-08-18T13:45:02Z</time>
      </trkpt>
      <trkpt lat="44.97936" lon="6.40557">
        <ele>2261.5</ele>
        <time>2020-08-18T13:45:11Z</time>
      </trkpt>
      <trkpt lat="44.97927" lon="6.40563">
        <ele>2263.5</ele>
        <time>2020-08-18T13:45:19Z</time>
      </trkpt>
      <trkpt lat="44.97919" lon="6.4057">
        <ele>2264.8</ele>
        <time>2020-08-18T13:45:26Z</time>
      </trkpt>
      <trkpt lat="44.9791" lon="6.40574">
        <ele>2266.3</ele>
        <time>2020-08-18T13:45:34Z</time>
      </trkpt>
      <trkpt lat="44.97901" lon="6.4058">
        <ele>2268.5</ele>
        <time>2020-08-18T13:45:45Z</time>
      </trkpt>
      <trkpt lat="44.97894" lon="6.40588">
        <ele>2271.2</ele>
        <time>2020-08-18T13:45:55Z</time>
      </trkpt>
      <trkpt lat="44.97887" lon="6.40599">
        <ele>2273.8</ele>
        <time>2020-08-18T13:46:05Z</time>
      </trkpt>
      <trkpt lat="44.97879" lon="6.40603">
        <ele>2276.7</ele>
        <time>2020-08-18T13:46:16Z</time>
      </trkpt>
      <trkpt lat="44.9787" lon="6.40608">
        <ele>2281.2</ele>
        <time>2020-08-18T13:47:03Z</time>
      </trkpt>
      <trkpt lat="44.97861" lon="6.40608">
        <ele>2282.5</ele>
        <time>2020-08-18T13:47:12Z</time>
      </trkpt>
      <trkpt lat="44.97851" lon="6.4061">
        <ele>2286</ele>
        <time>2020-08-18T13:47:29Z</time>
      </trkpt>
      <trkpt lat="44.97842" lon="6.40617">
        <ele>2288</ele>
        <time>2020-08-18T13:47:38Z</time>
      </trkpt>
      <trkpt lat="44.97836" lon="6.40626">
        <ele>2290.4</ele>
        <time>2020-08-18T13:47:48Z</time>
      </trkpt>
      <trkpt lat="44.97832" lon="6.40639">
        <ele>2294.7</ele>
        <time>2020-08-18T13:48:07Z</time>
      </trkpt>
      <trkpt lat="44.97825" lon="6.40648">
        <ele>2296.1</ele>
        <time>2020-08-18T13:48:15Z</time>
      </trkpt>
      <trkpt lat="44.97819" lon="6.40658">
        <ele>2298.8</ele>
        <time>2020-08-18T13:48:29Z</time>
      </trkpt>
      <trkpt lat="44.97811" lon="6.40665">
        <ele>2300.1</ele>
        <time>2020-08-18T13:48:38Z</time>
      </trkpt>
      <trkpt lat="44.97803" lon="6.40671">
        <ele>2301.5</ele>
        <time>2020-08-18T13:48:47Z</time>
      </trkpt>
      <trkpt lat="44.97794" lon="6.40673">
        <ele>2303.6</ele>
        <time>2020-08-18T13:48:57Z</time>
      </trkpt>
      <trkpt lat="44.97785" lon="6.40678">
        <ele>2305.6</ele>
        <time>2020-08-18T13:49:06Z</time>
      </trkpt>
      <trkpt lat="44.97778" lon="6.4069">
        <ele>2308.8</ele>
        <time>2020-08-18T13:49:27Z</time>
      </trkpt>
      <trkpt lat="44.97781" lon="6.40703">
        <ele>2309.8</ele>
        <time>2020-08-18T13:49:33Z</time>
      </trkpt>
      <trkpt lat="44.97776" lon="6.40714">
        <ele>2314</ele>
        <time>2020-08-18T13:49:56Z</time>
      </trkpt>
      <trkpt lat="44.97775" lon="6.40726">
        <ele>2317.7</ele>
        <time>2020-08-18T13:50:17Z</time>
      </trkpt>
      <trkpt lat="44.97778" lon="6.40741">
        <ele>2319.2</ele>
        <time>2020-08-18T13:50:27Z</time>
      </trkpt>
      <trkpt lat="44.97782" lon="6.40753">
        <ele>2320.3</ele>
        <time>2020-08-18T13:50:35Z</time>
      </trkpt>
      <trkpt lat="44.97781" lon="6.40766">
        <ele>2321.2</ele>
        <time>2020-08-18T13:50:42Z</time>
      </trkpt>
      <trkpt lat="44.97777" lon="6.40779">
        <ele>2323.3</ele>
        <time>2020-08-18T13:50:52Z</time>
      </trkpt>
      <trkpt lat="44.97769" lon="6.40785">
        <ele>2328.8</ele>
        <time>2020-08-18T13:51:26Z</time>
      </trkpt>
      <trkpt lat="44.97772" lon="6.40798">
        <ele>2330.2</ele>
        <time>2020-08-18T13:51:36Z</time>
      </trkpt>
      <trkpt lat="44.97775" lon="6.40812">
        <ele>2332.2</ele>
        <time>2020-08-18T13:51:52Z</time>
      </trkpt>
      <trkpt lat="44.97779" lon="6.40825">
        <ele>2333.2</ele>
        <time>2020-08-18T13:51:59Z</time>
      </trkpt>
      <trkpt lat="44.9778" lon="6.40837">
        <ele>2334.7</ele>
        <time>2020-08-18T13:52:08Z</time>
      </trkpt>
      <trkpt lat="44.97779" lon="6.40851">
        <ele>2337.2</ele>
        <time>2020-08-18T13:52:19Z</time>
      </trkpt>
      <trkpt lat="44.97782" lon="6.40864">
        <ele>2338.1</ele>
        <time>2020-08-18T13:52:25Z</time>
      </trkpt>
      <trkpt lat="44.97782" lon="6.40878">
        <ele>2338.8</ele>
        <time>2020-08-18T13:52:32Z</time>
      </trkpt>
      <trkpt lat="44.97782" lon="6.40891">
        <ele>2339.2</ele>
        <time>2020-08-18T13:52:38Z</time>
      </trkpt>
      <trkpt lat="44.97784" lon="6.40905">
        <ele>2339.5</ele>
        <time>2020-08-18T13:52:45Z</time>
      </trkpt>
      <trkpt lat="44.97784" lon="6.40918">
        <ele>2340</ele>
        <time>2020-08-18T13:53:15Z</time>
      </trkpt>
      <trkpt lat="44.97788" lon="6.40929">
        <ele>2340.8</ele>
        <time>2020-08-18T13:55:30Z</time>
      </trkpt>
      <trkpt lat="44.97787" lon="6.40942">
        <ele>2342.7</ele>
        <time>2020-08-18T14:01:44Z</time>
      </trkpt>
      <trkpt lat="44.97792" lon="6.40954">
        <ele>2342.3</ele>
        <time>2020-08-18T14:01:53Z</time>
      </trkpt>
      <trkpt lat="44.97797" lon="6.40965">
        <ele>2341.8</ele>
        <time>2020-08-18T14:02:01Z</time>
      </trkpt>
      <trkpt lat="44.97797" lon="6.40979">
        <ele>2341.5</ele>
        <time>2020-08-18T14:02:09Z</time>
      </trkpt>
      <trkpt lat="44.97794" lon="6.40992">
        <ele>2341.5</ele>
        <time>2020-08-18T14:02:17Z</time>
      </trkpt>
      <trkpt lat="44.97794" lon="6.41004">
        <ele>2341.8</ele>
        <time>2020-08-18T14:02:29Z</time>
      </trkpt>
      <trkpt lat="44.97793" lon="6.41017">
        <ele>2342.2</ele>
        <time>2020-08-18T14:02:37Z</time>
      </trkpt>
      <trkpt lat="44.97792" lon="6.4103">
        <ele>2342.5</ele>
        <time>2020-08-18T14:02:46Z</time>
      </trkpt>
      <trkpt lat="44.97795" lon="6.41044">
        <ele>2342.8</ele>
        <time>2020-08-18T14:03:01Z</time>
      </trkpt>
      <trkpt lat="44.978" lon="6.41055">
        <ele>2342.9</ele>
        <time>2020-08-18T14:03:09Z</time>
      </trkpt>
      <trkpt lat="44.97806" lon="6.41067">
        <ele>2342.9</ele>
        <time>2020-08-18T14:03:16Z</time>
      </trkpt>
      <trkpt lat="44.97813" lon="6.41076">
        <ele>2342.9</ele>
        <time>2020-08-18T14:03:24Z</time>
      </trkpt>
      <trkpt lat="44.97817" lon="6.41087">
        <ele>2342.8</ele>
        <time>2020-08-18T14:03:30Z</time>
      </trkpt>
      <trkpt lat="44.97817" lon="6.41102">
        <ele>2342.6</ele>
        <time>2020-08-18T14:03:37Z</time>
      </trkpt>
      <trkpt lat="44.97818" lon="6.41116">
        <ele>2342.3</ele>
        <time>2020-08-18T14:03:44Z</time>
      </trkpt>
      <trkpt lat="44.97823" lon="6.41127">
        <ele>2341.8</ele>
        <time>2020-08-18T14:03:51Z</time>
      </trkpt>
      <trkpt lat="44.97828" lon="6.41139">
        <ele>2341.5</ele>
        <time>2020-08-18T14:03:58Z</time>
      </trkpt>
      <trkpt lat="44.97835" lon="6.41149">
        <ele>2341.3</ele>
        <time>2020-08-18T14:04:05Z</time>
      </trkpt>
      <trkpt lat="44.97842" lon="6.4116">
        <ele>2341.2</ele>
        <time>2020-08-18T14:04:12Z</time>
      </trkpt>
      <trkpt lat="44.97847" lon="6.41171">
        <ele>2341.5</ele>
        <time>2020-08-18T14:04:20Z</time>
      </trkpt>
      <trkpt lat="44.9785" lon="6.41184">
        <ele>2341.8</ele>
        <time>2020-08-18T14:04:27Z</time>
      </trkpt>
      <trkpt lat="44.97851" lon="6.41198">
        <ele>2341.8</ele>
        <time>2020-08-18T14:04:33Z</time>
      </trkpt>
      <trkpt lat="44.97852" lon="6.41211">
        <ele>2341.8</ele>
        <time>2020-08-18T14:04:40Z</time>
      </trkpt>
      <trkpt lat="44.97854" lon="6.41224">
        <ele>2342.2</ele>
        <time>2020-08-18T14:04:48Z</time>
      </trkpt>
      <trkpt lat="44.97855" lon="6.41237">
        <ele>2342.6</ele>
        <time>2020-08-18T14:04:55Z</time>
      </trkpt>
      <trkpt lat="44.9786" lon="6.4125">
        <ele>2343</ele>
        <time>2020-08-18T14:05:03Z</time>
      </trkpt>
      <trkpt lat="44.97863" lon="6.41263">
        <ele>2343.1</ele>
        <time>2020-08-18T14:05:10Z</time>
      </trkpt>
      <trkpt lat="44.97868" lon="6.41274">
        <ele>2343.1</ele>
        <time>2020-08-18T14:05:18Z</time>
      </trkpt>
      <trkpt lat="44.97873" lon="6.41286">
        <ele>2343.2</ele>
        <time>2020-08-18T14:05:26Z</time>
      </trkpt>
      <trkpt lat="44.97876" lon="6.41299">
        <ele>2343.2</ele>
        <time>2020-08-18T14:05:33Z</time>
      </trkpt>
      <trkpt lat="44.9788" lon="6.41311">
        <ele>2343</ele>
        <time>2020-08-18T14:05:41Z</time>
      </trkpt>
      <trkpt lat="44.97885" lon="6.41323">
        <ele>2343</ele>
        <time>2020-08-18T14:05:48Z</time>
      </trkpt>
      <trkpt lat="44.97887" lon="6.41337">
        <ele>2342.6</ele>
        <time>2020-08-18T14:05:56Z</time>
      </trkpt>
      <trkpt lat="44.97891" lon="6.4135">
        <ele>2341.9</ele>
        <time>2020-08-18T14:06:04Z</time>
      </trkpt>
      <trkpt lat="44.97892" lon="6.41363">
        <ele>2341.5</ele>
        <time>2020-08-18T14:06:11Z</time>
      </trkpt>
      <trkpt lat="44.97894" lon="6.41377">
        <ele>2341.1</ele>
        <time>2020-08-18T14:06:21Z</time>
      </trkpt>
      <trkpt lat="44.97899" lon="6.41389">
        <ele>2340.5</ele>
        <time>2020-08-18T14:06:34Z</time>
      </trkpt>
      <trkpt lat="44.97905" lon="6.414">
        <ele>2340.1</ele>
        <time>2020-08-18T14:06:42Z</time>
      </trkpt>
      <trkpt lat="44.97912" lon="6.4141">
        <ele>2339.2</ele>
        <time>2020-08-18T14:07:10Z</time>
      </trkpt>
      <trkpt lat="44.97916" lon="6.41424">
        <ele>2338.7</ele>
        <time>2020-08-18T14:07:19Z</time>
      </trkpt>
      <trkpt lat="44.97919" lon="6.41436">
        <ele>2337.9</ele>
        <time>2020-08-18T14:07:28Z</time>
      </trkpt>
      <trkpt lat="44.97924" lon="6.41447">
        <ele>2336.9</ele>
        <time>2020-08-18T14:07:36Z</time>
      </trkpt>
      <trkpt lat="44.9793" lon="6.41458">
        <ele>2335.6</ele>
        <time>2020-08-18T14:07:44Z</time>
      </trkpt>
      <trkpt lat="44.97933" lon="6.41471">
        <ele>2334.2</ele>
        <time>2020-08-18T14:07:52Z</time>
      </trkpt>
      <trkpt lat="44.97935" lon="6.41484">
        <ele>2332.7</ele>
        <time>2020-08-18T14:08:01Z</time>
      </trkpt>
      <trkpt lat="44.97938" lon="6.41497">
        <ele>2330.4</ele>
        <time>2020-08-18T14:08:13Z</time>
      </trkpt>
      <trkpt lat="44.97936" lon="6.41511">
        <ele>2328.7</ele>
        <time>2020-08-18T14:08:22Z</time>
      </trkpt>
      <trkpt lat="44.97933" lon="6.41523">
        <ele>2327.3</ele>
        <time>2020-08-18T14:08:30Z</time>
      </trkpt>
      <trkpt lat="44.97935" lon="6.41536">
        <ele>2325.6</ele>
        <time>2020-08-18T14:08:40Z</time>
      </trkpt>
      <trkpt lat="44.97939" lon="6.41548">
        <ele>2323.7</ele>
        <time>2020-08-18T14:08:51Z</time>
      </trkpt>
      <trkpt lat="44.97947" lon="6.41557">
        <ele>2321.3</ele>
        <time>2020-08-18T14:09:10Z</time>
      </trkpt>
      <trkpt lat="44.97949" lon="6.4157">
        <ele>2319.7</ele>
        <time>2020-08-18T14:09:18Z</time>
      </trkpt>
      <trkpt lat="44.97948" lon="6.41583">
        <ele>2318.2</ele>
        <time>2020-08-18T14:09:26Z</time>
      </trkpt>
      <trkpt lat="44.97955" lon="6.41593">
        <ele>2316.8</ele>
        <time>2020-08-18T14:09:34Z</time>
      </trkpt>
      <trkpt lat="44.97957" lon="6.41606">
        <ele>2314.9</ele>
        <time>2020-08-18T14:09:45Z</time>
      </trkpt>
      <trkpt lat="44.97959" lon="6.41619">
        <ele>2313.2</ele>
        <time>2020-08-18T14:09:54Z</time>
      </trkpt>
      <trkpt lat="44.97965" lon="6.41628">
        <ele>2311.6</ele>
        <time>2020-08-18T14:10:03Z</time>
      </trkpt>
      <trkpt lat="44.97972" lon="6.41638">
        <ele>2309.8</ele>
        <time>2020-08-18T14:10:12Z</time>
      </trkpt>
      <trkpt lat="44.97977" lon="6.41649">
        <ele>2308.2</ele>
        <time>2020-08-18T14:10:20Z</time>
      </trkpt>
      <trkpt lat="44.97985" lon="6.41658">
        <ele>2306.8</ele>
        <time>2020-08-18T14:10:28Z</time>
      </trkpt>
      <trkpt lat="44.97986" lon="6.41671">
        <ele>2304.9</ele>
        <time>2020-08-18T14:10:40Z</time>
      </trkpt>
      <trkpt lat="44.9799" lon="6.41685">
        <ele>2301.3</ele>
        <time>2020-08-18T14:11:13Z</time>
      </trkpt>
      <trkpt lat="44.97989" lon="6.41699">
        <ele>2300.2</ele>
        <time>2020-08-18T14:11:22Z</time>
      </trkpt>
      <trkpt lat="44.9799" lon="6.41712">
        <ele>2298.9</ele>
        <time>2020-08-18T14:11:31Z</time>
      </trkpt>
      <trkpt lat="44.97994" lon="6.41725">
        <ele>2295.9</ele>
        <time>2020-08-18T14:12:08Z</time>
      </trkpt>
      <trkpt lat="44.98" lon="6.41736">
        <ele>2294.1</ele>
        <time>2020-08-18T14:12:24Z</time>
      </trkpt>
      <trkpt lat="44.98003" lon="6.41749">
        <ele>2291.8</ele>
        <time>2020-08-18T14:12:38Z</time>
      </trkpt>
      <trkpt lat="44.98003" lon="6.41762">
        <ele>2290.8</ele>
        <time>2020-08-18T14:12:46Z</time>
      </trkpt>
      <trkpt lat="44.98003" lon="6.41776">
        <ele>2290.1</ele>
        <time>2020-08-18T14:12:56Z</time>
      </trkpt>
      <trkpt lat="44.98004" lon="6.4179">
        <ele>2289.4</ele>
        <time>2020-08-18T14:13:03Z</time>
      </trkpt>
      <trkpt lat="44.98001" lon="6.41803">
        <ele>2288.6</ele>
        <time>2020-08-18T14:13:10Z</time>
      </trkpt>
      <trkpt lat="44.97998" lon="6.41816">
        <ele>2287.4</ele>
        <time>2020-08-18T14:13:18Z</time>
      </trkpt>
      <trkpt lat="44.98008" lon="6.4182">
        <ele>2285.9</ele>
        <time>2020-08-18T14:13:26Z</time>
      </trkpt>
      <trkpt lat="44.9801" lon="6.41832">
        <ele>2283.8</ele>
        <time>2020-08-18T14:13:37Z</time>
      </trkpt>
      <trkpt lat="44.98019" lon="6.41839">
        <ele>2282.2</ele>
        <time>2020-08-18T14:13:45Z</time>
      </trkpt>
      <trkpt lat="44.98019" lon="6.41853">
        <ele>2280.3</ele>
        <time>2020-08-18T14:13:54Z</time>
      </trkpt>
      <trkpt lat="44.98026" lon="6.41862">
        <ele>2278.1</ele>
        <time>2020-08-18T14:14:04Z</time>
      </trkpt>
      <trkpt lat="44.98034" lon="6.41868">
        <ele>2276.5</ele>
        <time>2020-08-18T14:14:11Z</time>
      </trkpt>
      <trkpt lat="44.98042" lon="6.41878">
        <ele>2275.3</ele>
        <time>2020-08-18T14:14:18Z</time>
      </trkpt>
      <trkpt lat="44.98051" lon="6.41882">
        <ele>2274.2</ele>
        <time>2020-08-18T14:14:26Z</time>
      </trkpt>
      <trkpt lat="44.98057" lon="6.41892">
        <ele>2272.5</ele>
        <time>2020-08-18T14:14:37Z</time>
      </trkpt>
      <trkpt lat="44.98059" lon="6.41905">
        <ele>2271</ele>
        <time>2020-08-18T14:14:45Z</time>
      </trkpt>
      <trkpt lat="44.98064" lon="6.41917">
        <ele>2269.4</ele>
        <time>2020-08-18T14:14:54Z</time>
      </trkpt>
      <trkpt lat="44.98065" lon="6.41931">
        <ele>2268.5</ele>
        <time>2020-08-18T14:15:03Z</time>
      </trkpt>
      <trkpt lat="44.98066" lon="6.41945">
        <ele>2267.8</ele>
        <time>2020-08-18T14:15:10Z</time>
      </trkpt>
      <trkpt lat="44.98068" lon="6.41958">
        <ele>2267.2</ele>
        <time>2020-08-18T14:15:16Z</time>
      </trkpt>
      <trkpt lat="44.98073" lon="6.4197">
        <ele>2266.4</ele>
        <time>2020-08-18T14:15:24Z</time>
      </trkpt>
      <trkpt lat="44.98073" lon="6.41983">
        <ele>2265.7</ele>
        <time>2020-08-18T14:15:31Z</time>
      </trkpt>
      <trkpt lat="44.98076" lon="6.41996">
        <ele>2264.6</ele>
        <time>2020-08-18T14:15:39Z</time>
      </trkpt>
      <trkpt lat="44.98084" lon="6.42005">
        <ele>2263</ele>
        <time>2020-08-18T14:15:47Z</time>
      </trkpt>
      <trkpt lat="44.98089" lon="6.42016">
        <ele>2261.2</ele>
        <time>2020-08-18T14:15:56Z</time>
      </trkpt>
      <trkpt lat="44.98096" lon="6.42025">
        <ele>2259.7</ele>
        <time>2020-08-18T14:16:03Z</time>
      </trkpt>
      <trkpt lat="44.98102" lon="6.42034">
        <ele>2258.7</ele>
        <time>2020-08-18T14:16:09Z</time>
      </trkpt>
      <trkpt lat="44.98106" lon="6.42046">
        <ele>2257.7</ele>
        <time>2020-08-18T14:16:18Z</time>
      </trkpt>
      <trkpt lat="44.9811" lon="6.42058">
        <ele>2256.7</ele>
        <time>2020-08-18T14:16:27Z</time>
      </trkpt>
      <trkpt lat="44.98116" lon="6.42069">
        <ele>2256.1</ele>
        <time>2020-08-18T14:16:34Z</time>
      </trkpt>
      <trkpt lat="44.98122" lon="6.42079">
        <ele>2255.5</ele>
        <time>2020-08-18T14:16:43Z</time>
      </trkpt>
      <trkpt lat="44.98124" lon="6.42092">
        <ele>2253.3</ele>
        <time>2020-08-18T14:17:06Z</time>
      </trkpt>
      <trkpt lat="44.98132" lon="6.42101">
        <ele>2250.9</ele>
        <time>2020-08-18T14:17:59Z</time>
      </trkpt>
      <trkpt lat="44.98141" lon="6.42104">
        <ele>2250.4</ele>
        <time>2020-08-18T14:18:06Z</time>
      </trkpt>
      <trkpt lat="44.98151" lon="6.42104">
        <ele>2249.7</ele>
        <time>2020-08-18T14:18:16Z</time>
      </trkpt>
      <trkpt lat="44.9816" lon="6.4211">
        <ele>2249.1</ele>
        <time>2020-08-18T14:18:23Z</time>
      </trkpt>
      <trkpt lat="44.9817" lon="6.42116">
        <ele>2248.7</ele>
        <time>2020-08-18T14:18:30Z</time>
      </trkpt>
      <trkpt lat="44.98178" lon="6.42122">
        <ele>2248.5</ele>
        <time>2020-08-18T14:18:38Z</time>
      </trkpt>
      <trkpt lat="44.98185" lon="6.4213">
        <ele>2248.3</ele>
        <time>2020-08-18T14:18:46Z</time>
      </trkpt>
      <trkpt lat="44.98192" lon="6.4214">
        <ele>2248.6</ele>
        <time>2020-08-18T14:18:55Z</time>
      </trkpt>
      <trkpt lat="44.98189" lon="6.42154">
        <ele>2248.9</ele>
        <time>2020-08-18T14:19:01Z</time>
      </trkpt>
      <trkpt lat="44.98195" lon="6.42164">
        <ele>2249.3</ele>
        <time>2020-08-18T14:19:09Z</time>
      </trkpt>
      <trkpt lat="44.98203" lon="6.42171">
        <ele>2249.5</ele>
        <time>2020-08-18T14:19:16Z</time>
      </trkpt>
      <trkpt lat="44.98211" lon="6.42178">
        <ele>2249.7</ele>
        <time>2020-08-18T14:19:23Z</time>
      </trkpt>
      <trkpt lat="44.98218" lon="6.42186">
        <ele>2249.7</ele>
        <time>2020-08-18T14:19:33Z</time>
      </trkpt>
      <trkpt lat="44.98226" lon="6.42193">
        <ele>2249.3</ele>
        <time>2020-08-18T14:19:37Z</time>
      </trkpt>
      <trkpt lat="44.98225" lon="6.42207">
        <ele>2248.6</ele>
        <time>2020-08-18T14:19:44Z</time>
      </trkpt>
      <trkpt lat="44.98229" lon="6.42219">
        <ele>2248.3</ele>
        <time>2020-08-18T14:19:50Z</time>
      </trkpt>
      <trkpt lat="44.98225" lon="6.42232">
        <ele>2248</ele>
        <time>2020-08-18T14:19:58Z</time>
      </trkpt>
      <trkpt lat="44.98218" lon="6.42241">
        <ele>2247.9</ele>
        <time>2020-08-18T14:20:06Z</time>
      </trkpt>
      <trkpt lat="44.98213" lon="6.42251">
        <ele>2248</ele>
        <time>2020-08-18T14:20:14Z</time>
      </trkpt>
      <trkpt lat="44.98209" lon="6.42263">
        <ele>2248.2</ele>
        <time>2020-08-18T14:20:23Z</time>
      </trkpt>
      <trkpt lat="44.98212" lon="6.42276">
        <ele>2248.4</ele>
        <time>2020-08-18T14:20:33Z</time>
      </trkpt>
      <trkpt lat="44.98216" lon="6.42288">
        <ele>2248.2</ele>
        <time>2020-08-18T14:20:44Z</time>
      </trkpt>
      <trkpt lat="44.9822" lon="6.42299">
        <ele>2247.9</ele>
        <time>2020-08-18T14:20:52Z</time>
      </trkpt>
      <trkpt lat="44.9822" lon="6.42314">
        <ele>2247.4</ele>
        <time>2020-08-18T14:21:01Z</time>
      </trkpt>
      <trkpt lat="44.9822" lon="6.42327">
        <ele>2246.8</ele>
        <time>2020-08-18T14:21:09Z</time>
      </trkpt>
      <trkpt lat="44.98225" lon="6.42339">
        <ele>2246.2</ele>
        <time>2020-08-18T14:21:20Z</time>
      </trkpt>
      <trkpt lat="44.98233" lon="6.42346">
        <ele>2245.4</ele>
        <time>2020-08-18T14:21:32Z</time>
      </trkpt>
      <trkpt lat="44.98238" lon="6.42358">
        <ele>2244.8</ele>
        <time>2020-08-18T14:21:41Z</time>
      </trkpt>
      <trkpt lat="44.98241" lon="6.42372">
        <ele>2243.6</ele>
        <time>2020-08-18T14:21:55Z</time>
      </trkpt>
      <trkpt lat="44.98245" lon="6.42385">
        <ele>2243.2</ele>
        <time>2020-08-18T14:22:04Z</time>
      </trkpt>
      <trkpt lat="44.98245" lon="6.42399">
        <ele>2242.8</ele>
        <time>2020-08-18T14:22:13Z</time>
      </trkpt>
      <trkpt lat="44.98242" lon="6.42412">
        <ele>2242.1</ele>
        <time>2020-08-18T14:22:20Z</time>
      </trkpt>
      <trkpt lat="44.98245" lon="6.42424">
        <ele>2241.1</ele>
        <time>2020-08-18T14:22:29Z</time>
      </trkpt>
      <trkpt lat="44.98246" lon="6.42437">
        <ele>2240</ele>
        <time>2020-08-18T14:22:38Z</time>
      </trkpt>
      <trkpt lat="44.98245" lon="6.4245">
        <ele>2238.6</ele>
        <time>2020-08-18T14:22:45Z</time>
      </trkpt>
      <trkpt lat="44.98244" lon="6.42463">
        <ele>2236.1</ele>
        <time>2020-08-18T14:23:00Z</time>
      </trkpt>
      <trkpt lat="44.9824" lon="6.42474">
        <ele>2235.3</ele>
        <time>2020-08-18T14:23:06Z</time>
      </trkpt>
      <trkpt lat="44.98242" lon="6.42487">
        <ele>2234.3</ele>
        <time>2020-08-18T14:23:14Z</time>
      </trkpt>
      <trkpt lat="44.98246" lon="6.425">
        <ele>2233.2</ele>
        <time>2020-08-18T14:23:23Z</time>
      </trkpt>
      <trkpt lat="44.98248" lon="6.42514">
        <ele>2232.3</ele>
        <time>2020-08-18T14:23:31Z</time>
      </trkpt>
      <trkpt lat="44.98251" lon="6.42526">
        <ele>2230.8</ele>
        <time>2020-08-18T14:23:41Z</time>
      </trkpt>
      <trkpt lat="44.98249" lon="6.42541">
        <ele>2229.6</ele>
        <time>2020-08-18T14:23:47Z</time>
      </trkpt>
      <trkpt lat="44.98249" lon="6.42555">
        <ele>2227.7</ele>
        <time>2020-08-18T14:23:58Z</time>
      </trkpt>
      <trkpt lat="44.9825" lon="6.42569">
        <ele>2226.6</ele>
        <time>2020-08-18T14:24:05Z</time>
      </trkpt>
      <trkpt lat="44.9825" lon="6.42582">
        <ele>2225.5</ele>
        <time>2020-08-18T14:24:14Z</time>
      </trkpt>
      <trkpt lat="44.9825" lon="6.42595">
        <ele>2224</ele>
        <time>2020-08-18T14:24:37Z</time>
      </trkpt>
      <trkpt lat="44.98251" lon="6.42609">
        <ele>2223.5</ele>
        <time>2020-08-18T14:24:45Z</time>
      </trkpt>
      <trkpt lat="44.98251" lon="6.42623">
        <ele>2222.9</ele>
        <time>2020-08-18T14:24:53Z</time>
      </trkpt>
      <trkpt lat="44.98249" lon="6.42636">
        <ele>2222.5</ele>
        <time>2020-08-18T14:24:59Z</time>
      </trkpt>
      <trkpt lat="44.98247" lon="6.4265">
        <ele>2222.1</ele>
        <time>2020-08-18T14:25:08Z</time>
      </trkpt>
      <trkpt lat="44.98242" lon="6.42662">
        <ele>2221.8</ele>
        <time>2020-08-18T14:25:15Z</time>
      </trkpt>
      <trkpt lat="44.98241" lon="6.42674">
        <ele>2221.5</ele>
        <time>2020-08-18T14:25:22Z</time>
      </trkpt>
      <trkpt lat="44.98237" lon="6.42687">
        <ele>2221.1</ele>
        <time>2020-08-18T14:25:30Z</time>
      </trkpt>
      <trkpt lat="44.98235" lon="6.42701">
        <ele>2220.3</ele>
        <time>2020-08-18T14:25:40Z</time>
      </trkpt>
      <trkpt lat="44.98232" lon="6.42714">
        <ele>2219.7</ele>
        <time>2020-08-18T14:25:49Z</time>
      </trkpt>
      <trkpt lat="44.98228" lon="6.42726">
        <ele>2219</ele>
        <time>2020-08-18T14:25:57Z</time>
      </trkpt>
      <trkpt lat="44.98227" lon="6.42739">
        <ele>2218.5</ele>
        <time>2020-08-18T14:26:04Z</time>
      </trkpt>
      <trkpt lat="44.98221" lon="6.42749">
        <ele>2218</ele>
        <time>2020-08-18T14:26:12Z</time>
      </trkpt>
      <trkpt lat="44.98213" lon="6.42759">
        <ele>2217.8</ele>
        <time>2020-08-18T14:26:20Z</time>
      </trkpt>
      <trkpt lat="44.98213" lon="6.42772">
        <ele>2217.6</ele>
        <time>2020-08-18T14:26:28Z</time>
      </trkpt>
      <trkpt lat="44.98209" lon="6.42785">
        <ele>2217.5</ele>
        <time>2020-08-18T14:26:37Z</time>
      </trkpt>
      <trkpt lat="44.98206" lon="6.42798">
        <ele>2217.3</ele>
        <time>2020-08-18T14:26:45Z</time>
      </trkpt>
      <trkpt lat="44.98199" lon="6.42807">
        <ele>2217.2</ele>
        <time>2020-08-18T14:26:52Z</time>
      </trkpt>
      <trkpt lat="44.98196" lon="6.4282">
        <ele>2216.9</ele>
        <time>2020-08-18T14:27:11Z</time>
      </trkpt>
      <trkpt lat="44.98193" lon="6.42832">
        <ele>2216.8</ele>
        <time>2020-08-18T14:27:19Z</time>
      </trkpt>
      <trkpt lat="44.98191" lon="6.42845">
        <ele>2216.4</ele>
        <time>2020-08-18T14:27:27Z</time>
      </trkpt>
      <trkpt lat="44.98189" lon="6.42857">
        <ele>2215.8</ele>
        <time>2020-08-18T14:27:35Z</time>
      </trkpt>
      <trkpt lat="44.98184" lon="6.42868">
        <ele>2215.2</ele>
        <time>2020-08-18T14:27:43Z</time>
      </trkpt>
      <trkpt lat="44.98181" lon="6.4288">
        <ele>2214.4</ele>
        <time>2020-08-18T14:27:58Z</time>
      </trkpt>
      <trkpt lat="44.98175" lon="6.42891">
        <ele>2213.8</ele>
        <time>2020-08-18T14:28:06Z</time>
      </trkpt>
      <trkpt lat="44.98173" lon="6.42904">
        <ele>2213.3</ele>
        <time>2020-08-18T14:28:14Z</time>
      </trkpt>
      <trkpt lat="44.98177" lon="6.42917">
        <ele>2212.4</ele>
        <time>2020-08-18T14:28:24Z</time>
      </trkpt>
      <trkpt lat="44.9817" lon="6.42926">
        <ele>2211.9</ele>
        <time>2020-08-18T14:28:31Z</time>
      </trkpt>
      <trkpt lat="44.98169" lon="6.42939">
        <ele>2210.6</ele>
        <time>2020-08-18T14:28:42Z</time>
      </trkpt>
      <trkpt lat="44.98162" lon="6.42948">
        <ele>2209</ele>
        <time>2020-08-18T14:28:53Z</time>
      </trkpt>
      <trkpt lat="44.98159" lon="6.42961">
        <ele>2206.1</ele>
        <time>2020-08-18T14:29:09Z</time>
      </trkpt>
      <trkpt lat="44.98152" lon="6.42972">
        <ele>2204.6</ele>
        <time>2020-08-18T14:29:16Z</time>
      </trkpt>
      <trkpt lat="44.98153" lon="6.42986">
        <ele>2202.3</ele>
        <time>2020-08-18T14:29:28Z</time>
      </trkpt>
      <trkpt lat="44.9815" lon="6.42998">
        <ele>2200</ele>
        <time>2020-08-18T14:29:41Z</time>
      </trkpt>
      <trkpt lat="44.98156" lon="6.4301">
        <ele>2198.4</ele>
        <time>2020-08-18T14:29:52Z</time>
      </trkpt>
      <trkpt lat="44.98154" lon="6.43022">
        <ele>2196.4</ele>
        <time>2020-08-18T14:30:03Z</time>
      </trkpt>
      <trkpt lat="44.98151" lon="6.43035">
        <ele>2194.7</ele>
        <time>2020-08-18T14:30:12Z</time>
      </trkpt>
      <trkpt lat="44.98152" lon="6.43049">
        <ele>2193.2</ele>
        <time>2020-08-18T14:30:20Z</time>
      </trkpt>
      <trkpt lat="44.98145" lon="6.43058">
        <ele>2192.3</ele>
        <time>2020-08-18T14:30:26Z</time>
      </trkpt>
      <trkpt lat="44.98144" lon="6.43071">
        <ele>2190.3</ele>
        <time>2020-08-18T14:30:38Z</time>
      </trkpt>
      <trkpt lat="44.98143" lon="6.43084">
        <ele>2188.5</ele>
        <time>2020-08-18T14:30:50Z</time>
      </trkpt>
      <trkpt lat="44.98138" lon="6.43096">
        <ele>2187.5</ele>
        <time>2020-08-18T14:30:57Z</time>
      </trkpt>
      <trkpt lat="44.98135" lon="6.43109">
        <ele>2186.5</ele>
        <time>2020-08-18T14:31:05Z</time>
      </trkpt>
      <trkpt lat="44.98134" lon="6.43122">
        <ele>2185.4</ele>
        <time>2020-08-18T14:31:13Z</time>
      </trkpt>
      <trkpt lat="44.98134" lon="6.43135">
        <ele>2184.2</ele>
        <time>2020-08-18T14:31:21Z</time>
      </trkpt>
      <trkpt lat="44.98134" lon="6.43149">
        <ele>2183.3</ele>
        <time>2020-08-18T14:31:28Z</time>
      </trkpt>
      <trkpt lat="44.98133" lon="6.43163">
        <ele>2182.1</ele>
        <time>2020-08-18T14:31:37Z</time>
      </trkpt>
      <trkpt lat="44.98132" lon="6.43176">
        <ele>2181.3</ele>
        <time>2020-08-18T14:31:45Z</time>
      </trkpt>
      <trkpt lat="44.98126" lon="6.43186">
        <ele>2180.5</ele>
        <time>2020-08-18T14:31:53Z</time>
      </trkpt>
      <trkpt lat="44.98126" lon="6.432">
        <ele>2179.4</ele>
        <time>2020-08-18T14:32:02Z</time>
      </trkpt>
      <trkpt lat="44.98125" lon="6.43214">
        <ele>2178.5</ele>
        <time>2020-08-18T14:32:11Z</time>
      </trkpt>
      <trkpt lat="44.98121" lon="6.43227">
        <ele>2177.5</ele>
        <time>2020-08-18T14:32:20Z</time>
      </trkpt>
      <trkpt lat="44.98118" lon="6.4324">
        <ele>2176.3</ele>
        <time>2020-08-18T14:32:32Z</time>
      </trkpt>
      <trkpt lat="44.98115" lon="6.43254">
        <ele>2175.5</ele>
        <time>2020-08-18T14:32:40Z</time>
      </trkpt>
      <trkpt lat="44.98109" lon="6.43265">
        <ele>2174.7</ele>
        <time>2020-08-18T14:32:49Z</time>
      </trkpt>
      <trkpt lat="44.98108" lon="6.43279">
        <ele>2173.6</ele>
        <time>2020-08-18T14:32:58Z</time>
      </trkpt>
      <trkpt lat="44.98107" lon="6.43293">
        <ele>2172.5</ele>
        <time>2020-08-18T14:33:06Z</time>
      </trkpt>
      <trkpt lat="44.98116" lon="6.43298">
        <ele>2168.8</ele>
        <time>2020-08-18T14:33:49Z</time>
      </trkpt>
      <trkpt lat="44.98114" lon="6.43312">
        <ele>2168.6</ele>
        <time>2020-08-18T14:34:09Z</time>
      </trkpt>
      <trkpt lat="44.98114" lon="6.43326">
        <ele>2168.6</ele>
        <time>2020-08-18T14:34:16Z</time>
      </trkpt>
      <trkpt lat="44.98108" lon="6.43338">
        <ele>2168.6</ele>
        <time>2020-08-18T14:34:20Z</time>
      </trkpt>
      <trkpt lat="44.981" lon="6.43346">
        <ele>2168.5</ele>
        <time>2020-08-18T14:34:27Z</time>
      </trkpt>
      <trkpt lat="44.98099" lon="6.43359">
        <ele>2168.4</ele>
        <time>2020-08-18T14:34:36Z</time>
      </trkpt>
      <trkpt lat="44.981" lon="6.43373">
        <ele>2167.9</ele>
        <time>2020-08-18T14:34:44Z</time>
      </trkpt>
      <trkpt lat="44.98095" lon="6.43385">
        <ele>2167.6</ele>
        <time>2020-08-18T14:34:51Z</time>
      </trkpt>
      <trkpt lat="44.98095" lon="6.434">
        <ele>2167.2</ele>
        <time>2020-08-18T14:35:00Z</time>
      </trkpt>
      <trkpt lat="44.9809" lon="6.43412">
        <ele>2166.7</ele>
        <time>2020-08-18T14:35:07Z</time>
      </trkpt>
      <trkpt lat="44.98088" lon="6.43426">
        <ele>2166.1</ele>
        <time>2020-08-18T14:35:17Z</time>
      </trkpt>
      <trkpt lat="44.98084" lon="6.43438">
        <ele>2165.6</ele>
        <time>2020-08-18T14:35:28Z</time>
      </trkpt>
      <trkpt lat="44.9808" lon="6.4345">
        <ele>2165.3</ele>
        <time>2020-08-18T14:35:38Z</time>
      </trkpt>
      <trkpt lat="44.98083" lon="6.43463">
        <ele>2165</ele>
        <time>2020-08-18T14:35:49Z</time>
      </trkpt>
      <trkpt lat="44.9808" lon="6.43476">
        <ele>2164.9</ele>
        <time>2020-08-18T14:35:56Z</time>
      </trkpt>
      <trkpt lat="44.98084" lon="6.43488">
        <ele>2164.8</ele>
        <time>2020-08-18T14:36:06Z</time>
      </trkpt>
      <trkpt lat="44.98087" lon="6.43501">
        <ele>2164.7</ele>
        <time>2020-08-18T14:36:13Z</time>
      </trkpt>
      <trkpt lat="44.9809" lon="6.43514">
        <ele>2164.8</ele>
        <time>2020-08-18T14:36:23Z</time>
      </trkpt>
      <trkpt lat="44.98086" lon="6.43527">
        <ele>2164.8</ele>
        <time>2020-08-18T14:36:33Z</time>
      </trkpt>
      <trkpt lat="44.98082" lon="6.4354">
        <ele>2164.8</ele>
        <time>2020-08-18T14:36:41Z</time>
      </trkpt>
      <trkpt lat="44.98075" lon="6.43551">
        <ele>2164.8</ele>
        <time>2020-08-18T14:36:47Z</time>
      </trkpt>
      <trkpt lat="44.98074" lon="6.43563">
        <ele>2164.9</ele>
        <time>2020-08-18T14:36:55Z</time>
      </trkpt>
      <trkpt lat="44.9807" lon="6.43576">
        <ele>2164.9</ele>
        <time>2020-08-18T14:37:06Z</time>
      </trkpt>
      <trkpt lat="44.98069" lon="6.4359">
        <ele>2165.1</ele>
        <time>2020-08-18T14:37:17Z</time>
      </trkpt>
      <trkpt lat="44.98072" lon="6.43602">
        <ele>2165.3</ele>
        <time>2020-08-18T14:37:26Z</time>
      </trkpt>
      <trkpt lat="44.98075" lon="6.43615">
        <ele>2165.4</ele>
        <time>2020-08-18T14:37:37Z</time>
      </trkpt>
      <trkpt lat="44.98081" lon="6.43626">
        <ele>2165.6</ele>
        <time>2020-08-18T14:37:50Z</time>
      </trkpt>
      <trkpt lat="44.9808" lon="6.43639">
        <ele>2165.6</ele>
        <time>2020-08-18T14:38:01Z</time>
      </trkpt>
      <trkpt lat="44.98079" lon="6.43653">
        <ele>2165.7</ele>
        <time>2020-08-18T14:38:17Z</time>
      </trkpt>
      <trkpt lat="44.98075" lon="6.43665">
        <ele>2165.7</ele>
        <time>2020-08-18T14:38:26Z</time>
      </trkpt>
      <trkpt lat="44.98068" lon="6.43673">
        <ele>2164.7</ele>
        <time>2020-08-18T14:38:42Z</time>
      </trkpt>
      <trkpt lat="44.98068" lon="6.43687">
        <ele>2163.8</ele>
        <time>2020-08-18T14:38:49Z</time>
      </trkpt>
      <trkpt lat="44.98068" lon="6.437">
        <ele>2163</ele>
        <time>2020-08-18T14:38:58Z</time>
      </trkpt>
      <trkpt lat="44.98074" lon="6.4371">
        <ele>2162.4</ele>
        <time>2020-08-18T14:39:07Z</time>
      </trkpt>
      <trkpt lat="44.98075" lon="6.43723">
        <ele>2161.8</ele>
        <time>2020-08-18T14:39:16Z</time>
      </trkpt>
      <trkpt lat="44.98076" lon="6.43736">
        <ele>2161</ele>
        <time>2020-08-18T14:39:23Z</time>
      </trkpt>
      <trkpt lat="44.98078" lon="6.4375">
        <ele>2160.3</ele>
        <time>2020-08-18T14:39:30Z</time>
      </trkpt>
      <trkpt lat="44.98076" lon="6.43763">
        <ele>2158.6</ele>
        <time>2020-08-18T14:39:43Z</time>
      </trkpt>
      <trkpt lat="44.98076" lon="6.43776">
        <ele>2157.2</ele>
        <time>2020-08-18T14:39:53Z</time>
      </trkpt>
      <trkpt lat="44.9807" lon="6.43786">
        <ele>2156</ele>
        <time>2020-08-18T14:40:01Z</time>
      </trkpt>
      <trkpt lat="44.98064" lon="6.43796">
        <ele>2155.2</ele>
        <time>2020-08-18T14:40:08Z</time>
      </trkpt>
      <trkpt lat="44.98062" lon="6.43809">
        <ele>2154.5</ele>
        <time>2020-08-18T14:40:15Z</time>
      </trkpt>
      <trkpt lat="44.98058" lon="6.43821">
        <ele>2154.3</ele>
        <time>2020-08-18T14:40:23Z</time>
      </trkpt>
      <trkpt lat="44.98056" lon="6.43835">
        <ele>2154.6</ele>
        <time>2020-08-18T14:40:31Z</time>
      </trkpt>
      <trkpt lat="44.98053" lon="6.43847">
        <ele>2154.6</ele>
        <time>2020-08-18T14:40:39Z</time>
      </trkpt>
      <trkpt lat="44.98049" lon="6.43859">
        <ele>2154.3</ele>
        <time>2020-08-18T14:40:46Z</time>
      </trkpt>
      <trkpt lat="44.98047" lon="6.43872">
        <ele>2154.1</ele>
        <time>2020-08-18T14:40:56Z</time>
      </trkpt>
      <trkpt lat="44.98039" lon="6.4388">
        <ele>2154</ele>
        <time>2020-08-18T14:41:02Z</time>
      </trkpt>
      <trkpt lat="44.98032" lon="6.43889">
        <ele>2154</ele>
        <time>2020-08-18T14:41:09Z</time>
      </trkpt>
      <trkpt lat="44.98026" lon="6.439">
        <ele>2154.1</ele>
        <time>2020-08-18T14:41:24Z</time>
      </trkpt>
      <trkpt lat="44.98019" lon="6.4391">
        <ele>2154.2</ele>
        <time>2020-08-18T14:41:35Z</time>
      </trkpt>
      <trkpt lat="44.98013" lon="6.43921">
        <ele>2154</ele>
        <time>2020-08-18T14:41:59Z</time>
      </trkpt>
      <trkpt lat="44.98009" lon="6.43932">
        <ele>2153.2</ele>
        <time>2020-08-18T14:42:12Z</time>
      </trkpt>
      <trkpt lat="44.98002" lon="6.43942">
        <ele>2152</ele>
        <time>2020-08-18T14:42:21Z</time>
      </trkpt>
      <trkpt lat="44.97999" lon="6.43954">
        <ele>2150.6</ele>
        <time>2020-08-18T14:42:30Z</time>
      </trkpt>
      <trkpt lat="44.97994" lon="6.43965">
        <ele>2149</ele>
        <time>2020-08-18T14:42:38Z</time>
      </trkpt>
      <trkpt lat="44.97993" lon="6.43979">
        <ele>2147.4</ele>
        <time>2020-08-18T14:42:46Z</time>
      </trkpt>
      <trkpt lat="44.97991" lon="6.43991">
        <ele>2145.9</ele>
        <time>2020-08-18T14:42:56Z</time>
      </trkpt>
      <trkpt lat="44.97985" lon="6.44002">
        <ele>2143.2</ele>
        <time>2020-08-18T14:43:09Z</time>
      </trkpt>
      <trkpt lat="44.97981" lon="6.44014">
        <ele>2140.1</ele>
        <time>2020-08-18T14:43:22Z</time>
      </trkpt>
      <trkpt lat="44.97977" lon="6.44025">
        <ele>2136</ele>
        <time>2020-08-18T14:43:40Z</time>
      </trkpt>
      <trkpt lat="44.97974" lon="6.44037">
        <ele>2133.5</ele>
        <time>2020-08-18T14:43:51Z</time>
      </trkpt>
      <trkpt lat="44.97971" lon="6.4405">
        <ele>2131.8</ele>
        <time>2020-08-18T14:43:58Z</time>
      </trkpt>
      <trkpt lat="44.97963" lon="6.44058">
        <ele>2130.3</ele>
        <time>2020-08-18T14:44:05Z</time>
      </trkpt>
      <trkpt lat="44.97956" lon="6.44069">
        <ele>2128.8</ele>
        <time>2020-08-18T14:44:12Z</time>
      </trkpt>
      <trkpt lat="44.97951" lon="6.4408">
        <ele>2127.4</ele>
        <time>2020-08-18T14:44:21Z</time>
      </trkpt>
      <trkpt lat="44.97947" lon="6.44092">
        <ele>2126.1</ele>
        <time>2020-08-18T14:44:30Z</time>
      </trkpt>
      <trkpt lat="44.97943" lon="6.44108">
        <ele>2123.1</ele>
        <time>2020-08-18T14:44:53Z</time>
      </trkpt>
      <trkpt lat="44.97946" lon="6.4412">
        <ele>2121.8</ele>
        <time>2020-08-18T14:45:03Z</time>
      </trkpt>
      <trkpt lat="44.97943" lon="6.44132">
        <ele>2120.2</ele>
        <time>2020-08-18T14:45:14Z</time>
      </trkpt>
      <trkpt lat="44.97937" lon="6.44143">
        <ele>2117.7</ele>
        <time>2020-08-18T14:45:27Z</time>
      </trkpt>
      <trkpt lat="44.97934" lon="6.44155">
        <ele>2114.6</ele>
        <time>2020-08-18T14:45:40Z</time>
      </trkpt>
      <trkpt lat="44.9793" lon="6.44167">
        <ele>2112.7</ele>
        <time>2020-08-18T14:45:48Z</time>
      </trkpt>
      <trkpt lat="44.97925" lon="6.44178">
        <ele>2109.2</ele>
        <time>2020-08-18T14:46:01Z</time>
      </trkpt>
      <trkpt lat="44.9792" lon="6.4419">
        <ele>2105.8</ele>
        <time>2020-08-18T14:46:13Z</time>
      </trkpt>
      <trkpt lat="44.97921" lon="6.44203">
        <ele>2104.2</ele>
        <time>2020-08-18T14:46:19Z</time>
      </trkpt>
      <trkpt lat="44.97926" lon="6.44214">
        <ele>2102.9</ele>
        <time>2020-08-18T14:46:26Z</time>
      </trkpt>
      <trkpt lat="44.9793" lon="6.44226">
        <ele>2101.9</ele>
        <time>2020-08-18T14:46:33Z</time>
      </trkpt>
      <trkpt lat="44.97928" lon="6.44239">
        <ele>2101</ele>
        <time>2020-08-18T14:46:41Z</time>
      </trkpt>
      <trkpt lat="44.97922" lon="6.44249">
        <ele>2100.1</ele>
        <time>2020-08-18T14:46:48Z</time>
      </trkpt>
      <trkpt lat="44.97921" lon="6.44262">
        <ele>2098.2</ele>
        <time>2020-08-18T14:47:01Z</time>
      </trkpt>
      <trkpt lat="44.97918" lon="6.44249">
        <ele>2096</ele>
        <time>2020-08-18T14:47:13Z</time>
      </trkpt>
      <trkpt lat="44.97913" lon="6.44238">
        <ele>2094.4</ele>
        <time>2020-08-18T14:47:20Z</time>
      </trkpt>
      <trkpt lat="44.97909" lon="6.44226">
        <ele>2093.1</ele>
        <time>2020-08-18T14:47:25Z</time>
      </trkpt>
      <trkpt lat="44.97906" lon="6.44214">
        <ele>2091.5</ele>
        <time>2020-08-18T14:47:34Z</time>
      </trkpt>
      <trkpt lat="44.97903" lon="6.44226">
        <ele>2088.1</ele>
        <time>2020-08-18T14:47:53Z</time>
      </trkpt>
      <trkpt lat="44.979" lon="6.44237">
        <ele>2085.5</ele>
        <time>2020-08-18T14:48:08Z</time>
      </trkpt>
      <trkpt lat="44.97897" lon="6.4425">
        <ele>2082.1</ele>
        <time>2020-08-18T14:48:24Z</time>
      </trkpt>
      <trkpt lat="44.97892" lon="6.44262">
        <ele>2079.8</ele>
        <time>2020-08-18T14:48:34Z</time>
      </trkpt>
      <trkpt lat="44.97885" lon="6.44272">
        <ele>2077.5</ele>
        <time>2020-08-18T14:48:46Z</time>
      </trkpt>
      <trkpt lat="44.97886" lon="6.44285">
        <ele>2074.2</ele>
        <time>2020-08-18T14:49:06Z</time>
      </trkpt>
      <trkpt lat="44.97882" lon="6.44297">
        <ele>2072.3</ele>
        <time>2020-08-18T14:49:17Z</time>
      </trkpt>
      <trkpt lat="44.97883" lon="6.4431">
        <ele>2070.2</ele>
        <time>2020-08-18T14:49:27Z</time>
      </trkpt>
      <trkpt lat="44.97878" lon="6.44321">
        <ele>2067.1</ele>
        <time>2020-08-18T14:49:39Z</time>
      </trkpt>
      <trkpt lat="44.97873" lon="6.44333">
        <ele>2064</ele>
        <time>2020-08-18T14:49:50Z</time>
      </trkpt>
      <trkpt lat="44.97864" lon="6.44325">
        <ele>2059.1</ele>
        <time>2020-08-18T14:50:10Z</time>
      </trkpt>
      <trkpt lat="44.97861" lon="6.44312">
        <ele>2057.7</ele>
        <time>2020-08-18T14:50:16Z</time>
      </trkpt>
      <trkpt lat="44.9786" lon="6.44326">
        <ele>2052.8</ele>
        <time>2020-08-18T14:51:03Z</time>
      </trkpt>
      <trkpt lat="44.97856" lon="6.44338">
        <ele>2051.7</ele>
        <time>2020-08-18T14:51:11Z</time>
      </trkpt>
      <trkpt lat="44.97856" lon="6.44352">
        <ele>2050.5</ele>
        <time>2020-08-18T14:51:20Z</time>
      </trkpt>
      <trkpt lat="44.97853" lon="6.44364">
        <ele>2048.9</ele>
        <time>2020-08-18T14:51:29Z</time>
      </trkpt>
      <trkpt lat="44.97849" lon="6.44376">
        <ele>2045.9</ele>
        <time>2020-08-18T14:51:43Z</time>
      </trkpt>
      <trkpt lat="44.97844" lon="6.44388">
        <ele>2041.7</ele>
        <time>2020-08-18T14:52:03Z</time>
      </trkpt>
      <trkpt lat="44.97835" lon="6.44389">
        <ele>2038.1</ele>
        <time>2020-08-18T14:52:19Z</time>
      </trkpt>
      <trkpt lat="44.97826" lon="6.44386">
        <ele>2032.8</ele>
        <time>2020-08-18T14:52:43Z</time>
      </trkpt>
      <trkpt lat="44.97822" lon="6.44398">
        <ele>2029.2</ele>
        <time>2020-08-18T14:53:01Z</time>
      </trkpt>
      <trkpt lat="44.97818" lon="6.4441">
        <ele>2027</ele>
        <time>2020-08-18T14:53:11Z</time>
      </trkpt>
      <trkpt lat="44.97812" lon="6.44421">
        <ele>2024.1</ele>
        <time>2020-08-18T14:53:25Z</time>
      </trkpt>
      <trkpt lat="44.97805" lon="6.4443">
        <ele>2020.6</ele>
        <time>2020-08-18T14:53:41Z</time>
      </trkpt>
      <trkpt lat="44.97801" lon="6.44442">
        <ele>2017.6</ele>
        <time>2020-08-18T14:53:54Z</time>
      </trkpt>
      <trkpt lat="44.97795" lon="6.44451">
        <ele>2014.4</ele>
        <time>2020-08-18T14:54:08Z</time>
      </trkpt>
      <trkpt lat="44.97789" lon="6.44463">
        <ele>2011.3</ele>
        <time>2020-08-18T14:54:23Z</time>
      </trkpt>
      <trkpt lat="44.97786" lon="6.44475">
        <ele>2008.8</ele>
        <time>2020-08-18T14:54:35Z</time>
      </trkpt>
      <trkpt lat="44.97778" lon="6.44482">
        <ele>2004.1</ele>
        <time>2020-08-18T14:55:00Z</time>
      </trkpt>
      <trkpt lat="44.97775" lon="6.44495">
        <ele>2001.6</ele>
        <time>2020-08-18T14:55:12Z</time>
      </trkpt>
      <trkpt lat="44.97768" lon="6.44504">
        <ele>1997.1</ele>
        <time>2020-08-18T14:55:34Z</time>
      </trkpt>
      <trkpt lat="44.97768" lon="6.44517">
        <ele>1994.5</ele>
        <time>2020-08-18T14:55:47Z</time>
      </trkpt>
      <trkpt lat="44.97761" lon="6.44526">
        <ele>1992.3</ele>
        <time>2020-08-18T14:55:59Z</time>
      </trkpt>
      <trkpt lat="44.97756" lon="6.44537">
        <ele>1987</ele>
        <time>2020-08-18T14:56:25Z</time>
      </trkpt>
      <trkpt lat="44.97751" lon="6.44548">
        <ele>1985.2</ele>
        <time>2020-08-18T14:56:35Z</time>
      </trkpt>
      <trkpt lat="44.97749" lon="6.44562">
        <ele>1982.9</ele>
        <time>2020-08-18T14:56:45Z</time>
      </trkpt>
      <trkpt lat="44.9775" lon="6.44576">
        <ele>1979.6</ele>
        <time>2020-08-18T14:56:59Z</time>
      </trkpt>
      <trkpt lat="44.97749" lon="6.4459">
        <ele>1977.6</ele>
        <time>2020-08-18T14:57:07Z</time>
      </trkpt>
      <trkpt lat="44.97745" lon="6.44601">
        <ele>1974.7</ele>
        <time>2020-08-18T14:57:20Z</time>
      </trkpt>
      <trkpt lat="44.97743" lon="6.44589">
        <ele>1972.7</ele>
        <time>2020-08-18T14:57:30Z</time>
      </trkpt>
      <trkpt lat="44.97737" lon="6.44599">
        <ele>1969.1</ele>
        <time>2020-08-18T14:57:48Z</time>
      </trkpt>
      <trkpt lat="44.97733" lon="6.44612">
        <ele>1966.6</ele>
        <time>2020-08-18T14:57:59Z</time>
      </trkpt>
      <trkpt lat="44.97724" lon="6.44614">
        <ele>1961</ele>
        <time>2020-08-18T14:58:23Z</time>
      </trkpt>
      <trkpt lat="44.97721" lon="6.44626">
        <ele>1958.5</ele>
        <time>2020-08-18T14:58:35Z</time>
      </trkpt>
      <trkpt lat="44.97717" lon="6.44639">
        <ele>1955.9</ele>
        <time>2020-08-18T14:58:47Z</time>
      </trkpt>
      <trkpt lat="44.97715" lon="6.44652">
        <ele>1953.2</ele>
        <time>2020-08-18T14:59:00Z</time>
      </trkpt>
      <trkpt lat="44.97713" lon="6.44665">
        <ele>1951.1</ele>
        <time>2020-08-18T14:59:10Z</time>
      </trkpt>
      <trkpt lat="44.97706" lon="6.44673">
        <ele>1945.5</ele>
        <time>2020-08-18T14:59:39Z</time>
      </trkpt>
      <trkpt lat="44.97702" lon="6.44685">
        <ele>1943.1</ele>
        <time>2020-08-18T14:59:50Z</time>
      </trkpt>
      <trkpt lat="44.97698" lon="6.44698">
        <ele>1940.1</ele>
        <time>2020-08-18T15:00:03Z</time>
      </trkpt>
      <trkpt lat="44.97696" lon="6.4471">
        <ele>1938.3</ele>
        <time>2020-08-18T15:00:12Z</time>
      </trkpt>
      <trkpt lat="44.97692" lon="6.44723">
        <ele>1936</ele>
        <time>2020-08-18T15:00:25Z</time>
      </trkpt>
      <trkpt lat="44.97686" lon="6.44734">
        <ele>1934.6</ele>
        <time>2020-08-18T15:00:33Z</time>
      </trkpt>
      <trkpt lat="44.97682" lon="6.44746">
        <ele>1933.4</ele>
        <time>2020-08-18T15:00:43Z</time>
      </trkpt>
      <trkpt lat="44.97678" lon="6.44758">
        <ele>1932.6</ele>
        <time>2020-08-18T15:00:53Z</time>
      </trkpt>
      <trkpt lat="44.97673" lon="6.4477">
        <ele>1931.7</ele>
        <time>2020-08-18T15:01:04Z</time>
      </trkpt>
      <trkpt lat="44.9767" lon="6.44782">
        <ele>1930.8</ele>
        <time>2020-08-18T15:01:14Z</time>
      </trkpt>
      <trkpt lat="44.97666" lon="6.44794">
        <ele>1929.8</ele>
        <time>2020-08-18T15:01:24Z</time>
      </trkpt>
      <trkpt lat="44.97661" lon="6.44805">
        <ele>1928.3</ele>
        <time>2020-08-18T15:01:41Z</time>
      </trkpt>
      <trkpt lat="44.97657" lon="6.44817">
        <ele>1927.7</ele>
        <time>2020-08-18T15:01:53Z</time>
      </trkpt>
      <trkpt lat="44.97648" lon="6.4482">
        <ele>1927.3</ele>
        <time>2020-08-18T15:02:21Z</time>
      </trkpt>
      <trkpt lat="44.97639" lon="6.44815">
        <ele>1927.3</ele>
        <time>2020-08-18T15:02:30Z</time>
      </trkpt>
      <trkpt lat="44.9763" lon="6.44814">
        <ele>1927.3</ele>
        <time>2020-08-18T15:02:36Z</time>
      </trkpt>
      <trkpt lat="44.97622" lon="6.4482">
        <ele>1927.3</ele>
        <time>2020-08-18T15:02:43Z</time>
      </trkpt>
      <trkpt lat="44.97614" lon="6.44812">
        <ele>1927.4</ele>
        <time>2020-08-18T15:02:58Z</time>
      </trkpt>
      <trkpt lat="44.97622" lon="6.44802">
        <ele>1928</ele>
        <time>2020-08-18T15:04:25Z</time>
      </trkpt>
      <trkpt lat="44.97616" lon="6.44812">
        <ele>1928.8</ele>
        <time>2020-08-18T15:08:46Z</time>
      </trkpt>
      <trkpt lat="44.97616" lon="6.44826">
        <ele>1928.7</ele>
        <time>2020-08-18T15:08:52Z</time>
      </trkpt>
      <trkpt lat="44.97616" lon="6.4484">
        <ele>1928.7</ele>
        <time>2020-08-18T15:09:02Z</time>
      </trkpt>
      <trkpt lat="44.97611" lon="6.44852">
        <ele>1928.6</ele>
        <time>2020-08-18T15:09:10Z</time>
      </trkpt>
      <trkpt lat="44.97604" lon="6.44861">
        <ele>1928.5</ele>
        <time>2020-08-18T15:09:19Z</time>
      </trkpt>
      <trkpt lat="44.97607" lon="6.44874">
        <ele>1928.4</ele>
        <time>2020-08-18T15:09:29Z</time>
      </trkpt>
      <trkpt lat="44.97609" lon="6.44886">
        <ele>1928.2</ele>
        <time>2020-08-18T15:09:37Z</time>
      </trkpt>
      <trkpt lat="44.97611" lon="6.449">
        <ele>1927.7</ele>
        <time>2020-08-18T15:09:47Z</time>
      </trkpt>
      <trkpt lat="44.97607" lon="6.44912">
        <ele>1927</ele>
        <time>2020-08-18T15:09:55Z</time>
      </trkpt>
      <trkpt lat="44.97604" lon="6.44925">
        <ele>1926.6</ele>
        <time>2020-08-18T15:10:03Z</time>
      </trkpt>
      <trkpt lat="44.97604" lon="6.44938">
        <ele>1926.1</ele>
        <time>2020-08-18T15:10:12Z</time>
      </trkpt>
      <trkpt lat="44.97604" lon="6.44951">
        <ele>1925.4</ele>
        <time>2020-08-18T15:10:22Z</time>
      </trkpt>
      <trkpt lat="44.97601" lon="6.44964">
        <ele>1924.5</ele>
        <time>2020-08-18T15:10:32Z</time>
      </trkpt>
      <trkpt lat="44.97605" lon="6.44978">
        <ele>1923.5</ele>
        <time>2020-08-18T15:10:40Z</time>
      </trkpt>
      <trkpt lat="44.97599" lon="6.44989">
        <ele>1922.4</ele>
        <time>2020-08-18T15:10:48Z</time>
      </trkpt>
      <trkpt lat="44.97594" lon="6.45002">
        <ele>1921.5</ele>
        <time>2020-08-18T15:10:56Z</time>
      </trkpt>
      <trkpt lat="44.9759" lon="6.45014">
        <ele>1920.8</ele>
        <time>2020-08-18T15:11:05Z</time>
      </trkpt>
      <trkpt lat="44.97585" lon="6.45025">
        <ele>1920.1</ele>
        <time>2020-08-18T15:11:14Z</time>
      </trkpt>
      <trkpt lat="44.97587" lon="6.45038">
        <ele>1918.7</ele>
        <time>2020-08-18T15:11:26Z</time>
      </trkpt>
      <trkpt lat="44.97583" lon="6.45051">
        <ele>1917.4</ele>
        <time>2020-08-18T15:11:35Z</time>
      </trkpt>
      <trkpt lat="44.97577" lon="6.45061">
        <ele>1916.4</ele>
        <time>2020-08-18T15:11:43Z</time>
      </trkpt>
      <trkpt lat="44.97579" lon="6.45075">
        <ele>1915</ele>
        <time>2020-08-18T15:11:56Z</time>
      </trkpt>
      <trkpt lat="44.97583" lon="6.45088">
        <ele>1913</ele>
        <time>2020-08-18T15:12:07Z</time>
      </trkpt>
      <trkpt lat="44.97583" lon="6.45101">
        <ele>1911.2</ele>
        <time>2020-08-18T15:12:17Z</time>
      </trkpt>
      <trkpt lat="44.97584" lon="6.45114">
        <ele>1908.7</ele>
        <time>2020-08-18T15:12:30Z</time>
      </trkpt>
      <trkpt lat="44.97586" lon="6.45127">
        <ele>1906.6</ele>
        <time>2020-08-18T15:12:42Z</time>
      </trkpt>
      <trkpt lat="44.97587" lon="6.45142">
        <ele>1903.7</ele>
        <time>2020-08-18T15:12:59Z</time>
      </trkpt>
      <trkpt lat="44.97586" lon="6.45156">
        <ele>1901.5</ele>
        <time>2020-08-18T15:13:10Z</time>
      </trkpt>
      <trkpt lat="44.97585" lon="6.45169">
        <ele>1900.1</ele>
        <time>2020-08-18T15:13:17Z</time>
      </trkpt>
      <trkpt lat="44.97586" lon="6.45183">
        <ele>1898.2</ele>
        <time>2020-08-18T15:13:26Z</time>
      </trkpt>
      <trkpt lat="44.97586" lon="6.45196">
        <ele>1896.2</ele>
        <time>2020-08-18T15:13:36Z</time>
      </trkpt>
      <trkpt lat="44.97582" lon="6.45209">
        <ele>1894.2</ele>
        <time>2020-08-18T15:13:45Z</time>
      </trkpt>
      <trkpt lat="44.97582" lon="6.45222">
        <ele>1892.2</ele>
        <time>2020-08-18T15:13:54Z</time>
      </trkpt>
      <trkpt lat="44.97578" lon="6.45235">
        <ele>1889.9</ele>
        <time>2020-08-18T15:14:05Z</time>
      </trkpt>
      <trkpt lat="44.97577" lon="6.45248">
        <ele>1888.6</ele>
        <time>2020-08-18T15:14:12Z</time>
      </trkpt>
      <trkpt lat="44.97578" lon="6.45261">
        <ele>1886.8</ele>
        <time>2020-08-18T15:14:21Z</time>
      </trkpt>
      <trkpt lat="44.97579" lon="6.45275">
        <ele>1883.8</ele>
        <time>2020-08-18T15:14:32Z</time>
      </trkpt>
      <trkpt lat="44.97576" lon="6.45287">
        <ele>1881.7</ele>
        <time>2020-08-18T15:14:41Z</time>
      </trkpt>
      <trkpt lat="44.97569" lon="6.45298">
        <ele>1880</ele>
        <time>2020-08-18T15:14:50Z</time>
      </trkpt>
      <trkpt lat="44.97562" lon="6.45307">
        <ele>1878.2</ele>
        <time>2020-08-18T15:15:01Z</time>
      </trkpt>
      <trkpt lat="44.97558" lon="6.45318">
        <ele>1876.7</ele>
        <time>2020-08-18T15:15:10Z</time>
      </trkpt>
      <trkpt lat="44.9756" lon="6.45332">
        <ele>1874.3</ele>
        <time>2020-08-18T15:15:24Z</time>
      </trkpt>
      <trkpt lat="44.9756" lon="6.45345">
        <ele>1873.2</ele>
        <time>2020-08-18T15:15:28Z</time>
      </trkpt>
      <trkpt lat="44.97561" lon="6.45358">
        <ele>1871.1</ele>
        <time>2020-08-18T15:15:38Z</time>
      </trkpt>
      <trkpt lat="44.97561" lon="6.45371">
        <ele>1868.6</ele>
        <time>2020-08-18T15:15:50Z</time>
      </trkpt>
      <trkpt lat="44.97568" lon="6.45382">
        <ele>1865.3</ele>
        <time>2020-08-18T15:16:05Z</time>
      </trkpt>
      <trkpt lat="44.97572" lon="6.45394">
        <ele>1863</ele>
        <time>2020-08-18T15:16:15Z</time>
      </trkpt>
      <trkpt lat="44.97574" lon="6.45408">
        <ele>1860.3</ele>
        <time>2020-08-18T15:16:27Z</time>
      </trkpt>
      <trkpt lat="44.97578" lon="6.4542">
        <ele>1858.5</ele>
        <time>2020-08-18T15:16:35Z</time>
      </trkpt>
      <trkpt lat="44.97579" lon="6.45435">
        <ele>1856.4</ele>
        <time>2020-08-18T15:16:45Z</time>
      </trkpt>
      <trkpt lat="44.97584" lon="6.45446">
        <ele>1854.4</ele>
        <time>2020-08-18T15:16:55Z</time>
      </trkpt>
      <trkpt lat="44.9759" lon="6.45457">
        <ele>1852.5</ele>
        <time>2020-08-18T15:17:04Z</time>
      </trkpt>
      <trkpt lat="44.97595" lon="6.45469">
        <ele>1850</ele>
        <time>2020-08-18T15:17:16Z</time>
      </trkpt>
      <trkpt lat="44.97594" lon="6.45482">
        <ele>1847.5</ele>
        <time>2020-08-18T15:17:30Z</time>
      </trkpt>
      <trkpt lat="44.97596" lon="6.45495">
        <ele>1845.5</ele>
        <time>2020-08-18T15:17:41Z</time>
      </trkpt>
      <trkpt lat="44.97603" lon="6.45505">
        <ele>1843.8</ele>
        <time>2020-08-18T15:17:49Z</time>
      </trkpt>
      <trkpt lat="44.97604" lon="6.45518">
        <ele>1842.5</ele>
        <time>2020-08-18T15:17:55Z</time>
      </trkpt>
      <trkpt lat="44.97607" lon="6.45531">
        <ele>1840.2</ele>
        <time>2020-08-18T15:18:06Z</time>
      </trkpt>
      <trkpt lat="44.97612" lon="6.45541">
        <ele>1837.9</ele>
        <time>2020-08-18T15:18:18Z</time>
      </trkpt>
      <trkpt lat="44.97611" lon="6.45554">
        <ele>1835.7</ele>
        <time>2020-08-18T15:18:30Z</time>
      </trkpt>
      <trkpt lat="44.97617" lon="6.45563">
        <ele>1833.2</ele>
        <time>2020-08-18T15:18:43Z</time>
      </trkpt>
      <trkpt lat="44.97624" lon="6.45573">
        <ele>1831.4</ele>
        <time>2020-08-18T15:18:52Z</time>
      </trkpt>
      <trkpt lat="44.97632" lon="6.45579">
        <ele>1829.3</ele>
        <time>2020-08-18T15:19:02Z</time>
      </trkpt>
      <trkpt lat="44.97639" lon="6.45589">
        <ele>1827.3</ele>
        <time>2020-08-18T15:19:12Z</time>
      </trkpt>
      <trkpt lat="44.97643" lon="6.45601">
        <ele>1823.7</ele>
        <time>2020-08-18T15:19:38Z</time>
      </trkpt>
      <trkpt lat="44.97644" lon="6.45614">
        <ele>1821.8</ele>
        <time>2020-08-18T15:19:53Z</time>
      </trkpt>
      <trkpt lat="44.97648" lon="6.45626">
        <ele>1819.1</ele>
        <time>2020-08-18T15:20:16Z</time>
      </trkpt>
      <trkpt lat="44.97656" lon="6.45635">
        <ele>1817.6</ele>
        <time>2020-08-18T15:20:26Z</time>
      </trkpt>
      <trkpt lat="44.97661" lon="6.45647">
        <ele>1815.7</ele>
        <time>2020-08-18T15:20:36Z</time>
      </trkpt>
      <trkpt lat="44.97666" lon="6.45658">
        <ele>1814.1</ele>
        <time>2020-08-18T15:20:44Z</time>
      </trkpt>
      <trkpt lat="44.97672" lon="6.4567">
        <ele>1811.7</ele>
        <time>2020-08-18T15:20:55Z</time>
      </trkpt>
      <trkpt lat="44.97677" lon="6.45682">
        <ele>1810.6</ele>
        <time>2020-08-18T15:21:00Z</time>
      </trkpt>
      <trkpt lat="44.97681" lon="6.45694">
        <ele>1809</ele>
        <time>2020-08-18T15:21:07Z</time>
      </trkpt>
      <trkpt lat="44.97684" lon="6.45706">
        <ele>1806</ele>
        <time>2020-08-18T15:21:19Z</time>
      </trkpt>
      <trkpt lat="44.97685" lon="6.4572">
        <ele>1803.5</ele>
        <time>2020-08-18T15:21:30Z</time>
      </trkpt>
      <trkpt lat="44.97688" lon="6.45733">
        <ele>1801.8</ele>
        <time>2020-08-18T15:21:37Z</time>
      </trkpt>
      <trkpt lat="44.97688" lon="6.45746">
        <ele>1799.9</ele>
        <time>2020-08-18T15:21:46Z</time>
      </trkpt>
      <trkpt lat="44.97691" lon="6.4576">
        <ele>1797.5</ele>
        <time>2020-08-18T15:21:57Z</time>
      </trkpt>
      <trkpt lat="44.97684" lon="6.4577">
        <ele>1796.3</ele>
        <time>2020-08-18T15:22:03Z</time>
      </trkpt>
      <trkpt lat="44.97687" lon="6.45783">
        <ele>1795</ele>
        <time>2020-08-18T15:22:11Z</time>
      </trkpt>
      <trkpt lat="44.97687" lon="6.45796">
        <ele>1793.3</ele>
        <time>2020-08-18T15:22:22Z</time>
      </trkpt>
      <trkpt lat="44.97683" lon="6.45808">
        <ele>1792.3</ele>
        <time>2020-08-18T15:22:29Z</time>
      </trkpt>
      <trkpt lat="44.97681" lon="6.45821">
        <ele>1791.3</ele>
        <time>2020-08-18T15:22:36Z</time>
      </trkpt>
      <trkpt lat="44.9768" lon="6.45834">
        <ele>1790.1</ele>
        <time>2020-08-18T15:22:44Z</time>
      </trkpt>
      <trkpt lat="44.97682" lon="6.45848">
        <ele>1788.6</ele>
        <time>2020-08-18T15:22:52Z</time>
      </trkpt>
      <trkpt lat="44.97686" lon="6.4586">
        <ele>1786.7</ele>
        <time>2020-08-18T15:23:01Z</time>
      </trkpt>
      <trkpt lat="44.97687" lon="6.45873">
        <ele>1784.3</ele>
        <time>2020-08-18T15:23:12Z</time>
      </trkpt>
      <trkpt lat="44.97694" lon="6.45883">
        <ele>1782.1</ele>
        <time>2020-08-18T15:23:21Z</time>
      </trkpt>
      <trkpt lat="44.97696" lon="6.45896">
        <ele>1779.2</ele>
        <time>2020-08-18T15:23:33Z</time>
      </trkpt>
      <trkpt lat="44.97693" lon="6.45908">
        <ele>1777.9</ele>
        <time>2020-08-18T15:23:39Z</time>
      </trkpt>
      <trkpt lat="44.97693" lon="6.45922">
        <ele>1777</ele>
        <time>2020-08-18T15:23:44Z</time>
      </trkpt>
      <trkpt lat="44.97691" lon="6.45935">
        <ele>1775.9</ele>
        <time>2020-08-18T15:23:51Z</time>
      </trkpt>
      <trkpt lat="44.97693" lon="6.45947">
        <ele>1774.6</ele>
        <time>2020-08-18T15:23:59Z</time>
      </trkpt>
      <trkpt lat="44.97697" lon="6.45959">
        <ele>1773</ele>
        <time>2020-08-18T15:24:07Z</time>
      </trkpt>
      <trkpt lat="44.977" lon="6.45972">
        <ele>1771.2</ele>
        <time>2020-08-18T15:24:15Z</time>
      </trkpt>
      <trkpt lat="44.97702" lon="6.45984">
        <ele>1769.1</ele>
        <time>2020-08-18T15:24:24Z</time>
      </trkpt>
      <trkpt lat="44.97709" lon="6.45995">
        <ele>1766.7</ele>
        <time>2020-08-18T15:24:34Z</time>
      </trkpt>
      <trkpt lat="44.97715" lon="6.46005">
        <ele>1764.8</ele>
        <time>2020-08-18T15:24:42Z</time>
      </trkpt>
      <trkpt lat="44.9772" lon="6.46017">
        <ele>1763.4</ele>
        <time>2020-08-18T15:24:48Z</time>
      </trkpt>
      <trkpt lat="44.97724" lon="6.4603">
        <ele>1761.2</ele>
        <time>2020-08-18T15:24:57Z</time>
      </trkpt>
      <trkpt lat="44.9773" lon="6.46041">
        <ele>1756.6</ele>
        <time>2020-08-18T15:25:35Z</time>
      </trkpt>
      <trkpt lat="44.97736" lon="6.46051">
        <ele>1756.1</ele>
        <time>2020-08-18T15:25:41Z</time>
      </trkpt>
      <trkpt lat="44.97741" lon="6.46062">
        <ele>1755.3</ele>
        <time>2020-08-18T15:25:46Z</time>
      </trkpt>
      <trkpt lat="44.97748" lon="6.46071">
        <ele>1754.3</ele>
        <time>2020-08-18T15:25:52Z</time>
      </trkpt>
      <trkpt lat="44.97753" lon="6.46083">
        <ele>1753</ele>
        <time>2020-08-18T15:25:59Z</time>
      </trkpt>
      <trkpt lat="44.97758" lon="6.46093">
        <ele>1751.4</ele>
        <time>2020-08-18T15:26:07Z</time>
      </trkpt>
      <trkpt lat="44.97762" lon="6.46104">
        <ele>1750.1</ele>
        <time>2020-08-18T15:26:13Z</time>
      </trkpt>
      <trkpt lat="44.97769" lon="6.46114">
        <ele>1748.6</ele>
        <time>2020-08-18T15:26:20Z</time>
      </trkpt>
      <trkpt lat="44.97773" lon="6.46125">
        <ele>1746.6</ele>
        <time>2020-08-18T15:26:28Z</time>
      </trkpt>
      <trkpt lat="44.97778" lon="6.46137">
        <ele>1745</ele>
        <time>2020-08-18T15:26:35Z</time>
      </trkpt>
      <trkpt lat="44.97784" lon="6.46145">
        <ele>1743.7</ele>
        <time>2020-08-18T15:26:41Z</time>
      </trkpt>
      <trkpt lat="44.9779" lon="6.46157">
        <ele>1742.1</ele>
        <time>2020-08-18T15:26:48Z</time>
      </trkpt>
      <trkpt lat="44.97795" lon="6.46169">
        <ele>1740.7</ele>
        <time>2020-08-18T15:26:55Z</time>
      </trkpt>
      <trkpt lat="44.978" lon="6.46182">
        <ele>1739.3</ele>
        <time>2020-08-18T15:27:02Z</time>
      </trkpt>
      <trkpt lat="44.97805" lon="6.46194">
        <ele>1737.8</ele>
        <time>2020-08-18T15:27:09Z</time>
      </trkpt>
      <trkpt lat="44.97811" lon="6.46205">
        <ele>1736.3</ele>
        <time>2020-08-18T15:27:17Z</time>
      </trkpt>
      <trkpt lat="44.97816" lon="6.46216">
        <ele>1734.8</ele>
        <time>2020-08-18T15:27:24Z</time>
      </trkpt>
      <trkpt lat="44.97822" lon="6.46228">
        <ele>1733.1</ele>
        <time>2020-08-18T15:27:32Z</time>
      </trkpt>
      <trkpt lat="44.97826" lon="6.4624">
        <ele>1731.3</ele>
        <time>2020-08-18T15:27:41Z</time>
      </trkpt>
      <trkpt lat="44.97832" lon="6.46251">
        <ele>1730.2</ele>
        <time>2020-08-18T15:27:47Z</time>
      </trkpt>
      <trkpt lat="44.97839" lon="6.4626">
        <ele>1728.7</ele>
        <time>2020-08-18T15:27:55Z</time>
      </trkpt>
      <trkpt lat="44.97846" lon="6.46271">
        <ele>1727</ele>
        <time>2020-08-18T15:28:04Z</time>
      </trkpt>
      <trkpt lat="44.97853" lon="6.4628">
        <ele>1725.8</ele>
        <time>2020-08-18T15:28:11Z</time>
      </trkpt>
      <trkpt lat="44.97861" lon="6.46288">
        <ele>1722.9</ele>
        <time>2020-08-18T15:28:29Z</time>
      </trkpt>
      <trkpt lat="44.97868" lon="6.46297">
        <ele>1719.8</ele>
        <time>2020-08-18T15:28:59Z</time>
      </trkpt>
      <trkpt lat="44.97872" lon="6.46309">
        <ele>1717.5</ele>
        <time>2020-08-18T15:29:42Z</time>
      </trkpt>
      <trkpt lat="44.9788" lon="6.46318">
        <ele>1713.8</ele>
        <time>2020-08-18T15:30:44Z</time>
      </trkpt>
      <trkpt lat="44.97875" lon="6.4633">
        <ele>1713.3</ele>
        <time>2020-08-18T15:30:55Z</time>
      </trkpt>
      <trkpt lat="44.9788" lon="6.46341">
        <ele>1712.7</ele>
        <time>2020-08-18T15:31:04Z</time>
      </trkpt>
      <trkpt lat="44.97885" lon="6.46354">
        <ele>1710.2</ele>
        <time>2020-08-18T15:31:45Z</time>
      </trkpt>
      <trkpt lat="44.97893" lon="6.46361">
        <ele>1710</ele>
        <time>2020-08-18T15:31:52Z</time>
      </trkpt>
      <trkpt lat="44.97901" lon="6.46369">
        <ele>1709.9</ele>
        <time>2020-08-18T15:32:00Z</time>
      </trkpt>
      <trkpt lat="44.97907" lon="6.46379">
        <ele>1709.8</ele>
        <time>2020-08-18T15:32:08Z</time>
      </trkpt>
      <trkpt lat="44.97912" lon="6.46392">
        <ele>1709.2</ele>
        <time>2020-08-18T15:32:16Z</time>
      </trkpt>
      <trkpt lat="44.97915" lon="6.46405">
        <ele>1708.6</ele>
        <time>2020-08-18T15:32:21Z</time>
      </trkpt>
      <trkpt lat="44.97919" lon="6.46417">
        <ele>1708</ele>
        <time>2020-08-18T15:32:27Z</time>
      </trkpt>
      <trkpt lat="44.97924" lon="6.46429">
        <ele>1707.2</ele>
        <time>2020-08-18T15:32:34Z</time>
      </trkpt>
      <trkpt lat="44.97931" lon="6.46439">
        <ele>1706.4</ele>
        <time>2020-08-18T15:32:41Z</time>
      </trkpt>
      <trkpt lat="44.97938" lon="6.46448">
        <ele>1705.4</ele>
        <time>2020-08-18T15:32:49Z</time>
      </trkpt>
      <trkpt lat="44.97942" lon="6.46461">
        <ele>1704.4</ele>
        <time>2020-08-18T15:32:56Z</time>
      </trkpt>
      <trkpt lat="44.97949" lon="6.46469">
        <ele>1703.3</ele>
        <time>2020-08-18T15:33:03Z</time>
      </trkpt>
      <trkpt lat="44.97956" lon="6.46478">
        <ele>1702.4</ele>
        <time>2020-08-18T15:33:10Z</time>
      </trkpt>
      <trkpt lat="44.97964" lon="6.46486">
        <ele>1701.4</ele>
        <time>2020-08-18T15:33:18Z</time>
      </trkpt>
      <trkpt lat="44.97971" lon="6.46495">
        <ele>1700.5</ele>
        <time>2020-08-18T15:33:25Z</time>
      </trkpt>
      <trkpt lat="44.97977" lon="6.46505">
        <ele>1699.6</ele>
        <time>2020-08-18T15:33:33Z</time>
      </trkpt>
      <trkpt lat="44.97983" lon="6.46515">
        <ele>1698.5</ele>
        <time>2020-08-18T15:33:41Z</time>
      </trkpt>
      <trkpt lat="44.97989" lon="6.46527">
        <ele>1697.3</ele>
        <time>2020-08-18T15:33:49Z</time>
      </trkpt>
      <trkpt lat="44.97992" lon="6.46539">
        <ele>1696.5</ele>
        <time>2020-08-18T15:33:54Z</time>
      </trkpt>
      <trkpt lat="44.97998" lon="6.46551">
        <ele>1695.4</ele>
        <time>2020-08-18T15:34:01Z</time>
      </trkpt>
      <trkpt lat="44.98001" lon="6.46563">
        <ele>1694.5</ele>
        <time>2020-08-18T15:34:07Z</time>
      </trkpt>
      <trkpt lat="44.98004" lon="6.46576">
        <ele>1693.6</ele>
        <time>2020-08-18T15:34:14Z</time>
      </trkpt>
      <trkpt lat="44.98007" lon="6.46589">
        <ele>1692.8</ele>
        <time>2020-08-18T15:34:21Z</time>
      </trkpt>
      <trkpt lat="44.98009" lon="6.46601">
        <ele>1692.1</ele>
        <time>2020-08-18T15:34:27Z</time>
      </trkpt>
      <trkpt lat="44.98012" lon="6.46615">
        <ele>1690.9</ele>
        <time>2020-08-18T15:34:35Z</time>
      </trkpt>
      <trkpt lat="44.98017" lon="6.46604">
        <ele>1688.4</ele>
        <time>2020-08-18T15:34:50Z</time>
      </trkpt>
      <trkpt lat="44.98017" lon="6.46591">
        <ele>1687.4</ele>
        <time>2020-08-18T15:34:58Z</time>
      </trkpt>
      <trkpt lat="44.98018" lon="6.46578">
        <ele>1686.4</ele>
        <time>2020-08-18T15:35:05Z</time>
      </trkpt>
      <trkpt lat="44.9802" lon="6.46566">
        <ele>1685.6</ele>
        <time>2020-08-18T15:35:11Z</time>
      </trkpt>
      <trkpt lat="44.98023" lon="6.46553">
        <ele>1684.5</ele>
        <time>2020-08-18T15:35:18Z</time>
      </trkpt>
      <trkpt lat="44.98025" lon="6.46539">
        <ele>1683.2</ele>
        <time>2020-08-18T15:35:27Z</time>
      </trkpt>
      <trkpt lat="44.9803" lon="6.46529">
        <ele>1682.6</ele>
        <time>2020-08-18T15:35:31Z</time>
      </trkpt>
      <trkpt lat="44.98038" lon="6.46522">
        <ele>1681.8</ele>
        <time>2020-08-18T15:35:36Z</time>
      </trkpt>
      <trkpt lat="44.98046" lon="6.46528">
        <ele>1680.9</ele>
        <time>2020-08-18T15:35:42Z</time>
      </trkpt>
      <trkpt lat="44.98053" lon="6.46539">
        <ele>1679.7</ele>
        <time>2020-08-18T15:35:50Z</time>
      </trkpt>
      <trkpt lat="44.98055" lon="6.46551">
        <ele>1678.4</ele>
        <time>2020-08-18T15:35:59Z</time>
      </trkpt>
      <trkpt lat="44.98056" lon="6.46566">
        <ele>1677.6</ele>
        <time>2020-08-18T15:36:05Z</time>
      </trkpt>
      <trkpt lat="44.98056" lon="6.46579">
        <ele>1676.4</ele>
        <time>2020-08-18T15:36:14Z</time>
      </trkpt>
      <trkpt lat="44.98056" lon="6.46593">
        <ele>1674.9</ele>
        <time>2020-08-18T15:36:23Z</time>
      </trkpt>
      <trkpt lat="44.98057" lon="6.46606">
        <ele>1673.6</ele>
        <time>2020-08-18T15:36:31Z</time>
      </trkpt>
      <trkpt lat="44.98055" lon="6.4662">
        <ele>1672.8</ele>
        <time>2020-08-18T15:36:37Z</time>
      </trkpt>
      <trkpt lat="44.9806" lon="6.46632">
        <ele>1671.5</ele>
        <time>2020-08-18T15:36:45Z</time>
      </trkpt>
      <trkpt lat="44.98065" lon="6.46643">
        <ele>1670.3</ele>
        <time>2020-08-18T15:36:53Z</time>
      </trkpt>
      <trkpt lat="44.9807" lon="6.46655">
        <ele>1669.1</ele>
        <time>2020-08-18T15:37:01Z</time>
      </trkpt>
      <trkpt lat="44.98073" lon="6.46669">
        <ele>1668</ele>
        <time>2020-08-18T15:37:08Z</time>
      </trkpt>
      <trkpt lat="44.98074" lon="6.46682">
        <ele>1666.8</ele>
        <time>2020-08-18T15:37:17Z</time>
      </trkpt>
      <trkpt lat="44.98081" lon="6.46692">
        <ele>1665.7</ele>
        <time>2020-08-18T15:37:25Z</time>
      </trkpt>
      <trkpt lat="44.98086" lon="6.46705">
        <ele>1664.4</ele>
        <time>2020-08-18T15:37:34Z</time>
      </trkpt>
      <trkpt lat="44.98092" lon="6.46715">
        <ele>1663.5</ele>
        <time>2020-08-18T15:37:40Z</time>
      </trkpt>
      <trkpt lat="44.98099" lon="6.46724">
        <ele>1662.1</ele>
        <time>2020-08-18T15:37:48Z</time>
      </trkpt>
      <trkpt lat="44.98106" lon="6.46733">
        <ele>1660.7</ele>
        <time>2020-08-18T15:37:57Z</time>
      </trkpt>
      <trkpt lat="44.98113" lon="6.46741">
        <ele>1659.3</ele>
        <time>2020-08-18T15:38:06Z</time>
      </trkpt>
      <trkpt lat="44.9812" lon="6.46752">
        <ele>1658.3</ele>
        <time>2020-08-18T15:38:12Z</time>
      </trkpt>
      <trkpt lat="44.98128" lon="6.46764">
        <ele>1656.8</ele>
        <time>2020-08-18T15:38:23Z</time>
      </trkpt>
      <trkpt lat="44.98137" lon="6.4677">
        <ele>1655</ele>
        <time>2020-08-18T15:38:33Z</time>
      </trkpt>
      <trkpt lat="44.98146" lon="6.46772">
        <ele>1652.2</ele>
        <time>2020-08-18T15:38:46Z</time>
      </trkpt>
      <trkpt lat="44.98153" lon="6.46781">
        <ele>1650.8</ele>
        <time>2020-08-18T15:38:52Z</time>
      </trkpt>
      <trkpt lat="44.98161" lon="6.46789">
        <ele>1649</ele>
        <time>2020-08-18T15:38:59Z</time>
      </trkpt>
      <trkpt lat="44.98169" lon="6.46797">
        <ele>1647.6</ele>
        <time>2020-08-18T15:39:05Z</time>
      </trkpt>
      <trkpt lat="44.98175" lon="6.46808">
        <ele>1646.2</ele>
        <time>2020-08-18T15:39:11Z</time>
      </trkpt>
      <trkpt lat="44.98178" lon="6.46822">
        <ele>1644.6</ele>
        <time>2020-08-18T15:39:18Z</time>
      </trkpt>
      <trkpt lat="44.98178" lon="6.46835">
        <ele>1643.4</ele>
        <time>2020-08-18T15:39:25Z</time>
      </trkpt>
      <trkpt lat="44.9818" lon="6.46848">
        <ele>1642.4</ele>
        <time>2020-08-18T15:39:32Z</time>
      </trkpt>
      <trkpt lat="44.98182" lon="6.4686">
        <ele>1641.3</ele>
        <time>2020-08-18T15:39:39Z</time>
      </trkpt>
      <trkpt lat="44.98183" lon="6.46873">
        <ele>1640</ele>
        <time>2020-08-18T15:39:47Z</time>
      </trkpt>
      <trkpt lat="44.98186" lon="6.46886">
        <ele>1638.8</ele>
        <time>2020-08-18T15:39:54Z</time>
      </trkpt>
      <trkpt lat="44.98192" lon="6.46897">
        <ele>1637.8</ele>
        <time>2020-08-18T15:40:00Z</time>
      </trkpt>
      <trkpt lat="44.98197" lon="6.46909">
        <ele>1636.5</ele>
        <time>2020-08-18T15:40:07Z</time>
      </trkpt>
      <trkpt lat="44.98203" lon="6.4692">
        <ele>1635.6</ele>
        <time>2020-08-18T15:40:13Z</time>
      </trkpt>
      <trkpt lat="44.98212" lon="6.46925">
        <ele>1632.3</ele>
        <time>2020-08-18T15:40:35Z</time>
      </trkpt>
      <trkpt lat="44.98221" lon="6.46931">
        <ele>1631.1</ele>
        <time>2020-08-18T15:40:43Z</time>
      </trkpt>
      <trkpt lat="44.9823" lon="6.46935">
        <ele>1628.8</ele>
        <time>2020-08-18T15:40:55Z</time>
      </trkpt>
      <trkpt lat="44.98239" lon="6.46942">
        <ele>1626.7</ele>
        <time>2020-08-18T15:41:11Z</time>
      </trkpt>
      <trkpt lat="44.98249" lon="6.46947">
        <ele>1626.1</ele>
        <time>2020-08-18T15:41:16Z</time>
      </trkpt>
      <trkpt lat="44.98258" lon="6.46952">
        <ele>1625.4</ele>
        <time>2020-08-18T15:41:21Z</time>
      </trkpt>
      <trkpt lat="44.98266" lon="6.4696">
        <ele>1624.5</ele>
        <time>2020-08-18T15:41:27Z</time>
      </trkpt>
      <trkpt lat="44.98274" lon="6.46968">
        <ele>1623.7</ele>
        <time>2020-08-18T15:41:34Z</time>
      </trkpt>
      <trkpt lat="44.98282" lon="6.46976">
        <ele>1622.8</ele>
        <time>2020-08-18T15:41:41Z</time>
      </trkpt>
      <trkpt lat="44.98288" lon="6.46986">
        <ele>1621.9</ele>
        <time>2020-08-18T15:41:49Z</time>
      </trkpt>
      <trkpt lat="44.98296" lon="6.46995">
        <ele>1621.1</ele>
        <time>2020-08-18T15:41:55Z</time>
      </trkpt>
      <trkpt lat="44.98305" lon="6.47">
        <ele>1620.1</ele>
        <time>2020-08-18T15:42:02Z</time>
      </trkpt>
      <trkpt lat="44.98314" lon="6.47005">
        <ele>1619.1</ele>
        <time>2020-08-18T15:42:09Z</time>
      </trkpt>
      <trkpt lat="44.98323" lon="6.47009">
        <ele>1617.8</ele>
        <time>2020-08-18T15:42:17Z</time>
      </trkpt>
      <trkpt lat="44.98332" lon="6.47012">
        <ele>1616.8</ele>
        <time>2020-08-18T15:42:24Z</time>
      </trkpt>
      <trkpt lat="44.9834" lon="6.47018">
        <ele>1615.6</ele>
        <time>2020-08-18T15:42:32Z</time>
      </trkpt>
      <trkpt lat="44.98344" lon="6.4703">
        <ele>1614.3</ele>
        <time>2020-08-18T15:42:40Z</time>
      </trkpt>
      <trkpt lat="44.98343" lon="6.47042">
        <ele>1613.1</ele>
        <time>2020-08-18T15:42:47Z</time>
      </trkpt>
      <trkpt lat="44.98335" lon="6.4705">
        <ele>1612.1</ele>
        <time>2020-08-18T15:42:52Z</time>
      </trkpt>
      <trkpt lat="44.98328" lon="6.47058">
        <ele>1610.4</ele>
        <time>2020-08-18T15:43:02Z</time>
      </trkpt>
      <trkpt lat="44.9832" lon="6.47067">
        <ele>1609.3</ele>
        <time>2020-08-18T15:43:09Z</time>
      </trkpt>
      <trkpt lat="44.98311" lon="6.47075">
        <ele>1608.4</ele>
        <time>2020-08-18T15:43:15Z</time>
      </trkpt>
      <trkpt lat="44.98301" lon="6.47081">
        <ele>1607.4</ele>
        <time>2020-08-18T15:43:22Z</time>
      </trkpt>
      <trkpt lat="44.98308" lon="6.4709">
        <ele>1606.4</ele>
        <time>2020-08-18T15:43:28Z</time>
      </trkpt>
      <trkpt lat="44.98316" lon="6.47098">
        <ele>1605.2</ele>
        <time>2020-08-18T15:43:35Z</time>
      </trkpt>
      <trkpt lat="44.98324" lon="6.47105">
        <ele>1604</ele>
        <time>2020-08-18T15:43:42Z</time>
      </trkpt>
      <trkpt lat="44.9833" lon="6.47095">
        <ele>1602.4</ele>
        <time>2020-08-18T15:43:51Z</time>
      </trkpt>
      <trkpt lat="44.98335" lon="6.47082">
        <ele>1601.2</ele>
        <time>2020-08-18T15:43:58Z</time>
      </trkpt>
      <trkpt lat="44.98344" lon="6.47086">
        <ele>1598.9</ele>
        <time>2020-08-18T15:44:12Z</time>
      </trkpt>
      <trkpt lat="44.98345" lon="6.471">
        <ele>1597.8</ele>
        <time>2020-08-18T15:44:20Z</time>
      </trkpt>
      <trkpt lat="44.98348" lon="6.47113">
        <ele>1597</ele>
        <time>2020-08-18T15:44:26Z</time>
      </trkpt>
      <trkpt lat="44.98356" lon="6.4712">
        <ele>1596</ele>
        <time>2020-08-18T15:44:31Z</time>
      </trkpt>
      <trkpt lat="44.98361" lon="6.47131">
        <ele>1594.3</ele>
        <time>2020-08-18T15:44:42Z</time>
      </trkpt>
      <trkpt lat="44.98367" lon="6.47141">
        <ele>1592.9</ele>
        <time>2020-08-18T15:44:51Z</time>
      </trkpt>
      <trkpt lat="44.98376" lon="6.47149">
        <ele>1591.7</ele>
        <time>2020-08-18T15:44:59Z</time>
      </trkpt>
      <trkpt lat="44.98383" lon="6.4716">
        <ele>1587.3</ele>
        <time>2020-08-18T15:47:22Z</time>
      </trkpt>
      <trkpt lat="44.9839" lon="6.47171">
        <ele>1586.8</ele>
        <time>2020-08-18T15:47:28Z</time>
      </trkpt>
      <trkpt lat="44.98393" lon="6.47183">
        <ele>1586.3</ele>
        <time>2020-08-18T15:47:35Z</time>
      </trkpt>
      <trkpt lat="44.98397" lon="6.47195">
        <ele>1585.7</ele>
        <time>2020-08-18T15:47:43Z</time>
      </trkpt>
      <trkpt lat="44.98403" lon="6.47207">
        <ele>1584.9</ele>
        <time>2020-08-18T15:47:51Z</time>
      </trkpt>
      <trkpt lat="44.9841" lon="6.47218">
        <ele>1584.3</ele>
        <time>2020-08-18T15:47:57Z</time>
      </trkpt>
      <trkpt lat="44.98413" lon="6.47231">
        <ele>1583.7</ele>
        <time>2020-08-18T15:48:03Z</time>
      </trkpt>
      <trkpt lat="44.98418" lon="6.47244">
        <ele>1583.1</ele>
        <time>2020-08-18T15:48:09Z</time>
      </trkpt>
      <trkpt lat="44.98419" lon="6.47257">
        <ele>1582.3</ele>
        <time>2020-08-18T15:48:16Z</time>
      </trkpt>
      <trkpt lat="44.98421" lon="6.47271">
        <ele>1581.4</ele>
        <time>2020-08-18T15:48:23Z</time>
      </trkpt>
      <trkpt lat="44.98426" lon="6.47283">
        <ele>1580.6</ele>
        <time>2020-08-18T15:48:28Z</time>
      </trkpt>
      <trkpt lat="44.98429" lon="6.47297">
        <ele>1579.6</ele>
        <time>2020-08-18T15:48:34Z</time>
      </trkpt>
      <trkpt lat="44.98429" lon="6.4731">
        <ele>1578.4</ele>
        <time>2020-08-18T15:48:42Z</time>
      </trkpt>
      <trkpt lat="44.98431" lon="6.47324">
        <ele>1577.4</ele>
        <time>2020-08-18T15:48:50Z</time>
      </trkpt>
      <trkpt lat="44.98438" lon="6.47336">
        <ele>1576.8</ele>
        <time>2020-08-18T15:48:56Z</time>
      </trkpt>
      <trkpt lat="44.98443" lon="6.47347">
        <ele>1576.5</ele>
        <time>2020-08-18T15:49:01Z</time>
      </trkpt>
      <trkpt lat="44.98447" lon="6.4736">
        <ele>1575.9</ele>
        <time>2020-08-18T15:49:07Z</time>
      </trkpt>
      <trkpt lat="44.98451" lon="6.47373">
        <ele>1575.2</ele>
        <time>2020-08-18T15:49:14Z</time>
      </trkpt>
      <trkpt lat="44.98452" lon="6.47386">
        <ele>1574.3</ele>
        <time>2020-08-18T15:49:23Z</time>
      </trkpt>
      <trkpt lat="44.98456" lon="6.47398">
        <ele>1573.9</ele>
        <time>2020-08-18T15:49:28Z</time>
      </trkpt>
      <trkpt lat="44.98458" lon="6.47412">
        <ele>1573.3</ele>
        <time>2020-08-18T15:49:35Z</time>
      </trkpt>
      <trkpt lat="44.9846" lon="6.47427">
        <ele>1572.7</ele>
        <time>2020-08-18T15:49:43Z</time>
      </trkpt>
      <trkpt lat="44.98457" lon="6.4744">
        <ele>1572</ele>
        <time>2020-08-18T15:49:49Z</time>
      </trkpt>
      <trkpt lat="44.98461" lon="6.47456">
        <ele>1571.2</ele>
        <time>2020-08-18T15:49:56Z</time>
      </trkpt>
      <trkpt lat="44.98464" lon="6.4747">
        <ele>1570.4</ele>
        <time>2020-08-18T15:50:02Z</time>
      </trkpt>
      <trkpt lat="44.98469" lon="6.47484">
        <ele>1569.5</ele>
        <time>2020-08-18T15:50:08Z</time>
      </trkpt>
      <trkpt lat="44.98469" lon="6.47497">
        <ele>1568.7</ele>
        <time>2020-08-18T15:50:16Z</time>
      </trkpt>
      <trkpt lat="44.98471" lon="6.4751">
        <ele>1568.1</ele>
        <time>2020-08-18T15:50:23Z</time>
      </trkpt>
      <trkpt lat="44.98474" lon="6.47523">
        <ele>1567.7</ele>
        <time>2020-08-18T15:50:28Z</time>
      </trkpt>
      <trkpt lat="44.98482" lon="6.47532">
        <ele>1567.1</ele>
        <time>2020-08-18T15:50:35Z</time>
      </trkpt>
      <trkpt lat="44.98489" lon="6.47542">
        <ele>1566.6</ele>
        <time>2020-08-18T15:50:41Z</time>
      </trkpt>
      <trkpt lat="44.98494" lon="6.47552">
        <ele>1566</ele>
        <time>2020-08-18T15:50:48Z</time>
      </trkpt>
      <trkpt lat="44.985" lon="6.47563">
        <ele>1565.5</ele>
        <time>2020-08-18T15:50:55Z</time>
      </trkpt>
      <trkpt lat="44.98502" lon="6.47576">
        <ele>1564.9</ele>
        <time>2020-08-18T15:51:02Z</time>
      </trkpt>
      <trkpt lat="44.98507" lon="6.47589">
        <ele>1564.1</ele>
        <time>2020-08-18T15:51:10Z</time>
      </trkpt>
      <trkpt lat="44.98513" lon="6.47601">
        <ele>1563.4</ele>
        <time>2020-08-18T15:51:17Z</time>
      </trkpt>
      <trkpt lat="44.98518" lon="6.47614">
        <ele>1562.7</ele>
        <time>2020-08-18T15:51:25Z</time>
      </trkpt>
      <trkpt lat="44.98524" lon="6.47627">
        <ele>1562</ele>
        <time>2020-08-18T15:51:32Z</time>
      </trkpt>
      <trkpt lat="44.98527" lon="6.47641">
        <ele>1561.5</ele>
        <time>2020-08-18T15:51:38Z</time>
      </trkpt>
      <trkpt lat="44.98532" lon="6.47653">
        <ele>1561.1</ele>
        <time>2020-08-18T15:51:43Z</time>
      </trkpt>
      <trkpt lat="44.98537" lon="6.47665">
        <ele>1560.7</ele>
        <time>2020-08-18T15:51:49Z</time>
      </trkpt>
      <trkpt lat="44.98541" lon="6.47678">
        <ele>1560</ele>
        <time>2020-08-18T15:51:56Z</time>
      </trkpt>
      <trkpt lat="44.98545" lon="6.47691">
        <ele>1559.3</ele>
        <time>2020-08-18T15:52:03Z</time>
      </trkpt>
      <trkpt lat="44.98544" lon="6.47705">
        <ele>1558.6</ele>
        <time>2020-08-18T15:52:10Z</time>
      </trkpt>
      <trkpt lat="44.98545" lon="6.47719">
        <ele>1557.8</ele>
        <time>2020-08-18T15:52:18Z</time>
      </trkpt>
      <trkpt lat="44.98547" lon="6.47732">
        <ele>1557.2</ele>
        <time>2020-08-18T15:52:26Z</time>
      </trkpt>
      <trkpt lat="44.98549" lon="6.47744">
        <ele>1556.6</ele>
        <time>2020-08-18T15:52:34Z</time>
      </trkpt>
      <trkpt lat="44.98551" lon="6.47757">
        <ele>1556</ele>
        <time>2020-08-18T15:52:43Z</time>
      </trkpt>
      <trkpt lat="44.98553" lon="6.4777">
        <ele>1555.7</ele>
        <time>2020-08-18T15:52:48Z</time>
      </trkpt>
      <trkpt lat="44.98557" lon="6.47781">
        <ele>1555.4</ele>
        <time>2020-08-18T15:52:53Z</time>
      </trkpt>
      <trkpt lat="44.98563" lon="6.47795">
        <ele>1555.1</ele>
        <time>2020-08-18T15:52:59Z</time>
      </trkpt>
      <trkpt lat="44.98568" lon="6.47805">
        <ele>1554.7</ele>
        <time>2020-08-18T15:53:06Z</time>
      </trkpt>
      <trkpt lat="44.98572" lon="6.47817">
        <ele>1554.5</ele>
        <time>2020-08-18T15:53:13Z</time>
      </trkpt>
      <trkpt lat="44.98576" lon="6.47829">
        <ele>1554.4</ele>
        <time>2020-08-18T15:53:18Z</time>
      </trkpt>
      <trkpt lat="44.98582" lon="6.47842">
        <ele>1554.3</ele>
        <time>2020-08-18T15:53:23Z</time>
      </trkpt>
      <trkpt lat="44.98588" lon="6.47852">
        <ele>1554.2</ele>
        <time>2020-08-18T15:53:30Z</time>
      </trkpt>
      <trkpt lat="44.98593" lon="6.47864">
        <ele>1554.1</ele>
        <time>2020-08-18T15:53:39Z</time>
      </trkpt>
      <trkpt lat="44.98599" lon="6.47876">
        <ele>1553.8</ele>
        <time>2020-08-18T15:53:47Z</time>
      </trkpt>
      <trkpt lat="44.98604" lon="6.47888">
        <ele>1553.5</ele>
        <time>2020-08-18T15:53:52Z</time>
      </trkpt>
      <trkpt lat="44.98611" lon="6.47899">
        <ele>1553</ele>
        <time>2020-08-18T15:54:00Z</time>
      </trkpt>
      <trkpt lat="44.98614" lon="6.47911">
        <ele>1552.6</ele>
        <time>2020-08-18T15:54:07Z</time>
      </trkpt>
      <trkpt lat="44.98617" lon="6.47924">
        <ele>1552</ele>
        <time>2020-08-18T15:54:14Z</time>
      </trkpt>
      <trkpt lat="44.98621" lon="6.47939">
        <ele>1551.4</ele>
        <time>2020-08-18T15:54:20Z</time>
      </trkpt>
      <trkpt lat="44.98623" lon="6.47952">
        <ele>1550.9</ele>
        <time>2020-08-18T15:54:26Z</time>
      </trkpt>
      <trkpt lat="44.98627" lon="6.47964">
        <ele>1550.2</ele>
        <time>2020-08-18T15:54:33Z</time>
      </trkpt>
      <trkpt lat="44.9863" lon="6.47977">
        <ele>1549.5</ele>
        <time>2020-08-18T15:54:41Z</time>
      </trkpt>
      <trkpt lat="44.98633" lon="6.4799">
        <ele>1548.7</ele>
        <time>2020-08-18T15:54:48Z</time>
      </trkpt>
      <trkpt lat="44.98638" lon="6.48002">
        <ele>1548.1</ele>
        <time>2020-08-18T15:54:53Z</time>
      </trkpt>
      <trkpt lat="44.98645" lon="6.48013">
        <ele>1547.4</ele>
        <time>2020-08-18T15:55:00Z</time>
      </trkpt>
      <trkpt lat="44.9865" lon="6.48024">
        <ele>1546.9</ele>
        <time>2020-08-18T15:55:07Z</time>
      </trkpt>
      <trkpt lat="44.98655" lon="6.48037">
        <ele>1546.4</ele>
        <time>2020-08-18T15:55:14Z</time>
      </trkpt>
      <trkpt lat="44.9866" lon="6.48048">
        <ele>1546</ele>
        <time>2020-08-18T15:55:20Z</time>
      </trkpt>
      <trkpt lat="44.98668" lon="6.48059">
        <ele>1545.7</ele>
        <time>2020-08-18T15:55:25Z</time>
      </trkpt>
      <trkpt lat="44.98676" lon="6.48067">
        <ele>1545.4</ele>
        <time>2020-08-18T15:55:32Z</time>
      </trkpt>
      <trkpt lat="44.98685" lon="6.48069">
        <ele>1544.8</ele>
        <time>2020-08-18T15:55:41Z</time>
      </trkpt>
      <trkpt lat="44.98694" lon="6.48073">
        <ele>1544.4</ele>
        <time>2020-08-18T15:55:48Z</time>
      </trkpt>
      <trkpt lat="44.98703" lon="6.48075">
        <ele>1543.9</ele>
        <time>2020-08-18T15:55:55Z</time>
      </trkpt>
      <trkpt lat="44.98713" lon="6.4808">
        <ele>1543.5</ele>
        <time>2020-08-18T15:56:00Z</time>
      </trkpt>
      <trkpt lat="44.98722" lon="6.48085">
        <ele>1543.2</ele>
        <time>2020-08-18T15:56:05Z</time>
      </trkpt>
      <trkpt lat="44.98731" lon="6.48092">
        <ele>1542.9</ele>
        <time>2020-08-18T15:56:12Z</time>
      </trkpt>
      <trkpt lat="44.9874" lon="6.48099">
        <ele>1542.7</ele>
        <time>2020-08-18T15:56:19Z</time>
      </trkpt>
      <trkpt lat="44.98746" lon="6.48111">
        <ele>1542.6</ele>
        <time>2020-08-18T15:56:26Z</time>
      </trkpt>
      <trkpt lat="44.98751" lon="6.48122">
        <ele>1542.5</ele>
        <time>2020-08-18T15:56:32Z</time>
      </trkpt>
      <trkpt lat="44.98753" lon="6.48136">
        <ele>1542.4</ele>
        <time>2020-08-18T15:56:38Z</time>
      </trkpt>
      <trkpt lat="44.98752" lon="6.48149">
        <ele>1542.3</ele>
        <time>2020-08-18T15:56:45Z</time>
      </trkpt>
      <trkpt lat="44.98752" lon="6.48163">
        <ele>1542.3</ele>
        <time>2020-08-18T15:56:52Z</time>
      </trkpt>
      <trkpt lat="44.98747" lon="6.48175">
        <ele>1542.3</ele>
        <time>2020-08-18T15:56:58Z</time>
      </trkpt>
      <trkpt lat="44.9874" lon="6.48185">
        <ele>1542.3</ele>
        <time>2020-08-18T15:57:05Z</time>
      </trkpt>
      <trkpt lat="44.98734" lon="6.48196">
        <ele>1542.4</ele>
        <time>2020-08-18T15:57:12Z</time>
      </trkpt>
      <trkpt lat="44.98725" lon="6.48203">
        <ele>1542.3</ele>
        <time>2020-08-18T15:57:18Z</time>
      </trkpt>
      <trkpt lat="44.98715" lon="6.48209">
        <ele>1542.1</ele>
        <time>2020-08-18T15:57:23Z</time>
      </trkpt>
      <trkpt lat="44.98706" lon="6.48216">
        <ele>1541.9</ele>
        <time>2020-08-18T15:57:28Z</time>
      </trkpt>
      <trkpt lat="44.98696" lon="6.48217">
        <ele>1541.4</ele>
        <time>2020-08-18T15:57:37Z</time>
      </trkpt>
      <trkpt lat="44.98687" lon="6.48224">
        <ele>1540.7</ele>
        <time>2020-08-18T15:57:44Z</time>
      </trkpt>
      <trkpt lat="44.98679" lon="6.48233">
        <ele>1540</ele>
        <time>2020-08-18T15:57:51Z</time>
      </trkpt>
      <trkpt lat="44.98672" lon="6.48243">
        <ele>1539.5</ele>
        <time>2020-08-18T15:57:57Z</time>
      </trkpt>
      <trkpt lat="44.98666" lon="6.48253">
        <ele>1539.1</ele>
        <time>2020-08-18T15:58:03Z</time>
      </trkpt>
      <trkpt lat="44.9866" lon="6.48264">
        <ele>1538.7</ele>
        <time>2020-08-18T15:58:10Z</time>
      </trkpt>
      <trkpt lat="44.98651" lon="6.48261">
        <ele>1538.4</ele>
        <time>2020-08-18T15:58:16Z</time>
      </trkpt>
      <trkpt lat="44.98642" lon="6.48261">
        <ele>1538.1</ele>
        <time>2020-08-18T15:58:22Z</time>
      </trkpt>
      <trkpt lat="44.98633" lon="6.48268">
        <ele>1537.8</ele>
        <time>2020-08-18T15:58:30Z</time>
      </trkpt>
      <trkpt lat="44.98624" lon="6.48276">
        <ele>1537.3</ele>
        <time>2020-08-18T15:58:36Z</time>
      </trkpt>
      <trkpt lat="44.98615" lon="6.48278">
        <ele>1537</ele>
        <time>2020-08-18T15:58:42Z</time>
      </trkpt>
      <trkpt lat="44.98605" lon="6.48282">
        <ele>1536.8</ele>
        <time>2020-08-18T15:58:47Z</time>
      </trkpt>
      <trkpt lat="44.98595" lon="6.48284">
        <ele>1536.5</ele>
        <time>2020-08-18T15:58:54Z</time>
      </trkpt>
      <trkpt lat="44.98586" lon="6.48283">
        <ele>1536.4</ele>
        <time>2020-08-18T15:58:59Z</time>
      </trkpt>
      <trkpt lat="44.98577" lon="6.48282">
        <ele>1536.3</ele>
        <time>2020-08-18T15:59:04Z</time>
      </trkpt>
      <trkpt lat="44.98568" lon="6.48282">
        <ele>1536.4</ele>
        <time>2020-08-18T15:59:12Z</time>
      </trkpt>
      <trkpt lat="44.98559" lon="6.48286">
        <ele>1536.7</ele>
        <time>2020-08-18T15:59:18Z</time>
      </trkpt>
      <trkpt lat="44.98551" lon="6.48292">
        <ele>1537</ele>
        <time>2020-08-18T15:59:25Z</time>
      </trkpt>
      <trkpt lat="44.98542" lon="6.48298">
        <ele>1537.2</ele>
        <time>2020-08-18T15:59:32Z</time>
      </trkpt>
      <trkpt lat="44.98532" lon="6.48305">
        <ele>1537.3</ele>
        <time>2020-08-18T15:59:38Z</time>
      </trkpt>
      <trkpt lat="44.98523" lon="6.48309">
        <ele>1537.4</ele>
        <time>2020-08-18T15:59:44Z</time>
      </trkpt>
      <trkpt lat="44.98515" lon="6.48315">
        <ele>1537.5</ele>
        <time>2020-08-18T15:59:50Z</time>
      </trkpt>
      <trkpt lat="44.98506" lon="6.48321">
        <ele>1537.5</ele>
        <time>2020-08-18T15:59:56Z</time>
      </trkpt>
      <trkpt lat="44.98498" lon="6.4833">
        <ele>1537.5</ele>
        <time>2020-08-18T16:00:03Z</time>
      </trkpt>
      <trkpt lat="44.9849" lon="6.48338">
        <ele>1537.6</ele>
        <time>2020-08-18T16:00:09Z</time>
      </trkpt>
      <trkpt lat="44.98481" lon="6.48342">
        <ele>1537.6</ele>
        <time>2020-08-18T16:00:15Z</time>
      </trkpt>
      <trkpt lat="44.98471" lon="6.48344">
        <ele>1537.5</ele>
        <time>2020-08-18T16:00:22Z</time>
      </trkpt>
      <trkpt lat="44.98461" lon="6.48348">
        <ele>1537.3</ele>
        <time>2020-08-18T16:00:29Z</time>
      </trkpt>
      <trkpt lat="44.98453" lon="6.48354">
        <ele>1537.1</ele>
        <time>2020-08-18T16:00:35Z</time>
      </trkpt>
      <trkpt lat="44.98443" lon="6.48357">
        <ele>1536.8</ele>
        <time>2020-08-18T16:00:43Z</time>
      </trkpt>
      <trkpt lat="44.98433" lon="6.48362">
        <ele>1536.5</ele>
        <time>2020-08-18T16:00:50Z</time>
      </trkpt>
      <trkpt lat="44.98424" lon="6.48366">
        <ele>1536.2</ele>
        <time>2020-08-18T16:00:56Z</time>
      </trkpt>
      <trkpt lat="44.98415" lon="6.48371">
        <ele>1536</ele>
        <time>2020-08-18T16:01:02Z</time>
      </trkpt>
      <trkpt lat="44.98405" lon="6.48374">
        <ele>1535.8</ele>
        <time>2020-08-18T16:01:08Z</time>
      </trkpt>
      <trkpt lat="44.98397" lon="6.48383">
        <ele>1535.5</ele>
        <time>2020-08-18T16:01:15Z</time>
      </trkpt>
      <trkpt lat="44.98393" lon="6.48396">
        <ele>1535</ele>
        <time>2020-08-18T16:01:22Z</time>
      </trkpt>
      <trkpt lat="44.98388" lon="6.48409">
        <ele>1534.1</ele>
        <time>2020-08-18T16:01:29Z</time>
      </trkpt>
      <trkpt lat="44.98381" lon="6.48419">
        <ele>1533.4</ele>
        <time>2020-08-18T16:01:36Z</time>
      </trkpt>
      <trkpt lat="44.98372" lon="6.48426">
        <ele>1533</ele>
        <time>2020-08-18T16:01:41Z</time>
      </trkpt>
      <trkpt lat="44.98365" lon="6.48434">
        <ele>1532.5</ele>
        <time>2020-08-18T16:01:47Z</time>
      </trkpt>
      <trkpt lat="44.98357" lon="6.48442">
        <ele>1531.9</ele>
        <time>2020-08-18T16:01:54Z</time>
      </trkpt>
      <trkpt lat="44.98353" lon="6.48454">
        <ele>1531.1</ele>
        <time>2020-08-18T16:02:02Z</time>
      </trkpt>
      <trkpt lat="44.98349" lon="6.48467">
        <ele>1530.6</ele>
        <time>2020-08-18T16:02:10Z</time>
      </trkpt>
      <trkpt lat="44.98344" lon="6.48478">
        <ele>1530.2</ele>
        <time>2020-08-18T16:02:16Z</time>
      </trkpt>
      <trkpt lat="44.9834" lon="6.48492">
        <ele>1529.8</ele>
        <time>2020-08-18T16:02:23Z</time>
      </trkpt>
      <trkpt lat="44.98333" lon="6.48503">
        <ele>1529.4</ele>
        <time>2020-08-18T16:02:29Z</time>
      </trkpt>
      <trkpt lat="44.98329" lon="6.48515">
        <ele>1529</ele>
        <time>2020-08-18T16:02:36Z</time>
      </trkpt>
      <trkpt lat="44.98322" lon="6.48525">
        <ele>1528.7</ele>
        <time>2020-08-18T16:02:41Z</time>
      </trkpt>
      <trkpt lat="44.98314" lon="6.4853">
        <ele>1528.5</ele>
        <time>2020-08-18T16:02:47Z</time>
      </trkpt>
      <trkpt lat="44.98304" lon="6.48538">
        <ele>1528.3</ele>
        <time>2020-08-18T16:02:54Z</time>
      </trkpt>
      <trkpt lat="44.98297" lon="6.48548">
        <ele>1528.2</ele>
        <time>2020-08-18T16:03:01Z</time>
      </trkpt>
      <trkpt lat="44.98289" lon="6.48557">
        <ele>1528.1</ele>
        <time>2020-08-18T16:03:07Z</time>
      </trkpt>
      <trkpt lat="44.98286" lon="6.4857">
        <ele>1528.1</ele>
        <time>2020-08-18T16:03:12Z</time>
      </trkpt>
      <trkpt lat="44.98285" lon="6.48583">
        <ele>1528</ele>
        <time>2020-08-18T16:03:19Z</time>
      </trkpt>
      <trkpt lat="44.9828" lon="6.48595">
        <ele>1527.9</ele>
        <time>2020-08-18T16:03:26Z</time>
      </trkpt>
      <trkpt lat="44.98274" lon="6.48607">
        <ele>1527.8</ele>
        <time>2020-08-18T16:03:32Z</time>
      </trkpt>
      <trkpt lat="44.9827" lon="6.48619">
        <ele>1527.7</ele>
        <time>2020-08-18T16:03:38Z</time>
      </trkpt>
      <trkpt lat="44.98269" lon="6.48633">
        <ele>1527.6</ele>
        <time>2020-08-18T16:03:43Z</time>
      </trkpt>
      <trkpt lat="44.98266" lon="6.48645">
        <ele>1527.4</ele>
        <time>2020-08-18T16:03:49Z</time>
      </trkpt>
      <trkpt lat="44.98262" lon="6.48659">
        <ele>1527.1</ele>
        <time>2020-08-18T16:03:56Z</time>
      </trkpt>
      <trkpt lat="44.98261" lon="6.48672">
        <ele>1526.7</ele>
        <time>2020-08-18T16:04:03Z</time>
      </trkpt>
      <trkpt lat="44.98257" lon="6.48685">
        <ele>1526.3</ele>
        <time>2020-08-18T16:04:09Z</time>
      </trkpt>
      <trkpt lat="44.98256" lon="6.48699">
        <ele>1525.7</ele>
        <time>2020-08-18T16:04:17Z</time>
      </trkpt>
      <trkpt lat="44.98254" lon="6.48712">
        <ele>1525.3</ele>
        <time>2020-08-18T16:04:23Z</time>
      </trkpt>
      <trkpt lat="44.9825" lon="6.48724">
        <ele>1524.8</ele>
        <time>2020-08-18T16:04:29Z</time>
      </trkpt>
      <trkpt lat="44.98246" lon="6.48738">
        <ele>1524.4</ele>
        <time>2020-08-18T16:04:36Z</time>
      </trkpt>
      <trkpt lat="44.98241" lon="6.48748">
        <ele>1524.2</ele>
        <time>2020-08-18T16:04:41Z</time>
      </trkpt>
      <trkpt lat="44.98235" lon="6.4876">
        <ele>1523.7</ele>
        <time>2020-08-18T16:04:47Z</time>
      </trkpt>
      <trkpt lat="44.98228" lon="6.48769">
        <ele>1523.4</ele>
        <time>2020-08-18T16:04:53Z</time>
      </trkpt>
      <trkpt lat="44.98221" lon="6.4878">
        <ele>1523.2</ele>
        <time>2020-08-18T16:04:59Z</time>
      </trkpt>
      <trkpt lat="44.98215" lon="6.48792">
        <ele>1523</ele>
        <time>2020-08-18T16:05:05Z</time>
      </trkpt>
      <trkpt lat="44.98211" lon="6.48803">
        <ele>1522.8</ele>
        <time>2020-08-18T16:05:11Z</time>
      </trkpt>
      <trkpt lat="44.9821" lon="6.48817">
        <ele>1522.7</ele>
        <time>2020-08-18T16:05:17Z</time>
      </trkpt>
      <trkpt lat="44.98206" lon="6.48828">
        <ele>1522.6</ele>
        <time>2020-08-18T16:05:23Z</time>
      </trkpt>
      <trkpt lat="44.98204" lon="6.48843">
        <ele>1522.5</ele>
        <time>2020-08-18T16:05:30Z</time>
      </trkpt>
      <trkpt lat="44.98201" lon="6.48856">
        <ele>1522.4</ele>
        <time>2020-08-18T16:05:36Z</time>
      </trkpt>
      <trkpt lat="44.98197" lon="6.48868">
        <ele>1522.3</ele>
        <time>2020-08-18T16:05:42Z</time>
      </trkpt>
      <trkpt lat="44.98196" lon="6.48881">
        <ele>1522.2</ele>
        <time>2020-08-18T16:05:48Z</time>
      </trkpt>
      <trkpt lat="44.98191" lon="6.48894">
        <ele>1522.1</ele>
        <time>2020-08-18T16:05:55Z</time>
      </trkpt>
      <trkpt lat="44.98187" lon="6.48907">
        <ele>1522</ele>
        <time>2020-08-18T16:06:02Z</time>
      </trkpt>
      <trkpt lat="44.98181" lon="6.48918">
        <ele>1521.9</ele>
        <time>2020-08-18T16:06:08Z</time>
      </trkpt>
      <trkpt lat="44.98173" lon="6.48927">
        <ele>1521.6</ele>
        <time>2020-08-18T16:06:14Z</time>
      </trkpt>
      <trkpt lat="44.98167" lon="6.48939">
        <ele>1521.3</ele>
        <time>2020-08-18T16:06:20Z</time>
      </trkpt>
      <trkpt lat="44.98161" lon="6.48949">
        <ele>1520.9</ele>
        <time>2020-08-18T16:06:26Z</time>
      </trkpt>
      <trkpt lat="44.98153" lon="6.48955">
        <ele>1520.6</ele>
        <time>2020-08-18T16:06:32Z</time>
      </trkpt>
      <trkpt lat="44.98143" lon="6.4896">
        <ele>1520.3</ele>
        <time>2020-08-18T16:06:39Z</time>
      </trkpt>
      <trkpt lat="44.98133" lon="6.48966">
        <ele>1520.1</ele>
        <time>2020-08-18T16:06:46Z</time>
      </trkpt>
      <trkpt lat="44.98124" lon="6.4897">
        <ele>1519.9</ele>
        <time>2020-08-18T16:06:51Z</time>
      </trkpt>
      <trkpt lat="44.98115" lon="6.48976">
        <ele>1519.7</ele>
        <time>2020-08-18T16:06:57Z</time>
      </trkpt>
      <trkpt lat="44.98107" lon="6.48982">
        <ele>1519.4</ele>
        <time>2020-08-18T16:07:03Z</time>
      </trkpt>
      <trkpt lat="44.98097" lon="6.48987">
        <ele>1519.1</ele>
        <time>2020-08-18T16:07:09Z</time>
      </trkpt>
      <trkpt lat="44.98087" lon="6.48992">
        <ele>1519</ele>
        <time>2020-08-18T16:07:14Z</time>
      </trkpt>
      <trkpt lat="44.98078" lon="6.48998">
        <ele>1518.8</ele>
        <time>2020-08-18T16:07:19Z</time>
      </trkpt>
      <trkpt lat="44.98069" lon="6.49003">
        <ele>1518.7</ele>
        <time>2020-08-18T16:07:24Z</time>
      </trkpt>
      <trkpt lat="44.9806" lon="6.4901">
        <ele>1518.5</ele>
        <time>2020-08-18T16:07:30Z</time>
      </trkpt>
      <trkpt lat="44.98052" lon="6.49019">
        <ele>1518.3</ele>
        <time>2020-08-18T16:07:37Z</time>
      </trkpt>
      <trkpt lat="44.98046" lon="6.49028">
        <ele>1518</ele>
        <time>2020-08-18T16:07:43Z</time>
      </trkpt>
      <trkpt lat="44.98041" lon="6.4904">
        <ele>1517.4</ele>
        <time>2020-08-18T16:07:50Z</time>
      </trkpt>
      <trkpt lat="44.98035" lon="6.49052">
        <ele>1516.8</ele>
        <time>2020-08-18T16:07:57Z</time>
      </trkpt>
      <trkpt lat="44.98031" lon="6.49065">
        <ele>1516.1</ele>
        <time>2020-08-18T16:08:04Z</time>
      </trkpt>
      <trkpt lat="44.98027" lon="6.49076">
        <ele>1515.7</ele>
        <time>2020-08-18T16:08:09Z</time>
      </trkpt>
      <trkpt lat="44.98022" lon="6.49086">
        <ele>1515.3</ele>
        <time>2020-08-18T16:08:14Z</time>
      </trkpt>
      <trkpt lat="44.98016" lon="6.49098">
        <ele>1515</ele>
        <time>2020-08-18T16:08:19Z</time>
      </trkpt>
      <trkpt lat="44.98016" lon="6.49111">
        <ele>1514.6</ele>
        <time>2020-08-18T16:08:25Z</time>
      </trkpt>
      <trkpt lat="44.9801" lon="6.49122">
        <ele>1514.2</ele>
        <time>2020-08-18T16:08:31Z</time>
      </trkpt>
      <trkpt lat="44.98005" lon="6.49134">
        <ele>1513.8</ele>
        <time>2020-08-18T16:08:37Z</time>
      </trkpt>
      <trkpt lat="44.98002" lon="6.49147">
        <ele>1513.4</ele>
        <time>2020-08-18T16:08:44Z</time>
      </trkpt>
      <trkpt lat="44.98006" lon="6.49161">
        <ele>1513.2</ele>
        <time>2020-08-18T16:08:50Z</time>
      </trkpt>
      <trkpt lat="44.98004" lon="6.49176">
        <ele>1512.9</ele>
        <time>2020-08-18T16:08:57Z</time>
      </trkpt>
      <trkpt lat="44.98003" lon="6.49189">
        <ele>1512.7</ele>
        <time>2020-08-18T16:09:03Z</time>
      </trkpt>
      <trkpt lat="44.98002" lon="6.49202">
        <ele>1512.4</ele>
        <time>2020-08-18T16:09:09Z</time>
      </trkpt>
      <trkpt lat="44.98" lon="6.49215">
        <ele>1512.1</ele>
        <time>2020-08-18T16:09:15Z</time>
      </trkpt>
      <trkpt lat="44.97993" lon="6.49226">
        <ele>1511.8</ele>
        <time>2020-08-18T16:09:21Z</time>
      </trkpt>
      <trkpt lat="44.97987" lon="6.49238">
        <ele>1511.6</ele>
        <time>2020-08-18T16:09:27Z</time>
      </trkpt>
      <trkpt lat="44.9798" lon="6.49249">
        <ele>1511.4</ele>
        <time>2020-08-18T16:09:33Z</time>
      </trkpt>
      <trkpt lat="44.97976" lon="6.49261">
        <ele>1511.2</ele>
        <time>2020-08-18T16:09:40Z</time>
      </trkpt>
      <trkpt lat="44.9797" lon="6.49272">
        <ele>1511.1</ele>
        <time>2020-08-18T16:09:46Z</time>
      </trkpt>
      <trkpt lat="44.97966" lon="6.49285">
        <ele>1510.8</ele>
        <time>2020-08-18T16:09:53Z</time>
      </trkpt>
      <trkpt lat="44.97961" lon="6.49296">
        <ele>1510.5</ele>
        <time>2020-08-18T16:09:59Z</time>
      </trkpt>
      <trkpt lat="44.97955" lon="6.49307">
        <ele>1510.1</ele>
        <time>2020-08-18T16:10:06Z</time>
      </trkpt>
      <trkpt lat="44.9795" lon="6.4932">
        <ele>1509.7</ele>
        <time>2020-08-18T16:10:13Z</time>
      </trkpt>
      <trkpt lat="44.97944" lon="6.4933">
        <ele>1509.5</ele>
        <time>2020-08-18T16:10:19Z</time>
      </trkpt>
      <trkpt lat="44.97941" lon="6.49343">
        <ele>1509.2</ele>
        <time>2020-08-18T16:10:26Z</time>
      </trkpt>
      <trkpt lat="44.9794" lon="6.49356">
        <ele>1508.9</ele>
        <time>2020-08-18T16:10:33Z</time>
      </trkpt>
      <trkpt lat="44.97934" lon="6.49368">
        <ele>1508.4</ele>
        <time>2020-08-18T16:10:40Z</time>
      </trkpt>
      <trkpt lat="44.97926" lon="6.49378">
        <ele>1508</ele>
        <time>2020-08-18T16:10:47Z</time>
      </trkpt>
      <trkpt lat="44.97919" lon="6.49388">
        <ele>1507.7</ele>
        <time>2020-08-18T16:10:53Z</time>
      </trkpt>
      <trkpt lat="44.97919" lon="6.49401">
        <ele>1507.3</ele>
        <time>2020-08-18T16:11:00Z</time>
      </trkpt>
      <trkpt lat="44.97914" lon="6.49414">
        <ele>1506.9</ele>
        <time>2020-08-18T16:11:07Z</time>
      </trkpt>
      <trkpt lat="44.9791" lon="6.49427">
        <ele>1506.5</ele>
        <time>2020-08-18T16:11:14Z</time>
      </trkpt>
      <trkpt lat="44.97906" lon="6.49438">
        <ele>1506.3</ele>
        <time>2020-08-18T16:11:20Z</time>
      </trkpt>
      <trkpt lat="44.979" lon="6.49449">
        <ele>1506</ele>
        <time>2020-08-18T16:11:26Z</time>
      </trkpt>
      <trkpt lat="44.97896" lon="6.4946">
        <ele>1505.8</ele>
        <time>2020-08-18T16:11:32Z</time>
      </trkpt>
      <trkpt lat="44.97894" lon="6.49474">
        <ele>1505.4</ele>
        <time>2020-08-18T16:11:39Z</time>
      </trkpt>
      <trkpt lat="44.97889" lon="6.49487">
        <ele>1505.1</ele>
        <time>2020-08-18T16:11:46Z</time>
      </trkpt>
      <trkpt lat="44.97886" lon="6.495">
        <ele>1504.8</ele>
        <time>2020-08-18T16:11:53Z</time>
      </trkpt>
      <trkpt lat="44.97883" lon="6.49515">
        <ele>1504.4</ele>
        <time>2020-08-18T16:12:00Z</time>
      </trkpt>
      <trkpt lat="44.97876" lon="6.49526">
        <ele>1504.2</ele>
        <time>2020-08-18T16:12:06Z</time>
      </trkpt>
      <trkpt lat="44.97873" lon="6.49539">
        <ele>1503.9</ele>
        <time>2020-08-18T16:12:14Z</time>
      </trkpt>
      <trkpt lat="44.97867" lon="6.49552">
        <ele>1503.7</ele>
        <time>2020-08-18T16:12:21Z</time>
      </trkpt>
      <trkpt lat="44.97863" lon="6.49564">
        <ele>1503.3</ele>
        <time>2020-08-18T16:12:28Z</time>
      </trkpt>
      <trkpt lat="44.97859" lon="6.49577">
        <ele>1503.1</ele>
        <time>2020-08-18T16:12:35Z</time>
      </trkpt>
      <trkpt lat="44.97854" lon="6.49589">
        <ele>1502.9</ele>
        <time>2020-08-18T16:12:41Z</time>
      </trkpt>
      <trkpt lat="44.97849" lon="6.49601">
        <ele>1502.7</ele>
        <time>2020-08-18T16:12:48Z</time>
      </trkpt>
      <trkpt lat="44.97844" lon="6.49614">
        <ele>1502.5</ele>
        <time>2020-08-18T16:12:55Z</time>
      </trkpt>
      <trkpt lat="44.9784" lon="6.49626">
        <ele>1502.4</ele>
        <time>2020-08-18T16:13:01Z</time>
      </trkpt>
      <trkpt lat="44.97832" lon="6.49634">
        <ele>1502.2</ele>
        <time>2020-08-18T16:13:07Z</time>
      </trkpt>
      <trkpt lat="44.97832" lon="6.49648">
        <ele>1502</ele>
        <time>2020-08-18T16:13:14Z</time>
      </trkpt>
      <trkpt lat="44.97841" lon="6.49657">
        <ele>1501.9</ele>
        <time>2020-08-18T16:13:19Z</time>
      </trkpt>
      <trkpt lat="44.9785" lon="6.49659">
        <ele>1501.8</ele>
        <time>2020-08-18T16:13:25Z</time>
      </trkpt>
      <trkpt lat="44.97859" lon="6.49655">
        <ele>1501.7</ele>
        <time>2020-08-18T16:13:32Z</time>
      </trkpt>
      <trkpt lat="44.97867" lon="6.49648">
        <ele>1501.6</ele>
        <time>2020-08-18T16:13:40Z</time>
      </trkpt>
      <trkpt lat="44.97869" lon="6.49632">
        <ele>1501.3</ele>
        <time>2020-08-18T16:13:53Z</time>
      </trkpt>
      <trkpt lat="44.97869" lon="6.49617">
        <ele>1499.8</ele>
        <time>2020-08-18T16:14:28Z</time>
      </trkpt>
      <trkpt lat="44.97878" lon="6.49623">
        <ele>1499.4</ele>
        <time>2020-08-18T16:15:21Z</time>
      </trkpt>
      <trkpt lat="44.97873" lon="6.49633">
        <ele>1497.5</ele>
        <time>2020-08-18T16:16:17Z</time>
      </trkpt>
      <trkpt lat="44.97869" lon="6.49646">
        <ele>1497.7</ele>
        <time>2020-08-18T16:16:25Z</time>
      </trkpt>
      <trkpt lat="44.97877" lon="6.49654">
        <ele>1498</ele>
        <time>2020-08-18T16:16:33Z</time>
      </trkpt>
      <trkpt lat="44.97886" lon="6.49653">
        <ele>1498.3</ele>
        <time>2020-08-18T16:16:41Z</time>
      </trkpt>
      <trkpt lat="44.97896" lon="6.49651">
        <ele>1498.4</ele>
        <time>2020-08-18T16:16:48Z</time>
      </trkpt>
      <trkpt lat="44.97905" lon="6.49648">
        <ele>1498.8</ele>
        <time>2020-08-18T16:16:55Z</time>
      </trkpt>
      <trkpt lat="44.97915" lon="6.49649">
        <ele>1499.1</ele>
        <time>2020-08-18T16:17:02Z</time>
      </trkpt>
      <trkpt lat="44.97924" lon="6.49652">
        <ele>1499.3</ele>
        <time>2020-08-18T16:17:09Z</time>
      </trkpt>
      <trkpt lat="44.97928" lon="6.49664">
        <ele>1499.6</ele>
        <time>2020-08-18T16:17:16Z</time>
      </trkpt>
      <trkpt lat="44.97932" lon="6.49676">
        <ele>1500.8</ele>
        <time>2020-08-18T16:17:28Z</time>
      </trkpt>
      <trkpt lat="44.97934" lon="6.49689">
        <ele>1501.3</ele>
        <time>2020-08-18T16:17:35Z</time>
      </trkpt>
      <trkpt lat="44.97936" lon="6.49703">
        <ele>1501.7</ele>
        <time>2020-08-18T16:17:42Z</time>
      </trkpt>
      <trkpt lat="44.9794" lon="6.49715">
        <ele>1502.1</ele>
        <time>2020-08-18T16:17:49Z</time>
      </trkpt>
      <trkpt lat="44.97944" lon="6.49727">
        <ele>1502.5</ele>
        <time>2020-08-18T16:17:56Z</time>
      </trkpt>
      <trkpt lat="44.9795" lon="6.49737">
        <ele>1503.2</ele>
        <time>2020-08-18T16:18:03Z</time>
      </trkpt>
      <trkpt lat="44.97956" lon="6.49748">
        <ele>1503.8</ele>
        <time>2020-08-18T16:18:11Z</time>
      </trkpt>
      <trkpt lat="44.97959" lon="6.49761">
        <ele>1504.4</ele>
        <time>2020-08-18T16:18:19Z</time>
      </trkpt>
      <trkpt lat="44.97962" lon="6.49774">
        <ele>1505.1</ele>
        <time>2020-08-18T16:18:27Z</time>
      </trkpt>
      <trkpt lat="44.97969" lon="6.49785">
        <ele>1506.5</ele>
        <time>2020-08-18T16:18:40Z</time>
      </trkpt>
      <trkpt lat="44.97976" lon="6.49793">
        <ele>1507.1</ele>
        <time>2020-08-18T16:18:47Z</time>
      </trkpt>
      <trkpt lat="44.97983" lon="6.498">
        <ele>1507.7</ele>
        <time>2020-08-18T16:18:54Z</time>
      </trkpt>
      <trkpt lat="44.97992" lon="6.49796">
        <ele>1508.6</ele>
        <time>2020-08-18T16:19:06Z</time>
      </trkpt>
      <trkpt lat="44.97996" lon="6.49791">
        <ele>1507.7</ele>
        <time>2020-08-18T16:21:26Z</time>
      </trkpt>
    </trkseg>
  </trk>
</gpx>